<?xml version="1.0" encoding="UTF-8"?>
<gpx version="1.1" creator="https://www.youtrack.es" xsi:schemaLocation="http://www.topografix.com/GPX/1/1 http://www.topografix.com/GPX/1/1/gpx.xsd http://www.garmin.com/xmlschemas/GpxExtensions/v3 http://www.garmin.com/xmlschemas/GpxExtensionsv3.xsd http://www.garmin.com/xmlschemas/TrackPointExtension/v1 http://www.garmin.com/xmlschemas/TrackPointExtensionv1.xsd" xmlns:gpxtpx="http://www.garmin.com/xmlschemas/TrackPointExtension/v1" xmlns:gpxx="http://www.garmin.com/xmlschemas/GpxExtensions/v3" xmlns:xsi="http://www.w3.org/2001/XMLSchema-instance">
  <metadata>
    <link href="https://www.youtrack.es">
      <text>YouTrack.es</text>
    </link>
    <time>2026-05-09T03:38:50Z</time>
  </metadata>
  <trk>
    <src>https://www.youtrack.es</src>
    <link href="https://www.youtrack.es/ruta/13548-camisantiagocastello">
      <text>YouTrack.es</text>
    </link>
    <trkseg>
      <trkpt lat="39.987083031" lon="-0.021765037">
        <ele>17.393000</ele>
        <time>2012-04-21T06:13:45Z</time>
      </trkpt>
      <trkpt lat="39.987137010" lon="-0.021880036">
        <ele>16.765000</ele>
        <time>2012-04-21T06:14:02Z</time>
      </trkpt>
      <trkpt lat="39.987444961" lon="-0.021893028">
        <ele>15.021000</ele>
        <time>2012-04-21T06:14:30Z</time>
      </trkpt>
      <trkpt lat="39.989192002" lon="-0.021699993">
        <ele>13.908000</ele>
        <time>2012-04-21T06:16:53Z</time>
      </trkpt>
      <trkpt lat="39.990938036" lon="-0.020559970">
        <ele>12.481000</ele>
        <time>2012-04-21T06:19:19Z</time>
      </trkpt>
      <trkpt lat="39.992720028" lon="-0.020242967">
        <ele>12.524000</ele>
        <time>2012-04-21T06:21:35Z</time>
      </trkpt>
      <trkpt lat="39.994334970" lon="-0.020870017">
        <ele>10.690000</ele>
        <time>2012-04-21T06:23:37Z</time>
      </trkpt>
      <trkpt lat="39.995717984" lon="-0.021027010">
        <ele>13.295000</ele>
        <time>2012-04-21T06:25:22Z</time>
      </trkpt>
      <trkpt lat="39.996677041" lon="-0.020946963">
        <ele>12.610000</ele>
        <time>2012-04-21T06:26:50Z</time>
      </trkpt>
      <trkpt lat="39.997073002" lon="-0.020214971">
        <ele>13.775000</ele>
        <time>2012-04-21T06:28:47Z</time>
      </trkpt>
      <trkpt lat="39.996958002" lon="-0.020501968">
        <ele>12.418000</ele>
        <time>2012-04-21T06:28:58Z</time>
      </trkpt>
      <trkpt lat="39.997250028" lon="-0.020629959">
        <ele>11.936000</ele>
        <time>2012-04-21T06:29:57Z</time>
      </trkpt>
      <trkpt lat="39.998863041" lon="-0.020528035">
        <ele>12.925000</ele>
        <time>2012-04-21T06:32:31Z</time>
      </trkpt>
      <trkpt lat="40.002191998" lon="-0.021566972">
        <ele>12.526000</ele>
        <time>2012-04-21T06:36:43Z</time>
      </trkpt>
      <trkpt lat="40.003617005" lon="-0.022392003">
        <ele>12.608000</ele>
        <time>2012-04-21T06:38:37Z</time>
      </trkpt>
      <trkpt lat="40.004302980" lon="-0.022561988">
        <ele>12.208000</ele>
        <time>2012-04-21T06:39:29Z</time>
      </trkpt>
      <trkpt lat="40.005055005" lon="-0.022278009">
        <ele>13.444000</ele>
        <time>2012-04-21T06:40:30Z</time>
      </trkpt>
      <trkpt lat="40.006022025" lon="-0.022182958">
        <ele>7.977000</ele>
        <time>2012-04-21T06:41:40Z</time>
      </trkpt>
      <trkpt lat="40.006887959" lon="-0.021487009">
        <ele>8.373000</ele>
        <time>2012-04-21T06:42:57Z</time>
      </trkpt>
      <trkpt lat="40.007183002" lon="-0.022001993">
        <ele>8.238000</ele>
        <time>2012-04-21T06:43:34Z</time>
      </trkpt>
      <trkpt lat="40.007986994" lon="-0.021439986">
        <ele>9.393000</ele>
        <time>2012-04-21T06:44:48Z</time>
      </trkpt>
      <trkpt lat="40.008862987" lon="-0.021541994">
        <ele>8.638000</ele>
        <time>2012-04-21T06:45:56Z</time>
      </trkpt>
      <trkpt lat="40.010239966" lon="-0.021464964">
        <ele>5.471000</ele>
        <time>2012-04-21T06:47:32Z</time>
      </trkpt>
      <trkpt lat="40.011346964" lon="-0.021103034">
        <ele>6.979000</ele>
        <time>2012-04-21T06:48:57Z</time>
      </trkpt>
      <trkpt lat="40.012552030" lon="-0.020919973">
        <ele>4.314000</ele>
        <time>2012-04-21T06:50:26Z</time>
      </trkpt>
      <trkpt lat="40.014102012" lon="-0.020927014">
        <ele>5.454000</ele>
        <time>2012-04-21T06:52:20Z</time>
      </trkpt>
      <trkpt lat="40.015216973" lon="-0.021377960">
        <ele>8.709000</ele>
        <time>2012-04-21T06:53:51Z</time>
      </trkpt>
      <trkpt lat="40.016690008" lon="-0.022222018">
        <ele>8.908000</ele>
        <time>2012-04-21T06:55:51Z</time>
      </trkpt>
      <trkpt lat="40.017981995" lon="-0.022419998">
        <ele>10.563000</ele>
        <time>2012-04-21T06:57:27Z</time>
      </trkpt>
      <trkpt lat="40.018750029" lon="-0.022347998">
        <ele>11.326000</ele>
        <time>2012-04-21T06:58:24Z</time>
      </trkpt>
      <trkpt lat="40.020392966" lon="-0.021742992">
        <ele>13.062000</ele>
        <time>2012-04-21T07:00:29Z</time>
      </trkpt>
      <trkpt lat="40.023384970" lon="-0.021984978">
        <ele>23.027000</ele>
        <time>2012-04-21T07:04:09Z</time>
      </trkpt>
      <trkpt lat="40.026138006" lon="-0.021648025">
        <ele>31.992000</ele>
        <time>2012-04-21T07:07:41Z</time>
      </trkpt>
      <trkpt lat="40.026834961" lon="-0.021367986">
        <ele>31.667000</ele>
        <time>2012-04-21T07:08:36Z</time>
      </trkpt>
      <trkpt lat="40.028867992" lon="-0.021421965">
        <ele>39.650000</ele>
        <time>2012-04-21T07:11:07Z</time>
      </trkpt>
      <trkpt lat="40.029002018" lon="-0.020677987">
        <ele>38.748000</ele>
        <time>2012-04-21T07:11:58Z</time>
      </trkpt>
      <trkpt lat="40.029077036" lon="-0.014920039">
        <ele>33.563000</ele>
        <time>2012-04-21T07:17:23Z</time>
      </trkpt>
      <trkpt lat="40.029723030" lon="-0.014110012">
        <ele>37.244000</ele>
        <time>2012-04-21T07:18:33Z</time>
      </trkpt>
      <trkpt lat="40.030774958" lon="-0.013584970">
        <ele>40.018000</ele>
        <time>2012-04-21T07:20:03Z</time>
      </trkpt>
      <trkpt lat="40.031641982" lon="-0.012174966">
        <ele>41.208000</ele>
        <time>2012-04-21T07:21:51Z</time>
      </trkpt>
      <trkpt lat="40.033367984" lon="-0.010892032">
        <ele>49.678000</ele>
        <time>2012-04-21T07:24:28Z</time>
      </trkpt>
      <trkpt lat="40.033707032" lon="-0.010398002">
        <ele>52.141000</ele>
        <time>2012-04-21T07:25:11Z</time>
      </trkpt>
      <trkpt lat="40.033781966" lon="-0.010028025">
        <ele>53.587000</ele>
        <time>2012-04-21T07:25:40Z</time>
      </trkpt>
      <trkpt lat="40.033448031" lon="-0.008006981">
        <ele>52.092000</ele>
        <time>2012-04-21T07:27:47Z</time>
      </trkpt>
      <trkpt lat="40.033512991" lon="-0.007298039">
        <ele>54.877000</ele>
        <time>2012-04-21T07:28:32Z</time>
      </trkpt>
      <trkpt lat="40.034001991" lon="-0.007101987">
        <ele>60.662000</ele>
        <time>2012-04-21T07:29:02Z</time>
      </trkpt>
      <trkpt lat="40.034068041" lon="-0.007183040">
        <ele>61.175000</ele>
        <time>2012-04-21T07:29:06Z</time>
      </trkpt>
      <trkpt lat="40.034087989" lon="-0.007078014">
        <ele>61.973000</ele>
        <time>2012-04-21T07:34:31Z</time>
      </trkpt>
      <trkpt lat="40.034096958" lon="-0.007187985">
        <ele>61.478000</ele>
        <time>2012-04-21T07:40:02Z</time>
      </trkpt>
      <trkpt lat="40.034116991" lon="-0.007047001">
        <ele>62.533000</ele>
        <time>2012-04-21T07:41:01Z</time>
      </trkpt>
      <trkpt lat="40.034116991" lon="-0.007199971">
        <ele>61.626000</ele>
        <time>2012-04-21T07:43:40Z</time>
      </trkpt>
      <trkpt lat="40.036991984" lon="-0.006443001">
        <ele>70.208000</ele>
        <time>2012-04-21T07:49:45Z</time>
      </trkpt>
      <trkpt lat="40.039089974" lon="-0.005257968">
        <ele>78.139000</ele>
        <time>2012-04-21T07:53:04Z</time>
      </trkpt>
      <trkpt lat="40.041106995" lon="-0.003719972">
        <ele>87.582000</ele>
        <time>2012-04-21T07:56:16Z</time>
      </trkpt>
      <trkpt lat="40.042857975" lon="-0.002731998">
        <ele>89.328000</ele>
        <time>2012-04-21T07:58:48Z</time>
      </trkpt>
      <trkpt lat="40.043773027" lon="-0.001967987">
        <ele>91.853000</ele>
        <time>2012-04-21T08:00:15Z</time>
      </trkpt>
      <trkpt lat="40.045162998" lon="-0.000278028">
        <ele>101.158000</ele>
        <time>2012-04-21T08:02:40Z</time>
      </trkpt>
      <trkpt lat="40.045562983" lon="0.000027996">
        <ele>102.553000</ele>
        <time>2012-04-21T08:03:21Z</time>
      </trkpt>
      <trkpt lat="40.046039997" lon="0.000768034">
        <ele>111.616000</ele>
        <time>2012-04-21T08:04:22Z</time>
      </trkpt>
      <trkpt lat="40.046905009" lon="0.003832038">
        <ele>126.164000</ele>
        <time>2012-04-21T08:07:33Z</time>
      </trkpt>
      <trkpt lat="40.048242006" lon="0.006217025">
        <ele>135.843000</ele>
        <time>2012-04-21T08:10:40Z</time>
      </trkpt>
      <trkpt lat="40.048963018" lon="0.006903000">
        <ele>143.364000</ele>
        <time>2012-04-21T08:11:51Z</time>
      </trkpt>
      <trkpt lat="40.050929999" lon="0.007987032">
        <ele>158.610000</ele>
        <time>2012-04-21T08:14:55Z</time>
      </trkpt>
      <trkpt lat="40.051563000" lon="0.008185012">
        <ele>165.808000</ele>
        <time>2012-04-21T08:15:52Z</time>
      </trkpt>
      <trkpt lat="40.052391971" lon="0.008877022">
        <ele>172.436000</ele>
        <time>2012-04-21T08:17:24Z</time>
      </trkpt>
      <trkpt lat="40.052485010" lon="0.009105010">
        <ele>174.569000</ele>
        <time>2012-04-21T08:17:43Z</time>
      </trkpt>
      <trkpt lat="40.052345032" lon="0.009919982">
        <ele>177.515000</ele>
        <time>2012-04-21T08:18:41Z</time>
      </trkpt>
      <trkpt lat="40.052649966" lon="0.011662999">
        <ele>181.010000</ele>
        <time>2012-04-21T08:20:27Z</time>
      </trkpt>
      <trkpt lat="40.054400023" lon="0.011870032">
        <ele>204.615000</ele>
        <time>2012-04-21T08:23:00Z</time>
      </trkpt>
      <trkpt lat="40.055371989" lon="0.012185024">
        <ele>211.960000</ele>
        <time>2012-04-21T08:25:06Z</time>
      </trkpt>
      <trkpt lat="40.056142034" lon="0.012083016">
        <ele>228.073000</ele>
        <time>2012-04-21T08:26:58Z</time>
      </trkpt>
      <trkpt lat="40.056905039" lon="0.011680014">
        <ele>242.611000</ele>
        <time>2012-04-21T08:29:14Z</time>
      </trkpt>
      <trkpt lat="40.057381969" lon="0.011719996">
        <ele>251.236000</ele>
        <time>2012-04-21T08:29:56Z</time>
      </trkpt>
      <trkpt lat="40.058372039" lon="0.011484968">
        <ele>253.617000</ele>
        <time>2012-04-21T08:31:24Z</time>
      </trkpt>
      <trkpt lat="40.059181983" lon="0.011934992">
        <ele>272.818000</ele>
        <time>2012-04-21T08:32:44Z</time>
      </trkpt>
      <trkpt lat="40.060322005" lon="0.013309959">
        <ele>269.708000</ele>
        <time>2012-04-21T08:35:39Z</time>
      </trkpt>
      <trkpt lat="40.061714994" lon="0.013502995">
        <ele>284.235000</ele>
        <time>2012-04-21T08:37:24Z</time>
      </trkpt>
      <trkpt lat="40.062042978" lon="0.014242027">
        <ele>283.088000</ele>
        <time>2012-04-21T08:38:27Z</time>
      </trkpt>
      <trkpt lat="40.062616970" lon="0.014847033">
        <ele>289.864000</ele>
        <time>2012-04-21T08:39:26Z</time>
      </trkpt>
      <trkpt lat="40.062734988" lon="0.015414990">
        <ele>282.449000</ele>
        <time>2012-04-21T08:40:14Z</time>
      </trkpt>
      <trkpt lat="40.063234968" lon="0.015735012">
        <ele>296.844000</ele>
        <time>2012-04-21T08:40:46Z</time>
      </trkpt>
      <trkpt lat="40.064782016" lon="0.015148027">
        <ele>314.029000</ele>
        <time>2012-04-21T08:43:15Z</time>
      </trkpt>
      <trkpt lat="40.065697990" lon="0.015075020">
        <ele>313.892000</ele>
        <time>2012-04-21T08:44:41Z</time>
      </trkpt>
      <trkpt lat="40.066482034" lon="0.014415029">
        <ele>319.910000</ele>
        <time>2012-04-21T08:46:03Z</time>
      </trkpt>
      <trkpt lat="40.066813035" lon="0.014402959">
        <ele>323.277000</ele>
        <time>2012-04-21T08:46:28Z</time>
      </trkpt>
      <trkpt lat="40.066868020" lon="0.014966978">
        <ele>326.961000</ele>
        <time>2012-04-21T08:47:09Z</time>
      </trkpt>
      <trkpt lat="40.066499971" lon="0.016292995">
        <ele>320.427000</ele>
        <time>2012-04-21T08:48:31Z</time>
      </trkpt>
      <trkpt lat="40.066608014" lon="0.017051976">
        <ele>328.608000</ele>
        <time>2012-04-21T08:49:25Z</time>
      </trkpt>
      <trkpt lat="40.066538025" lon="0.018219994">
        <ele>331.049000</ele>
        <time>2012-04-21T08:50:34Z</time>
      </trkpt>
      <trkpt lat="40.066772969" lon="0.018736990">
        <ele>335.992000</ele>
        <time>2012-04-21T08:51:04Z</time>
      </trkpt>
      <trkpt lat="40.067421980" lon="0.019221967">
        <ele>338.038000</ele>
        <time>2012-04-21T08:52:08Z</time>
      </trkpt>
      <trkpt lat="40.067452993" lon="0.019596973">
        <ele>335.643000</ele>
        <time>2012-04-21T08:52:36Z</time>
      </trkpt>
      <trkpt lat="40.067095002" lon="0.020768009">
        <ele>343.168000</ele>
        <time>2012-04-21T08:53:59Z</time>
      </trkpt>
      <trkpt lat="40.067902012" lon="0.021854974">
        <ele>353.863000</ele>
        <time>2012-04-21T08:57:59Z</time>
      </trkpt>
      <trkpt lat="40.067758011" lon="0.021732012">
        <ele>351.216000</ele>
        <time>2012-04-21T08:58:06Z</time>
      </trkpt>
      <trkpt lat="40.067950040" lon="0.021233037">
        <ele>358.654000</ele>
        <time>2012-04-21T08:59:12Z</time>
      </trkpt>
      <trkpt lat="40.067911986" lon="0.020628031">
        <ele>360.829000</ele>
        <time>2012-04-21T08:59:55Z</time>
      </trkpt>
      <trkpt lat="40.068266960" lon="0.019752961">
        <ele>365.100000</ele>
        <time>2012-04-21T09:01:02Z</time>
      </trkpt>
      <trkpt lat="40.068133017" lon="0.018017991">
        <ele>381.820000</ele>
        <time>2012-04-21T09:02:59Z</time>
      </trkpt>
      <trkpt lat="40.069162985" lon="0.016749976">
        <ele>398.508000</ele>
        <time>2012-04-21T09:05:19Z</time>
      </trkpt>
      <trkpt lat="40.069402959" lon="0.016732961">
        <ele>406.364000</ele>
        <time>2012-04-21T09:05:40Z</time>
      </trkpt>
      <trkpt lat="40.069477977" lon="0.016945023">
        <ele>411.567000</ele>
        <time>2012-04-21T09:06:00Z</time>
      </trkpt>
      <trkpt lat="40.069164997" lon="0.017769970">
        <ele>410.943000</ele>
        <time>2012-04-21T09:07:06Z</time>
      </trkpt>
      <trkpt lat="40.069157034" lon="0.018357038">
        <ele>413.548000</ele>
        <time>2012-04-21T09:07:43Z</time>
      </trkpt>
      <trkpt lat="40.070333015" lon="0.020184964">
        <ele>433.363000</ele>
        <time>2012-04-21T09:10:29Z</time>
      </trkpt>
      <trkpt lat="40.070602996" lon="0.019950019">
        <ele>438.958000</ele>
        <time>2012-04-21T09:11:03Z</time>
      </trkpt>
      <trkpt lat="40.070657982" lon="0.019058017">
        <ele>455.361000</ele>
        <time>2012-04-21T09:12:08Z</time>
      </trkpt>
      <trkpt lat="40.071660038" lon="0.018697008">
        <ele>462.439000</ele>
        <time>2012-04-21T09:13:58Z</time>
      </trkpt>
      <trkpt lat="40.072117019" lon="0.017892011">
        <ele>470.867000</ele>
        <time>2012-04-21T09:15:09Z</time>
      </trkpt>
      <trkpt lat="40.072426982" lon="0.015716990">
        <ele>484.981000</ele>
        <time>2012-04-21T09:17:42Z</time>
      </trkpt>
      <trkpt lat="40.072352970" lon="0.014981981">
        <ele>490.119000</ele>
        <time>2012-04-21T09:18:34Z</time>
      </trkpt>
      <trkpt lat="40.072652036" lon="0.013738023">
        <ele>502.808000</ele>
        <time>2012-04-21T09:20:04Z</time>
      </trkpt>
      <trkpt lat="40.072727976" lon="0.011507012">
        <ele>518.488000</ele>
        <time>2012-04-21T09:22:44Z</time>
      </trkpt>
      <trkpt lat="40.073272968" lon="0.010030037">
        <ele>539.471000</ele>
        <time>2012-04-21T09:24:44Z</time>
      </trkpt>
      <trkpt lat="40.073507996" lon="0.009925012">
        <ele>543.877000</ele>
        <time>2012-04-21T09:25:03Z</time>
      </trkpt>
      <trkpt lat="40.074318023" lon="0.009987960">
        <ele>540.892000</ele>
        <time>2012-04-21T09:26:34Z</time>
      </trkpt>
      <trkpt lat="40.074967034" lon="0.011062017">
        <ele>552.567000</ele>
        <time>2012-04-21T09:28:17Z</time>
      </trkpt>
      <trkpt lat="40.076866960" lon="0.011271983">
        <ele>544.722000</ele>
        <time>2012-04-21T09:30:51Z</time>
      </trkpt>
      <trkpt lat="40.077529969" lon="0.012001963">
        <ele>545.225000</ele>
        <time>2012-04-21T09:32:08Z</time>
      </trkpt>
      <trkpt lat="40.078475028" lon="0.011571972">
        <ele>534.073000</ele>
        <time>2012-04-21T09:33:33Z</time>
      </trkpt>
      <trkpt lat="40.079226969" lon="0.011762995">
        <ele>527.455000</ele>
        <time>2012-04-21T09:35:59Z</time>
      </trkpt>
      <trkpt lat="40.079346998" lon="0.012061978">
        <ele>529.607000</ele>
        <time>2012-04-21T09:36:25Z</time>
      </trkpt>
      <trkpt lat="40.079050027" lon="0.013332004">
        <ele>533.217000</ele>
        <time>2012-04-21T09:37:49Z</time>
      </trkpt>
      <trkpt lat="40.079199979" lon="0.013682032">
        <ele>531.408000</ele>
        <time>2012-04-21T09:38:17Z</time>
      </trkpt>
      <trkpt lat="40.080505041" lon="0.013480028">
        <ele>524.117000</ele>
        <time>2012-04-21T09:40:02Z</time>
      </trkpt>
      <trkpt lat="40.081656966" lon="0.012835041">
        <ele>506.380000</ele>
        <time>2012-04-21T09:41:36Z</time>
      </trkpt>
      <trkpt lat="40.082649970" lon="0.012055021">
        <ele>492.086000</ele>
        <time>2012-04-21T09:43:08Z</time>
      </trkpt>
      <trkpt lat="40.083214995" lon="0.012162980">
        <ele>489.631000</ele>
        <time>2012-04-21T09:43:52Z</time>
      </trkpt>
      <trkpt lat="40.083418004" lon="0.012398008">
        <ele>486.526000</ele>
        <time>2012-04-21T09:44:15Z</time>
      </trkpt>
      <trkpt lat="40.083322031" lon="0.013333010">
        <ele>488.451000</ele>
        <time>2012-04-21T09:45:12Z</time>
      </trkpt>
      <trkpt lat="40.083424961" lon="0.013556974">
        <ele>484.274000</ele>
        <time>2012-04-21T09:45:29Z</time>
      </trkpt>
      <trkpt lat="40.083957966" lon="0.013886970">
        <ele>476.442000</ele>
        <time>2012-04-21T09:46:13Z</time>
      </trkpt>
      <trkpt lat="40.084967986" lon="0.013635010">
        <ele>458.112000</ele>
        <time>2012-04-21T09:47:34Z</time>
      </trkpt>
      <trkpt lat="40.085269986" lon="0.013812035">
        <ele>458.132000</ele>
        <time>2012-04-21T09:48:01Z</time>
      </trkpt>
      <trkpt lat="40.085266968" lon="0.014807973">
        <ele>461.605000</ele>
        <time>2012-04-21T09:49:07Z</time>
      </trkpt>
      <trkpt lat="40.084907971" lon="0.016277991">
        <ele>461.508000</ele>
        <time>2012-04-21T09:50:40Z</time>
      </trkpt>
      <trkpt lat="40.085022971" lon="0.016427021">
        <ele>458.693000</ele>
        <time>2012-04-21T09:50:54Z</time>
      </trkpt>
      <trkpt lat="40.085248025" lon="0.016361978">
        <ele>455.646000</ele>
        <time>2012-04-21T09:51:14Z</time>
      </trkpt>
      <trkpt lat="40.086315041" lon="0.014446964">
        <ele>435.582000</ele>
        <time>2012-04-21T09:53:47Z</time>
      </trkpt>
      <trkpt lat="40.086416965" lon="0.013414985">
        <ele>427.437000</ele>
        <time>2012-04-21T09:54:54Z</time>
      </trkpt>
      <trkpt lat="40.087033035" lon="0.011540037">
        <ele>407.712000</ele>
        <time>2012-04-21T09:56:46Z</time>
      </trkpt>
      <trkpt lat="40.087793022" lon="0.010933019">
        <ele>409.997000</ele>
        <time>2012-04-21T09:57:48Z</time>
      </trkpt>
      <trkpt lat="40.088461982" lon="0.009949990">
        <ele>396.530000</ele>
        <time>2012-04-21T09:58:55Z</time>
      </trkpt>
      <trkpt lat="40.089379968" lon="0.006490024">
        <ele>374.818000</ele>
        <time>2012-04-21T10:02:16Z</time>
      </trkpt>
      <trkpt lat="40.090180021" lon="0.005777981">
        <ele>369.759000</ele>
        <time>2012-04-21T10:03:19Z</time>
      </trkpt>
      <trkpt lat="40.090921987" lon="0.005467013">
        <ele>364.003000</ele>
        <time>2012-04-21T10:04:10Z</time>
      </trkpt>
      <trkpt lat="40.091032041" lon="0.004680036">
        <ele>356.123000</ele>
        <time>2012-04-21T10:05:03Z</time>
      </trkpt>
      <trkpt lat="40.091981962" lon="0.003004996">
        <ele>342.508000</ele>
        <time>2012-04-21T10:07:02Z</time>
      </trkpt>
      <trkpt lat="40.092932973" lon="0.002529994">
        <ele>332.917000</ele>
        <time>2012-04-21T10:08:12Z</time>
      </trkpt>
      <trkpt lat="40.093712993" lon="0.002547009">
        <ele>324.510000</ele>
        <time>2012-04-21T10:09:11Z</time>
      </trkpt>
      <trkpt lat="40.094440039" lon="0.002371995">
        <ele>321.066000</ele>
        <time>2012-04-21T10:10:15Z</time>
      </trkpt>
      <trkpt lat="40.095232967" lon="0.001954995">
        <ele>313.411000</ele>
        <time>2012-04-21T10:11:20Z</time>
      </trkpt>
      <trkpt lat="40.095707970" lon="0.001404975">
        <ele>308.216000</ele>
        <time>2012-04-21T10:12:07Z</time>
      </trkpt>
      <trkpt lat="40.096194958" lon="0.001142034">
        <ele>305.311000</ele>
        <time>2012-04-21T10:12:42Z</time>
      </trkpt>
      <trkpt lat="40.096974978" lon="0.001724996">
        <ele>300.664000</ele>
        <time>2012-04-21T10:13:49Z</time>
      </trkpt>
      <trkpt lat="40.098429993" lon="-0.000136960">
        <ele>294.162000</ele>
        <time>2012-04-21T10:16:42Z</time>
      </trkpt>
      <trkpt lat="40.098887980" lon="-0.000122041">
        <ele>291.457000</ele>
        <time>2012-04-21T10:17:22Z</time>
      </trkpt>
      <trkpt lat="40.101875039" lon="-0.001343032">
        <ele>304.100000</ele>
        <time>2012-04-21T10:22:26Z</time>
      </trkpt>
      <trkpt lat="40.102392035" lon="-0.001436993">
        <ele>301.520000</ele>
        <time>2012-04-21T10:23:09Z</time>
      </trkpt>
      <trkpt lat="40.102602001" lon="-0.001229960">
        <ele>300.608000</ele>
        <time>2012-04-21T10:23:34Z</time>
      </trkpt>
      <trkpt lat="40.105640022" lon="-0.004315004">
        <ele>296.527000</ele>
        <time>2012-04-24T05:57:16Z</time>
      </trkpt>
      <trkpt lat="40.106002036" lon="-0.004484989">
        <ele>297.730000</ele>
        <time>2012-04-24T05:57:49Z</time>
      </trkpt>
      <trkpt lat="40.106554991" lon="-0.004596971">
        <ele>296.526000</ele>
        <time>2012-04-24T05:58:38Z</time>
      </trkpt>
      <trkpt lat="40.107265022" lon="-0.004499992">
        <ele>295.151000</ele>
        <time>2012-04-24T05:59:33Z</time>
      </trkpt>
      <trkpt lat="40.107877990" lon="-0.004735021">
        <ele>291.056000</ele>
        <time>2012-04-24T06:00:27Z</time>
      </trkpt>
      <trkpt lat="40.109152962" lon="-0.004620021">
        <ele>287.051000</ele>
        <time>2012-04-24T06:02:11Z</time>
      </trkpt>
      <trkpt lat="40.110206986" lon="-0.004812973">
        <ele>290.134000</ele>
        <time>2012-04-24T06:03:33Z</time>
      </trkpt>
      <trkpt lat="40.111867022" lon="-0.004810039">
        <ele>290.892000</ele>
        <time>2012-04-24T06:05:45Z</time>
      </trkpt>
      <trkpt lat="40.112283016" lon="-0.005005002">
        <ele>290.219000</ele>
        <time>2012-04-24T06:06:14Z</time>
      </trkpt>
      <trkpt lat="40.112937978" lon="-0.005056970">
        <ele>293.609000</ele>
        <time>2012-04-24T06:06:58Z</time>
      </trkpt>
      <trkpt lat="40.115509965" lon="-0.004609963">
        <ele>287.019000</ele>
        <time>2012-04-24T06:10:19Z</time>
      </trkpt>
      <trkpt lat="40.116259977" lon="-0.004652962">
        <ele>285.308000</ele>
        <time>2012-04-24T06:11:21Z</time>
      </trkpt>
      <trkpt lat="40.117527992" lon="-0.004097996">
        <ele>280.043000</ele>
        <time>2012-04-24T06:13:01Z</time>
      </trkpt>
      <trkpt lat="40.118274987" lon="-0.003322000">
        <ele>283.516000</ele>
        <time>2012-04-24T06:14:28Z</time>
      </trkpt>
      <trkpt lat="40.118987029" lon="-0.003117984">
        <ele>287.742000</ele>
        <time>2012-04-24T06:15:25Z</time>
      </trkpt>
      <trkpt lat="40.119402017" lon="-0.003165007">
        <ele>288.887000</ele>
        <time>2012-04-24T06:15:53Z</time>
      </trkpt>
      <trkpt lat="40.119993025" lon="-0.003516963">
        <ele>284.862000</ele>
        <time>2012-04-24T06:16:39Z</time>
      </trkpt>
      <trkpt lat="40.120489988" lon="-0.003401963">
        <ele>278.557000</ele>
        <time>2012-04-24T06:17:25Z</time>
      </trkpt>
      <trkpt lat="40.120910006" lon="-0.003544958">
        <ele>272.560000</ele>
        <time>2012-04-24T06:18:06Z</time>
      </trkpt>
      <trkpt lat="40.122752013" lon="-0.004792018">
        <ele>255.838000</ele>
        <time>2012-04-24T06:20:55Z</time>
      </trkpt>
      <trkpt lat="40.124497041" lon="-0.005008020">
        <ele>253.446000</ele>
        <time>2012-04-24T06:23:00Z</time>
      </trkpt>
      <trkpt lat="40.125443023" lon="-0.004882962">
        <ele>253.188000</ele>
        <time>2012-04-24T06:24:17Z</time>
      </trkpt>
      <trkpt lat="40.125736976" lon="-0.005332986">
        <ele>250.716000</ele>
        <time>2012-04-24T06:24:57Z</time>
      </trkpt>
      <trkpt lat="40.125845019" lon="-0.005057976">
        <ele>250.008000</ele>
        <time>2012-04-24T06:25:27Z</time>
      </trkpt>
      <trkpt lat="40.126079964" lon="-0.004971977">
        <ele>251.086000</ele>
        <time>2012-04-24T06:25:48Z</time>
      </trkpt>
      <trkpt lat="40.128003024" lon="-0.004844991">
        <ele>257.079000</ele>
        <time>2012-04-24T06:28:29Z</time>
      </trkpt>
      <trkpt lat="40.130358003" lon="-0.004000012">
        <ele>251.595000</ele>
        <time>2012-04-24T06:31:54Z</time>
      </trkpt>
      <trkpt lat="40.134073030" lon="-0.003170036">
        <ele>249.960000</ele>
        <time>2012-04-24T06:37:12Z</time>
      </trkpt>
      <trkpt lat="40.135701969" lon="-0.002505016">
        <ele>256.025000</ele>
        <time>2012-04-24T06:39:51Z</time>
      </trkpt>
      <trkpt lat="40.141239977" lon="0.000687987">
        <ele>277.860000</ele>
        <time>2012-04-24T06:49:04Z</time>
      </trkpt>
      <trkpt lat="40.142406989" lon="0.001525003">
        <ele>277.283000</ele>
        <time>2012-04-24T06:52:55Z</time>
      </trkpt>
      <trkpt lat="40.160990003" lon="0.011997018">
        <ele>264.511000</ele>
        <time>2012-04-24T07:20:17Z</time>
      </trkpt>
      <trkpt lat="40.165075008" lon="0.014374964">
        <ele>269.513000</ele>
        <time>2012-04-24T07:26:22Z</time>
      </trkpt>
      <trkpt lat="40.165468035" lon="0.014867987">
        <ele>272.343000</ele>
        <time>2012-04-24T07:30:41Z</time>
      </trkpt>
      <trkpt lat="40.165508017" lon="0.014762040">
        <ele>271.907000</ele>
        <time>2012-04-24T07:31:09Z</time>
      </trkpt>
      <trkpt lat="40.166030042" lon="0.014960021">
        <ele>273.508000</ele>
        <time>2012-04-24T07:33:32Z</time>
      </trkpt>
      <trkpt lat="40.173852034" lon="0.019290028">
        <ele>283.173000</ele>
        <time>2012-04-24T07:44:50Z</time>
      </trkpt>
      <trkpt lat="40.182338040" lon="0.024465015">
        <ele>292.356000</ele>
        <time>2012-04-24T07:57:27Z</time>
      </trkpt>
      <trkpt lat="40.185234994" lon="0.026042992">
        <ele>289.032000</ele>
        <time>2012-04-24T08:03:23Z</time>
      </trkpt>
      <trkpt lat="40.187410014" lon="0.027532037">
        <ele>288.187000</ele>
        <time>2012-04-24T08:06:38Z</time>
      </trkpt>
      <trkpt lat="40.187630039" lon="0.027542012">
        <ele>288.152000</ele>
        <time>2012-04-24T08:07:33Z</time>
      </trkpt>
      <trkpt lat="40.189702967" lon="0.028723022">
        <ele>286.787000</ele>
        <time>2012-04-24T08:10:29Z</time>
      </trkpt>
      <trkpt lat="40.196932023" lon="0.033032997">
        <ele>294.010000</ele>
        <time>2012-04-24T08:20:47Z</time>
      </trkpt>
      <trkpt lat="40.199774997" lon="0.034939963">
        <ele>292.798000</ele>
        <time>2012-04-24T08:25:18Z</time>
      </trkpt>
      <trkpt lat="40.200442029" lon="0.035647983">
        <ele>291.713000</ele>
        <time>2012-04-24T08:26:24Z</time>
      </trkpt>
      <trkpt lat="40.200934969" lon="0.035442961">
        <ele>291.643000</ele>
        <time>2012-04-24T08:27:02Z</time>
      </trkpt>
      <trkpt lat="40.201287009" lon="0.035419995">
        <ele>292.607000</ele>
        <time>2012-04-24T08:27:47Z</time>
      </trkpt>
      <trkpt lat="40.201235041" lon="0.035510017">
        <ele>292.408000</ele>
        <time>2012-04-24T08:28:13Z</time>
      </trkpt>
      <trkpt lat="40.201269994" lon="0.035323016">
        <ele>292.633000</ele>
        <time>2012-04-24T08:29:11Z</time>
      </trkpt>
      <trkpt lat="40.201411983" lon="0.035341959">
        <ele>293.156000</ele>
        <time>2012-04-24T08:29:36Z</time>
      </trkpt>
      <trkpt lat="40.202417979" lon="0.036279978">
        <ele>292.752000</ele>
        <time>2012-04-24T08:31:45Z</time>
      </trkpt>
      <trkpt lat="40.203666966" lon="0.037075002">
        <ele>298.077000</ele>
        <time>2012-04-24T08:33:38Z</time>
      </trkpt>
      <trkpt lat="40.205626991" lon="0.040513007">
        <ele>305.352000</ele>
        <time>2012-04-24T08:38:12Z</time>
      </trkpt>
      <trkpt lat="40.206005014" lon="0.040921960">
        <ele>306.077000</ele>
        <time>2012-04-24T08:39:12Z</time>
      </trkpt>
      <trkpt lat="40.206282958" lon="0.040792041">
        <ele>304.910000</ele>
        <time>2012-04-24T08:39:49Z</time>
      </trkpt>
      <trkpt lat="40.206357976" lon="0.040882984">
        <ele>304.228000</ele>
        <time>2012-04-24T08:40:36Z</time>
      </trkpt>
      <trkpt lat="40.206365017" lon="0.040724985">
        <ele>304.538000</ele>
        <time>2012-04-24T08:41:11Z</time>
      </trkpt>
      <trkpt lat="40.209191982" lon="0.038306974">
        <ele>326.070000</ele>
        <time>2012-04-24T08:46:14Z</time>
      </trkpt>
      <trkpt lat="40.210165037" lon="0.038083009">
        <ele>320.517000</ele>
        <time>2012-04-24T08:47:38Z</time>
      </trkpt>
      <trkpt lat="40.210586982" lon="0.037849993">
        <ele>315.908000</ele>
        <time>2012-04-24T08:48:23Z</time>
      </trkpt>
      <trkpt lat="40.212341985" lon="0.037719989">
        <ele>311.795000</ele>
        <time>2012-04-24T08:50:54Z</time>
      </trkpt>
      <trkpt lat="40.215102984" lon="0.036391960">
        <ele>313.438000</ele>
        <time>2012-04-24T08:54:45Z</time>
      </trkpt>
      <trkpt lat="40.217397027" lon="0.035047000">
        <ele>317.884000</ele>
        <time>2012-04-24T08:58:02Z</time>
      </trkpt>
      <trkpt lat="40.218886994" lon="0.034030024">
        <ele>319.519000</ele>
        <time>2012-04-24T09:00:21Z</time>
      </trkpt>
      <trkpt lat="40.219092015" lon="0.033798013">
        <ele>321.544000</ele>
        <time>2012-04-24T09:01:09Z</time>
      </trkpt>
      <trkpt lat="40.219022026" lon="0.033717966">
        <ele>321.019000</ele>
        <time>2012-04-24T09:02:15Z</time>
      </trkpt>
      <trkpt lat="40.219555032" lon="0.033746967">
        <ele>322.322000</ele>
        <time>2012-04-24T09:06:01Z</time>
      </trkpt>
      <trkpt lat="40.219268035" lon="0.033687036">
        <ele>322.390000</ele>
        <time>2012-04-24T09:06:53Z</time>
      </trkpt>
      <trkpt lat="40.219442965" lon="0.033719977">
        <ele>322.685000</ele>
        <time>2012-04-24T09:10:03Z</time>
      </trkpt>
      <trkpt lat="40.219438020" lon="0.033525014">
        <ele>322.789000</ele>
        <time>2012-04-24T09:11:43Z</time>
      </trkpt>
      <trkpt lat="40.219668020" lon="0.033638002">
        <ele>322.217000</ele>
        <time>2012-04-24T09:11:39Z</time>
      </trkpt>
      <trkpt lat="40.221982012" lon="0.032445006">
        <ele>326.808000</ele>
        <time>2012-04-24T09:15:12Z</time>
      </trkpt>
      <trkpt lat="40.222802013" lon="0.031912001">
        <ele>327.970000</ele>
        <time>2012-04-24T09:16:30Z</time>
      </trkpt>
      <trkpt lat="40.225987975" lon="0.028714975">
        <ele>332.393000</ele>
        <time>2012-04-24T09:21:50Z</time>
      </trkpt>
      <trkpt lat="40.226427019" lon="0.028395038">
        <ele>334.019000</ele>
        <time>2012-04-24T09:22:31Z</time>
      </trkpt>
      <trkpt lat="40.226658024" lon="0.028403001">
        <ele>334.264000</ele>
        <time>2012-04-24T09:23:06Z</time>
      </trkpt>
      <trkpt lat="40.227205027" lon="0.027845018">
        <ele>334.919000</ele>
        <time>2012-04-24T09:24:44Z</time>
      </trkpt>
      <trkpt lat="40.229608035" lon="0.026448006">
        <ele>345.424000</ele>
        <time>2012-04-24T09:28:37Z</time>
      </trkpt>
      <trkpt lat="40.232007019" lon="0.025866972">
        <ele>351.357000</ele>
        <time>2012-04-24T09:32:01Z</time>
      </trkpt>
      <trkpt lat="40.236482034" lon="0.022706995">
        <ele>366.855000</ele>
        <time>2012-04-24T09:39:07Z</time>
      </trkpt>
      <trkpt lat="40.239398014" lon="0.021273019">
        <ele>375.819000</ele>
        <time>2012-04-24T09:43:20Z</time>
      </trkpt>
      <trkpt lat="40.239921967" lon="0.020879991">
        <ele>377.009000</ele>
        <time>2012-04-24T09:44:14Z</time>
      </trkpt>
      <trkpt lat="40.240541976" lon="0.019968040">
        <ele>378.119000</ele>
        <time>2012-04-24T09:45:29Z</time>
      </trkpt>
      <trkpt lat="40.242493032" lon="0.017926963">
        <ele>389.508000</ele>
        <time>2012-04-24T09:50:09Z</time>
      </trkpt>
      <trkpt lat="40.242552962" lon="0.016766991">
        <ele>396.083000</ele>
        <time>2012-04-24T09:51:34Z</time>
      </trkpt>
      <trkpt lat="40.243199961" lon="0.016131978">
        <ele>401.536000</ele>
        <time>2012-04-24T09:52:53Z</time>
      </trkpt>
      <trkpt lat="40.243972018" lon="0.016249996">
        <ele>403.442000</ele>
        <time>2012-04-24T09:56:38Z</time>
      </trkpt>
      <trkpt lat="40.244933004" lon="0.015442986">
        <ele>404.137000</ele>
        <time>2012-04-24T09:58:23Z</time>
      </trkpt>
      <trkpt lat="40.245616967" lon="0.015892005">
        <ele>405.022000</ele>
        <time>2012-04-24T09:59:39Z</time>
      </trkpt>
      <trkpt lat="40.246877018" lon="0.014558025">
        <ele>418.037000</ele>
        <time>2012-04-24T10:02:30Z</time>
      </trkpt>
      <trkpt lat="40.247120010" lon="0.014491975">
        <ele>420.650000</ele>
        <time>2012-04-24T10:03:00Z</time>
      </trkpt>
      <trkpt lat="40.247632982" lon="0.013962993">
        <ele>429.868000</ele>
        <time>2012-04-24T10:06:33Z</time>
      </trkpt>
      <trkpt lat="40.248473017" lon="0.014101965">
        <ele>433.849000</ele>
        <time>2012-04-24T10:07:57Z</time>
      </trkpt>
      <trkpt lat="40.249402989" lon="0.015269984">
        <ele>430.602000</ele>
        <time>2012-04-24T10:09:40Z</time>
      </trkpt>
      <trkpt lat="40.249650003" lon="0.016127033">
        <ele>426.222000</ele>
        <time>2012-04-24T10:10:34Z</time>
      </trkpt>
      <trkpt lat="40.250748033" lon="0.017263032">
        <ele>426.408000</ele>
        <time>2012-04-24T10:12:32Z</time>
      </trkpt>
      <trkpt lat="40.251865005" lon="0.018129973">
        <ele>425.786000</ele>
        <time>2012-04-24T10:14:29Z</time>
      </trkpt>
      <trkpt lat="40.252807969" lon="0.018140031">
        <ele>428.779000</ele>
        <time>2012-04-24T10:15:49Z</time>
      </trkpt>
      <trkpt lat="40.253416998" lon="0.018453011">
        <ele>432.695000</ele>
        <time>2012-04-24T10:16:44Z</time>
      </trkpt>
      <trkpt lat="40.253961990" lon="0.017710039">
        <ele>440.690000</ele>
        <time>2012-04-24T10:18:10Z</time>
      </trkpt>
      <trkpt lat="40.254834965" lon="0.015853029">
        <ele>455.435000</ele>
        <time>2012-04-24T10:20:49Z</time>
      </trkpt>
      <trkpt lat="40.255731996" lon="0.015529990">
        <ele>458.230000</ele>
        <time>2012-04-24T10:22:16Z</time>
      </trkpt>
      <trkpt lat="40.256400034" lon="0.016010022">
        <ele>460.813000</ele>
        <time>2012-04-24T10:23:33Z</time>
      </trkpt>
      <trkpt lat="40.256797001" lon="0.015807012">
        <ele>463.671000</ele>
        <time>2012-04-24T10:24:14Z</time>
      </trkpt>
      <trkpt lat="40.256951982" lon="0.015457990">
        <ele>465.416000</ele>
        <time>2012-04-24T10:24:43Z</time>
      </trkpt>
      <trkpt lat="40.257007973" lon="0.014455011">
        <ele>471.676000</ele>
        <time>2012-04-24T10:26:07Z</time>
      </trkpt>
      <trkpt lat="40.257588001" lon="0.014074976">
        <ele>477.413000</ele>
        <time>2012-04-24T10:27:20Z</time>
      </trkpt>
      <trkpt lat="40.258250004" lon="0.012682993">
        <ele>487.508000</ele>
        <time>2012-04-24T10:29:24Z</time>
      </trkpt>
      <trkpt lat="40.258702040" lon="0.012802016">
        <ele>493.093000</ele>
        <time>2012-04-24T10:30:15Z</time>
      </trkpt>
      <trkpt lat="40.259622959" lon="0.014131973">
        <ele>496.446000</ele>
        <time>2012-04-24T10:32:17Z</time>
      </trkpt>
      <trkpt lat="40.259992015" lon="0.014255019">
        <ele>497.362000</ele>
        <time>2012-04-24T10:32:57Z</time>
      </trkpt>
      <trkpt lat="40.260529965" lon="0.013322029">
        <ele>507.747000</ele>
        <time>2012-04-24T10:34:30Z</time>
      </trkpt>
      <trkpt lat="40.260402979" lon="0.011547999">
        <ele>520.782000</ele>
        <time>2012-04-24T10:36:51Z</time>
      </trkpt>
      <trkpt lat="40.260497024" lon="0.011263015">
        <ele>523.637000</ele>
        <time>2012-04-24T10:37:25Z</time>
      </trkpt>
      <trkpt lat="40.261621960" lon="0.010447958">
        <ele>539.430000</ele>
        <time>2012-04-24T10:39:45Z</time>
      </trkpt>
      <trkpt lat="40.262135016" lon="0.010258025">
        <ele>545.178000</ele>
        <time>2012-04-24T10:40:51Z</time>
      </trkpt>
      <trkpt lat="40.261563035" lon="0.009440035">
        <ele>557.036000</ele>
        <time>2012-04-24T10:42:27Z</time>
      </trkpt>
      <trkpt lat="40.262152031" lon="0.008847015">
        <ele>568.517000</ele>
        <time>2012-04-24T10:43:57Z</time>
      </trkpt>
      <trkpt lat="40.261967964" lon="0.008530011">
        <ele>572.118000</ele>
        <time>2012-04-24T10:44:43Z</time>
      </trkpt>
      <trkpt lat="40.262341965" lon="0.007937998">
        <ele>582.808000</ele>
        <time>2012-04-24T10:46:01Z</time>
      </trkpt>
      <trkpt lat="40.262101991" lon="0.007746974">
        <ele>587.785000</ele>
        <time>2012-04-24T10:46:39Z</time>
      </trkpt>
      <trkpt lat="40.261560017" lon="0.006767968">
        <ele>599.158000</ele>
        <time>2012-04-24T10:48:21Z</time>
      </trkpt>
      <trkpt lat="40.261558006" lon="0.006022984">
        <ele>604.074000</ele>
        <time>2012-04-24T10:49:29Z</time>
      </trkpt>
      <trkpt lat="40.262127975" lon="0.006781965">
        <ele>610.739000</ele>
        <time>2012-04-24T10:51:48Z</time>
      </trkpt>
      <trkpt lat="40.263094995" lon="0.006115017">
        <ele>628.354000</ele>
        <time>2012-04-24T10:53:41Z</time>
      </trkpt>
      <trkpt lat="40.263317032" lon="0.006073024">
        <ele>626.549000</ele>
        <time>2012-04-24T10:54:06Z</time>
      </trkpt>
      <trkpt lat="40.263782982" lon="0.006296989">
        <ele>623.662000</ele>
        <time>2012-04-24T10:55:03Z</time>
      </trkpt>
      <trkpt lat="40.264347000" lon="0.005964981">
        <ele>633.080000</ele>
        <time>2012-04-24T10:56:10Z</time>
      </trkpt>
      <trkpt lat="40.265340004" lon="0.004780032">
        <ele>650.494000</ele>
        <time>2012-04-24T10:58:41Z</time>
      </trkpt>
      <trkpt lat="40.265460033" lon="0.004786989">
        <ele>647.457000</ele>
        <time>2012-04-24T11:00:10Z</time>
      </trkpt>
      <trkpt lat="40.265388032" lon="0.003813012">
        <ele>653.922000</ele>
        <time>2012-04-24T11:08:17Z</time>
      </trkpt>
      <trkpt lat="40.265487023" lon="0.003349995">
        <ele>653.308000</ele>
        <time>2012-04-24T11:08:50Z</time>
      </trkpt>
      <trkpt lat="40.266188001" lon="0.003174981">
        <ele>654.131000</ele>
        <time>2012-04-24T11:10:07Z</time>
      </trkpt>
      <trkpt lat="40.266199987" lon="0.002462016">
        <ele>669.444000</ele>
        <time>2012-04-24T11:11:11Z</time>
      </trkpt>
      <trkpt lat="40.266784960" lon="0.001988020">
        <ele>661.430000</ele>
        <time>2012-04-24T11:12:15Z</time>
      </trkpt>
      <trkpt lat="40.266842041" lon="0.001661964">
        <ele>673.195000</ele>
        <time>2012-04-24T11:13:08Z</time>
      </trkpt>
      <trkpt lat="40.267572021" lon="0.000541974">
        <ele>674.880000</ele>
        <time>2012-04-24T11:15:01Z</time>
      </trkpt>
      <trkpt lat="40.267845020" lon="-0.000207033">
        <ele>692.255000</ele>
        <time>2012-04-24T11:16:03Z</time>
      </trkpt>
      <trkpt lat="40.268147020" lon="-0.000487994">
        <ele>692.468000</ele>
        <time>2012-04-24T11:16:45Z</time>
      </trkpt>
      <trkpt lat="40.267964965" lon="-0.001013037">
        <ele>701.166000</ele>
        <time>2012-04-24T11:17:40Z</time>
      </trkpt>
      <trkpt lat="40.268587992" lon="-0.000695027">
        <ele>702.532000</ele>
        <time>2012-04-24T11:19:19Z</time>
      </trkpt>
      <trkpt lat="40.268727969" lon="-0.000786977">
        <ele>709.092000</ele>
        <time>2012-04-24T11:19:38Z</time>
      </trkpt>
      <trkpt lat="40.268682037" lon="-0.001757015">
        <ele>718.411000</ele>
        <time>2012-04-24T11:21:03Z</time>
      </trkpt>
      <trkpt lat="40.268381964" lon="-0.002232017">
        <ele>726.008000</ele>
        <time>2012-04-24T11:21:53Z</time>
      </trkpt>
      <trkpt lat="40.267967982" lon="-0.002712971">
        <ele>733.025000</ele>
        <time>2012-04-24T11:22:51Z</time>
      </trkpt>
      <trkpt lat="40.267534973" lon="-0.002705008">
        <ele>730.738000</ele>
        <time>2012-04-24T11:23:31Z</time>
      </trkpt>
      <trkpt lat="40.267087966" lon="-0.003068028">
        <ele>740.234000</ele>
        <time>2012-04-24T11:24:23Z</time>
      </trkpt>
      <trkpt lat="40.266525038" lon="-0.001796996">
        <ele>745.719000</ele>
        <time>2012-04-24T11:26:23Z</time>
      </trkpt>
      <trkpt lat="40.266605001" lon="-0.000972971">
        <ele>745.184000</ele>
        <time>2012-04-24T11:27:25Z</time>
      </trkpt>
      <trkpt lat="40.266442979" lon="-0.001168018">
        <ele>751.739000</ele>
        <time>2012-04-24T11:27:57Z</time>
      </trkpt>
      <trkpt lat="40.266496958" lon="-0.005782004">
        <ele>778.262000</ele>
        <time>2012-04-24T11:33:55Z</time>
      </trkpt>
      <trkpt lat="40.266063027" lon="-0.007734988">
        <ele>768.020000</ele>
        <time>2012-04-24T11:36:12Z</time>
      </trkpt>
      <trkpt lat="40.266097980" lon="-0.008769985">
        <ele>768.845000</ele>
        <time>2012-04-24T11:37:22Z</time>
      </trkpt>
      <trkpt lat="40.265381997" lon="-0.011828039">
        <ele>777.847000</ele>
        <time>2012-04-24T11:41:03Z</time>
      </trkpt>
      <trkpt lat="40.265509989" lon="-0.012136996">
        <ele>779.011000</ele>
        <time>2012-04-24T11:41:37Z</time>
      </trkpt>
      <trkpt lat="40.265887007" lon="-0.012177983">
        <ele>785.808000</ele>
        <time>2012-04-24T11:43:12Z</time>
      </trkpt>
      <trkpt lat="40.265721967" lon="-0.012319973">
        <ele>780.926000</ele>
        <time>2012-04-24T11:48:49Z</time>
      </trkpt>
      <trkpt lat="40.266011981" lon="-0.012291977">
        <ele>787.969000</ele>
        <time>2012-04-24T11:49:49Z</time>
      </trkpt>
      <trkpt lat="40.265905028" lon="-0.012246966">
        <ele>785.675000</ele>
        <time>2012-04-24T11:54:57Z</time>
      </trkpt>
      <trkpt lat="40.265877033" lon="-0.012415024">
        <ele>783.110000</ele>
        <time>2012-04-24T11:55:49Z</time>
      </trkpt>
      <trkpt lat="40.265954984" lon="-0.012200028">
        <ele>787.215000</ele>
        <time>2012-04-24T11:56:59Z</time>
      </trkpt>
      <trkpt lat="40.265820036" lon="-0.012243027">
        <ele>783.590000</ele>
        <time>2012-04-24T12:00:35Z</time>
      </trkpt>
      <trkpt lat="40.265867980" lon="-0.012543015">
        <ele>781.443000</ele>
        <time>2012-04-24T12:00:59Z</time>
      </trkpt>
      <trkpt lat="40.266469968" lon="-0.013627969">
        <ele>780.251000</ele>
        <time>2012-04-24T12:02:40Z</time>
      </trkpt>
      <trkpt lat="40.266380031" lon="-0.015147021">
        <ele>780.783000</ele>
        <time>2012-04-24T12:04:19Z</time>
      </trkpt>
      <trkpt lat="40.267112022" lon="-0.015744986">
        <ele>782.625000</ele>
        <time>2012-04-24T12:05:45Z</time>
      </trkpt>
      <trkpt lat="40.267008003" lon="-0.017448021">
        <ele>763.617000</ele>
        <time>2012-04-24T12:07:32Z</time>
      </trkpt>
      <trkpt lat="40.267342022" lon="-0.018645041">
        <ele>756.508000</ele>
        <time>2012-04-24T12:09:05Z</time>
      </trkpt>
      <trkpt lat="40.267383009" lon="-0.019681966">
        <ele>750.320000</ele>
        <time>2012-04-24T12:10:17Z</time>
      </trkpt>
      <trkpt lat="40.267487029" lon="-0.019811969">
        <ele>751.653000</ele>
        <time>2012-04-24T12:10:31Z</time>
      </trkpt>
      <trkpt lat="40.267905034" lon="-0.019853041">
        <ele>752.459000</ele>
        <time>2012-04-24T12:11:30Z</time>
      </trkpt>
      <trkpt lat="40.268378025" lon="-0.019345013">
        <ele>750.554000</ele>
        <time>2012-04-24T12:12:41Z</time>
      </trkpt>
      <trkpt lat="40.268478021" lon="-0.019411985">
        <ele>748.319000</ele>
        <time>2012-04-24T12:12:47Z</time>
      </trkpt>
      <trkpt lat="40.268837018" lon="-0.019197995">
        <ele>750.564000</ele>
        <time>2012-04-24T12:13:28Z</time>
      </trkpt>
      <trkpt lat="40.269462978" lon="-0.019318024">
        <ele>752.477000</ele>
        <time>2012-04-24T12:14:41Z</time>
      </trkpt>
      <trkpt lat="40.269574961" lon="-0.019090036">
        <ele>752.815000</ele>
        <time>2012-04-24T12:14:55Z</time>
      </trkpt>
      <trkpt lat="40.269727008" lon="-0.019090036">
        <ele>752.216000</ele>
        <time>2012-04-24T12:14:58Z</time>
      </trkpt>
      <trkpt lat="40.269468008" lon="-0.018162997">
        <ele>754.576000</ele>
        <time>2012-04-25T06:05:58Z</time>
      </trkpt>
      <trkpt lat="40.270103021" lon="-0.014161980">
        <ele>748.713000</ele>
        <time>2012-04-25T06:13:52Z</time>
      </trkpt>
      <trkpt lat="40.270215003" lon="-0.014176983">
        <ele>744.908000</ele>
        <time>2012-04-25T06:14:04Z</time>
      </trkpt>
      <trkpt lat="40.271306997" lon="-0.012587020">
        <ele>732.233000</ele>
        <time>2012-04-25T06:16:19Z</time>
      </trkpt>
      <trkpt lat="40.271615032" lon="-0.012428015">
        <ele>725.636000</ele>
        <time>2012-04-25T06:17:29Z</time>
      </trkpt>
      <trkpt lat="40.272126999" lon="-0.011827033">
        <ele>725.572000</ele>
        <time>2012-04-25T06:18:25Z</time>
      </trkpt>
      <trkpt lat="40.272537041" lon="-0.011798032">
        <ele>720.037000</ele>
        <time>2012-04-25T06:19:01Z</time>
      </trkpt>
      <trkpt lat="40.272711972" lon="-0.012207991">
        <ele>722.772000</ele>
        <time>2012-04-25T06:19:31Z</time>
      </trkpt>
      <trkpt lat="40.272251973" lon="-0.014843009">
        <ele>734.357000</ele>
        <time>2012-04-25T06:22:30Z</time>
      </trkpt>
      <trkpt lat="40.273031993" lon="-0.018080017">
        <ele>725.950000</ele>
        <time>2012-04-25T06:26:13Z</time>
      </trkpt>
      <trkpt lat="40.273555024" lon="-0.019362029">
        <ele>726.588000</ele>
        <time>2012-04-25T06:27:49Z</time>
      </trkpt>
      <trkpt lat="40.273997001" lon="-0.019738041">
        <ele>737.381000</ele>
        <time>2012-04-25T06:28:27Z</time>
      </trkpt>
      <trkpt lat="40.274430010" lon="-0.020474978">
        <ele>732.661000</ele>
        <time>2012-04-25T06:29:25Z</time>
      </trkpt>
      <trkpt lat="40.275402982" lon="-0.020732973">
        <ele>735.217000</ele>
        <time>2012-04-25T06:30:53Z</time>
      </trkpt>
      <trkpt lat="40.275567016" lon="-0.021022987">
        <ele>732.908000</ele>
        <time>2012-04-25T06:31:16Z</time>
      </trkpt>
      <trkpt lat="40.275480011" lon="-0.022231992">
        <ele>744.840000</ele>
        <time>2012-04-25T06:32:30Z</time>
      </trkpt>
      <trkpt lat="40.275068041" lon="-0.024277009">
        <ele>748.873000</ele>
        <time>2012-04-25T06:34:56Z</time>
      </trkpt>
      <trkpt lat="40.275470037" lon="-0.027276976">
        <ele>766.529000</ele>
        <time>2012-04-25T06:38:21Z</time>
      </trkpt>
      <trkpt lat="40.275774971" lon="-0.032350039">
        <ele>788.094000</ele>
        <time>2012-04-25T06:44:41Z</time>
      </trkpt>
      <trkpt lat="40.275955014" lon="-0.031564990">
        <ele>787.589000</ele>
        <time>2012-04-25T06:46:53Z</time>
      </trkpt>
      <trkpt lat="40.276127011" lon="-0.031573037">
        <ele>789.364000</ele>
        <time>2012-04-25T06:50:03Z</time>
      </trkpt>
      <trkpt lat="40.276087029" lon="-0.031873025">
        <ele>788.717000</ele>
        <time>2012-04-25T06:53:10Z</time>
      </trkpt>
      <trkpt lat="40.276306970" lon="-0.031924993">
        <ele>788.375000</ele>
        <time>2012-04-25T06:54:05Z</time>
      </trkpt>
      <trkpt lat="40.276362039" lon="-0.032678023">
        <ele>782.173000</ele>
        <time>2012-04-25T06:55:07Z</time>
      </trkpt>
      <trkpt lat="40.276515009" lon="-0.032765027">
        <ele>778.485000</ele>
        <time>2012-04-25T06:55:25Z</time>
      </trkpt>
      <trkpt lat="40.276621962" lon="-0.032627983">
        <ele>778.813000</ele>
        <time>2012-04-25T06:55:38Z</time>
      </trkpt>
      <trkpt lat="40.278494982" lon="-0.028563011">
        <ele>770.408000</ele>
        <time>2012-04-25T07:00:48Z</time>
      </trkpt>
      <trkpt lat="40.278873006" lon="-0.030308040">
        <ele>750.319000</ele>
        <time>2012-04-25T07:02:50Z</time>
      </trkpt>
      <trkpt lat="40.278997980" lon="-0.032767039">
        <ele>727.772000</ele>
        <time>2012-04-25T07:05:28Z</time>
      </trkpt>
      <trkpt lat="40.279326970" lon="-0.033476986">
        <ele>724.378000</ele>
        <time>2012-04-25T07:06:25Z</time>
      </trkpt>
      <trkpt lat="40.279997019" lon="-0.033123018">
        <ele>723.113000</ele>
        <time>2012-04-25T07:07:36Z</time>
      </trkpt>
      <trkpt lat="40.281163026" lon="-0.031777974">
        <ele>709.478000</ele>
        <time>2012-04-25T07:09:53Z</time>
      </trkpt>
      <trkpt lat="40.281625036" lon="-0.031631961">
        <ele>696.093000</ele>
        <time>2012-04-25T07:10:40Z</time>
      </trkpt>
      <trkpt lat="40.281942962" lon="-0.031316970">
        <ele>704.926000</ele>
        <time>2012-04-25T07:11:22Z</time>
      </trkpt>
      <trkpt lat="40.282404972" lon="-0.031502964">
        <ele>693.974000</ele>
        <time>2012-04-25T07:12:01Z</time>
      </trkpt>
      <trkpt lat="40.282877041" lon="-0.032311985">
        <ele>681.512000</ele>
        <time>2012-04-25T07:13:04Z</time>
      </trkpt>
      <trkpt lat="40.283787986" lon="-0.033170041">
        <ele>689.232000</ele>
        <time>2012-04-25T07:14:45Z</time>
      </trkpt>
      <trkpt lat="40.284228036" lon="-0.034217024">
        <ele>664.005000</ele>
        <time>2012-04-25T07:16:04Z</time>
      </trkpt>
      <trkpt lat="40.284625003" lon="-0.034714993">
        <ele>670.008000</ele>
        <time>2012-04-25T07:16:47Z</time>
      </trkpt>
      <trkpt lat="40.285148034" lon="-0.035785027">
        <ele>653.533000</ele>
        <time>2012-04-25T07:18:06Z</time>
      </trkpt>
      <trkpt lat="40.285396976" lon="-0.035985019">
        <ele>648.746000</ele>
        <time>2012-04-25T07:18:36Z</time>
      </trkpt>
      <trkpt lat="40.285790004" lon="-0.035889968">
        <ele>639.392000</ele>
        <time>2012-04-25T07:19:21Z</time>
      </trkpt>
      <trkpt lat="40.286040036" lon="-0.035344977">
        <ele>650.547000</ele>
        <time>2012-04-25T07:20:09Z</time>
      </trkpt>
      <trkpt lat="40.286822990" lon="-0.035885023">
        <ele>638.592000</ele>
        <time>2012-04-25T07:21:20Z</time>
      </trkpt>
      <trkpt lat="40.287058018" lon="-0.035834983">
        <ele>642.167000</ele>
        <time>2012-04-25T07:21:43Z</time>
      </trkpt>
      <trkpt lat="40.287539978" lon="-0.034877015">
        <ele>651.410000</ele>
        <time>2012-04-25T07:23:10Z</time>
      </trkpt>
      <trkpt lat="40.288367020" lon="-0.035302984">
        <ele>642.338000</ele>
        <time>2012-04-25T07:24:34Z</time>
      </trkpt>
      <trkpt lat="40.289863022" lon="-0.036763027">
        <ele>633.866000</ele>
        <time>2012-04-25T07:27:05Z</time>
      </trkpt>
      <trkpt lat="40.290565006" lon="-0.036656996">
        <ele>625.229000</ele>
        <time>2012-04-25T07:28:02Z</time>
      </trkpt>
      <trkpt lat="40.291879959" lon="-0.036926977">
        <ele>610.821000</ele>
        <time>2012-04-25T07:29:52Z</time>
      </trkpt>
      <trkpt lat="40.293182004" lon="-0.036592958">
        <ele>599.708000</ele>
        <time>2012-04-25T07:31:38Z</time>
      </trkpt>
      <trkpt lat="40.294039976" lon="-0.036209989">
        <ele>585.568000</ele>
        <time>2012-04-25T07:32:54Z</time>
      </trkpt>
      <trkpt lat="40.294482959" lon="-0.036322977">
        <ele>583.521000</ele>
        <time>2012-04-25T07:33:35Z</time>
      </trkpt>
      <trkpt lat="40.294701979" lon="-0.037026973">
        <ele>572.657000</ele>
        <time>2012-04-25T07:34:23Z</time>
      </trkpt>
      <trkpt lat="40.294096973" lon="-0.039337026">
        <ele>564.132000</ele>
        <time>2012-04-25T07:36:49Z</time>
      </trkpt>
      <trkpt lat="40.293102963" lon="-0.039583035">
        <ele>549.257000</ele>
        <time>2012-04-25T07:38:14Z</time>
      </trkpt>
      <trkpt lat="40.293283006" lon="-0.039900038">
        <ele>548.412000</ele>
        <time>2012-04-25T07:38:49Z</time>
      </trkpt>
      <trkpt lat="40.293381996" lon="-0.040618032">
        <ele>543.895000</ele>
        <time>2012-04-25T07:39:34Z</time>
      </trkpt>
      <trkpt lat="40.293927994" lon="-0.041405009">
        <ele>539.743000</ele>
        <time>2012-04-25T07:40:46Z</time>
      </trkpt>
      <trkpt lat="40.294548003" lon="-0.041308030">
        <ele>535.944000</ele>
        <time>2012-04-25T07:41:47Z</time>
      </trkpt>
      <trkpt lat="40.295189973" lon="-0.040662959">
        <ele>526.905000</ele>
        <time>2012-04-25T07:42:59Z</time>
      </trkpt>
      <trkpt lat="40.295372028" lon="-0.040692966">
        <ele>522.715000</ele>
        <time>2012-04-25T07:43:12Z</time>
      </trkpt>
      <trkpt lat="40.295747034" lon="-0.041222032">
        <ele>515.708000</ele>
        <time>2012-04-25T07:43:51Z</time>
      </trkpt>
      <trkpt lat="40.296037970" lon="-0.042032981">
        <ele>510.176000</ele>
        <time>2012-04-25T07:44:47Z</time>
      </trkpt>
      <trkpt lat="40.296347011" lon="-0.042432966">
        <ele>505.889000</ele>
        <time>2012-04-25T07:45:22Z</time>
      </trkpt>
      <trkpt lat="40.296612969" lon="-0.043965010">
        <ele>499.415000</ele>
        <time>2012-04-25T07:47:01Z</time>
      </trkpt>
      <trkpt lat="40.298262024" lon="-0.047011999">
        <ele>480.880000</ele>
        <time>2012-04-25T07:50:54Z</time>
      </trkpt>
      <trkpt lat="40.299398024" lon="-0.051524984">
        <ele>456.325000</ele>
        <time>2012-04-25T07:55:51Z</time>
      </trkpt>
      <trkpt lat="40.299712010" lon="-0.052425032">
        <ele>451.250000</ele>
        <time>2012-04-25T07:56:56Z</time>
      </trkpt>
      <trkpt lat="40.300033037" lon="-0.052904980">
        <ele>444.633000</ele>
        <time>2012-04-25T07:58:38Z</time>
      </trkpt>
      <trkpt lat="40.300034964" lon="-0.053534964">
        <ele>438.531000</ele>
        <time>2012-04-25T07:59:25Z</time>
      </trkpt>
      <trkpt lat="40.300417012" lon="-0.052912021">
        <ele>436.329000</ele>
        <time>2012-04-25T08:00:27Z</time>
      </trkpt>
      <trkpt lat="40.300617004" lon="-0.052904980">
        <ele>436.100000</ele>
        <time>2012-04-25T08:00:47Z</time>
      </trkpt>
      <trkpt lat="40.300752036" lon="-0.053221984">
        <ele>436.020000</ele>
        <time>2012-04-25T08:01:24Z</time>
      </trkpt>
      <trkpt lat="40.300647011" lon="-0.052872961">
        <ele>436.508000</ele>
        <time>2012-04-25T08:02:00Z</time>
      </trkpt>
      <trkpt lat="40.300765028" lon="-0.052305004">
        <ele>440.484000</ele>
        <time>2012-04-25T08:02:49Z</time>
      </trkpt>
      <trkpt lat="40.301356958" lon="-0.050378004">
        <ele>441.297000</ele>
        <time>2012-04-25T08:05:17Z</time>
      </trkpt>
      <trkpt lat="40.302130021" lon="-0.049324986">
        <ele>442.213000</ele>
        <time>2012-04-25T08:06:52Z</time>
      </trkpt>
      <trkpt lat="40.304382993" lon="-0.047897967">
        <ele>446.598000</ele>
        <time>2012-04-25T08:13:04Z</time>
      </trkpt>
      <trkpt lat="40.305116996" lon="-0.047756983">
        <ele>448.843000</ele>
        <time>2012-04-25T08:14:11Z</time>
      </trkpt>
      <trkpt lat="40.306228017" lon="-0.047832001">
        <ele>451.118000</ele>
        <time>2012-04-25T08:15:50Z</time>
      </trkpt>
      <trkpt lat="40.307693006" lon="-0.047363034">
        <ele>451.351000</ele>
        <time>2012-04-25T08:18:03Z</time>
      </trkpt>
      <trkpt lat="40.308138002" lon="-0.046755010">
        <ele>450.149000</ele>
        <time>2012-04-25T08:18:58Z</time>
      </trkpt>
      <trkpt lat="40.308259958" lon="-0.046040034">
        <ele>452.088000</ele>
        <time>2012-04-25T08:19:58Z</time>
      </trkpt>
      <trkpt lat="40.310034994" lon="-0.045381971">
        <ele>456.624000</ele>
        <time>2012-04-25T08:22:58Z</time>
      </trkpt>
      <trkpt lat="40.310455011" lon="-0.045020040">
        <ele>460.126000</ele>
        <time>2012-04-25T08:23:40Z</time>
      </trkpt>
      <trkpt lat="40.311437035" lon="-0.045147026">
        <ele>455.908000</ele>
        <time>2012-04-25T08:25:06Z</time>
      </trkpt>
      <trkpt lat="40.312300036" lon="-0.044870004">
        <ele>458.660000</ele>
        <time>2012-04-25T08:26:24Z</time>
      </trkpt>
      <trkpt lat="40.314289983" lon="-0.042570010">
        <ele>466.613000</ele>
        <time>2012-04-25T08:30:05Z</time>
      </trkpt>
      <trkpt lat="40.314606987" lon="-0.041684965">
        <ele>466.219000</ele>
        <time>2012-04-25T08:31:08Z</time>
      </trkpt>
      <trkpt lat="40.314766997" lon="-0.040253000">
        <ele>463.334000</ele>
        <time>2012-04-25T08:32:44Z</time>
      </trkpt>
      <trkpt lat="40.315113002" lon="-0.039753020">
        <ele>466.769000</ele>
        <time>2012-04-25T08:33:25Z</time>
      </trkpt>
      <trkpt lat="40.316898013" lon="-0.038270010">
        <ele>471.664000</ele>
        <time>2012-04-25T08:36:30Z</time>
      </trkpt>
      <trkpt lat="40.318922997" lon="-0.037372978">
        <ele>476.787000</ele>
        <time>2012-04-25T08:39:31Z</time>
      </trkpt>
      <trkpt lat="40.320392009" lon="-0.036070012">
        <ele>478.755000</ele>
        <time>2012-04-25T08:42:05Z</time>
      </trkpt>
      <trkpt lat="40.320410030" lon="-0.036161961">
        <ele>479.279000</ele>
        <time>2012-04-25T08:42:05Z</time>
      </trkpt>
      <trkpt lat="40.320768021" lon="-0.035702968">
        <ele>477.305000</ele>
        <time>2012-04-25T08:42:51Z</time>
      </trkpt>
      <trkpt lat="40.321367998" lon="-0.035976972">
        <ele>478.025000</ele>
        <time>2012-04-25T08:43:57Z</time>
      </trkpt>
      <trkpt lat="40.322337030" lon="-0.037054969">
        <ele>478.008000</ele>
        <time>2012-04-25T08:46:19Z</time>
      </trkpt>
      <trkpt lat="40.324614979" lon="-0.036733020">
        <ele>484.879000</ele>
        <time>2012-04-25T08:49:43Z</time>
      </trkpt>
      <trkpt lat="40.325963041" lon="-0.036081998">
        <ele>492.222000</ele>
        <time>2012-04-25T08:51:53Z</time>
      </trkpt>
      <trkpt lat="40.326616997" lon="-0.035568019">
        <ele>495.198000</ele>
        <time>2012-04-25T08:53:01Z</time>
      </trkpt>
      <trkpt lat="40.328805009" lon="-0.035171974">
        <ele>495.723000</ele>
        <time>2012-04-25T08:56:10Z</time>
      </trkpt>
      <trkpt lat="40.329544963" lon="-0.034862012">
        <ele>497.928000</ele>
        <time>2012-04-25T08:57:16Z</time>
      </trkpt>
      <trkpt lat="40.331758037" lon="-0.033361986">
        <ele>491.663000</ele>
        <time>2012-04-25T09:00:37Z</time>
      </trkpt>
      <trkpt lat="40.333112972" lon="-0.032833004">
        <ele>494.276000</ele>
        <time>2012-04-25T09:02:25Z</time>
      </trkpt>
      <trkpt lat="40.334162973" lon="-0.032166978">
        <ele>495.064000</ele>
        <time>2012-04-25T09:04:05Z</time>
      </trkpt>
      <trkpt lat="40.334747024" lon="-0.029207999">
        <ele>499.986000</ele>
        <time>2012-04-25T09:07:34Z</time>
      </trkpt>
      <trkpt lat="40.336095002" lon="-0.028011985">
        <ele>500.260000</ele>
        <time>2012-04-25T09:09:43Z</time>
      </trkpt>
      <trkpt lat="40.337022040" lon="-0.026857965">
        <ele>502.126000</ele>
        <time>2012-04-25T09:11:33Z</time>
      </trkpt>
      <trkpt lat="40.338988015" lon="-0.024934988">
        <ele>507.208000</ele>
        <time>2012-04-25T09:15:09Z</time>
      </trkpt>
      <trkpt lat="40.340698007" lon="-0.022906987">
        <ele>510.570000</ele>
        <time>2012-04-25T09:18:34Z</time>
      </trkpt>
      <trkpt lat="40.341194971" lon="-0.022077011">
        <ele>511.813000</ele>
        <time>2012-04-25T09:32:48Z</time>
      </trkpt>
      <trkpt lat="40.341024986" lon="-0.020025037">
        <ele>515.129000</ele>
        <time>2012-04-25T09:35:46Z</time>
      </trkpt>
      <trkpt lat="40.340776965" lon="-0.019781962">
        <ele>518.424000</ele>
        <time>2012-04-25T09:36:16Z</time>
      </trkpt>
      <trkpt lat="40.340410005" lon="-0.018913010">
        <ele>522.049000</ele>
        <time>2012-04-25T09:37:27Z</time>
      </trkpt>
      <trkpt lat="40.338388039" lon="-0.016537998">
        <ele>535.414000</ele>
        <time>2012-04-25T09:41:33Z</time>
      </trkpt>
      <trkpt lat="40.337922005" lon="-0.015659994">
        <ele>536.827000</ele>
        <time>2012-04-25T09:42:40Z</time>
      </trkpt>
      <trkpt lat="40.336530022" lon="-0.014059972">
        <ele>542.035000</ele>
        <time>2012-04-25T09:45:35Z</time>
      </trkpt>
      <trkpt lat="40.335619999" lon="-0.012627002">
        <ele>546.177000</ele>
        <time>2012-04-25T09:47:41Z</time>
      </trkpt>
      <trkpt lat="40.336219976" lon="-0.011817981">
        <ele>541.961000</ele>
        <time>2012-04-25T09:48:49Z</time>
      </trkpt>
      <trkpt lat="40.337357987" lon="-0.010749958">
        <ele>538.227000</ele>
        <time>2012-04-25T09:50:38Z</time>
      </trkpt>
      <trkpt lat="40.340280002" lon="-0.008422974">
        <ele>537.008000</ele>
        <time>2012-04-25T09:55:07Z</time>
      </trkpt>
      <trkpt lat="40.342922984" lon="-0.006094985">
        <ele>532.169000</ele>
        <time>2012-04-25T09:59:26Z</time>
      </trkpt>
      <trkpt lat="40.343269994" lon="-0.006532017">
        <ele>532.562000</ele>
        <time>2012-04-25T10:00:15Z</time>
      </trkpt>
      <trkpt lat="40.343724964" lon="-0.006639976">
        <ele>535.828000</ele>
        <time>2012-04-25T10:01:23Z</time>
      </trkpt>
      <trkpt lat="40.343582975" lon="-0.006567976">
        <ele>535.123000</ele>
        <time>2012-04-25T10:02:09Z</time>
      </trkpt>
      <trkpt lat="40.343618011" lon="-0.006656991">
        <ele>535.928000</ele>
        <time>2012-04-25T10:02:25Z</time>
      </trkpt>
      <trkpt lat="40.343750026" lon="-0.006539980">
        <ele>535.173000</ele>
        <time>2012-04-25T10:03:05Z</time>
      </trkpt>
      <trkpt lat="40.343158012" lon="-0.006291959">
        <ele>532.066000</ele>
        <time>2012-04-25T12:59:52Z</time>
      </trkpt>
      <trkpt lat="40.343539976" lon="-0.006871987">
        <ele>536.394000</ele>
        <time>2012-04-25T13:01:00Z</time>
      </trkpt>
      <trkpt lat="40.343723036" lon="-0.007616971">
        <ele>534.223000</ele>
        <time>2012-04-25T13:02:52Z</time>
      </trkpt>
      <trkpt lat="40.344046997" lon="-0.008203033">
        <ele>528.883000</ele>
        <time>2012-04-25T13:03:48Z</time>
      </trkpt>
      <trkpt lat="40.344467014" lon="-0.010076975">
        <ele>523.011000</ele>
        <time>2012-04-25T13:06:07Z</time>
      </trkpt>
      <trkpt lat="40.344887031" lon="-0.010892032">
        <ele>521.208000</ele>
        <time>2012-04-25T13:07:16Z</time>
      </trkpt>
      <trkpt lat="40.345642995" lon="-0.013073003">
        <ele>522.434000</ele>
        <time>2012-04-25T13:10:10Z</time>
      </trkpt>
      <trkpt lat="40.346674975" lon="-0.016591977">
        <ele>524.017000</ele>
        <time>2012-04-25T13:14:17Z</time>
      </trkpt>
      <trkpt lat="40.346819982" lon="-0.016615028">
        <ele>523.453000</ele>
        <time>2012-04-25T13:14:34Z</time>
      </trkpt>
      <trkpt lat="40.346719986" lon="-0.016781995">
        <ele>523.548000</ele>
        <time>2012-04-25T13:14:56Z</time>
      </trkpt>
      <trkpt lat="40.346800033" lon="-0.016625002">
        <ele>523.553000</ele>
        <time>2012-04-25T13:15:17Z</time>
      </trkpt>
      <trkpt lat="40.347143020" lon="-0.016547972">
        <ele>524.068000</ele>
        <time>2012-04-25T13:15:49Z</time>
      </trkpt>
      <trkpt lat="40.347884987" lon="-0.016628020">
        <ele>526.071000</ele>
        <time>2012-04-25T13:16:52Z</time>
      </trkpt>
      <trkpt lat="40.348502984" lon="-0.018352009">
        <ele>527.619000</ele>
        <time>2012-04-25T13:19:38Z</time>
      </trkpt>
      <trkpt lat="40.350910015" lon="-0.022728033">
        <ele>526.534000</ele>
        <time>2012-04-25T13:25:08Z</time>
      </trkpt>
      <trkpt lat="40.351822972" lon="-0.021742992">
        <ele>531.455000</ele>
        <time>2012-04-25T13:27:13Z</time>
      </trkpt>
      <trkpt lat="40.353340013" lon="-0.018672030">
        <ele>537.810000</ele>
        <time>2012-04-25T13:31:04Z</time>
      </trkpt>
      <trkpt lat="40.353800012" lon="-0.018383022">
        <ele>539.308000</ele>
        <time>2012-04-25T13:31:47Z</time>
      </trkpt>
      <trkpt lat="40.354811959" lon="-0.019284999">
        <ele>543.515000</ele>
        <time>2012-04-25T13:33:32Z</time>
      </trkpt>
      <trkpt lat="40.355732962" lon="-0.020659966">
        <ele>546.398000</ele>
        <time>2012-04-25T13:35:35Z</time>
      </trkpt>
      <trkpt lat="40.358148040" lon="-0.023492966">
        <ele>557.144000</ele>
        <time>2012-04-25T13:43:46Z</time>
      </trkpt>
      <trkpt lat="40.358563028" lon="-0.022973036">
        <ele>552.869000</ele>
        <time>2012-04-25T13:44:56Z</time>
      </trkpt>
      <trkpt lat="40.359274987" lon="-0.023085019">
        <ele>546.944000</ele>
        <time>2012-04-25T13:48:11Z</time>
      </trkpt>
      <trkpt lat="40.360679962" lon="-0.024972036">
        <ele>551.539000</ele>
        <time>2012-04-25T13:51:01Z</time>
      </trkpt>
      <trkpt lat="40.361137027" lon="-0.025232965">
        <ele>551.222000</ele>
        <time>2012-04-25T13:51:54Z</time>
      </trkpt>
      <trkpt lat="40.361468028" lon="-0.025648037">
        <ele>552.170000</ele>
        <time>2012-04-25T13:52:36Z</time>
      </trkpt>
      <trkpt lat="40.361882010" lon="-0.026761992">
        <ele>553.865000</ele>
        <time>2012-04-25T13:54:53Z</time>
      </trkpt>
      <trkpt lat="40.361717977" lon="-0.027257027">
        <ele>553.668000</ele>
        <time>2012-04-25T13:55:29Z</time>
      </trkpt>
      <trkpt lat="40.361655029" lon="-0.028663008">
        <ele>563.214000</ele>
        <time>2012-04-25T13:57:08Z</time>
      </trkpt>
      <trkpt lat="40.361947976" lon="-0.030369982">
        <ele>564.308000</ele>
        <time>2012-04-25T13:59:04Z</time>
      </trkpt>
      <trkpt lat="40.363327973" lon="-0.035255039">
        <ele>572.128000</ele>
        <time>2012-04-25T14:04:48Z</time>
      </trkpt>
      <trkpt lat="40.363985030" lon="-0.036763027">
        <ele>576.971000</ele>
        <time>2012-04-25T14:06:43Z</time>
      </trkpt>
      <trkpt lat="40.364264986" lon="-0.037097968">
        <ele>576.767000</ele>
        <time>2012-04-25T14:07:30Z</time>
      </trkpt>
      <trkpt lat="40.364549970" lon="-0.036867969">
        <ele>576.092000</ele>
        <time>2012-04-25T14:08:50Z</time>
      </trkpt>
      <trkpt lat="40.364362970" lon="-0.037075002">
        <ele>576.837000</ele>
        <time>2012-04-25T14:09:52Z</time>
      </trkpt>
      <trkpt lat="40.364611996" lon="-0.037797019">
        <ele>574.112000</ele>
        <time>2012-04-25T14:10:42Z</time>
      </trkpt>
      <trkpt lat="40.364530021" lon="-0.039544981">
        <ele>575.715000</ele>
        <time>2012-04-25T14:12:30Z</time>
      </trkpt>
      <trkpt lat="40.365284979" lon="-0.042167008">
        <ele>576.133000</ele>
        <time>2012-04-25T14:15:30Z</time>
      </trkpt>
      <trkpt lat="40.366276978" lon="-0.044047991">
        <ele>578.219000</ele>
        <time>2012-04-25T14:18:02Z</time>
      </trkpt>
      <trkpt lat="40.366221992" lon="-0.044615027">
        <ele>579.809000</ele>
        <time>2012-04-26T05:57:03Z</time>
      </trkpt>
      <trkpt lat="40.366391977" lon="-0.044392990">
        <ele>577.819000</ele>
        <time>2012-04-26T05:58:24Z</time>
      </trkpt>
      <trkpt lat="40.366633041" lon="-0.045227995">
        <ele>581.608000</ele>
        <time>2012-04-26T05:59:25Z</time>
      </trkpt>
      <trkpt lat="40.366900004" lon="-0.044937981">
        <ele>578.983000</ele>
        <time>2012-04-26T06:00:00Z</time>
      </trkpt>
      <trkpt lat="40.367066972" lon="-0.045057004">
        <ele>579.216000</ele>
        <time>2012-04-26T06:00:18Z</time>
      </trkpt>
      <trkpt lat="40.367605006" lon="-0.045032026">
        <ele>580.082000</ele>
        <time>2012-04-26T06:01:34Z</time>
      </trkpt>
      <trkpt lat="40.368662970" lon="-0.044758022">
        <ele>587.827000</ele>
        <time>2012-04-26T06:03:24Z</time>
      </trkpt>
      <trkpt lat="40.368957007" lon="-0.044802027">
        <ele>589.052000</ele>
        <time>2012-04-26T06:03:50Z</time>
      </trkpt>
      <trkpt lat="40.370301967" lon="-0.045566959">
        <ele>594.097000</ele>
        <time>2012-04-26T06:05:58Z</time>
      </trkpt>
      <trkpt lat="40.371509967" lon="-0.045911958">
        <ele>598.450000</ele>
        <time>2012-04-26T06:07:40Z</time>
      </trkpt>
      <trkpt lat="40.371754970" lon="-0.046268022">
        <ele>598.628000</ele>
        <time>2012-04-26T06:08:06Z</time>
      </trkpt>
      <trkpt lat="40.372172976" lon="-0.046283025">
        <ele>600.196000</ele>
        <time>2012-04-26T06:08:43Z</time>
      </trkpt>
      <trkpt lat="40.373397991" lon="-0.047339983">
        <ele>605.131000</ele>
        <time>2012-04-26T06:10:45Z</time>
      </trkpt>
      <trkpt lat="40.373702003" lon="-0.047322968">
        <ele>606.224000</ele>
        <time>2012-04-26T06:11:07Z</time>
      </trkpt>
      <trkpt lat="40.375703014" lon="-0.048029982">
        <ele>607.608000</ele>
        <time>2012-04-26T06:13:41Z</time>
      </trkpt>
      <trkpt lat="40.376159996" lon="-0.047767041">
        <ele>609.131000</ele>
        <time>2012-04-26T06:14:20Z</time>
      </trkpt>
      <trkpt lat="40.376972035" lon="-0.048011960">
        <ele>609.894000</ele>
        <time>2012-04-26T06:15:32Z</time>
      </trkpt>
      <trkpt lat="40.377817014" lon="-0.048921984">
        <ele>615.690000</ele>
        <time>2012-04-26T06:16:59Z</time>
      </trkpt>
      <trkpt lat="40.378499972" lon="-0.050047003">
        <ele>616.845000</ele>
        <time>2012-04-26T06:18:39Z</time>
      </trkpt>
      <trkpt lat="40.379315028" lon="-0.050395019">
        <ele>620.140000</ele>
        <time>2012-04-26T06:19:52Z</time>
      </trkpt>
      <trkpt lat="40.380582958" lon="-0.051394980">
        <ele>625.175000</ele>
        <time>2012-04-26T06:21:59Z</time>
      </trkpt>
      <trkpt lat="40.381988017" lon="-0.052177012">
        <ele>627.658000</ele>
        <time>2012-04-26T06:23:57Z</time>
      </trkpt>
      <trkpt lat="40.382992001" lon="-0.052544978">
        <ele>630.746000</ele>
        <time>2012-04-26T06:25:20Z</time>
      </trkpt>
      <trkpt lat="40.383898001" lon="-0.052597029">
        <ele>634.051000</ele>
        <time>2012-04-26T06:26:34Z</time>
      </trkpt>
      <trkpt lat="40.384826967" lon="-0.052118003">
        <ele>632.701000</ele>
        <time>2012-04-26T06:27:47Z</time>
      </trkpt>
      <trkpt lat="40.385444965" lon="-0.050376998">
        <ele>636.111000</ele>
        <time>2012-04-26T06:29:56Z</time>
      </trkpt>
      <trkpt lat="40.386963012" lon="-0.048527028">
        <ele>641.608000</ele>
        <time>2012-04-26T06:32:43Z</time>
      </trkpt>
      <trkpt lat="40.387261994" lon="-0.047867959">
        <ele>645.537000</ele>
        <time>2012-04-26T06:33:37Z</time>
      </trkpt>
      <trkpt lat="40.389727028" lon="-0.046035005">
        <ele>649.590000</ele>
        <time>2012-04-26T06:40:10Z</time>
      </trkpt>
      <trkpt lat="40.391857959" lon="-0.043275012">
        <ele>657.556000</ele>
        <time>2012-04-26T06:44:25Z</time>
      </trkpt>
      <trkpt lat="40.392434970" lon="-0.042053014">
        <ele>663.571000</ele>
        <time>2012-04-26T06:46:02Z</time>
      </trkpt>
      <trkpt lat="40.393214989" lon="-0.041387994">
        <ele>665.026000</ele>
        <time>2012-04-26T06:47:16Z</time>
      </trkpt>
      <trkpt lat="40.394197013" lon="-0.040019983">
        <ele>667.971000</ele>
        <time>2012-04-26T06:49:28Z</time>
      </trkpt>
      <trkpt lat="40.395720005" lon="-0.039532995">
        <ele>672.944000</ele>
        <time>2012-04-26T06:51:47Z</time>
      </trkpt>
      <trkpt lat="40.396406986" lon="-0.039916970">
        <ele>673.332000</ele>
        <time>2012-04-26T06:53:00Z</time>
      </trkpt>
      <trkpt lat="40.397466961" lon="-0.039692000">
        <ele>676.191000</ele>
        <time>2012-04-26T06:54:42Z</time>
      </trkpt>
      <trkpt lat="40.398559961" lon="-0.039891992">
        <ele>677.481000</ele>
        <time>2012-04-26T06:56:13Z</time>
      </trkpt>
      <trkpt lat="40.401872993" lon="-0.039837006">
        <ele>689.319000</ele>
        <time>2012-04-26T07:00:43Z</time>
      </trkpt>
      <trkpt lat="40.403232034" lon="-0.038932012">
        <ele>695.208000</ele>
        <time>2012-04-26T07:03:02Z</time>
      </trkpt>
      <trkpt lat="40.403028019" lon="-0.037906989">
        <ele>697.111000</ele>
        <time>2012-04-26T07:04:29Z</time>
      </trkpt>
      <trkpt lat="40.401908029" lon="-0.035053035">
        <ele>689.294000</ele>
        <time>2012-04-26T07:12:25Z</time>
      </trkpt>
      <trkpt lat="40.400627023" lon="-0.033601960">
        <ele>685.530000</ele>
        <time>2012-04-26T07:14:47Z</time>
      </trkpt>
      <trkpt lat="40.400621993" lon="-0.033247992">
        <ele>685.745000</ele>
        <time>2012-04-26T07:17:04Z</time>
      </trkpt>
      <trkpt lat="40.400947966" lon="-0.033304989">
        <ele>686.490000</ele>
        <time>2012-04-26T07:17:40Z</time>
      </trkpt>
      <trkpt lat="40.403009998" lon="-0.032954961">
        <ele>690.485000</ele>
        <time>2012-04-26T07:20:36Z</time>
      </trkpt>
      <trkpt lat="40.405261964" lon="-0.032345010">
        <ele>696.438000</ele>
        <time>2012-04-26T07:23:55Z</time>
      </trkpt>
      <trkpt lat="40.405926984" lon="-0.032284996">
        <ele>700.516000</ele>
        <time>2012-04-26T07:25:44Z</time>
      </trkpt>
      <trkpt lat="40.408523027" lon="-0.030937018">
        <ele>699.399000</ele>
        <time>2012-04-26T07:29:35Z</time>
      </trkpt>
      <trkpt lat="40.411186963" lon="-0.028997026">
        <ele>696.407000</ele>
        <time>2012-04-26T07:33:31Z</time>
      </trkpt>
      <trkpt lat="40.412662011" lon="-0.028284984">
        <ele>693.527000</ele>
        <time>2012-04-26T07:35:30Z</time>
      </trkpt>
      <trkpt lat="40.413327031" lon="-0.027566990">
        <ele>694.008000</ele>
        <time>2012-04-26T07:37:01Z</time>
      </trkpt>
      <trkpt lat="40.413447982" lon="-0.027200030">
        <ele>694.021000</ele>
        <time>2012-04-26T07:39:04Z</time>
      </trkpt>
      <trkpt lat="40.413692985" lon="-0.027155019">
        <ele>694.074000</ele>
        <time>2012-04-26T07:41:58Z</time>
      </trkpt>
      <trkpt lat="40.413737996" lon="-0.027319975">
        <ele>693.620000</ele>
        <time>2012-04-26T07:43:38Z</time>
      </trkpt>
      <trkpt lat="40.414263038" lon="-0.027049994">
        <ele>692.725000</ele>
        <time>2012-04-26T07:44:27Z</time>
      </trkpt>
      <trkpt lat="40.416034972" lon="-0.024838010">
        <ele>696.340000</ele>
        <time>2012-04-26T07:47:44Z</time>
      </trkpt>
      <trkpt lat="40.416923035" lon="-0.023967968">
        <ele>698.445000</ele>
        <time>2012-04-26T07:49:14Z</time>
      </trkpt>
      <trkpt lat="40.418528002" lon="-0.023197001">
        <ele>691.138000</ele>
        <time>2012-04-26T07:51:27Z</time>
      </trkpt>
      <trkpt lat="40.419810014" lon="-0.022397032">
        <ele>691.496000</ele>
        <time>2012-04-26T07:53:22Z</time>
      </trkpt>
      <trkpt lat="40.420319969" lon="-0.022292007">
        <ele>689.935000</ele>
        <time>2012-04-26T07:54:37Z</time>
      </trkpt>
      <trkpt lat="40.418965034" lon="-0.021043019">
        <ele>698.086000</ele>
        <time>2012-04-26T07:57:18Z</time>
      </trkpt>
      <trkpt lat="40.419791993" lon="-0.019690013">
        <ele>698.714000</ele>
        <time>2012-04-26T07:59:15Z</time>
      </trkpt>
      <trkpt lat="40.419934988" lon="-0.018958021">
        <ele>697.608000</ele>
        <time>2012-04-26T08:00:08Z</time>
      </trkpt>
      <trkpt lat="40.420605037" lon="-0.017682966">
        <ele>700.185000</ele>
        <time>2012-04-26T08:02:10Z</time>
      </trkpt>
      <trkpt lat="40.421271985" lon="-0.018468015">
        <ele>695.478000</ele>
        <time>2012-04-26T08:03:35Z</time>
      </trkpt>
      <trkpt lat="40.422010012" lon="-0.019732006">
        <ele>691.784000</ele>
        <time>2012-04-26T08:05:20Z</time>
      </trkpt>
      <trkpt lat="40.423122961" lon="-0.020988034">
        <ele>695.249000</ele>
        <time>2012-04-26T08:07:31Z</time>
      </trkpt>
      <trkpt lat="40.423986968" lon="-0.020168032">
        <ele>694.084000</ele>
        <time>2012-04-26T08:08:56Z</time>
      </trkpt>
      <trkpt lat="40.424164999" lon="-0.020177001">
        <ele>694.029000</ele>
        <time>2012-04-26T08:09:15Z</time>
      </trkpt>
      <trkpt lat="40.426688036" lon="-0.017350037">
        <ele>692.272000</ele>
        <time>2012-04-26T08:13:35Z</time>
      </trkpt>
      <trkpt lat="40.431477036" lon="-0.013686977">
        <ele>696.890000</ele>
        <time>2012-04-26T08:21:03Z</time>
      </trkpt>
      <trkpt lat="40.433288030" lon="-0.012685005">
        <ele>696.355000</ele>
        <time>2012-04-26T08:23:48Z</time>
      </trkpt>
      <trkpt lat="40.436437028" lon="-0.011625029">
        <ele>702.307000</ele>
        <time>2012-04-26T08:28:06Z</time>
      </trkpt>
      <trkpt lat="40.438596960" lon="-0.010439996">
        <ele>704.917000</ele>
        <time>2012-04-26T08:31:18Z</time>
      </trkpt>
      <trkpt lat="40.439277990" lon="-0.010136990">
        <ele>706.708000</ele>
        <time>2012-04-26T08:32:59Z</time>
      </trkpt>
      <trkpt lat="40.439591976" lon="-0.010151993">
        <ele>706.567000</ele>
        <time>2012-04-26T08:33:33Z</time>
      </trkpt>
      <trkpt lat="40.440207040" lon="-0.009832978">
        <ele>706.060000</ele>
        <time>2012-04-26T08:34:45Z</time>
      </trkpt>
      <trkpt lat="40.440326985" lon="-0.009513041">
        <ele>705.896000</ele>
        <time>2012-04-26T08:35:16Z</time>
      </trkpt>
      <trkpt lat="40.441257963" lon="-0.008952040">
        <ele>706.061000</ele>
        <time>2012-04-26T08:36:33Z</time>
      </trkpt>
      <trkpt lat="40.442147031" lon="-0.008771997">
        <ele>705.746000</ele>
        <time>2012-04-26T08:37:43Z</time>
      </trkpt>
      <trkpt lat="40.444594966" lon="-0.008881968">
        <ele>703.441000</ele>
        <time>2012-04-26T08:40:46Z</time>
      </trkpt>
      <trkpt lat="40.445647985" lon="-0.008577034">
        <ele>701.924000</ele>
        <time>2012-04-26T08:42:11Z</time>
      </trkpt>
      <trkpt lat="40.448409989" lon="-0.006300006">
        <ele>696.682000</ele>
        <time>2012-04-26T08:46:35Z</time>
      </trkpt>
      <trkpt lat="40.448692041" lon="-0.006275028">
        <ele>696.278000</ele>
        <time>2012-04-26T08:47:01Z</time>
      </trkpt>
      <trkpt lat="40.450743008" lon="-0.004741978">
        <ele>686.433000</ele>
        <time>2012-04-26T08:50:12Z</time>
      </trkpt>
      <trkpt lat="40.451390008" lon="-0.003955001">
        <ele>683.226000</ele>
        <time>2012-04-26T08:51:27Z</time>
      </trkpt>
      <trkpt lat="40.452227024" lon="-0.003866991">
        <ele>679.808000</ele>
        <time>2012-04-26T08:53:07Z</time>
      </trkpt>
      <trkpt lat="40.454146983" lon="-0.002687993">
        <ele>671.899000</ele>
        <time>2012-04-26T08:56:27Z</time>
      </trkpt>
      <trkpt lat="40.455381973" lon="-0.001237001">
        <ele>669.762000</ele>
        <time>2012-04-26T08:58:46Z</time>
      </trkpt>
      <trkpt lat="40.455682967" lon="-0.000582961">
        <ele>665.228000</ele>
        <time>2012-04-26T08:59:45Z</time>
      </trkpt>
      <trkpt lat="40.455814982" lon="0.000420017">
        <ele>661.743000</ele>
        <time>2012-04-26T09:00:59Z</time>
      </trkpt>
      <trkpt lat="40.455482975" lon="0.001202971">
        <ele>658.088000</ele>
        <time>2012-04-26T09:02:12Z</time>
      </trkpt>
      <trkpt lat="40.455522034" lon="0.002475008">
        <ele>659.463000</ele>
        <time>2012-04-26T09:03:44Z</time>
      </trkpt>
      <trkpt lat="40.456337007" lon="0.004912969">
        <ele>651.666000</ele>
        <time>2012-04-26T09:06:48Z</time>
      </trkpt>
      <trkpt lat="40.456898008" lon="0.007840013">
        <ele>644.164000</ele>
        <time>2012-04-26T09:10:24Z</time>
      </trkpt>
      <trkpt lat="40.456804968" lon="0.008835029">
        <ele>639.727000</ele>
        <time>2012-04-26T09:11:50Z</time>
      </trkpt>
      <trkpt lat="40.457154997" lon="0.009904979">
        <ele>635.668000</ele>
        <time>2012-04-26T09:13:11Z</time>
      </trkpt>
      <trkpt lat="40.457336968" lon="0.011871960">
        <ele>634.514000</ele>
        <time>2012-04-26T09:16:03Z</time>
      </trkpt>
      <trkpt lat="40.457754973" lon="0.013348013">
        <ele>641.808000</ele>
        <time>2012-04-26T09:17:59Z</time>
      </trkpt>
      <trkpt lat="40.458265012" lon="0.014053015">
        <ele>644.254000</ele>
        <time>2012-04-26T09:19:04Z</time>
      </trkpt>
      <trkpt lat="40.459067998" lon="0.014698002">
        <ele>644.137000</ele>
        <time>2012-04-26T09:20:31Z</time>
      </trkpt>
      <trkpt lat="40.459545013" lon="0.014703032">
        <ele>644.493000</ele>
        <time>2012-04-26T09:21:15Z</time>
      </trkpt>
      <trkpt lat="40.459630005" lon="0.014398014">
        <ele>646.178000</ele>
        <time>2012-04-26T09:26:12Z</time>
      </trkpt>
      <trkpt lat="40.459727990" lon="0.014547966">
        <ele>645.713000</ele>
        <time>2012-04-26T09:26:41Z</time>
      </trkpt>
      <trkpt lat="40.460052034" lon="0.014307993">
        <ele>648.068000</ele>
        <time>2012-04-26T09:37:25Z</time>
      </trkpt>
      <trkpt lat="40.460248003" lon="0.014413018">
        <ele>648.081000</ele>
        <time>2012-04-26T09:38:08Z</time>
      </trkpt>
      <trkpt lat="40.462231999" lon="0.016817031">
        <ele>650.079000</ele>
        <time>2012-04-26T09:42:12Z</time>
      </trkpt>
      <trkpt lat="40.462637013" lon="0.017039990">
        <ele>652.211000</ele>
        <time>2012-04-26T09:42:50Z</time>
      </trkpt>
      <trkpt lat="40.462689986" lon="0.017672991">
        <ele>652.721000</ele>
        <time>2012-04-26T09:44:11Z</time>
      </trkpt>
      <trkpt lat="40.463503031" lon="0.018359972">
        <ele>652.103000</ele>
        <time>2012-04-26T09:45:51Z</time>
      </trkpt>
      <trkpt lat="40.463984990" lon="0.018410012">
        <ele>651.908000</ele>
        <time>2012-04-26T09:46:49Z</time>
      </trkpt>
      <trkpt lat="40.467001973" lon="0.019937027">
        <ele>651.363000</ele>
        <time>2012-04-26T09:51:16Z</time>
      </trkpt>
      <trkpt lat="40.467180004" lon="0.019948008">
        <ele>652.976000</ele>
        <time>2012-04-26T09:51:33Z</time>
      </trkpt>
      <trkpt lat="40.467551993" lon="0.019339984">
        <ele>653.992000</ele>
        <time>2012-04-26T09:52:34Z</time>
      </trkpt>
      <trkpt lat="40.468899971" lon="0.019853041">
        <ele>652.627000</ele>
        <time>2012-04-26T09:54:37Z</time>
      </trkpt>
      <trkpt lat="40.469189985" lon="0.019557998">
        <ele>654.092000</ele>
        <time>2012-04-26T10:00:33Z</time>
      </trkpt>
      <trkpt lat="40.469052019" lon="0.019771988">
        <ele>653.477000</ele>
        <time>2012-04-26T10:01:11Z</time>
      </trkpt>
      <trkpt lat="40.470006969" lon="0.021096999">
        <ele>662.110000</ele>
        <time>2012-04-26T10:03:33Z</time>
      </trkpt>
      <trkpt lat="40.471512023" lon="0.022883015">
        <ele>665.218000</ele>
        <time>2012-04-26T10:06:55Z</time>
      </trkpt>
      <trkpt lat="40.471483022" lon="0.022674976">
        <ele>664.687000</ele>
        <time>2012-04-26T10:07:37Z</time>
      </trkpt>
      <trkpt lat="40.471625011" lon="0.022597024">
        <ele>664.342000</ele>
        <time>2012-04-26T10:07:43Z</time>
      </trkpt>
      <trkpt lat="40.471476987" lon="0.022625020">
        <ele>664.526000</ele>
        <time>2012-04-26T10:07:46Z</time>
      </trkpt>
      <trkpt lat="40.471501965" lon="0.022910004">
        <ele>665.208000</ele>
        <time>2012-04-26T10:07:58Z</time>
      </trkpt>
      <trkpt lat="40.471567009" lon="0.022840016">
        <ele>665.180000</ele>
        <time>2012-04-26T10:08:15Z</time>
      </trkpt>
      <trkpt lat="40.471338015" lon="0.023085019">
        <ele>664.843000</ele>
        <time>2012-04-26T10:09:00Z</time>
      </trkpt>
      <trkpt lat="40.471485034" lon="0.022538016">
        <ele>664.129000</ele>
        <time>2012-04-26T10:10:14Z</time>
      </trkpt>
      <trkpt lat="40.471485034" lon="0.022716969">
        <ele>664.814000</ele>
        <time>2012-04-26T10:10:21Z</time>
      </trkpt>
      <trkpt lat="40.471652001" lon="0.022582021">
        <ele>664.359000</ele>
        <time>2012-04-26T10:10:51Z</time>
      </trkpt>
      <trkpt lat="40.471607996" lon="0.022357972">
        <ele>664.144000</ele>
        <time>2012-04-26T10:13:10Z</time>
      </trkpt>
      <trkpt lat="40.471719978" lon="0.022450006">
        <ele>664.177000</ele>
        <time>2012-04-26T10:29:40Z</time>
      </trkpt>
      <trkpt lat="40.471630041" lon="0.022316985">
        <ele>664.115000</ele>
        <time>2012-04-26T10:30:35Z</time>
      </trkpt>
      <trkpt lat="40.471531972" lon="0.022931965">
        <ele>665.355000</ele>
        <time>2012-04-26T10:31:30Z</time>
      </trkpt>
      <trkpt lat="40.471879989" lon="0.022958033">
        <ele>665.407000</ele>
        <time>2012-04-26T10:32:03Z</time>
      </trkpt>
      <trkpt lat="40.472012004" lon="0.023232959">
        <ele>664.017000</ele>
        <time>2012-04-26T10:32:26Z</time>
      </trkpt>
      <trkpt lat="40.472277040" lon="0.023319963">
        <ele>662.108000</ele>
        <time>2012-04-26T10:32:54Z</time>
      </trkpt>
      <trkpt lat="40.472448030" lon="0.023567984">
        <ele>661.047000</ele>
        <time>2012-04-26T10:33:18Z</time>
      </trkpt>
      <trkpt lat="40.472918004" lon="0.023388024">
        <ele>661.350000</ele>
        <time>2012-04-26T10:34:39Z</time>
      </trkpt>
      <trkpt lat="40.475985026" lon="0.023897979">
        <ele>662.736000</ele>
        <time>2012-04-26T10:39:46Z</time>
      </trkpt>
      <trkpt lat="40.476427004" lon="0.023330022">
        <ele>667.181000</ele>
        <time>2012-04-26T10:42:12Z</time>
      </trkpt>
      <trkpt lat="40.478025014" lon="0.020174989">
        <ele>680.876000</ele>
        <time>2012-04-26T10:46:49Z</time>
      </trkpt>
      <trkpt lat="40.479218010" lon="0.020093014">
        <ele>683.291000</ele>
        <time>2012-04-26T10:48:23Z</time>
      </trkpt>
      <trkpt lat="40.482387962" lon="0.020945035">
        <ele>682.274000</ele>
        <time>2012-04-26T10:52:52Z</time>
      </trkpt>
      <trkpt lat="40.484223012" lon="0.022116993">
        <ele>678.662000</ele>
        <time>2012-04-26T10:55:38Z</time>
      </trkpt>
      <trkpt lat="40.486152023" lon="0.022791987">
        <ele>675.946000</ele>
        <time>2012-04-26T10:58:24Z</time>
      </trkpt>
      <trkpt lat="40.489877025" lon="0.023358017">
        <ele>662.288000</ele>
        <time>2012-04-26T11:03:36Z</time>
      </trkpt>
      <trkpt lat="40.492094960" lon="0.023376960">
        <ele>660.516000</ele>
        <time>2012-04-26T11:06:40Z</time>
      </trkpt>
      <trkpt lat="40.493713003" lon="0.023577958">
        <ele>666.808000</ele>
        <time>2012-04-26T11:08:54Z</time>
      </trkpt>
      <trkpt lat="40.494725034" lon="0.023217034">
        <ele>669.816000</ele>
        <time>2012-04-26T11:10:33Z</time>
      </trkpt>
      <trkpt lat="40.495696999" lon="0.022108024">
        <ele>674.199000</ele>
        <time>2012-04-26T11:12:30Z</time>
      </trkpt>
      <trkpt lat="40.497027040" lon="0.022029988">
        <ele>670.445000</ele>
        <time>2012-04-26T11:14:18Z</time>
      </trkpt>
      <trkpt lat="40.498007974" lon="0.022932971">
        <ele>661.620000</ele>
        <time>2012-04-26T11:16:01Z</time>
      </trkpt>
      <trkpt lat="40.498264963" lon="0.023624981">
        <ele>658.295000</ele>
        <time>2012-04-26T11:17:25Z</time>
      </trkpt>
      <trkpt lat="40.498226993" lon="0.023526996">
        <ele>658.640000</ele>
        <time>2012-04-26T11:18:04Z</time>
      </trkpt>
      <trkpt lat="40.498590013" lon="0.023965035">
        <ele>655.733000</ele>
        <time>2012-04-26T11:23:46Z</time>
      </trkpt>
      <trkpt lat="40.498571992" lon="0.024429979">
        <ele>655.151000</ele>
        <time>2012-04-26T11:24:19Z</time>
      </trkpt>
      <trkpt lat="40.499668010" lon="0.024912022">
        <ele>657.796000</ele>
        <time>2012-04-26T11:25:51Z</time>
      </trkpt>
      <trkpt lat="40.501278006" lon="0.025082007">
        <ele>660.631000</ele>
        <time>2012-04-26T11:27:56Z</time>
      </trkpt>
      <trkpt lat="40.505009964" lon="0.025153002">
        <ele>660.824000</ele>
        <time>2012-04-26T11:32:50Z</time>
      </trkpt>
      <trkpt lat="40.507050036" lon="0.025697993">
        <ele>660.208000</ele>
        <time>2012-04-26T11:35:37Z</time>
      </trkpt>
      <trkpt lat="40.510467002" lon="0.027362974">
        <ele>648.271000</ele>
        <time>2012-04-26T11:40:20Z</time>
      </trkpt>
      <trkpt lat="40.511052981" lon="0.028017014">
        <ele>647.244000</ele>
        <time>2012-04-26T11:41:22Z</time>
      </trkpt>
      <trkpt lat="40.512084961" lon="0.029915012">
        <ele>648.240000</ele>
        <time>2012-04-26T11:43:50Z</time>
      </trkpt>
      <trkpt lat="40.514192004" lon="0.031977966">
        <ele>641.885000</ele>
        <time>2012-04-26T11:47:12Z</time>
      </trkpt>
      <trkpt lat="40.514559969" lon="0.032729991">
        <ele>637.120000</ele>
        <time>2012-04-26T11:48:07Z</time>
      </trkpt>
      <trkpt lat="40.514528034" lon="0.033682007">
        <ele>646.465000</ele>
        <time>2012-04-26T11:49:05Z</time>
      </trkpt>
      <trkpt lat="40.513215009" lon="0.036415011">
        <ele>642.188000</ele>
        <time>2012-04-26T11:52:20Z</time>
      </trkpt>
      <trkpt lat="40.513013005" lon="0.038083009">
        <ele>638.836000</ele>
        <time>2012-04-26T11:54:00Z</time>
      </trkpt>
      <trkpt lat="40.512987021" lon="0.040494986">
        <ele>635.495000</ele>
        <time>2012-04-26T11:56:24Z</time>
      </trkpt>
      <trkpt lat="40.513790008" lon="0.042506978">
        <ele>629.349000</ele>
        <time>2012-04-26T11:58:45Z</time>
      </trkpt>
      <trkpt lat="40.515566971" lon="0.046240026">
        <ele>628.123000</ele>
        <time>2012-04-26T12:03:03Z</time>
      </trkpt>
      <trkpt lat="40.515812980" lon="0.048072981">
        <ele>628.708000</ele>
        <time>2012-04-26T12:04:58Z</time>
      </trkpt>
      <trkpt lat="40.516423015" lon="0.049871989">
        <ele>623.251000</ele>
        <time>2012-04-26T12:06:53Z</time>
      </trkpt>
      <trkpt lat="40.516810007" lon="0.050597023">
        <ele>621.954000</ele>
        <time>2012-04-26T12:07:48Z</time>
      </trkpt>
      <trkpt lat="40.517726988" lon="0.051590027">
        <ele>621.190000</ele>
        <time>2012-04-26T12:09:28Z</time>
      </trkpt>
      <trkpt lat="40.517737968" lon="0.052917972">
        <ele>615.615000</ele>
        <time>2012-04-26T12:10:57Z</time>
      </trkpt>
      <trkpt lat="40.518310033" lon="0.053794971">
        <ele>615.370000</ele>
        <time>2012-04-26T12:14:36Z</time>
      </trkpt>
      <trkpt lat="40.518682022" lon="0.053997980">
        <ele>614.595000</ele>
        <time>2012-04-26T12:24:02Z</time>
      </trkpt>
      <trkpt lat="40.519642001" lon="0.056617996">
        <ele>602.068000</ele>
        <time>2012-04-26T12:27:06Z</time>
      </trkpt>
      <trkpt lat="40.519812992" lon="0.057987012">
        <ele>606.316000</ele>
        <time>2012-04-26T12:28:32Z</time>
      </trkpt>
      <trkpt lat="40.520057995" lon="0.058262022">
        <ele>608.741000</ele>
        <time>2012-04-26T12:29:30Z</time>
      </trkpt>
      <trkpt lat="40.520063024" lon="0.058535021">
        <ele>610.081000</ele>
        <time>2012-04-26T12:29:59Z</time>
      </trkpt>
      <trkpt lat="40.520497961" lon="0.058753034">
        <ele>613.009000</ele>
        <time>2012-04-26T12:30:46Z</time>
      </trkpt>
      <trkpt lat="40.520877996" lon="0.059631960">
        <ele>613.608000</ele>
        <time>2012-04-26T12:32:16Z</time>
      </trkpt>
      <trkpt lat="40.521202041" lon="0.059932033">
        <ele>614.646000</ele>
        <time>2012-04-26T12:32:53Z</time>
      </trkpt>
      <trkpt lat="40.521500017" lon="0.059913006">
        <ele>618.859000</ele>
        <time>2012-04-26T12:33:24Z</time>
      </trkpt>
      <trkpt lat="40.521682994" lon="0.060117021">
        <ele>618.915000</ele>
        <time>2012-04-26T12:34:06Z</time>
      </trkpt>
      <trkpt lat="40.522193033" lon="0.060266973">
        <ele>619.170000</ele>
        <time>2012-04-26T12:34:57Z</time>
      </trkpt>
      <trkpt lat="40.524584977" lon="0.060566962">
        <ele>615.015000</ele>
        <time>2012-04-26T12:38:48Z</time>
      </trkpt>
      <trkpt lat="40.525474967" lon="0.059517967">
        <ele>617.220000</ele>
        <time>2012-04-26T12:40:50Z</time>
      </trkpt>
      <trkpt lat="40.526450034" lon="0.058974987">
        <ele>626.073000</ele>
        <time>2012-04-26T12:42:25Z</time>
      </trkpt>
      <trkpt lat="40.528448028" lon="0.058166971">
        <ele>636.951000</ele>
        <time>2012-04-26T12:45:39Z</time>
      </trkpt>
      <trkpt lat="40.529692993" lon="0.058026994">
        <ele>643.334000</ele>
        <time>2012-04-26T12:47:24Z</time>
      </trkpt>
      <trkpt lat="40.531614963" lon="0.057470016">
        <ele>642.755000</ele>
        <time>2012-04-26T12:50:33Z</time>
      </trkpt>
      <trkpt lat="40.534712998" lon="0.058282977">
        <ele>648.610000</ele>
        <time>2012-04-26T12:55:28Z</time>
      </trkpt>
      <trkpt lat="40.535868024" lon="0.058926959">
        <ele>653.608000</ele>
        <time>2012-04-26T12:57:25Z</time>
      </trkpt>
      <trkpt lat="40.536869997" lon="0.058926959">
        <ele>648.235000</ele>
        <time>2012-04-26T12:58:45Z</time>
      </trkpt>
      <trkpt lat="40.537835006" lon="0.058611967">
        <ele>638.618000</ele>
        <time>2012-04-26T13:00:08Z</time>
      </trkpt>
      <trkpt lat="40.538924988" lon="0.057415031">
        <ele>638.024000</ele>
        <time>2012-04-26T13:02:17Z</time>
      </trkpt>
      <trkpt lat="40.539179966" lon="0.056295041">
        <ele>649.069000</ele>
        <time>2012-04-26T13:05:33Z</time>
      </trkpt>
      <trkpt lat="40.539759994" lon="0.054812031">
        <ele>650.574000</ele>
        <time>2012-04-26T13:07:38Z</time>
      </trkpt>
      <trkpt lat="40.539848004" lon="0.054039974">
        <ele>657.269000</ele>
        <time>2012-04-26T13:08:35Z</time>
      </trkpt>
      <trkpt lat="40.540041961" lon="0.053736968">
        <ele>655.982000</ele>
        <time>2012-04-26T13:09:53Z</time>
      </trkpt>
      <trkpt lat="40.539993010" lon="0.053347042">
        <ele>656.250000</ele>
        <time>2012-04-26T13:12:51Z</time>
      </trkpt>
      <trkpt lat="40.539835012" lon="0.053445026">
        <ele>659.767000</ele>
        <time>2012-04-26T13:13:03Z</time>
      </trkpt>
      <trkpt lat="40.539959986" lon="0.053605037">
        <ele>658.481000</ele>
        <time>2012-04-26T13:13:42Z</time>
      </trkpt>
      <trkpt lat="40.539611969" lon="0.053404961">
        <ele>663.419000</ele>
        <time>2012-04-26T13:14:49Z</time>
      </trkpt>
      <trkpt lat="40.539733004" lon="0.053207986">
        <ele>661.308000</ele>
        <time>2012-04-26T13:15:07Z</time>
      </trkpt>
      <trkpt lat="40.540097030" lon="0.053370008">
        <ele>654.188000</ele>
        <time>2012-04-26T13:15:35Z</time>
      </trkpt>
      <trkpt lat="40.539623033" lon="0.053377971">
        <ele>663.381000</ele>
        <time>2012-04-26T13:16:27Z</time>
      </trkpt>
      <trkpt lat="40.539825037" lon="0.053447960">
        <ele>659.827000</ele>
        <time>2012-04-26T13:16:38Z</time>
      </trkpt>
      <trkpt lat="40.539999967" lon="0.053403033">
        <ele>656.562000</ele>
        <time>2012-04-26T13:16:52Z</time>
      </trkpt>
      <trkpt lat="40.539481966" lon="0.053328015">
        <ele>665.527000</ele>
        <time>2012-04-27T05:48:52Z</time>
      </trkpt>
      <trkpt lat="40.539831994" lon="0.053470004">
        <ele>659.752000</ele>
        <time>2012-04-27T05:49:05Z</time>
      </trkpt>
      <trkpt lat="40.540101975" lon="0.053258026">
        <ele>653.695000</ele>
        <time>2012-04-27T05:49:36Z</time>
      </trkpt>
      <trkpt lat="40.540042967" lon="0.053046970">
        <ele>654.253000</ele>
        <time>2012-04-27T05:51:03Z</time>
      </trkpt>
      <trkpt lat="40.540084960" lon="0.053327009">
        <ele>654.129000</ele>
        <time>2012-04-27T05:51:40Z</time>
      </trkpt>
      <trkpt lat="40.540285036" lon="0.052725021">
        <ele>650.900000</ele>
        <time>2012-04-27T05:52:43Z</time>
      </trkpt>
      <trkpt lat="40.539753037" lon="0.050743036">
        <ele>667.720000</ele>
        <time>2012-04-27T05:54:49Z</time>
      </trkpt>
      <trkpt lat="40.540234996" lon="0.049411990">
        <ele>661.008000</ele>
        <time>2012-04-27T05:56:19Z</time>
      </trkpt>
      <trkpt lat="40.540668005" lon="0.046932036">
        <ele>668.054000</ele>
        <time>2012-04-27T05:59:08Z</time>
      </trkpt>
      <trkpt lat="40.540972017" lon="0.046274979">
        <ele>662.187000</ele>
        <time>2012-04-27T06:00:30Z</time>
      </trkpt>
      <trkpt lat="40.541260019" lon="0.043897033">
        <ele>672.283000</ele>
        <time>2012-04-27T06:03:18Z</time>
      </trkpt>
      <trkpt lat="40.541220037" lon="0.041565020">
        <ele>676.858000</ele>
        <time>2012-04-27T06:06:11Z</time>
      </trkpt>
      <trkpt lat="40.541051980" lon="0.042129960">
        <ele>682.363000</ele>
        <time>2012-04-27T06:07:31Z</time>
      </trkpt>
      <trkpt lat="40.541002024" lon="0.042037005">
        <ele>683.018000</ele>
        <time>2012-04-27T06:07:41Z</time>
      </trkpt>
      <trkpt lat="40.541164968" lon="0.041052969">
        <ele>673.531000</ele>
        <time>2012-04-27T06:08:49Z</time>
      </trkpt>
      <trkpt lat="40.541562019" lon="0.039612958">
        <ele>683.319000</ele>
        <time>2012-04-27T06:10:22Z</time>
      </trkpt>
      <trkpt lat="40.542037021" lon="0.038548037">
        <ele>687.592000</ele>
        <time>2012-04-27T06:11:51Z</time>
      </trkpt>
      <trkpt lat="40.542193009" lon="0.038488023">
        <ele>690.973000</ele>
        <time>2012-04-27T06:12:08Z</time>
      </trkpt>
      <trkpt lat="40.542960037" lon="0.036920020">
        <ele>699.720000</ele>
        <time>2012-04-27T06:14:09Z</time>
      </trkpt>
      <trkpt lat="40.543611981" lon="0.036457004">
        <ele>705.708000</ele>
        <time>2012-04-27T06:15:13Z</time>
      </trkpt>
      <trkpt lat="40.543937031" lon="0.035907989">
        <ele>701.581000</ele>
        <time>2012-04-27T06:16:01Z</time>
      </trkpt>
      <trkpt lat="40.544027975" lon="0.034948010">
        <ele>702.384000</ele>
        <time>2012-04-27T06:17:07Z</time>
      </trkpt>
      <trkpt lat="40.543854972" lon="0.032402007">
        <ele>716.620000</ele>
        <time>2012-04-27T06:19:45Z</time>
      </trkpt>
      <trkpt lat="40.544202989" lon="0.030220030">
        <ele>720.025000</ele>
        <time>2012-04-27T06:23:21Z</time>
      </trkpt>
      <trkpt lat="40.544499960" lon="0.029353006">
        <ele>720.520000</ele>
        <time>2012-04-27T06:24:24Z</time>
      </trkpt>
      <trkpt lat="40.545758000" lon="0.027637985">
        <ele>737.755000</ele>
        <time>2012-04-27T06:27:06Z</time>
      </trkpt>
      <trkpt lat="40.548377009" lon="0.023037996">
        <ele>749.858000</ele>
        <time>2012-04-27T06:33:46Z</time>
      </trkpt>
      <trkpt lat="40.549259959" lon="0.020861970">
        <ele>750.796000</ele>
        <time>2012-04-27T06:36:48Z</time>
      </trkpt>
      <trkpt lat="40.550782029" lon="0.017771982">
        <ele>768.245000</ele>
        <time>2012-04-27T06:41:15Z</time>
      </trkpt>
      <trkpt lat="40.550976992" lon="0.015762001">
        <ele>771.647000</ele>
        <time>2012-04-27T06:43:32Z</time>
      </trkpt>
      <trkpt lat="40.550846988" lon="0.014803028">
        <ele>773.711000</ele>
        <time>2012-04-27T06:44:39Z</time>
      </trkpt>
      <trkpt lat="40.550654959" lon="0.014497004">
        <ele>774.108000</ele>
        <time>2012-04-27T06:45:05Z</time>
      </trkpt>
      <trkpt lat="40.549984993" lon="0.008899989">
        <ele>792.546000</ele>
        <time>2012-04-27T06:51:37Z</time>
      </trkpt>
      <trkpt lat="40.550335022" lon="0.006215014">
        <ele>806.639000</ele>
        <time>2012-04-27T06:56:46Z</time>
      </trkpt>
      <trkpt lat="40.550646996" lon="0.005847970">
        <ele>808.355000</ele>
        <time>2012-04-27T06:57:44Z</time>
      </trkpt>
      <trkpt lat="40.551057961" lon="0.005817041">
        <ele>818.640000</ele>
        <time>2012-04-27T06:58:14Z</time>
      </trkpt>
      <trkpt lat="40.551379994" lon="0.005568014">
        <ele>816.235000</ele>
        <time>2012-04-27T06:58:51Z</time>
      </trkpt>
      <trkpt lat="40.551732033" lon="0.005011959">
        <ele>816.310000</ele>
        <time>2012-04-27T06:59:51Z</time>
      </trkpt>
      <trkpt lat="40.551679982" lon="0.003933040">
        <ele>812.643000</ele>
        <time>2012-04-27T07:01:17Z</time>
      </trkpt>
      <trkpt lat="40.551085034" lon="0.002062032">
        <ele>816.111000</ele>
        <time>2012-04-27T07:03:49Z</time>
      </trkpt>
      <trkpt lat="40.551062990" lon="0.001417967">
        <ele>815.333000</ele>
        <time>2012-04-27T07:05:07Z</time>
      </trkpt>
      <trkpt lat="40.551468004" lon="0.000989987">
        <ele>815.823000</ele>
        <time>2012-04-27T07:06:20Z</time>
      </trkpt>
      <trkpt lat="40.552299991" lon="0.000590002">
        <ele>816.015000</ele>
        <time>2012-04-27T07:07:56Z</time>
      </trkpt>
      <trkpt lat="40.554514993" lon="0.001358036">
        <ele>822.508000</ele>
        <time>2012-04-27T07:11:40Z</time>
      </trkpt>
      <trkpt lat="40.554742981" lon="0.000874987">
        <ele>808.215000</ele>
        <time>2012-04-27T07:12:11Z</time>
      </trkpt>
      <trkpt lat="40.555677982" lon="0.000088010">
        <ele>807.448000</ele>
        <time>2012-04-27T07:14:23Z</time>
      </trkpt>
      <trkpt lat="40.556671992" lon="-0.000051968">
        <ele>808.914000</ele>
        <time>2012-04-27T07:16:03Z</time>
      </trkpt>
      <trkpt lat="40.556838037" lon="-0.000326978">
        <ele>804.339000</ele>
        <time>2012-04-27T07:16:14Z</time>
      </trkpt>
      <trkpt lat="40.557477996" lon="-0.000582039">
        <ele>803.624000</ele>
        <time>2012-04-27T07:17:20Z</time>
      </trkpt>
      <trkpt lat="40.558072021" lon="-0.001157960">
        <ele>813.549000</ele>
        <time>2012-04-27T07:18:14Z</time>
      </trkpt>
      <trkpt lat="40.559096960" lon="-0.002539968">
        <ele>819.342000</ele>
        <time>2012-04-27T07:20:21Z</time>
      </trkpt>
      <trkpt lat="40.560013019" lon="-0.004533017">
        <ele>824.360000</ele>
        <time>2012-04-27T07:22:55Z</time>
      </trkpt>
      <trkpt lat="40.560162971" lon="-0.004537040">
        <ele>826.968000</ele>
        <time>2012-04-27T07:23:09Z</time>
      </trkpt>
      <trkpt lat="40.560040008" lon="-0.004622033">
        <ele>823.842000</ele>
        <time>2012-04-27T07:23:24Z</time>
      </trkpt>
      <trkpt lat="40.560017042" lon="-0.004987987">
        <ele>821.326000</ele>
        <time>2012-04-27T07:24:02Z</time>
      </trkpt>
      <trkpt lat="40.560257016" lon="-0.005032998">
        <ele>825.908000</ele>
        <time>2012-04-27T07:24:42Z</time>
      </trkpt>
      <trkpt lat="40.560822962" lon="-0.004786989">
        <ele>831.148000</ele>
        <time>2012-04-27T07:26:11Z</time>
      </trkpt>
      <trkpt lat="40.561484965" lon="-0.004974995">
        <ele>834.921000</ele>
        <time>2012-04-27T07:27:07Z</time>
      </trkpt>
      <trkpt lat="40.562061975" lon="-0.005497020">
        <ele>843.087000</ele>
        <time>2012-04-27T07:28:23Z</time>
      </trkpt>
      <trkpt lat="40.562357018" lon="-0.006181989">
        <ele>847.372000</ele>
        <time>2012-04-27T07:29:30Z</time>
      </trkpt>
      <trkpt lat="40.562442010" lon="-0.006992016">
        <ele>849.657000</ele>
        <time>2012-04-27T07:30:48Z</time>
      </trkpt>
      <trkpt lat="40.562527003" lon="-0.007122019">
        <ele>849.852000</ele>
        <time>2012-04-27T07:31:16Z</time>
      </trkpt>
      <trkpt lat="40.562807964" lon="-0.007069968">
        <ele>852.395000</ele>
        <time>2012-04-27T07:32:17Z</time>
      </trkpt>
      <trkpt lat="40.562962024" lon="-0.007195026">
        <ele>853.413000</ele>
        <time>2012-04-27T07:32:36Z</time>
      </trkpt>
      <trkpt lat="40.563171990" lon="-0.007700035">
        <ele>857.996000</ele>
        <time>2012-04-27T07:33:35Z</time>
      </trkpt>
      <trkpt lat="40.563147012" lon="-0.008385004">
        <ele>857.631000</ele>
        <time>2012-04-27T07:34:41Z</time>
      </trkpt>
      <trkpt lat="40.562987002" lon="-0.008330019">
        <ele>856.724000</ele>
        <time>2012-04-27T07:34:57Z</time>
      </trkpt>
      <trkpt lat="40.563292019" lon="-0.009340039">
        <ele>862.408000</ele>
        <time>2012-04-27T07:36:45Z</time>
      </trkpt>
      <trkpt lat="40.563587984" lon="-0.009892993">
        <ele>863.321000</ele>
        <time>2012-04-27T07:37:21Z</time>
      </trkpt>
      <trkpt lat="40.563989980" lon="-0.010058032">
        <ele>869.014000</ele>
        <time>2012-04-27T07:37:46Z</time>
      </trkpt>
      <trkpt lat="40.564091988" lon="-0.010722969">
        <ele>871.190000</ele>
        <time>2012-04-27T07:38:36Z</time>
      </trkpt>
      <trkpt lat="40.563991992" lon="-0.011108033">
        <ele>868.985000</ele>
        <time>2012-04-27T07:38:58Z</time>
      </trkpt>
      <trkpt lat="40.564187039" lon="-0.011342978">
        <ele>871.810000</ele>
        <time>2012-04-27T07:39:18Z</time>
      </trkpt>
      <trkpt lat="40.564097017" lon="-0.011555040">
        <ele>869.665000</ele>
        <time>2012-04-27T07:39:36Z</time>
      </trkpt>
      <trkpt lat="40.564238001" lon="-0.011892999">
        <ele>871.498000</ele>
        <time>2012-04-27T07:40:08Z</time>
      </trkpt>
      <trkpt lat="40.565009974" lon="-0.012132972">
        <ele>873.376000</ele>
        <time>2012-04-27T07:41:46Z</time>
      </trkpt>
      <trkpt lat="40.565487994" lon="-0.013087001">
        <ele>877.641000</ele>
        <time>2012-04-27T07:42:59Z</time>
      </trkpt>
      <trkpt lat="40.566089982" lon="-0.013669962">
        <ele>879.881000</ele>
        <time>2012-04-27T07:44:38Z</time>
      </trkpt>
      <trkpt lat="40.566374967" lon="-0.014537992">
        <ele>885.109000</ele>
        <time>2012-04-27T07:45:55Z</time>
      </trkpt>
      <trkpt lat="40.566572025" lon="-0.014658021">
        <ele>888.108000</ele>
        <time>2012-04-27T07:46:10Z</time>
      </trkpt>
      <trkpt lat="40.566819962" lon="-0.015278030">
        <ele>888.056000</ele>
        <time>2012-04-27T07:47:10Z</time>
      </trkpt>
      <trkpt lat="40.567251965" lon="-0.015653037">
        <ele>888.139000</ele>
        <time>2012-04-27T07:47:56Z</time>
      </trkpt>
      <trkpt lat="40.567497974" lon="-0.016261982">
        <ele>892.735000</ele>
        <time>2012-04-27T07:48:46Z</time>
      </trkpt>
      <trkpt lat="40.567790000" lon="-0.016332977">
        <ele>891.460000</ele>
        <time>2012-04-27T07:49:12Z</time>
      </trkpt>
      <trkpt lat="40.567947999" lon="-0.016815020">
        <ele>890.265000</ele>
        <time>2012-04-27T07:50:34Z</time>
      </trkpt>
      <trkpt lat="40.568204988" lon="-0.017043008">
        <ele>890.020000</ele>
        <time>2012-04-27T07:51:21Z</time>
      </trkpt>
      <trkpt lat="40.568119995" lon="-0.017207963">
        <ele>891.453000</ele>
        <time>2012-04-27T07:52:03Z</time>
      </trkpt>
      <trkpt lat="40.568292998" lon="-0.017212993">
        <ele>890.351000</ele>
        <time>2012-04-27T07:53:14Z</time>
      </trkpt>
      <trkpt lat="40.568672027" lon="-0.017648013">
        <ele>892.897000</ele>
        <time>2012-04-27T07:55:00Z</time>
      </trkpt>
      <trkpt lat="40.569739966" lon="-0.019111997">
        <ele>903.523000</ele>
        <time>2012-04-27T07:57:32Z</time>
      </trkpt>
      <trkpt lat="40.569917997" lon="-0.019775005">
        <ele>911.825000</ele>
        <time>2012-04-27T07:58:31Z</time>
      </trkpt>
      <trkpt lat="40.570055041" lon="-0.021814993">
        <ele>916.108000</ele>
        <time>2012-04-27T08:01:16Z</time>
      </trkpt>
      <trkpt lat="40.570367016" lon="-0.022355039">
        <ele>916.961000</ele>
        <time>2012-04-27T08:02:13Z</time>
      </trkpt>
      <trkpt lat="40.570465000" lon="-0.022940012">
        <ele>915.664000</ele>
        <time>2012-04-27T08:03:03Z</time>
      </trkpt>
      <trkpt lat="40.570917036" lon="-0.023563039">
        <ele>912.890000</ele>
        <time>2012-04-27T08:04:36Z</time>
      </trkpt>
      <trkpt lat="40.571421962" lon="-0.026595024">
        <ele>928.325000</ele>
        <time>2012-04-27T08:08:48Z</time>
      </trkpt>
      <trkpt lat="40.572231989" lon="-0.027752984">
        <ele>947.430000</ele>
        <time>2012-04-27T08:12:41Z</time>
      </trkpt>
      <trkpt lat="40.572747979" lon="-0.028109970">
        <ele>952.895000</ele>
        <time>2012-04-27T08:14:05Z</time>
      </trkpt>
      <trkpt lat="40.573277967" lon="-0.028961990">
        <ele>965.068000</ele>
        <time>2012-04-27T08:15:39Z</time>
      </trkpt>
      <trkpt lat="40.573667977" lon="-0.029119989">
        <ele>971.186000</ele>
        <time>2012-04-27T08:16:58Z</time>
      </trkpt>
      <trkpt lat="40.573560018" lon="-0.029517962">
        <ele>979.688000</ele>
        <time>2012-04-27T08:18:05Z</time>
      </trkpt>
      <trkpt lat="40.573982969" lon="-0.029858015">
        <ele>991.324000</ele>
        <time>2012-04-27T08:27:53Z</time>
      </trkpt>
      <trkpt lat="40.573147042" lon="-0.029947031">
        <ele>986.126000</ele>
        <time>2012-04-27T08:29:30Z</time>
      </trkpt>
      <trkpt lat="40.571812978" lon="-0.029643020">
        <ele>989.908000</ele>
        <time>2012-04-27T08:31:32Z</time>
      </trkpt>
      <trkpt lat="40.571272010" lon="-0.030241990">
        <ele>991.470000</ele>
        <time>2012-04-27T08:32:39Z</time>
      </trkpt>
      <trkpt lat="40.570552005" lon="-0.030550025">
        <ele>993.943000</ele>
        <time>2012-04-27T08:33:45Z</time>
      </trkpt>
      <trkpt lat="40.570014976" lon="-0.030236961">
        <ele>996.539000</ele>
        <time>2012-04-27T08:34:32Z</time>
      </trkpt>
      <trkpt lat="40.569347022" lon="-0.029267007">
        <ele>985.864000</ele>
        <time>2012-04-27T08:35:57Z</time>
      </trkpt>
      <trkpt lat="40.569177037" lon="-0.029200036">
        <ele>985.119000</ele>
        <time>2012-04-27T08:36:15Z</time>
      </trkpt>
      <trkpt lat="40.568947038" lon="-0.030148029">
        <ele>990.014000</ele>
        <time>2012-04-27T08:37:36Z</time>
      </trkpt>
      <trkpt lat="40.568607990" lon="-0.030841967">
        <ele>992.057000</ele>
        <time>2012-04-27T08:38:35Z</time>
      </trkpt>
      <trkpt lat="40.567795029" lon="-0.031636991">
        <ele>995.155000</ele>
        <time>2012-04-27T08:40:09Z</time>
      </trkpt>
      <trkpt lat="40.567164961" lon="-0.032018032">
        <ele>995.028000</ele>
        <time>2012-04-27T08:41:19Z</time>
      </trkpt>
      <trkpt lat="40.567320026" lon="-0.032993015">
        <ele>994.689000</ele>
        <time>2012-04-27T08:42:28Z</time>
      </trkpt>
      <trkpt lat="40.568417972" lon="-0.034665037">
        <ele>989.417000</ele>
        <time>2012-04-27T08:45:16Z</time>
      </trkpt>
      <trkpt lat="40.567938024" lon="-0.035960041">
        <ele>983.708000</ele>
        <time>2012-04-27T08:46:44Z</time>
      </trkpt>
      <trkpt lat="40.568083031" lon="-0.036778031">
        <ele>980.464000</ele>
        <time>2012-04-27T08:47:37Z</time>
      </trkpt>
      <trkpt lat="40.568219991" lon="-0.036941981">
        <ele>980.817000</ele>
        <time>2012-04-27T08:48:28Z</time>
      </trkpt>
      <trkpt lat="40.569816995" lon="-0.037514968">
        <ele>976.953000</ele>
        <time>2012-04-27T08:50:57Z</time>
      </trkpt>
      <trkpt lat="40.569971977" lon="-0.037964992">
        <ele>973.028000</ele>
        <time>2012-04-27T09:02:46Z</time>
      </trkpt>
      <trkpt lat="40.569759998" lon="-0.038349973">
        <ele>971.153000</ele>
        <time>2012-04-27T09:03:22Z</time>
      </trkpt>
      <trkpt lat="40.567164961" lon="-0.040903017">
        <ele>981.678000</ele>
        <time>2012-04-27T09:08:02Z</time>
      </trkpt>
      <trkpt lat="40.564952977" lon="-0.043869959">
        <ele>1003.261000</ele>
        <time>2012-04-27T09:13:01Z</time>
      </trkpt>
      <trkpt lat="40.564457020" lon="-0.046544960">
        <ele>1012.559000</ele>
        <time>2012-04-27T09:15:59Z</time>
      </trkpt>
      <trkpt lat="40.564549975" lon="-0.048407000">
        <ele>1002.925000</ele>
        <time>2012-04-27T09:18:11Z</time>
      </trkpt>
      <trkpt lat="40.565320021" lon="-0.049505029">
        <ele>1005.326000</ele>
        <time>2012-04-27T09:20:06Z</time>
      </trkpt>
      <trkpt lat="40.565372994" lon="-0.049963016">
        <ele>1010.808000</ele>
        <time>2012-04-27T09:20:28Z</time>
      </trkpt>
      <trkpt lat="40.565077029" lon="-0.051066997">
        <ele>1019.808000</ele>
        <time>2012-04-27T09:21:48Z</time>
      </trkpt>
      <trkpt lat="40.565063031" lon="-0.051742997">
        <ele>1024.884000</ele>
        <time>2012-04-27T09:22:35Z</time>
      </trkpt>
      <trkpt lat="40.565266963" lon="-0.052050026">
        <ele>1025.377000</ele>
        <time>2012-04-27T09:23:13Z</time>
      </trkpt>
      <trkpt lat="40.565974982" lon="-0.052514970">
        <ele>1026.093000</ele>
        <time>2012-04-27T09:23:56Z</time>
      </trkpt>
      <trkpt lat="40.566227026" lon="-0.054382961">
        <ele>1021.138000</ele>
        <time>2012-04-27T09:26:16Z</time>
      </trkpt>
      <trkpt lat="40.566072967" lon="-0.062735025">
        <ele>1003.933000</ele>
        <time>2012-04-27T09:34:42Z</time>
      </trkpt>
      <trkpt lat="40.565917986" lon="-0.064552976">
        <ele>999.638000</ele>
        <time>2012-04-27T09:36:41Z</time>
      </trkpt>
      <trkpt lat="40.565897031" lon="-0.075356998">
        <ele>987.061000</ele>
        <time>2012-04-27T09:47:25Z</time>
      </trkpt>
      <trkpt lat="40.565798040" lon="-0.077403020">
        <ele>983.619000</ele>
        <time>2012-04-27T09:49:32Z</time>
      </trkpt>
      <trkpt lat="40.565525042" lon="-0.078991977">
        <ele>984.894000</ele>
        <time>2012-04-27T09:52:56Z</time>
      </trkpt>
      <trkpt lat="40.567003023" lon="-0.079677030">
        <ele>982.857000</ele>
        <time>2012-04-27T09:55:33Z</time>
      </trkpt>
      <trkpt lat="40.567320026" lon="-0.079557002">
        <ele>982.922000</ele>
        <time>2012-04-27T09:56:06Z</time>
      </trkpt>
      <trkpt lat="40.567638036" lon="-0.079937959">
        <ele>984.508000</ele>
        <time>2012-04-27T09:56:52Z</time>
      </trkpt>
      <trkpt lat="40.568237007" lon="-0.080237025">
        <ele>995.251000</ele>
        <time>2012-04-27T09:59:06Z</time>
      </trkpt>
      <trkpt lat="40.568843018" lon="-0.080052959">
        <ele>1000.714000</ele>
        <time>2012-04-27T10:00:23Z</time>
      </trkpt>
      <trkpt lat="40.569959991" lon="-0.080710016">
        <ele>1008.940000</ele>
        <time>2012-04-27T10:03:13Z</time>
      </trkpt>
      <trkpt lat="40.570038026" lon="-0.080932975">
        <ele>1009.355000</ele>
        <time>2012-04-27T10:03:31Z</time>
      </trkpt>
      <trkpt lat="40.569797968" lon="-0.082371980">
        <ele>1013.880000</ele>
        <time>2012-04-27T10:05:23Z</time>
      </trkpt>
      <trkpt lat="40.570972022" lon="-0.083948029">
        <ele>998.355000</ele>
        <time>2012-04-27T10:08:06Z</time>
      </trkpt>
      <trkpt lat="40.571717005" lon="-0.084410040">
        <ele>991.328000</ele>
        <time>2012-04-27T10:09:22Z</time>
      </trkpt>
      <trkpt lat="40.572885023" lon="-0.084780017">
        <ele>982.366000</ele>
        <time>2012-04-27T10:11:25Z</time>
      </trkpt>
      <trkpt lat="40.574885029" lon="-0.085718036">
        <ele>961.389000</ele>
        <time>2012-04-27T10:15:11Z</time>
      </trkpt>
      <trkpt lat="40.575911980" lon="-0.085772015">
        <ele>954.906000</ele>
        <time>2012-04-27T10:16:52Z</time>
      </trkpt>
      <trkpt lat="40.576638021" lon="-0.085406983">
        <ele>951.426000</ele>
        <time>2012-04-27T10:18:07Z</time>
      </trkpt>
      <trkpt lat="40.577443019" lon="-0.085285027">
        <ele>948.508000</ele>
        <time>2012-04-27T10:19:30Z</time>
      </trkpt>
      <trkpt lat="40.577858007" lon="-0.085532041">
        <ele>947.860000</ele>
        <time>2012-04-27T10:20:15Z</time>
      </trkpt>
      <trkpt lat="40.580765018" lon="-0.086375009">
        <ele>928.393000</ele>
        <time>2012-04-27T10:25:22Z</time>
      </trkpt>
      <trkpt lat="40.582387000" lon="-0.086092036">
        <ele>916.029000</ele>
        <time>2012-04-27T10:28:09Z</time>
      </trkpt>
      <trkpt lat="40.583270034" lon="-0.085734967">
        <ele>914.824000</ele>
        <time>2012-04-27T10:29:36Z</time>
      </trkpt>
      <trkpt lat="40.583776971" lon="-0.085696997">
        <ele>917.289000</ele>
        <time>2012-04-27T10:30:18Z</time>
      </trkpt>
      <trkpt lat="40.584187014" lon="-0.085830018">
        <ele>919.174000</ele>
        <time>2012-04-27T10:30:55Z</time>
      </trkpt>
      <trkpt lat="40.584517010" lon="-0.085330037">
        <ele>921.477000</ele>
        <time>2012-04-27T10:31:46Z</time>
      </trkpt>
      <trkpt lat="40.585308010" lon="-0.085327020">
        <ele>921.325000</ele>
        <time>2012-04-27T10:32:55Z</time>
      </trkpt>
      <trkpt lat="40.585431978" lon="-0.085462974">
        <ele>921.967000</ele>
        <time>2012-04-27T10:36:16Z</time>
      </trkpt>
      <trkpt lat="40.588296996" lon="-0.085349986">
        <ele>940.481000</ele>
        <time>2012-04-27T10:40:23Z</time>
      </trkpt>
      <trkpt lat="40.591382962" lon="-0.084827039">
        <ele>957.419000</ele>
        <time>2012-04-27T10:45:01Z</time>
      </trkpt>
      <trkpt lat="40.593913039" lon="-0.085598007">
        <ele>963.008000</ele>
        <time>2012-04-27T10:48:28Z</time>
      </trkpt>
      <trkpt lat="40.595136965" lon="-0.085822977">
        <ele>960.048000</ele>
        <time>2012-04-27T10:50:17Z</time>
      </trkpt>
      <trkpt lat="40.595356990" lon="-0.086062029">
        <ele>958.581000</ele>
        <time>2012-04-27T10:51:54Z</time>
      </trkpt>
      <trkpt lat="40.598347988" lon="-0.086424965">
        <ele>939.157000</ele>
        <time>2012-04-27T10:56:25Z</time>
      </trkpt>
      <trkpt lat="40.599579960" lon="-0.087422999">
        <ele>924.792000</ele>
        <time>2012-04-27T10:58:41Z</time>
      </trkpt>
      <trkpt lat="40.600966997" lon="-0.087277992">
        <ele>911.027000</ele>
        <time>2012-04-27T11:00:59Z</time>
      </trkpt>
      <trkpt lat="40.601334963" lon="-0.086902985">
        <ele>905.192000</ele>
        <time>2012-04-27T11:01:41Z</time>
      </trkpt>
      <trkpt lat="40.601224992" lon="-0.086397976">
        <ele>899.775000</ele>
        <time>2012-04-27T11:02:27Z</time>
      </trkpt>
      <trkpt lat="40.599992014" lon="-0.085719964">
        <ele>896.413000</ele>
        <time>2012-04-27T11:04:23Z</time>
      </trkpt>
      <trkpt lat="40.598934973" lon="-0.084593017">
        <ele>882.164000</ele>
        <time>2012-04-27T11:06:16Z</time>
      </trkpt>
      <trkpt lat="40.599006973" lon="-0.084114997">
        <ele>870.106000</ele>
        <time>2012-04-27T11:06:50Z</time>
      </trkpt>
      <trkpt lat="40.599232027" lon="-0.083917016">
        <ele>866.716000</ele>
        <time>2012-04-27T11:07:13Z</time>
      </trkpt>
      <trkpt lat="40.599512989" lon="-0.083973007">
        <ele>865.808000</ele>
        <time>2012-04-27T11:08:23Z</time>
      </trkpt>
      <trkpt lat="40.599635029" lon="-0.083758011">
        <ele>871.128000</ele>
        <time>2012-04-27T11:08:41Z</time>
      </trkpt>
      <trkpt lat="40.599460015" lon="-0.083956998">
        <ele>865.671000</ele>
        <time>2012-04-27T11:10:03Z</time>
      </trkpt>
      <trkpt lat="40.599622959" lon="-0.083820038">
        <ele>869.597000</ele>
        <time>2012-04-27T11:11:51Z</time>
      </trkpt>
      <trkpt lat="40.600538012" lon="-0.085025020">
        <ele>860.022000</ele>
        <time>2012-04-27T11:15:12Z</time>
      </trkpt>
      <trkpt lat="40.601878027" lon="-0.085552996">
        <ele>857.847000</ele>
        <time>2012-04-27T11:17:16Z</time>
      </trkpt>
      <trkpt lat="40.603091978" lon="-0.086472994">
        <ele>847.922000</ele>
        <time>2012-04-27T11:19:07Z</time>
      </trkpt>
      <trkpt lat="40.604780009" lon="-0.088437041">
        <ele>833.455000</ele>
        <time>2012-04-27T11:22:20Z</time>
      </trkpt>
      <trkpt lat="40.605161972" lon="-0.088563021">
        <ele>825.043000</ele>
        <time>2012-04-27T11:22:58Z</time>
      </trkpt>
      <trkpt lat="40.605978034" lon="-0.088166976">
        <ele>820.018000</ele>
        <time>2012-04-27T11:24:15Z</time>
      </trkpt>
      <trkpt lat="40.606239969" lon="-0.088190027">
        <ele>822.698000</ele>
        <time>2012-04-27T11:24:38Z</time>
      </trkpt>
      <trkpt lat="40.606712960" lon="-0.089271963">
        <ele>820.117000</ele>
        <time>2012-04-27T11:26:03Z</time>
      </trkpt>
      <trkpt lat="40.607779976" lon="-0.093084974">
        <ele>819.908000</ele>
        <time>2012-04-27T11:30:37Z</time>
      </trkpt>
      <trkpt lat="40.608072001" lon="-0.093606999">
        <ele>822.123000</ele>
        <time>2012-04-27T11:31:24Z</time>
      </trkpt>
      <trkpt lat="40.608697962" lon="-0.094164982">
        <ele>826.376000</ele>
        <time>2012-04-27T11:32:32Z</time>
      </trkpt>
      <trkpt lat="40.609905040" lon="-0.094748028">
        <ele>828.172000</ele>
        <time>2012-04-27T11:34:43Z</time>
      </trkpt>
      <trkpt lat="40.610362021" lon="-0.095282039">
        <ele>826.017000</ele>
        <time>2012-04-27T11:35:24Z</time>
      </trkpt>
      <trkpt lat="40.611791974" lon="-0.096367998">
        <ele>828.352000</ele>
        <time>2012-04-27T11:37:50Z</time>
      </trkpt>
      <trkpt lat="40.612418018" lon="-0.097117005">
        <ele>831.557000</ele>
        <time>2012-04-27T11:39:12Z</time>
      </trkpt>
      <trkpt lat="40.613340028" lon="-0.097647998">
        <ele>849.740000</ele>
        <time>2012-04-27T11:41:16Z</time>
      </trkpt>
      <trkpt lat="40.613831962" lon="-0.098153008">
        <ele>859.668000</ele>
        <time>2012-04-27T11:42:39Z</time>
      </trkpt>
      <trkpt lat="40.614403021" lon="-0.098379990">
        <ele>867.656000</ele>
        <time>2012-04-27T11:44:07Z</time>
      </trkpt>
      <trkpt lat="40.615514964" lon="-0.099559994">
        <ele>888.759000</ele>
        <time>2012-04-27T11:48:33Z</time>
      </trkpt>
      <trkpt lat="40.616243016" lon="-0.100034997">
        <ele>895.614000</ele>
        <time>2012-04-27T11:50:13Z</time>
      </trkpt>
      <trkpt lat="40.614577029" lon="-0.119065018">
        <ele>794.400000</ele>
        <time>2013-09-17T12:27:36Z</time>
      </trkpt>
      <trkpt lat="40.614639977" lon="-0.118707027">
        <ele>794.100000</ele>
        <time>2013-09-17T12:27:46Z</time>
      </trkpt>
      <trkpt lat="40.614759000" lon="-0.118391030">
        <ele>794.100000</ele>
        <time>2013-09-17T12:27:56Z</time>
      </trkpt>
      <trkpt lat="40.614970978" lon="-0.117943017">
        <ele>796.100000</ele>
        <time>2013-09-17T12:28:11Z</time>
      </trkpt>
      <trkpt lat="40.615202989" lon="-0.117556024">
        <ele>796.700000</ele>
        <time>2013-09-17T12:28:24Z</time>
      </trkpt>
      <trkpt lat="40.615335004" lon="-0.117236003">
        <ele>795.100000</ele>
        <time>2013-09-17T12:28:34Z</time>
      </trkpt>
      <trkpt lat="40.615326036" lon="-0.117100971">
        <ele>793.900000</ele>
        <time>2013-09-17T12:28:38Z</time>
      </trkpt>
      <trkpt lat="40.615256969" lon="-0.116930986">
        <ele>793.900000</ele>
        <time>2013-09-17T12:28:43Z</time>
      </trkpt>
      <trkpt lat="40.615115985" lon="-0.116809029">
        <ele>793.800000</ele>
        <time>2013-09-17T12:28:49Z</time>
      </trkpt>
      <trkpt lat="40.614823960" lon="-0.116585987">
        <ele>794.000000</ele>
        <time>2013-09-17T12:29:02Z</time>
      </trkpt>
      <trkpt lat="40.614638971" lon="-0.116378032">
        <ele>794.600000</ele>
        <time>2013-09-17T12:29:11Z</time>
      </trkpt>
      <trkpt lat="40.614546016" lon="-0.116094975">
        <ele>795.800000</ele>
        <time>2013-09-17T12:29:19Z</time>
      </trkpt>
      <trkpt lat="40.614494970" lon="-0.115759028">
        <ele>797.400000</ele>
        <time>2013-09-17T12:29:29Z</time>
      </trkpt>
      <trkpt lat="40.614390029" lon="-0.115274973">
        <ele>799.800000</ele>
        <time>2013-09-17T12:29:42Z</time>
      </trkpt>
      <trkpt lat="40.614229012" lon="-0.114864009">
        <ele>802.300000</ele>
        <time>2013-09-17T12:29:55Z</time>
      </trkpt>
      <trkpt lat="40.613936987" lon="-0.114491014">
        <ele>804.800000</ele>
        <time>2013-09-17T12:30:10Z</time>
      </trkpt>
      <trkpt lat="40.613714028" lon="-0.114216004">
        <ele>807.200000</ele>
        <time>2013-09-17T12:30:21Z</time>
      </trkpt>
      <trkpt lat="40.613474976" lon="-0.114078959">
        <ele>809.600000</ele>
        <time>2013-09-17T12:30:31Z</time>
      </trkpt>
      <trkpt lat="40.613196027" lon="-0.114027997">
        <ele>811.500000</ele>
        <time>2013-09-17T12:30:41Z</time>
      </trkpt>
      <trkpt lat="40.612753965" lon="-0.113900006">
        <ele>814.700000</ele>
        <time>2013-09-17T12:30:57Z</time>
      </trkpt>
      <trkpt lat="40.612468980" lon="-0.113806967">
        <ele>815.700000</ele>
        <time>2013-09-17T12:31:08Z</time>
      </trkpt>
      <trkpt lat="40.612335037" lon="-0.113616027">
        <ele>817.200000</ele>
        <time>2013-09-17T12:31:15Z</time>
      </trkpt>
      <trkpt lat="40.612203022" lon="-0.113220988">
        <ele>820.200000</ele>
        <time>2013-09-17T12:31:27Z</time>
      </trkpt>
      <trkpt lat="40.611942010" lon="-0.112018017">
        <ele>827.000000</ele>
        <time>2013-09-17T12:32:02Z</time>
      </trkpt>
      <trkpt lat="40.611805972" lon="-0.111279991">
        <ele>832.100000</ele>
        <time>2013-09-17T12:32:23Z</time>
      </trkpt>
      <trkpt lat="40.611814018" lon="-0.110963993">
        <ele>832.500000</ele>
        <time>2013-09-17T12:32:31Z</time>
      </trkpt>
      <trkpt lat="40.611942010" lon="-0.110501982">
        <ele>834.200000</ele>
        <time>2013-09-17T12:32:45Z</time>
      </trkpt>
      <trkpt lat="40.612220960" lon="-0.109696984">
        <ele>839.000000</ele>
        <time>2013-09-17T12:33:09Z</time>
      </trkpt>
      <trkpt lat="40.612454982" lon="-0.109005980">
        <ele>845.200000</ele>
        <time>2013-09-17T12:33:30Z</time>
      </trkpt>
      <trkpt lat="40.612589009" lon="-0.108797019">
        <ele>848.000000</ele>
        <time>2013-09-17T12:33:38Z</time>
      </trkpt>
      <trkpt lat="40.612833006" lon="-0.108701969">
        <ele>852.800000</ele>
        <time>2013-09-17T12:33:47Z</time>
      </trkpt>
      <trkpt lat="40.613041967" lon="-0.108539024">
        <ele>857.000000</ele>
        <time>2013-09-17T12:33:56Z</time>
      </trkpt>
      <trkpt lat="40.613103993" lon="-0.108226966">
        <ele>856.100000</ele>
        <time>2013-09-17T12:34:05Z</time>
      </trkpt>
      <trkpt lat="40.613190997" lon="-0.107199010">
        <ele>853.300000</ele>
        <time>2013-09-17T12:34:34Z</time>
      </trkpt>
      <trkpt lat="40.613254029" lon="-0.106949983">
        <ele>853.800000</ele>
        <time>2013-09-17T12:34:41Z</time>
      </trkpt>
      <trkpt lat="40.613409011" lon="-0.106726019">
        <ele>856.500000</ele>
        <time>2013-09-17T12:34:49Z</time>
      </trkpt>
      <trkpt lat="40.613604980" lon="-0.106632980">
        <ele>861.000000</ele>
        <time>2013-09-17T12:34:57Z</time>
      </trkpt>
      <trkpt lat="40.614105966" lon="-0.106576988">
        <ele>873.200000</ele>
        <time>2013-09-17T12:35:15Z</time>
      </trkpt>
      <trkpt lat="40.614495976" lon="-0.106559973">
        <ele>882.500000</ele>
        <time>2013-09-17T12:35:29Z</time>
      </trkpt>
      <trkpt lat="40.614642994" lon="-0.106427036">
        <ele>881.400000</ele>
        <time>2013-09-17T12:35:36Z</time>
      </trkpt>
      <trkpt lat="40.614727987" lon="-0.106212962">
        <ele>876.800000</ele>
        <time>2013-09-17T12:35:42Z</time>
      </trkpt>
      <trkpt lat="40.614966033" lon="-0.105886990">
        <ele>873.800000</ele>
        <time>2013-09-17T12:35:55Z</time>
      </trkpt>
      <trkpt lat="40.615185974" lon="-0.105694961">
        <ele>873.700000</ele>
        <time>2013-09-17T12:36:04Z</time>
      </trkpt>
      <trkpt lat="40.615617977" lon="-0.105648022">
        <ele>881.700000</ele>
        <time>2013-09-17T12:36:20Z</time>
      </trkpt>
      <trkpt lat="40.616082000" lon="-0.105593037">
        <ele>891.600000</ele>
        <time>2013-09-17T12:36:37Z</time>
      </trkpt>
      <trkpt lat="40.616255002" lon="-0.105473008">
        <ele>893.900000</ele>
        <time>2013-09-17T12:36:44Z</time>
      </trkpt>
      <trkpt lat="40.616273023" lon="-0.105310986">
        <ele>892.200000</ele>
        <time>2013-09-17T12:36:49Z</time>
      </trkpt>
      <trkpt lat="40.616203034" lon="-0.105117029">
        <ele>888.700000</ele>
        <time>2013-09-17T12:36:55Z</time>
      </trkpt>
      <trkpt lat="40.616082000" lon="-0.104946960">
        <ele>884.100000</ele>
        <time>2013-09-17T12:37:01Z</time>
      </trkpt>
      <trkpt lat="40.616013017" lon="-0.104760965">
        <ele>880.800000</ele>
        <time>2013-09-17T12:37:07Z</time>
      </trkpt>
      <trkpt lat="40.615969012" lon="-0.104502970">
        <ele>879.400000</ele>
        <time>2013-09-17T12:37:14Z</time>
      </trkpt>
      <trkpt lat="40.615859963" lon="-0.104213040">
        <ele>881.700000</ele>
        <time>2013-09-17T12:37:23Z</time>
      </trkpt>
      <trkpt lat="40.615671035" lon="-0.103946999">
        <ele>883.000000</ele>
        <time>2013-09-17T12:37:33Z</time>
      </trkpt>
      <trkpt lat="40.615612026" lon="-0.103479037">
        <ele>889.700000</ele>
        <time>2013-09-17T12:37:46Z</time>
      </trkpt>
      <trkpt lat="40.615595011" lon="-0.102833966">
        <ele>898.700000</ele>
        <time>2013-09-17T12:38:04Z</time>
      </trkpt>
      <trkpt lat="40.615531979" lon="-0.102316970">
        <ele>902.100000</ele>
        <time>2013-09-17T12:38:19Z</time>
      </trkpt>
      <trkpt lat="40.615518987" lon="-0.101988986">
        <ele>904.100000</ele>
        <time>2013-09-17T12:38:28Z</time>
      </trkpt>
      <trkpt lat="40.615718979" lon="-0.102049001">
        <ele>905.800000</ele>
        <time>2013-09-17T12:38:35Z</time>
      </trkpt>
      <trkpt lat="40.615957025" lon="-0.102027040">
        <ele>907.900000</ele>
        <time>2013-09-17T12:38:44Z</time>
      </trkpt>
      <trkpt lat="40.616325997" lon="-0.101807015">
        <ele>910.500000</ele>
        <time>2013-09-17T12:38:59Z</time>
      </trkpt>
      <trkpt lat="40.616566977" lon="-0.101462016">
        <ele>913.600000</ele>
        <time>2013-09-17T12:39:12Z</time>
      </trkpt>
      <trkpt lat="40.616783984" lon="-0.101008974">
        <ele>914.200000</ele>
        <time>2013-09-17T12:39:26Z</time>
      </trkpt>
      <trkpt lat="40.617008032" lon="-0.100221997">
        <ele>909.800000</ele>
        <time>2013-09-17T12:39:50Z</time>
      </trkpt>
      <trkpt lat="40.617219005" lon="-0.099312980">
        <ele>911.400000</ele>
        <time>2013-09-17T12:40:16Z</time>
      </trkpt>
      <trkpt lat="40.617292011" lon="-0.099032018">
        <ele>913.300000</ele>
        <time>2013-09-17T12:40:24Z</time>
      </trkpt>
      <trkpt lat="40.617478006" lon="-0.098817023">
        <ele>920.000000</ele>
        <time>2013-09-17T12:40:33Z</time>
      </trkpt>
      <trkpt lat="40.617727032" lon="-0.098680984">
        <ele>928.500000</ele>
        <time>2013-09-17T12:40:43Z</time>
      </trkpt>
      <trkpt lat="40.614748020" lon="-0.120898979">
        <ele>790.300000</ele>
        <time>2013-09-17T13:16:48Z</time>
      </trkpt>
      <trkpt lat="40.614740979" lon="-0.121074999">
        <ele>789.400000</ele>
        <time>2013-09-17T13:16:53Z</time>
      </trkpt>
      <trkpt lat="40.614608964" lon="-0.121171977">
        <ele>790.100000</ele>
        <time>2013-09-17T13:16:58Z</time>
      </trkpt>
      <trkpt lat="40.614467980" lon="-0.121369036">
        <ele>788.500000</ele>
        <time>2013-09-17T13:17:06Z</time>
      </trkpt>
      <trkpt lat="40.614371002" lon="-0.121665001">
        <ele>785.900000</ele>
        <time>2013-09-17T13:17:14Z</time>
      </trkpt>
      <trkpt lat="40.614092974" lon="-0.122347036">
        <ele>785.400000</ele>
        <time>2013-09-17T13:17:36Z</time>
      </trkpt>
      <trkpt lat="40.613917960" lon="-0.122633027">
        <ele>788.200000</ele>
        <time>2013-09-17T13:17:46Z</time>
      </trkpt>
      <trkpt lat="40.613656025" lon="-0.122723971">
        <ele>788.300000</ele>
        <time>2013-09-17T13:17:56Z</time>
      </trkpt>
      <trkpt lat="40.613465002" lon="-0.122896973">
        <ele>787.100000</ele>
        <time>2013-09-17T13:18:04Z</time>
      </trkpt>
      <trkpt lat="40.613127965" lon="-0.123427967">
        <ele>785.900000</ele>
        <time>2013-09-17T13:18:23Z</time>
      </trkpt>
      <trkpt lat="40.612872988" lon="-0.123801967">
        <ele>784.400000</ele>
        <time>2013-09-17T13:18:37Z</time>
      </trkpt>
      <trkpt lat="40.612547016" lon="-0.124112014">
        <ele>781.500000</ele>
        <time>2013-09-17T13:18:52Z</time>
      </trkpt>
      <trkpt lat="40.612003030" lon="-0.124487020">
        <ele>779.700000</ele>
        <time>2013-09-17T13:19:14Z</time>
      </trkpt>
      <trkpt lat="40.611591982" lon="-0.124846017">
        <ele>777.400000</ele>
        <time>2013-09-17T13:19:32Z</time>
      </trkpt>
      <trkpt lat="40.611432977" lon="-0.125085991">
        <ele>776.500000</ele>
        <time>2013-09-17T13:19:41Z</time>
      </trkpt>
      <trkpt lat="40.611409005" lon="-0.125348009">
        <ele>776.500000</ele>
        <time>2013-09-17T13:19:48Z</time>
      </trkpt>
      <trkpt lat="40.611388972" lon="-0.125769032">
        <ele>775.400000</ele>
        <time>2013-09-17T13:20:00Z</time>
      </trkpt>
      <trkpt lat="40.611387966" lon="-0.126758013">
        <ele>772.700000</ele>
        <time>2013-09-17T13:20:27Z</time>
      </trkpt>
      <trkpt lat="40.611294005" lon="-0.127318008">
        <ele>773.800000</ele>
        <time>2013-09-17T13:20:43Z</time>
      </trkpt>
      <trkpt lat="40.610980019" lon="-0.128627010">
        <ele>783.300000</ele>
        <time>2013-09-17T13:21:21Z</time>
      </trkpt>
      <trkpt lat="40.610816991" lon="-0.129224975">
        <ele>788.600000</ele>
        <time>2013-09-17T13:21:39Z</time>
      </trkpt>
      <trkpt lat="40.610667039" lon="-0.129440976">
        <ele>791.600000</ele>
        <time>2013-09-17T13:21:47Z</time>
      </trkpt>
      <trkpt lat="40.610581962" lon="-0.129490010">
        <ele>792.800000</ele>
        <time>2013-09-17T13:21:50Z</time>
      </trkpt>
      <trkpt lat="40.610408038" lon="-0.129481042">
        <ele>794.400000</ele>
        <time>2013-09-17T13:21:56Z</time>
      </trkpt>
      <trkpt lat="40.610297984" lon="-0.129378028">
        <ele>795.000000</ele>
        <time>2013-09-17T13:22:01Z</time>
      </trkpt>
      <trkpt lat="40.610117018" lon="-0.128931021">
        <ele>793.700000</ele>
        <time>2013-09-17T13:22:15Z</time>
      </trkpt>
      <trkpt lat="40.610031020" lon="-0.128747039">
        <ele>793.200000</ele>
        <time>2013-09-17T13:22:21Z</time>
      </trkpt>
      <trkpt lat="40.609891964" lon="-0.128565989">
        <ele>793.300000</ele>
        <time>2013-09-17T13:22:28Z</time>
      </trkpt>
      <trkpt lat="40.609761961" lon="-0.128564984">
        <ele>794.400000</ele>
        <time>2013-09-17T13:22:33Z</time>
      </trkpt>
      <trkpt lat="40.609608991" lon="-0.128662968">
        <ele>796.800000</ele>
        <time>2013-09-17T13:22:39Z</time>
      </trkpt>
      <trkpt lat="40.609223004" lon="-0.128992042">
        <ele>801.900000</ele>
        <time>2013-09-17T13:22:56Z</time>
      </trkpt>
      <trkpt lat="40.608817991" lon="-0.129260011">
        <ele>804.700000</ele>
        <time>2013-09-17T13:23:12Z</time>
      </trkpt>
      <trkpt lat="40.608568965" lon="-0.129337963">
        <ele>803.800000</ele>
        <time>2013-09-17T13:23:22Z</time>
      </trkpt>
      <trkpt lat="40.608343994" lon="-0.129359001">
        <ele>802.100000</ele>
        <time>2013-09-17T13:23:30Z</time>
      </trkpt>
      <trkpt lat="40.608232012" lon="-0.129380962">
        <ele>801.400000</ele>
        <time>2013-09-17T13:23:34Z</time>
      </trkpt>
      <trkpt lat="40.608144002" lon="-0.129465032">
        <ele>801.100000</ele>
        <time>2013-09-17T13:23:38Z</time>
      </trkpt>
      <trkpt lat="40.608125981" lon="-0.129629988">
        <ele>801.900000</ele>
        <time>2013-09-17T13:23:43Z</time>
      </trkpt>
      <trkpt lat="40.608185995" lon="-0.130297020">
        <ele>807.900000</ele>
        <time>2013-09-17T13:24:01Z</time>
      </trkpt>
      <trkpt lat="40.608242992" lon="-0.131028006">
        <ele>812.500000</ele>
        <time>2013-09-17T13:24:22Z</time>
      </trkpt>
      <trkpt lat="40.608323961" lon="-0.131313996">
        <ele>815.400000</ele>
        <time>2013-09-17T13:24:30Z</time>
      </trkpt>
      <trkpt lat="40.608477015" lon="-0.131734014">
        <ele>820.700000</ele>
        <time>2013-09-17T13:24:43Z</time>
      </trkpt>
      <trkpt lat="40.608520014" lon="-0.132060992">
        <ele>823.800000</ele>
        <time>2013-09-17T13:24:52Z</time>
      </trkpt>
      <trkpt lat="40.608527977" lon="-0.132389981">
        <ele>826.000000</ele>
        <time>2013-09-17T13:25:01Z</time>
      </trkpt>
      <trkpt lat="40.608491013" lon="-0.132813016">
        <ele>828.000000</ele>
        <time>2013-09-17T13:25:13Z</time>
      </trkpt>
      <trkpt lat="40.608392023" lon="-0.133345015">
        <ele>831.400000</ele>
        <time>2013-09-17T13:25:28Z</time>
      </trkpt>
      <trkpt lat="40.608128998" lon="-0.134470034">
        <ele>837.300000</ele>
        <time>2013-09-17T13:26:01Z</time>
      </trkpt>
      <trkpt lat="40.608069990" lon="-0.134704979">
        <ele>839.100000</ele>
        <time>2013-09-17T13:26:07Z</time>
      </trkpt>
      <trkpt lat="40.608034031" lon="-0.134985019">
        <ele>843.400000</ele>
        <time>2013-09-17T13:26:15Z</time>
      </trkpt>
      <trkpt lat="40.607998995" lon="-0.135162966">
        <ele>845.700000</ele>
        <time>2013-09-17T13:26:20Z</time>
      </trkpt>
      <trkpt lat="40.607921965" lon="-0.135342004">
        <ele>846.700000</ele>
        <time>2013-09-17T13:26:26Z</time>
      </trkpt>
      <trkpt lat="40.607734965" lon="-0.135645010">
        <ele>850.800000</ele>
        <time>2013-09-17T13:26:37Z</time>
      </trkpt>
      <trkpt lat="40.607502032" lon="-0.136053041">
        <ele>854.500000</ele>
        <time>2013-09-17T13:26:51Z</time>
      </trkpt>
      <trkpt lat="40.607248982" lon="-0.136495018">
        <ele>855.500000</ele>
        <time>2013-09-17T13:27:06Z</time>
      </trkpt>
      <trkpt lat="40.607112022" lon="-0.136757037">
        <ele>856.000000</ele>
        <time>2013-09-17T13:27:15Z</time>
      </trkpt>
      <trkpt lat="40.607043039" lon="-0.136913024">
        <ele>858.100000</ele>
        <time>2013-09-17T13:27:20Z</time>
      </trkpt>
      <trkpt lat="40.606996017" lon="-0.137290042">
        <ele>863.700000</ele>
        <time>2013-09-17T13:27:31Z</time>
      </trkpt>
      <trkpt lat="40.606944971" lon="-0.137683991">
        <ele>869.100000</ele>
        <time>2013-09-17T13:27:42Z</time>
      </trkpt>
      <trkpt lat="40.606838018" lon="-0.137909967">
        <ele>873.700000</ele>
        <time>2013-09-17T13:27:49Z</time>
      </trkpt>
      <trkpt lat="40.606685970" lon="-0.138058998">
        <ele>879.300000</ele>
        <time>2013-09-17T13:27:56Z</time>
      </trkpt>
      <trkpt lat="40.606571976" lon="-0.138170980">
        <ele>883.400000</ele>
        <time>2013-09-17T13:28:01Z</time>
      </trkpt>
      <trkpt lat="40.606554039" lon="-0.138342977">
        <ele>887.300000</ele>
        <time>2013-09-17T13:28:06Z</time>
      </trkpt>
      <trkpt lat="40.606597038" lon="-0.138470968">
        <ele>889.500000</ele>
        <time>2013-09-17T13:28:10Z</time>
      </trkpt>
      <trkpt lat="40.606702985" lon="-0.138574988">
        <ele>890.200000</ele>
        <time>2013-09-17T13:28:14Z</time>
      </trkpt>
      <trkpt lat="40.606842041" lon="-0.138581023">
        <ele>888.400000</ele>
        <time>2013-09-17T13:28:20Z</time>
      </trkpt>
      <trkpt lat="40.606984030" lon="-0.138556967">
        <ele>886.000000</ele>
        <time>2013-09-17T13:28:25Z</time>
      </trkpt>
      <trkpt lat="40.607068017" lon="-0.138440039">
        <ele>882.200000</ele>
        <time>2013-09-17T13:28:29Z</time>
      </trkpt>
      <trkpt lat="40.607130965" lon="-0.138023039">
        <ele>873.800000</ele>
        <time>2013-09-17T13:28:41Z</time>
      </trkpt>
      <trkpt lat="40.607308997" lon="-0.137169007">
        <ele>869.200000</ele>
        <time>2013-09-17T13:29:05Z</time>
      </trkpt>
      <trkpt lat="40.607400024" lon="-0.136972032">
        <ele>869.100000</ele>
        <time>2013-09-17T13:29:12Z</time>
      </trkpt>
      <trkpt lat="40.607564980" lon="-0.136857033">
        <ele>872.200000</ele>
        <time>2013-09-17T13:29:19Z</time>
      </trkpt>
      <trkpt lat="40.607702024" lon="-0.136776986">
        <ele>875.000000</ele>
        <time>2013-09-17T13:29:24Z</time>
      </trkpt>
      <trkpt lat="40.607825993" lon="-0.136550004">
        <ele>874.300000</ele>
        <time>2013-09-17T13:29:32Z</time>
      </trkpt>
      <trkpt lat="40.607948033" lon="-0.136380019">
        <ele>874.500000</ele>
        <time>2013-09-17T13:29:38Z</time>
      </trkpt>
      <trkpt lat="40.608174009" lon="-0.136273988">
        <ele>878.500000</ele>
        <time>2013-09-17T13:29:47Z</time>
      </trkpt>
      <trkpt lat="40.608366961" lon="-0.136202993">
        <ele>882.200000</ele>
        <time>2013-09-17T13:29:54Z</time>
      </trkpt>
      <trkpt lat="40.608490007" lon="-0.136096040">
        <ele>883.000000</ele>
        <time>2013-09-17T13:30:00Z</time>
      </trkpt>
      <trkpt lat="40.608577011" lon="-0.135921026">
        <ele>881.100000</ele>
        <time>2013-09-17T13:30:05Z</time>
      </trkpt>
      <trkpt lat="40.608643983" lon="-0.135656996">
        <ele>876.600000</ele>
        <time>2013-09-17T13:30:13Z</time>
      </trkpt>
      <trkpt lat="40.608742973" lon="-0.135465972">
        <ele>875.000000</ele>
        <time>2013-09-17T13:30:19Z</time>
      </trkpt>
      <trkpt lat="40.608841041" lon="-0.135405036">
        <ele>874.300000</ele>
        <time>2013-09-17T13:30:23Z</time>
      </trkpt>
      <trkpt lat="40.608907007" lon="-0.135424985">
        <ele>875.100000</ele>
        <time>2013-09-17T13:30:26Z</time>
      </trkpt>
      <trkpt lat="40.608965009" lon="-0.135524981">
        <ele>877.500000</ele>
        <time>2013-09-17T13:30:29Z</time>
      </trkpt>
      <trkpt lat="40.608970961" lon="-0.135763027">
        <ele>882.400000</ele>
        <time>2013-09-17T13:30:36Z</time>
      </trkpt>
      <trkpt lat="40.608898960" lon="-0.136010041">
        <ele>887.700000</ele>
        <time>2013-09-17T13:30:43Z</time>
      </trkpt>
      <trkpt lat="40.608786978" lon="-0.136191007">
        <ele>892.400000</ele>
        <time>2013-09-17T13:30:50Z</time>
      </trkpt>
      <trkpt lat="40.608475003" lon="-0.136533994">
        <ele>890.800000</ele>
        <time>2013-09-17T13:31:04Z</time>
      </trkpt>
      <trkpt lat="40.608107038" lon="-0.137037998">
        <ele>891.000000</ele>
        <time>2013-09-17T13:31:24Z</time>
      </trkpt>
      <trkpt lat="40.607781988" lon="-0.137558011">
        <ele>888.300000</ele>
        <time>2013-09-17T13:31:42Z</time>
      </trkpt>
      <trkpt lat="40.607709987" lon="-0.137793962">
        <ele>888.300000</ele>
        <time>2013-09-17T13:31:49Z</time>
      </trkpt>
      <trkpt lat="40.607689032" lon="-0.137998983">
        <ele>889.800000</ele>
        <time>2013-09-17T13:31:55Z</time>
      </trkpt>
      <trkpt lat="40.607737983" lon="-0.138253039">
        <ele>893.700000</ele>
        <time>2013-09-17T13:32:02Z</time>
      </trkpt>
      <trkpt lat="40.607825993" lon="-0.138612036">
        <ele>898.600000</ele>
        <time>2013-09-17T13:32:13Z</time>
      </trkpt>
      <trkpt lat="40.607911991" lon="-0.138977990">
        <ele>904.000000</ele>
        <time>2013-09-17T13:32:23Z</time>
      </trkpt>
      <trkpt lat="40.607929006" lon="-0.139284013">
        <ele>908.100000</ele>
        <time>2013-09-17T13:32:32Z</time>
      </trkpt>
      <trkpt lat="40.607935041" lon="-0.139549971">
        <ele>911.500000</ele>
        <time>2013-09-17T13:32:39Z</time>
      </trkpt>
      <trkpt lat="40.607903022" lon="-0.139812995">
        <ele>914.800000</ele>
        <time>2013-09-17T13:32:47Z</time>
      </trkpt>
      <trkpt lat="40.607719962" lon="-0.140151037">
        <ele>919.500000</ele>
        <time>2013-09-17T13:32:58Z</time>
      </trkpt>
      <trkpt lat="40.607509995" lon="-0.140556972">
        <ele>925.400000</ele>
        <time>2013-09-17T13:33:12Z</time>
      </trkpt>
      <trkpt lat="40.607378986" lon="-0.140874982">
        <ele>929.700000</ele>
        <time>2013-09-17T13:33:22Z</time>
      </trkpt>
      <trkpt lat="40.607277984" lon="-0.141169019">
        <ele>933.900000</ele>
        <time>2013-09-17T13:33:31Z</time>
      </trkpt>
      <trkpt lat="40.607216964" lon="-0.141466996">
        <ele>937.300000</ele>
        <time>2013-09-17T13:33:39Z</time>
      </trkpt>
      <trkpt lat="40.607186034" lon="-0.141649973">
        <ele>939.000000</ele>
        <time>2013-09-17T13:33:44Z</time>
      </trkpt>
      <trkpt lat="40.607128032" lon="-0.141748963">
        <ele>940.200000</ele>
        <time>2013-09-17T13:33:48Z</time>
      </trkpt>
      <trkpt lat="40.607015966" lon="-0.141753992">
        <ele>941.400000</ele>
        <time>2013-09-17T13:33:52Z</time>
      </trkpt>
      <trkpt lat="40.606883029" lon="-0.141651984">
        <ele>942.100000</ele>
        <time>2013-09-17T13:33:57Z</time>
      </trkpt>
      <trkpt lat="40.606495030" lon="-0.141173964">
        <ele>942.200000</ele>
        <time>2013-09-17T13:34:17Z</time>
      </trkpt>
      <trkpt lat="40.606285986" lon="-0.140960980">
        <ele>941.100000</ele>
        <time>2013-09-17T13:34:26Z</time>
      </trkpt>
      <trkpt lat="40.606120024" lon="-0.140899960">
        <ele>941.200000</ele>
        <time>2013-09-17T13:34:33Z</time>
      </trkpt>
      <trkpt lat="40.605893964" lon="-0.140886968">
        <ele>942.100000</ele>
        <time>2013-09-17T13:34:41Z</time>
      </trkpt>
      <trkpt lat="40.605500014" lon="-0.140886968">
        <ele>944.000000</ele>
        <time>2013-09-17T13:34:55Z</time>
      </trkpt>
      <trkpt lat="40.605115034" lon="-0.140857967">
        <ele>944.500000</ele>
        <time>2013-09-17T13:35:09Z</time>
      </trkpt>
      <trkpt lat="40.604863996" lon="-0.140902977">
        <ele>944.700000</ele>
        <time>2013-09-17T13:35:18Z</time>
      </trkpt>
      <trkpt lat="40.604681019" lon="-0.141018983">
        <ele>944.600000</ele>
        <time>2013-09-17T13:35:26Z</time>
      </trkpt>
      <trkpt lat="40.604568031" lon="-0.141148986">
        <ele>944.200000</ele>
        <time>2013-09-17T13:35:31Z</time>
      </trkpt>
      <trkpt lat="40.604434004" lon="-0.141518041">
        <ele>944.300000</ele>
        <time>2013-09-17T13:35:43Z</time>
      </trkpt>
      <trkpt lat="40.604322022" lon="-0.141737983">
        <ele>944.400000</ele>
        <time>2013-09-17T13:35:50Z</time>
      </trkpt>
      <trkpt lat="40.604198975" lon="-0.141822975">
        <ele>943.600000</ele>
        <time>2013-09-17T13:35:55Z</time>
      </trkpt>
      <trkpt lat="40.604005018" lon="-0.141848037">
        <ele>942.100000</ele>
        <time>2013-09-17T13:36:02Z</time>
      </trkpt>
      <trkpt lat="40.603651972" lon="-0.141911991">
        <ele>939.400000</ele>
        <time>2013-09-17T13:36:15Z</time>
      </trkpt>
      <trkpt lat="40.603420967" lon="-0.142061021">
        <ele>937.300000</ele>
        <time>2013-09-17T13:36:24Z</time>
      </trkpt>
      <trkpt lat="40.603229022" lon="-0.142265037">
        <ele>935.500000</ele>
        <time>2013-09-17T13:36:33Z</time>
      </trkpt>
      <trkpt lat="40.603141012" lon="-0.142617999">
        <ele>934.000000</ele>
        <time>2013-09-17T13:36:44Z</time>
      </trkpt>
      <trkpt lat="40.603001034" lon="-0.142953023">
        <ele>931.500000</ele>
        <time>2013-09-17T13:36:54Z</time>
      </trkpt>
      <trkpt lat="40.602837000" lon="-0.143217975">
        <ele>930.900000</ele>
        <time>2013-09-17T13:37:04Z</time>
      </trkpt>
      <trkpt lat="40.602685958" lon="-0.143357031">
        <ele>930.200000</ele>
        <time>2013-09-17T13:37:10Z</time>
      </trkpt>
      <trkpt lat="40.602398962" lon="-0.143411011">
        <ele>927.500000</ele>
        <time>2013-09-17T13:37:21Z</time>
      </trkpt>
      <trkpt lat="40.602007024" lon="-0.143470019">
        <ele>923.600000</ele>
        <time>2013-09-17T13:37:35Z</time>
      </trkpt>
      <trkpt lat="40.601776019" lon="-0.143627012">
        <ele>920.700000</ele>
        <time>2013-09-17T13:37:45Z</time>
      </trkpt>
      <trkpt lat="40.601606034" lon="-0.143850977">
        <ele>917.100000</ele>
        <time>2013-09-17T13:37:53Z</time>
      </trkpt>
      <trkpt lat="40.601348039" lon="-0.144393034">
        <ele>910.600000</ele>
        <time>2013-09-17T13:38:11Z</time>
      </trkpt>
      <trkpt lat="40.601170007" lon="-0.144764017">
        <ele>906.600000</ele>
        <time>2013-09-17T13:38:23Z</time>
      </trkpt>
      <trkpt lat="40.601070011" lon="-0.145006003">
        <ele>904.400000</ele>
        <time>2013-09-17T13:38:31Z</time>
      </trkpt>
      <trkpt lat="40.601044027" lon="-0.145244971">
        <ele>902.400000</ele>
        <time>2013-09-17T13:38:38Z</time>
      </trkpt>
      <trkpt lat="40.601095995" lon="-0.145410011">
        <ele>901.600000</ele>
        <time>2013-09-17T13:38:42Z</time>
      </trkpt>
      <trkpt lat="40.601216024" lon="-0.145510007">
        <ele>903.700000</ele>
        <time>2013-09-17T13:38:48Z</time>
      </trkpt>
      <trkpt lat="40.601458009" lon="-0.145603968">
        <ele>908.400000</ele>
        <time>2013-09-17T13:38:57Z</time>
      </trkpt>
      <trkpt lat="40.601545013" lon="-0.145685021">
        <ele>910.800000</ele>
        <time>2013-09-17T13:39:01Z</time>
      </trkpt>
      <trkpt lat="40.601569992" lon="-0.145844026">
        <ele>913.300000</ele>
        <time>2013-09-17T13:39:05Z</time>
      </trkpt>
      <trkpt lat="40.601535961" lon="-0.145957014">
        <ele>914.300000</ele>
        <time>2013-09-17T13:39:09Z</time>
      </trkpt>
      <trkpt lat="40.601351978" lon="-0.146076959">
        <ele>912.700000</ele>
        <time>2013-09-17T13:39:16Z</time>
      </trkpt>
      <trkpt lat="40.600961968" lon="-0.146220038">
        <ele>905.900000</ele>
        <time>2013-09-17T13:39:31Z</time>
      </trkpt>
      <trkpt lat="40.600763988" lon="-0.146321040">
        <ele>902.300000</ele>
        <time>2013-09-17T13:39:38Z</time>
      </trkpt>
      <trkpt lat="40.600494007" lon="-0.146497982">
        <ele>897.200000</ele>
        <time>2013-09-17T13:39:49Z</time>
      </trkpt>
      <trkpt lat="40.600244980" lon="-0.146773998">
        <ele>895.300000</ele>
        <time>2013-09-17T13:40:01Z</time>
      </trkpt>
      <trkpt lat="40.600068038" lon="-0.147144981">
        <ele>893.200000</ele>
        <time>2013-09-17T13:40:13Z</time>
      </trkpt>
      <trkpt lat="40.599944992" lon="-0.147520993">
        <ele>890.000000</ele>
        <time>2013-09-17T13:40:25Z</time>
      </trkpt>
      <trkpt lat="40.599879026" lon="-0.147901028">
        <ele>887.500000</ele>
        <time>2013-09-17T13:40:35Z</time>
      </trkpt>
      <trkpt lat="40.599850025" lon="-0.148230018">
        <ele>888.400000</ele>
        <time>2013-09-17T13:40:45Z</time>
      </trkpt>
      <trkpt lat="40.599794034" lon="-0.148337977">
        <ele>887.900000</ele>
        <time>2013-09-17T13:40:48Z</time>
      </trkpt>
      <trkpt lat="40.599438976" lon="-0.148624973">
        <ele>885.400000</ele>
        <time>2013-09-17T13:41:03Z</time>
      </trkpt>
      <trkpt lat="40.598993981" lon="-0.148938037">
        <ele>883.900000</ele>
        <time>2013-09-17T13:41:22Z</time>
      </trkpt>
      <trkpt lat="40.598648982" lon="-0.149217993">
        <ele>881.600000</ele>
        <time>2013-09-17T13:41:36Z</time>
      </trkpt>
      <trkpt lat="40.598320998" lon="-0.149512030">
        <ele>878.900000</ele>
        <time>2013-09-17T13:41:51Z</time>
      </trkpt>
      <trkpt lat="40.597968958" lon="-0.149945961">
        <ele>874.900000</ele>
        <time>2013-09-17T13:42:08Z</time>
      </trkpt>
      <trkpt lat="40.597676011" lon="-0.150377965">
        <ele>872.900000</ele>
        <time>2013-09-17T13:42:24Z</time>
      </trkpt>
      <trkpt lat="40.597287007" lon="-0.150779039">
        <ele>869.000000</ele>
        <time>2013-09-17T13:42:42Z</time>
      </trkpt>
      <trkpt lat="40.596573036" lon="-0.151654026">
        <ele>861.800000</ele>
        <time>2013-09-17T13:43:18Z</time>
      </trkpt>
      <trkpt lat="40.594440009" lon="-0.154358028">
        <ele>849.500000</ele>
        <time>2013-09-17T13:45:06Z</time>
      </trkpt>
      <trkpt lat="40.593642974" lon="-0.155336028">
        <ele>846.800000</ele>
        <time>2013-09-17T13:45:45Z</time>
      </trkpt>
      <trkpt lat="40.593103012" lon="-0.156091992">
        <ele>846.000000</ele>
        <time>2013-09-17T13:46:14Z</time>
      </trkpt>
      <trkpt lat="40.592890028" lon="-0.156534975">
        <ele>845.700000</ele>
        <time>2013-09-17T13:46:28Z</time>
      </trkpt>
      <trkpt lat="40.592656005" lon="-0.157194966">
        <ele>845.100000</ele>
        <time>2013-09-17T13:46:49Z</time>
      </trkpt>
      <trkpt lat="40.592291979" lon="-0.158354016">
        <ele>843.300000</ele>
        <time>2013-09-17T13:47:23Z</time>
      </trkpt>
      <trkpt lat="40.591903981" lon="-0.159552041">
        <ele>840.700000</ele>
        <time>2013-09-17T13:47:59Z</time>
      </trkpt>
      <trkpt lat="40.591715975" lon="-0.160199041">
        <ele>839.200000</ele>
        <time>2013-09-17T13:48:18Z</time>
      </trkpt>
      <trkpt lat="40.591632994" lon="-0.160655016">
        <ele>838.200000</ele>
        <time>2013-09-17T13:48:31Z</time>
      </trkpt>
      <trkpt lat="40.591592006" lon="-0.161331017">
        <ele>837.700000</ele>
        <time>2013-09-17T13:48:50Z</time>
      </trkpt>
      <trkpt lat="40.591509026" lon="-0.162653010">
        <ele>841.800000</ele>
        <time>2013-09-17T13:49:27Z</time>
      </trkpt>
      <trkpt lat="40.591430990" lon="-0.163954971">
        <ele>837.000000</ele>
        <time>2013-09-17T13:50:03Z</time>
      </trkpt>
      <trkpt lat="40.591425961" lon="-0.165019976">
        <ele>837.700000</ele>
        <time>2013-09-17T13:50:32Z</time>
      </trkpt>
      <trkpt lat="40.591526041" lon="-0.166526958">
        <ele>841.800000</ele>
        <time>2013-09-17T13:51:14Z</time>
      </trkpt>
      <trkpt lat="40.591531992" lon="-0.167219974">
        <ele>842.100000</ele>
        <time>2013-09-17T13:51:33Z</time>
      </trkpt>
      <trkpt lat="40.591536015" lon="-0.167591963">
        <ele>840.700000</ele>
        <time>2013-09-17T13:51:44Z</time>
      </trkpt>
      <trkpt lat="40.591455968" lon="-0.167945009">
        <ele>840.400000</ele>
        <time>2013-09-17T13:51:54Z</time>
      </trkpt>
      <trkpt lat="40.591237033" lon="-0.168655040">
        <ele>840.400000</ele>
        <time>2013-09-17T13:52:15Z</time>
      </trkpt>
      <trkpt lat="40.591108035" lon="-0.169134988">
        <ele>838.700000</ele>
        <time>2013-09-17T13:52:29Z</time>
      </trkpt>
      <trkpt lat="40.591040980" lon="-0.169426007">
        <ele>837.500000</ele>
        <time>2013-09-17T13:52:37Z</time>
      </trkpt>
      <trkpt lat="40.591019019" lon="-0.169797996">
        <ele>835.900000</ele>
        <time>2013-09-17T13:52:48Z</time>
      </trkpt>
      <trkpt lat="40.591013990" lon="-0.170451030">
        <ele>833.100000</ele>
        <time>2013-09-17T13:53:06Z</time>
      </trkpt>
      <trkpt lat="40.591049027" lon="-0.170785971">
        <ele>833.000000</ele>
        <time>2013-09-17T13:53:15Z</time>
      </trkpt>
      <trkpt lat="40.591127984" lon="-0.171037009">
        <ele>833.500000</ele>
        <time>2013-09-17T13:53:23Z</time>
      </trkpt>
      <trkpt lat="40.591467032" lon="-0.171799008">
        <ele>831.200000</ele>
        <time>2013-09-17T13:53:47Z</time>
      </trkpt>
      <trkpt lat="40.591894006" lon="-0.172777008">
        <ele>821.100000</ele>
        <time>2013-09-17T13:54:18Z</time>
      </trkpt>
      <trkpt lat="40.592226014" lon="-0.173731958">
        <ele>817.200000</ele>
        <time>2013-09-17T13:54:47Z</time>
      </trkpt>
      <trkpt lat="40.592437992" lon="-0.174498986">
        <ele>817.300000</ele>
        <time>2013-09-17T13:55:10Z</time>
      </trkpt>
      <trkpt lat="40.592556009" lon="-0.175001984">
        <ele>817.700000</ele>
        <time>2013-09-17T13:55:24Z</time>
      </trkpt>
      <trkpt lat="40.592543017" lon="-0.175332986">
        <ele>817.400000</ele>
        <time>2013-09-17T13:55:33Z</time>
      </trkpt>
      <trkpt lat="40.592435980" lon="-0.175673962">
        <ele>816.600000</ele>
        <time>2013-09-17T13:55:44Z</time>
      </trkpt>
      <trkpt lat="40.592207992" lon="-0.176424980">
        <ele>814.600000</ele>
        <time>2013-09-17T13:56:06Z</time>
      </trkpt>
      <trkpt lat="40.591923008" lon="-0.177385965">
        <ele>809.000000</ele>
        <time>2013-09-17T13:56:34Z</time>
      </trkpt>
      <trkpt lat="40.591826029" lon="-0.177718978">
        <ele>804.900000</ele>
        <time>2013-09-17T13:56:44Z</time>
      </trkpt>
      <trkpt lat="40.591787975" lon="-0.177886030">
        <ele>802.900000</ele>
        <time>2013-09-17T13:56:49Z</time>
      </trkpt>
      <trkpt lat="40.591798034" lon="-0.178071018">
        <ele>802.300000</ele>
        <time>2013-09-17T13:56:54Z</time>
      </trkpt>
      <trkpt lat="40.591842961" lon="-0.178391961">
        <ele>802.300000</ele>
        <time>2013-09-17T13:57:03Z</time>
      </trkpt>
      <trkpt lat="40.591851007" lon="-0.178543003">
        <ele>801.900000</ele>
        <time>2013-09-17T13:57:07Z</time>
      </trkpt>
      <trkpt lat="40.591834998" lon="-0.178715000">
        <ele>800.500000</ele>
        <time>2013-09-17T13:57:12Z</time>
      </trkpt>
      <trkpt lat="40.591765009" lon="-0.179067962">
        <ele>794.600000</ele>
        <time>2013-09-17T13:57:22Z</time>
      </trkpt>
      <trkpt lat="40.591714969" lon="-0.179372979">
        <ele>789.900000</ele>
        <time>2013-09-17T13:57:31Z</time>
      </trkpt>
      <trkpt lat="40.591717986" lon="-0.179516980">
        <ele>788.600000</ele>
        <time>2013-09-17T13:57:35Z</time>
      </trkpt>
      <trkpt lat="40.591773978" lon="-0.179652013">
        <ele>788.300000</ele>
        <time>2013-09-17T13:57:39Z</time>
      </trkpt>
      <trkpt lat="40.592004983" lon="-0.179897016">
        <ele>789.200000</ele>
        <time>2013-09-17T13:57:50Z</time>
      </trkpt>
      <trkpt lat="40.592322992" lon="-0.180275040">
        <ele>787.700000</ele>
        <time>2013-09-17T13:58:06Z</time>
      </trkpt>
      <trkpt lat="40.592530025" lon="-0.180581985">
        <ele>787.900000</ele>
        <time>2013-09-17T13:58:17Z</time>
      </trkpt>
      <trkpt lat="40.592694981" lon="-0.180911981">
        <ele>788.600000</ele>
        <time>2013-09-17T13:58:28Z</time>
      </trkpt>
      <trkpt lat="40.592818027" lon="-0.181222027">
        <ele>788.700000</ele>
        <time>2013-09-17T13:58:38Z</time>
      </trkpt>
      <trkpt lat="40.592865972" lon="-0.181474993">
        <ele>791.000000</ele>
        <time>2013-09-17T13:58:45Z</time>
      </trkpt>
      <trkpt lat="40.592857003" lon="-0.181770036">
        <ele>792.600000</ele>
        <time>2013-09-17T13:58:53Z</time>
      </trkpt>
      <trkpt lat="40.592795983" lon="-0.182041023">
        <ele>792.600000</ele>
        <time>2013-09-17T13:59:01Z</time>
      </trkpt>
      <trkpt lat="40.592667991" lon="-0.182369007">
        <ele>791.800000</ele>
        <time>2013-09-17T13:59:11Z</time>
      </trkpt>
      <trkpt lat="40.592547962" lon="-0.182587020">
        <ele>791.400000</ele>
        <time>2013-09-17T13:59:18Z</time>
      </trkpt>
      <trkpt lat="40.592354005" lon="-0.182829006">
        <ele>790.800000</ele>
        <time>2013-09-17T13:59:28Z</time>
      </trkpt>
      <trkpt lat="40.592144961" lon="-0.183070991">
        <ele>789.000000</ele>
        <time>2013-09-17T13:59:38Z</time>
      </trkpt>
      <trkpt lat="40.591945974" lon="-0.183271989">
        <ele>785.900000</ele>
        <time>2013-09-17T13:59:47Z</time>
      </trkpt>
      <trkpt lat="40.591787975" lon="-0.183450021">
        <ele>783.400000</ele>
        <time>2013-09-17T13:59:55Z</time>
      </trkpt>
      <trkpt lat="40.591699965" lon="-0.183701981">
        <ele>782.400000</ele>
        <time>2013-09-17T14:00:03Z</time>
      </trkpt>
      <trkpt lat="40.591645986" lon="-0.184074976">
        <ele>780.100000</ele>
        <time>2013-09-17T14:00:13Z</time>
      </trkpt>
      <trkpt lat="40.591616984" lon="-0.184391979">
        <ele>777.900000</ele>
        <time>2013-09-17T14:00:22Z</time>
      </trkpt>
      <trkpt lat="40.591612961" lon="-0.184640000">
        <ele>776.000000</ele>
        <time>2013-09-17T14:00:29Z</time>
      </trkpt>
      <trkpt lat="40.591638023" lon="-0.185036967">
        <ele>770.700000</ele>
        <time>2013-09-17T14:00:40Z</time>
      </trkpt>
      <trkpt lat="40.591632994" lon="-0.185264032">
        <ele>767.200000</ele>
        <time>2013-09-17T14:00:46Z</time>
      </trkpt>
      <trkpt lat="40.591579014" lon="-0.185417002">
        <ele>764.100000</ele>
        <time>2013-09-17T14:00:51Z</time>
      </trkpt>
      <trkpt lat="40.591464015" lon="-0.185428988">
        <ele>762.100000</ele>
        <time>2013-09-17T14:00:55Z</time>
      </trkpt>
      <trkpt lat="40.591367036" lon="-0.185267972">
        <ele>762.700000</ele>
        <time>2013-09-17T14:01:01Z</time>
      </trkpt>
      <trkpt lat="40.591167966" lon="-0.184645029">
        <ele>766.900000</ele>
        <time>2013-09-17T14:01:19Z</time>
      </trkpt>
      <trkpt lat="40.590968980" lon="-0.184006998">
        <ele>768.000000</ele>
        <time>2013-09-17T14:01:38Z</time>
      </trkpt>
      <trkpt lat="40.590864960" lon="-0.183812035">
        <ele>767.200000</ele>
        <time>2013-09-17T14:01:45Z</time>
      </trkpt>
      <trkpt lat="40.590711990" lon="-0.183790997">
        <ele>764.400000</ele>
        <time>2013-09-17T14:01:50Z</time>
      </trkpt>
      <trkpt lat="40.590523984" lon="-0.183813041">
        <ele>760.700000</ele>
        <time>2013-09-17T14:01:57Z</time>
      </trkpt>
      <trkpt lat="40.590408985" lon="-0.183955031">
        <ele>758.100000</ele>
        <time>2013-09-17T14:02:03Z</time>
      </trkpt>
      <trkpt lat="40.590391969" lon="-0.184115041">
        <ele>757.700000</ele>
        <time>2013-09-17T14:02:07Z</time>
      </trkpt>
      <trkpt lat="40.590552986" lon="-0.184552995">
        <ele>757.400000</ele>
        <time>2013-09-17T14:02:21Z</time>
      </trkpt>
      <trkpt lat="40.590689024" lon="-0.184805039">
        <ele>758.000000</ele>
        <time>2013-09-17T14:02:29Z</time>
      </trkpt>
      <trkpt lat="40.590737974" lon="-0.185072003">
        <ele>756.700000</ele>
        <time>2013-09-17T14:02:37Z</time>
      </trkpt>
      <trkpt lat="40.590823973" lon="-0.185710033">
        <ele>752.500000</ele>
        <time>2013-09-17T14:02:55Z</time>
      </trkpt>
      <trkpt lat="40.590919023" lon="-0.186002981">
        <ele>750.300000</ele>
        <time>2013-09-17T14:03:04Z</time>
      </trkpt>
      <trkpt lat="40.591070987" lon="-0.186222000">
        <ele>748.300000</ele>
        <time>2013-09-17T14:03:12Z</time>
      </trkpt>
      <trkpt lat="40.591706000" lon="-0.186502039">
        <ele>746.700000</ele>
        <time>2013-09-17T14:03:36Z</time>
      </trkpt>
      <trkpt lat="40.592388036" lon="-0.186851984">
        <ele>744.500000</ele>
        <time>2013-09-17T14:04:03Z</time>
      </trkpt>
      <trkpt lat="40.592768993" lon="-0.187045019">
        <ele>743.200000</ele>
        <time>2013-09-17T14:04:18Z</time>
      </trkpt>
      <trkpt lat="40.592873013" lon="-0.187200001">
        <ele>743.100000</ele>
        <time>2013-09-17T14:04:24Z</time>
      </trkpt>
      <trkpt lat="40.592949959" lon="-0.187517004">
        <ele>743.500000</ele>
        <time>2013-09-17T14:04:33Z</time>
      </trkpt>
      <trkpt lat="40.593082979" lon="-0.188251007">
        <ele>752.600000</ele>
        <time>2013-09-17T14:04:54Z</time>
      </trkpt>
      <trkpt lat="40.593132013" lon="-0.188639006">
        <ele>763.000000</ele>
        <time>2013-09-17T14:05:04Z</time>
      </trkpt>
      <trkpt lat="40.593132013" lon="-0.188773032">
        <ele>766.800000</ele>
        <time>2013-09-17T14:05:08Z</time>
      </trkpt>
      <trkpt lat="40.593101000" lon="-0.188851990">
        <ele>769.400000</ele>
        <time>2013-09-17T14:05:11Z</time>
      </trkpt>
      <trkpt lat="40.592615018" lon="-0.189062962">
        <ele>769.700000</ele>
        <time>2013-09-17T14:05:29Z</time>
      </trkpt>
      <trkpt lat="40.592133980" lon="-0.189292962">
        <ele>770.100000</ele>
        <time>2013-09-17T14:05:48Z</time>
      </trkpt>
      <trkpt lat="40.591128990" lon="-0.189791014">
        <ele>771.600000</ele>
        <time>2013-09-17T14:06:27Z</time>
      </trkpt>
      <trkpt lat="40.590465982" lon="-0.190058984">
        <ele>768.600000</ele>
        <time>2013-09-17T14:06:52Z</time>
      </trkpt>
      <trkpt lat="40.589925013" lon="-0.190172978">
        <ele>769.100000</ele>
        <time>2013-09-17T14:07:12Z</time>
      </trkpt>
      <trkpt lat="40.589612033" lon="-0.190189993">
        <ele>768.500000</ele>
        <time>2013-09-17T14:07:24Z</time>
      </trkpt>
      <trkpt lat="40.589349009" lon="-0.190100977">
        <ele>765.700000</ele>
        <time>2013-09-17T14:07:33Z</time>
      </trkpt>
      <trkpt lat="40.589201991" lon="-0.190048004">
        <ele>764.200000</ele>
        <time>2013-09-17T14:07:39Z</time>
      </trkpt>
      <trkpt lat="40.589068970" lon="-0.190079017">
        <ele>764.300000</ele>
        <time>2013-09-17T14:07:44Z</time>
      </trkpt>
      <trkpt lat="40.588850034" lon="-0.190194016">
        <ele>765.200000</ele>
        <time>2013-09-17T14:07:52Z</time>
      </trkpt>
      <trkpt lat="40.588721037" lon="-0.190405995">
        <ele>768.300000</ele>
        <time>2013-09-17T14:08:00Z</time>
      </trkpt>
      <trkpt lat="40.588637972" lon="-0.190577991">
        <ele>771.600000</ele>
        <time>2013-09-17T14:08:06Z</time>
      </trkpt>
      <trkpt lat="40.588395987" lon="-0.191126000">
        <ele>776.200000</ele>
        <time>2013-09-17T14:08:23Z</time>
      </trkpt>
      <trkpt lat="40.588164981" lon="-0.191664035">
        <ele>780.200000</ele>
        <time>2013-09-17T14:08:40Z</time>
      </trkpt>
      <trkpt lat="40.588031961" lon="-0.191942984">
        <ele>781.600000</ele>
        <time>2013-09-17T14:08:49Z</time>
      </trkpt>
      <trkpt lat="40.587879997" lon="-0.192180024">
        <ele>783.900000</ele>
        <time>2013-09-17T14:08:58Z</time>
      </trkpt>
      <trkpt lat="40.587633988" lon="-0.192528963">
        <ele>794.000000</ele>
        <time>2013-09-17T14:09:11Z</time>
      </trkpt>
      <trkpt lat="40.587512031" lon="-0.192643963">
        <ele>797.000000</ele>
        <time>2013-09-17T14:09:16Z</time>
      </trkpt>
      <trkpt lat="40.587429972" lon="-0.192672964">
        <ele>797.700000</ele>
        <time>2013-09-17T14:09:20Z</time>
      </trkpt>
      <trkpt lat="40.587326959" lon="-0.192671036">
        <ele>797.600000</ele>
        <time>2013-09-17T14:09:23Z</time>
      </trkpt>
      <trkpt lat="40.587082962" lon="-0.192590989">
        <ele>795.600000</ele>
        <time>2013-09-17T14:09:32Z</time>
      </trkpt>
      <trkpt lat="40.586727988" lon="-0.192466015">
        <ele>789.100000</ele>
        <time>2013-09-17T14:09:46Z</time>
      </trkpt>
      <trkpt lat="40.586595973" lon="-0.192470960">
        <ele>787.900000</ele>
        <time>2013-09-17T14:09:51Z</time>
      </trkpt>
      <trkpt lat="40.586523972" lon="-0.192499962">
        <ele>787.500000</ele>
        <time>2013-09-17T14:09:53Z</time>
      </trkpt>
      <trkpt lat="40.586445015" lon="-0.192582021">
        <ele>787.400000</ele>
        <time>2013-09-17T14:09:57Z</time>
      </trkpt>
      <trkpt lat="40.586320041" lon="-0.192799028">
        <ele>787.500000</ele>
        <time>2013-09-17T14:10:05Z</time>
      </trkpt>
      <trkpt lat="40.586188026" lon="-0.193126006">
        <ele>790.500000</ele>
        <time>2013-09-17T14:10:15Z</time>
      </trkpt>
      <trkpt lat="40.586015023" lon="-0.193515010">
        <ele>795.600000</ele>
        <time>2013-09-17T14:10:27Z</time>
      </trkpt>
      <trkpt lat="40.585900024" lon="-0.193710979">
        <ele>797.300000</ele>
        <time>2013-09-17T14:10:34Z</time>
      </trkpt>
      <trkpt lat="40.585770020" lon="-0.193853974">
        <ele>797.900000</ele>
        <time>2013-09-17T14:10:40Z</time>
      </trkpt>
      <trkpt lat="40.585602969" lon="-0.193984983">
        <ele>798.500000</ele>
        <time>2013-09-17T14:10:47Z</time>
      </trkpt>
      <trkpt lat="40.585068036" lon="-0.194412963">
        <ele>804.200000</ele>
        <time>2013-09-17T14:11:10Z</time>
      </trkpt>
      <trkpt lat="40.584743991" lon="-0.194657966">
        <ele>808.000000</ele>
        <time>2013-09-17T14:11:24Z</time>
      </trkpt>
      <trkpt lat="40.584532013" lon="-0.194830969">
        <ele>810.600000</ele>
        <time>2013-09-17T14:11:33Z</time>
      </trkpt>
      <trkpt lat="40.584393963" lon="-0.194944041">
        <ele>811.800000</ele>
        <time>2013-09-17T14:11:39Z</time>
      </trkpt>
      <trkpt lat="40.584244011" lon="-0.195006989">
        <ele>812.000000</ele>
        <time>2013-09-17T14:11:44Z</time>
      </trkpt>
      <trkpt lat="40.583990039" lon="-0.195047976">
        <ele>811.000000</ele>
        <time>2013-09-17T14:11:54Z</time>
      </trkpt>
      <trkpt lat="40.583832962" lon="-0.195117965">
        <ele>811.500000</ele>
        <time>2013-09-17T14:12:00Z</time>
      </trkpt>
      <trkpt lat="40.583655015" lon="-0.195273031">
        <ele>813.600000</ele>
        <time>2013-09-17T14:12:08Z</time>
      </trkpt>
      <trkpt lat="40.583457034" lon="-0.195522979">
        <ele>815.400000</ele>
        <time>2013-09-17T14:12:18Z</time>
      </trkpt>
      <trkpt lat="40.583118992" lon="-0.195925981">
        <ele>814.500000</ele>
        <time>2013-09-17T14:12:34Z</time>
      </trkpt>
      <trkpt lat="40.582883041" lon="-0.196186993">
        <ele>813.400000</ele>
        <time>2013-09-17T14:12:45Z</time>
      </trkpt>
      <trkpt lat="40.582782039" lon="-0.196349015">
        <ele>814.000000</ele>
        <time>2013-09-17T14:12:51Z</time>
      </trkpt>
      <trkpt lat="40.582731999" lon="-0.196519000">
        <ele>814.600000</ele>
        <time>2013-09-17T14:12:56Z</time>
      </trkpt>
      <trkpt lat="40.582689000" lon="-0.196858970">
        <ele>815.800000</ele>
        <time>2013-09-17T14:13:06Z</time>
      </trkpt>
      <trkpt lat="40.582669973" lon="-0.197115038">
        <ele>816.800000</ele>
        <time>2013-09-17T14:13:13Z</time>
      </trkpt>
      <trkpt lat="40.582634015" lon="-0.197629016">
        <ele>819.300000</ele>
        <time>2013-09-17T14:13:27Z</time>
      </trkpt>
      <trkpt lat="40.582557991" lon="-0.198614979">
        <ele>828.500000</ele>
        <time>2013-09-17T14:13:54Z</time>
      </trkpt>
      <trkpt lat="40.582541982" lon="-0.199302966">
        <ele>834.600000</ele>
        <time>2013-09-17T14:14:13Z</time>
      </trkpt>
      <trkpt lat="40.582522033" lon="-0.200197985">
        <ele>837.500000</ele>
        <time>2013-09-17T14:14:38Z</time>
      </trkpt>
      <trkpt lat="40.582493031" lon="-0.201413026">
        <ele>839.600000</ele>
        <time>2013-09-17T14:15:12Z</time>
      </trkpt>
      <trkpt lat="40.582455983" lon="-0.203056969">
        <ele>854.200000</ele>
        <time>2013-09-17T14:15:57Z</time>
      </trkpt>
      <trkpt lat="40.582431005" lon="-0.204643998">
        <ele>868.000000</ele>
        <time>2013-09-17T14:16:41Z</time>
      </trkpt>
      <trkpt lat="40.582411978" lon="-0.206089960">
        <ele>874.500000</ele>
        <time>2013-09-17T14:17:21Z</time>
      </trkpt>
      <trkpt lat="40.582365962" lon="-0.207790984">
        <ele>878.800000</ele>
        <time>2013-09-17T14:18:08Z</time>
      </trkpt>
      <trkpt lat="40.582352970" lon="-0.209011976">
        <ele>883.000000</ele>
        <time>2013-09-17T14:18:42Z</time>
      </trkpt>
      <trkpt lat="40.582301002" lon="-0.211095968">
        <ele>885.900000</ele>
        <time>2013-09-17T14:19:40Z</time>
      </trkpt>
      <trkpt lat="40.582308965" lon="-0.211540964">
        <ele>885.600000</ele>
        <time>2013-09-17T14:19:52Z</time>
      </trkpt>
      <trkpt lat="40.582345007" lon="-0.211755037">
        <ele>885.600000</ele>
        <time>2013-09-17T14:19:58Z</time>
      </trkpt>
      <trkpt lat="40.582429999" lon="-0.212216964">
        <ele>886.800000</ele>
        <time>2013-09-17T14:20:11Z</time>
      </trkpt>
      <trkpt lat="40.582552962" lon="-0.212848959">
        <ele>892.100000</ele>
        <time>2013-09-17T14:20:29Z</time>
      </trkpt>
      <trkpt lat="40.582652036" lon="-0.213354975">
        <ele>898.600000</ele>
        <time>2013-09-17T14:20:43Z</time>
      </trkpt>
      <trkpt lat="40.582429999" lon="-0.212216964">
        <ele>886.800000</ele>
        <time>2013-09-17T14:20:11Z</time>
      </trkpt>
      <trkpt lat="40.582552962" lon="-0.212848959">
        <ele>892.100000</ele>
        <time>2013-09-17T14:20:29Z</time>
      </trkpt>
      <trkpt lat="40.582652036" lon="-0.213354975">
        <ele>898.600000</ele>
        <time>2013-09-17T14:20:43Z</time>
      </trkpt>
      <trkpt lat="40.582716996" lon="-0.213623028">
        <ele>902.400000</ele>
        <time>2013-09-17T14:20:51Z</time>
      </trkpt>
      <trkpt lat="40.582779022" lon="-0.213765018">
        <ele>904.800000</ele>
        <time>2013-09-17T14:20:56Z</time>
      </trkpt>
      <trkpt lat="40.583097031" lon="-0.214208001">
        <ele>909.300000</ele>
        <time>2013-09-17T14:21:13Z</time>
      </trkpt>
      <trkpt lat="40.583354020" lon="-0.214563981">
        <ele>909.800000</ele>
        <time>2013-09-17T14:21:26Z</time>
      </trkpt>
      <trkpt lat="40.583587959" lon="-0.214892970">
        <ele>908.700000</ele>
        <time>2013-09-17T14:21:39Z</time>
      </trkpt>
      <trkpt lat="40.583704971" lon="-0.215080976">
        <ele>908.000000</ele>
        <time>2013-09-17T14:21:45Z</time>
      </trkpt>
      <trkpt lat="40.583736990" lon="-0.215250961">
        <ele>907.900000</ele>
        <time>2013-09-17T14:21:50Z</time>
      </trkpt>
      <trkpt lat="40.583720980" lon="-0.215480961">
        <ele>908.400000</ele>
        <time>2013-09-17T14:21:57Z</time>
      </trkpt>
      <trkpt lat="40.583672030" lon="-0.215700986">
        <ele>909.400000</ele>
        <time>2013-09-17T14:22:03Z</time>
      </trkpt>
      <trkpt lat="40.583628025" lon="-0.215878012">
        <ele>910.100000</ele>
        <time>2013-09-17T14:22:08Z</time>
      </trkpt>
      <trkpt lat="40.583644034" lon="-0.216257963">
        <ele>910.800000</ele>
        <time>2013-09-17T14:22:19Z</time>
      </trkpt>
      <trkpt lat="40.583670018" lon="-0.216558035">
        <ele>910.400000</ele>
        <time>2013-09-17T14:22:27Z</time>
      </trkpt>
      <trkpt lat="40.583688961" lon="-0.216955002">
        <ele>910.200000</ele>
        <time>2013-09-17T14:22:38Z</time>
      </trkpt>
      <trkpt lat="40.583668007" lon="-0.217252979">
        <ele>909.200000</ele>
        <time>2013-09-17T14:22:46Z</time>
      </trkpt>
      <trkpt lat="40.583588965" lon="-0.217543999">
        <ele>907.800000</ele>
        <time>2013-09-17T14:22:55Z</time>
      </trkpt>
      <trkpt lat="40.583458962" lon="-0.217834013">
        <ele>906.800000</ele>
        <time>2013-09-17T14:23:04Z</time>
      </trkpt>
      <trkpt lat="40.583271040" lon="-0.218134001">
        <ele>907.100000</ele>
        <time>2013-09-17T14:23:15Z</time>
      </trkpt>
      <trkpt lat="40.583049003" lon="-0.218311027">
        <ele>908.200000</ele>
        <time>2013-09-17T14:23:24Z</time>
      </trkpt>
      <trkpt lat="40.582356993" lon="-0.218544966">
        <ele>912.700000</ele>
        <time>2013-09-17T14:23:50Z</time>
      </trkpt>
      <trkpt lat="40.581665989" lon="-0.218735989">
        <ele>910.500000</ele>
        <time>2013-09-17T14:24:16Z</time>
      </trkpt>
      <trkpt lat="40.581518970" lon="-0.218843026">
        <ele>909.600000</ele>
        <time>2013-09-17T14:24:22Z</time>
      </trkpt>
      <trkpt lat="40.581489969" lon="-0.219081994">
        <ele>911.200000</ele>
        <time>2013-09-17T14:24:29Z</time>
      </trkpt>
      <trkpt lat="40.581419980" lon="-0.219616005">
        <ele>914.900000</ele>
        <time>2013-09-17T14:24:44Z</time>
      </trkpt>
      <trkpt lat="40.581373041" lon="-0.220056977">
        <ele>920.800000</ele>
        <time>2013-09-17T14:24:56Z</time>
      </trkpt>
      <trkpt lat="40.581272962" lon="-0.220283037">
        <ele>923.900000</ele>
        <time>2013-09-17T14:25:03Z</time>
      </trkpt>
      <trkpt lat="40.580965010" lon="-0.220691990">
        <ele>929.000000</ele>
        <time>2013-09-17T14:25:19Z</time>
      </trkpt>
      <trkpt lat="40.580763007" lon="-0.220963983">
        <ele>932.900000</ele>
        <time>2013-09-17T14:25:30Z</time>
      </trkpt>
      <trkpt lat="40.580636021" lon="-0.221077977">
        <ele>934.200000</ele>
        <time>2013-09-17T14:25:35Z</time>
      </trkpt>
      <trkpt lat="40.580422031" lon="-0.221204963">
        <ele>935.100000</ele>
        <time>2013-09-17T14:25:44Z</time>
      </trkpt>
      <trkpt lat="40.580158001" lon="-0.221334966">
        <ele>931.500000</ele>
        <time>2013-09-17T14:25:54Z</time>
      </trkpt>
      <trkpt lat="40.579944011" lon="-0.221436974">
        <ele>927.700000</ele>
        <time>2013-09-17T14:26:02Z</time>
      </trkpt>
      <trkpt lat="40.579823982" lon="-0.221539987">
        <ele>925.600000</ele>
        <time>2013-09-17T14:26:08Z</time>
      </trkpt>
      <trkpt lat="40.579757011" lon="-0.221672002">
        <ele>924.800000</ele>
        <time>2013-09-17T14:26:12Z</time>
      </trkpt>
      <trkpt lat="40.579728009" lon="-0.221796976">
        <ele>924.900000</ele>
        <time>2013-09-17T14:26:16Z</time>
      </trkpt>
      <trkpt lat="40.579714011" lon="-0.222028987">
        <ele>926.000000</ele>
        <time>2013-09-17T14:26:22Z</time>
      </trkpt>
      <trkpt lat="40.579712000" lon="-0.222412040">
        <ele>931.400000</ele>
        <time>2013-09-17T14:26:33Z</time>
      </trkpt>
      <trkpt lat="40.579685010" lon="-0.222929036">
        <ele>938.600000</ele>
        <time>2013-09-17T14:26:47Z</time>
      </trkpt>
      <trkpt lat="40.579635976" lon="-0.223204968">
        <ele>940.300000</ele>
        <time>2013-09-17T14:26:55Z</time>
      </trkpt>
      <trkpt lat="40.579530029" lon="-0.223523984">
        <ele>941.500000</ele>
        <time>2013-09-17T14:27:04Z</time>
      </trkpt>
      <trkpt lat="40.579415029" lon="-0.223982977">
        <ele>943.500000</ele>
        <time>2013-09-17T14:27:18Z</time>
      </trkpt>
      <trkpt lat="40.579358032" lon="-0.224218005">
        <ele>944.400000</ele>
        <time>2013-09-17T14:27:25Z</time>
      </trkpt>
      <trkpt lat="40.579364989" lon="-0.224393019">
        <ele>945.800000</ele>
        <time>2013-09-17T14:27:29Z</time>
      </trkpt>
      <trkpt lat="40.579440007" lon="-0.224703988">
        <ele>948.800000</ele>
        <time>2013-09-17T14:27:38Z</time>
      </trkpt>
      <trkpt lat="40.579538997" lon="-0.224912027">
        <ele>951.100000</ele>
        <time>2013-09-17T14:27:45Z</time>
      </trkpt>
      <trkpt lat="40.579680987" lon="-0.225246968">
        <ele>955.300000</ele>
        <time>2013-09-17T14:27:56Z</time>
      </trkpt>
      <trkpt lat="40.579904029" lon="-0.225495994">
        <ele>959.900000</ele>
        <time>2013-09-17T14:28:06Z</time>
      </trkpt>
      <trkpt lat="40.580125982" lon="-0.225664973">
        <ele>963.900000</ele>
        <time>2013-09-17T14:28:16Z</time>
      </trkpt>
      <trkpt lat="40.580224972" lon="-0.225817021">
        <ele>965.800000</ele>
        <time>2013-09-17T14:28:21Z</time>
      </trkpt>
      <trkpt lat="40.580288004" lon="-0.225968985">
        <ele>967.200000</ele>
        <time>2013-09-17T14:28:26Z</time>
      </trkpt>
      <trkpt lat="40.580265038" lon="-0.226141987">
        <ele>968.400000</ele>
        <time>2013-09-17T14:28:31Z</time>
      </trkpt>
      <trkpt lat="40.580212986" lon="-0.226239972">
        <ele>969.200000</ele>
        <time>2013-09-17T14:28:34Z</time>
      </trkpt>
      <trkpt lat="40.580078037" lon="-0.226323036">
        <ele>969.200000</ele>
        <time>2013-09-17T14:28:40Z</time>
      </trkpt>
      <trkpt lat="40.579952979" lon="-0.226410963">
        <ele>969.300000</ele>
        <time>2013-09-17T14:28:45Z</time>
      </trkpt>
      <trkpt lat="40.579852983" lon="-0.226587988">
        <ele>969.400000</ele>
        <time>2013-09-17T14:28:51Z</time>
      </trkpt>
      <trkpt lat="40.579820964" lon="-0.226755962">
        <ele>969.500000</ele>
        <time>2013-09-17T14:28:56Z</time>
      </trkpt>
      <trkpt lat="40.579747958" lon="-0.226931982">
        <ele>970.100000</ele>
        <time>2013-09-17T14:29:01Z</time>
      </trkpt>
      <trkpt lat="40.579650979" lon="-0.227048993">
        <ele>971.200000</ele>
        <time>2013-09-17T14:29:06Z</time>
      </trkpt>
      <trkpt lat="40.579529023" lon="-0.227059973">
        <ele>972.300000</ele>
        <time>2013-09-17T14:29:11Z</time>
      </trkpt>
      <trkpt lat="40.579350991" lon="-0.227031978">
        <ele>973.300000</ele>
        <time>2013-09-17T14:29:17Z</time>
      </trkpt>
      <trkpt lat="40.579163991" lon="-0.227002976">
        <ele>974.200000</ele>
        <time>2013-09-17T14:29:24Z</time>
      </trkpt>
      <trkpt lat="40.579000963" lon="-0.227022003">
        <ele>975.400000</ele>
        <time>2013-09-17T14:29:30Z</time>
      </trkpt>
      <trkpt lat="40.578902978" lon="-0.227102973">
        <ele>977.300000</ele>
        <time>2013-09-17T14:29:34Z</time>
      </trkpt>
      <trkpt lat="40.578781022" lon="-0.227311011">
        <ele>982.900000</ele>
        <time>2013-09-17T14:29:41Z</time>
      </trkpt>
      <trkpt lat="40.578668034" lon="-0.227535982">
        <ele>987.800000</ele>
        <time>2013-09-17T14:29:49Z</time>
      </trkpt>
      <trkpt lat="40.578530990" lon="-0.227655005">
        <ele>989.500000</ele>
        <time>2013-09-17T14:29:55Z</time>
      </trkpt>
      <trkpt lat="40.578378020" lon="-0.227738991">
        <ele>990.200000</ele>
        <time>2013-09-17T14:30:01Z</time>
      </trkpt>
      <trkpt lat="40.578210969" lon="-0.227750978">
        <ele>989.200000</ele>
        <time>2013-09-17T14:30:07Z</time>
      </trkpt>
      <trkpt lat="40.578019023" lon="-0.227712002">
        <ele>987.000000</ele>
        <time>2013-09-17T14:30:14Z</time>
      </trkpt>
      <trkpt lat="40.577781983" lon="-0.227679983">
        <ele>982.500000</ele>
        <time>2013-09-17T14:30:23Z</time>
      </trkpt>
      <trkpt lat="40.577582996" lon="-0.227705967">
        <ele>978.100000</ele>
        <time>2013-09-17T14:30:30Z</time>
      </trkpt>
      <trkpt lat="40.577465985" lon="-0.227776039">
        <ele>976.200000</ele>
        <time>2013-09-17T14:30:35Z</time>
      </trkpt>
      <trkpt lat="40.577401025" lon="-0.227897996">
        <ele>976.200000</ele>
        <time>2013-09-17T14:30:39Z</time>
      </trkpt>
      <trkpt lat="40.577400019" lon="-0.228029005">
        <ele>978.300000</ele>
        <time>2013-09-17T14:30:42Z</time>
      </trkpt>
      <trkpt lat="40.577435978" lon="-0.228206031">
        <ele>982.100000</ele>
        <time>2013-09-17T14:30:47Z</time>
      </trkpt>
      <trkpt lat="40.577512002" lon="-0.228369981">
        <ele>986.000000</ele>
        <time>2013-09-17T14:30:53Z</time>
      </trkpt>
      <trkpt lat="40.577722974" lon="-0.228635017">
        <ele>992.200000</ele>
        <time>2013-09-17T14:31:03Z</time>
      </trkpt>
      <trkpt lat="40.577978035" lon="-0.229028966">
        <ele>1001.100000</ele>
        <time>2013-09-17T14:31:18Z</time>
      </trkpt>
      <trkpt lat="40.578089012" lon="-0.229329038">
        <ele>1007.800000</ele>
        <time>2013-09-17T14:31:27Z</time>
      </trkpt>
      <trkpt lat="40.578348013" lon="-0.229721982">
        <ele>1017.600000</ele>
        <time>2013-09-17T14:31:41Z</time>
      </trkpt>
      <trkpt lat="40.578712039" lon="-0.230118027">
        <ele>1031.100000</ele>
        <time>2013-09-17T14:31:58Z</time>
      </trkpt>
      <trkpt lat="40.579009010" lon="-0.230367975">
        <ele>1029.100000</ele>
        <time>2013-09-17T14:32:11Z</time>
      </trkpt>
      <trkpt lat="40.579231968" lon="-0.230603004">
        <ele>1024.600000</ele>
        <time>2013-09-17T14:32:22Z</time>
      </trkpt>
      <trkpt lat="40.579341017" lon="-0.230765026">
        <ele>1022.600000</ele>
        <time>2013-09-17T14:32:28Z</time>
      </trkpt>
      <trkpt lat="40.579339005" lon="-0.230896035">
        <ele>1024.400000</ele>
        <time>2013-09-17T14:32:31Z</time>
      </trkpt>
      <trkpt lat="40.579315033" lon="-0.231011035">
        <ele>1026.800000</ele>
        <time>2013-09-17T14:32:34Z</time>
      </trkpt>
      <trkpt lat="40.579241021" lon="-0.231156042">
        <ele>1031.700000</ele>
        <time>2013-09-17T14:32:39Z</time>
      </trkpt>
      <trkpt lat="40.579154016" lon="-0.231326027">
        <ele>1035.900000</ele>
        <time>2013-09-17T14:32:45Z</time>
      </trkpt>
      <trkpt lat="40.579081010" lon="-0.231477991">
        <ele>1037.700000</ele>
        <time>2013-09-17T14:32:50Z</time>
      </trkpt>
      <trkpt lat="40.579084028" lon="-0.231602965">
        <ele>1036.700000</ele>
        <time>2013-09-17T14:32:53Z</time>
      </trkpt>
      <trkpt lat="40.579156028" lon="-0.231778985">
        <ele>1032.300000</ele>
        <time>2013-09-17T14:32:59Z</time>
      </trkpt>
      <trkpt lat="40.579217970" lon="-0.231931033">
        <ele>1028.500000</ele>
        <time>2013-09-17T14:33:04Z</time>
      </trkpt>
      <trkpt lat="40.579230962" lon="-0.232074028">
        <ele>1026.900000</ele>
        <time>2013-09-17T14:33:08Z</time>
      </trkpt>
      <trkpt lat="40.579211013" lon="-0.232199002">
        <ele>1024.500000</ele>
        <time>2013-09-17T14:33:11Z</time>
      </trkpt>
      <trkpt lat="40.579138007" lon="-0.232375022">
        <ele>1023.000000</ele>
        <time>2013-09-17T14:33:17Z</time>
      </trkpt>
      <trkpt lat="40.578983026" lon="-0.232494967">
        <ele>1026.400000</ele>
        <time>2013-09-17T14:33:23Z</time>
      </trkpt>
      <trkpt lat="40.578392018" lon="-0.232869973">
        <ele>1041.000000</ele>
        <time>2013-09-17T14:33:47Z</time>
      </trkpt>
      <trkpt lat="40.578003014" lon="-0.233117994">
        <ele>1055.900000</ele>
        <time>2013-09-17T14:34:03Z</time>
      </trkpt>
      <trkpt lat="40.577758010" lon="-0.233307006">
        <ele>1066.900000</ele>
        <time>2013-09-17T14:34:13Z</time>
      </trkpt>
      <trkpt lat="40.577692967" lon="-0.233423011">
        <ele>1069.900000</ele>
        <time>2013-09-17T14:34:17Z</time>
      </trkpt>
      <trkpt lat="40.577674024" lon="-0.233590985">
        <ele>1070.500000</ele>
        <time>2013-09-17T14:34:22Z</time>
      </trkpt>
      <trkpt lat="40.577728003" lon="-0.233755019">
        <ele>1067.600000</ele>
        <time>2013-09-17T14:34:27Z</time>
      </trkpt>
      <trkpt lat="40.577855995" lon="-0.233963979">
        <ele>1062.600000</ele>
        <time>2013-09-17T14:34:34Z</time>
      </trkpt>
      <trkpt lat="40.577940987" lon="-0.234116027">
        <ele>1059.500000</ele>
        <time>2013-09-17T14:34:39Z</time>
      </trkpt>
      <trkpt lat="40.577970995" lon="-0.234233961">
        <ele>1058.900000</ele>
        <time>2013-09-17T14:34:43Z</time>
      </trkpt>
      <trkpt lat="40.577933025" lon="-0.234365975">
        <ele>1061.600000</ele>
        <time>2013-09-17T14:34:47Z</time>
      </trkpt>
      <trkpt lat="40.577878039" lon="-0.234540990">
        <ele>1065.600000</ele>
        <time>2013-09-17T14:34:52Z</time>
      </trkpt>
      <trkpt lat="40.577809978" lon="-0.234705023">
        <ele>1070.100000</ele>
        <time>2013-09-17T14:34:57Z</time>
      </trkpt>
      <trkpt lat="40.577788018" lon="-0.234920019">
        <ele>1072.600000</ele>
        <time>2013-09-17T14:35:03Z</time>
      </trkpt>
      <trkpt lat="40.577750970" lon="-0.235267030">
        <ele>1076.600000</ele>
        <time>2013-09-17T14:35:13Z</time>
      </trkpt>
      <trkpt lat="40.577703025" lon="-0.235577999">
        <ele>1079.300000</ele>
        <time>2013-09-17T14:35:22Z</time>
      </trkpt>
      <trkpt lat="40.577723980" lon="-0.235887039">
        <ele>1077.500000</ele>
        <time>2013-09-17T14:35:30Z</time>
      </trkpt>
      <trkpt lat="40.577810984" lon="-0.236281995">
        <ele>1072.500000</ele>
        <time>2013-09-17T14:35:42Z</time>
      </trkpt>
      <trkpt lat="40.577853983" lon="-0.236524986">
        <ele>1065.300000</ele>
        <time>2013-09-17T14:35:48Z</time>
      </trkpt>
      <trkpt lat="40.577857001" lon="-0.236696983">
        <ele>1061.200000</ele>
        <time>2013-09-17T14:35:53Z</time>
      </trkpt>
      <trkpt lat="40.577827999" lon="-0.236793961">
        <ele>1060.300000</ele>
        <time>2013-09-17T14:35:56Z</time>
      </trkpt>
      <trkpt lat="40.577763040" lon="-0.236904016">
        <ele>1060.500000</ele>
        <time>2013-09-17T14:36:00Z</time>
      </trkpt>
      <trkpt lat="40.577591965" lon="-0.236988002">
        <ele>1065.700000</ele>
        <time>2013-09-17T14:36:07Z</time>
      </trkpt>
      <trkpt lat="40.577315027" lon="-0.237166034">
        <ele>1073.400000</ele>
        <time>2013-09-17T14:36:18Z</time>
      </trkpt>
      <trkpt lat="40.576981008" lon="-0.237441966">
        <ele>1078.100000</ele>
        <time>2013-09-17T14:36:32Z</time>
      </trkpt>
      <trkpt lat="40.576641960" lon="-0.237878999">
        <ele>1077.400000</ele>
        <time>2013-09-17T14:36:49Z</time>
      </trkpt>
      <trkpt lat="40.576422019" lon="-0.238173036">
        <ele>1080.500000</ele>
        <time>2013-09-17T14:37:01Z</time>
      </trkpt>
      <trkpt lat="40.576265026" lon="-0.238274960">
        <ele>1083.900000</ele>
        <time>2013-09-17T14:37:07Z</time>
      </trkpt>
      <trkpt lat="40.576067967" lon="-0.238384008">
        <ele>1087.000000</ele>
        <time>2013-09-17T14:37:15Z</time>
      </trkpt>
      <trkpt lat="40.575961014" lon="-0.238633035">
        <ele>1086.000000</ele>
        <time>2013-09-17T14:37:23Z</time>
      </trkpt>
      <trkpt lat="40.575850960" lon="-0.238804026">
        <ele>1087.100000</ele>
        <time>2013-09-17T14:37:29Z</time>
      </trkpt>
      <trkpt lat="40.575762028" lon="-0.238866974">
        <ele>1089.600000</ele>
        <time>2013-09-17T14:37:33Z</time>
      </trkpt>
      <trkpt lat="40.575586008" lon="-0.238921959">
        <ele>1094.400000</ele>
        <time>2013-09-17T14:37:39Z</time>
      </trkpt>
      <trkpt lat="40.575233968" lon="-0.238990020">
        <ele>1103.300000</ele>
        <time>2013-09-17T14:37:52Z</time>
      </trkpt>
      <trkpt lat="40.575089967" lon="-0.239050034">
        <ele>1107.000000</ele>
        <time>2013-09-17T14:37:58Z</time>
      </trkpt>
      <trkpt lat="40.575057026" lon="-0.239199987">
        <ele>1108.900000</ele>
        <time>2013-09-17T14:38:02Z</time>
      </trkpt>
      <trkpt lat="40.575059038" lon="-0.239253966">
        <ele>1109.300000</ele>
        <time>2013-09-17T14:38:04Z</time>
      </trkpt>
      <trkpt lat="40.575152999" lon="-0.239397967">
        <ele>1108.000000</ele>
        <time>2013-09-17T14:38:09Z</time>
      </trkpt>
      <trkpt lat="40.575328013" lon="-0.239707008">
        <ele>1103.000000</ele>
        <time>2013-09-17T14:38:20Z</time>
      </trkpt>
      <trkpt lat="40.575346034" lon="-0.239871964">
        <ele>1100.500000</ele>
        <time>2013-09-17T14:38:24Z</time>
      </trkpt>
      <trkpt lat="40.575346034" lon="-0.240074974">
        <ele>1098.100000</ele>
        <time>2013-09-17T14:38:30Z</time>
      </trkpt>
      <trkpt lat="40.575236985" lon="-0.240263985">
        <ele>1100.300000</ele>
        <time>2013-09-17T14:38:36Z</time>
      </trkpt>
      <trkpt lat="40.575080998" lon="-0.240389965">
        <ele>1105.700000</ele>
        <time>2013-09-17T14:38:43Z</time>
      </trkpt>
      <trkpt lat="40.574849993" lon="-0.240607979">
        <ele>1114.200000</ele>
        <time>2013-09-17T14:38:53Z</time>
      </trkpt>
      <trkpt lat="40.574720996" lon="-0.240892963">
        <ele>1117.500000</ele>
        <time>2013-09-17T14:39:02Z</time>
      </trkpt>
      <trkpt lat="40.574529972" lon="-0.241257995">
        <ele>1122.300000</ele>
        <time>2013-09-17T14:39:15Z</time>
      </trkpt>
      <trkpt lat="40.574334003" lon="-0.241796030">
        <ele>1127.300000</ele>
        <time>2013-09-17T14:39:31Z</time>
      </trkpt>
      <trkpt lat="40.574240042" lon="-0.242228033">
        <ele>1127.600000</ele>
        <time>2013-09-17T14:39:44Z</time>
      </trkpt>
      <trkpt lat="40.574201988" lon="-0.242532967">
        <ele>1125.000000</ele>
        <time>2013-09-17T14:39:52Z</time>
      </trkpt>
      <trkpt lat="40.574104004" lon="-0.242829015">
        <ele>1124.200000</ele>
        <time>2013-09-17T14:40:01Z</time>
      </trkpt>
      <trkpt lat="40.573810972" lon="-0.243269987">
        <ele>1126.900000</ele>
        <time>2013-09-17T14:40:17Z</time>
      </trkpt>
      <trkpt lat="40.573577033" lon="-0.243570982">
        <ele>1125.500000</ele>
        <time>2013-09-17T14:40:29Z</time>
      </trkpt>
      <trkpt lat="40.573411994" lon="-0.243672989">
        <ele>1125.700000</ele>
        <time>2013-09-17T14:40:36Z</time>
      </trkpt>
      <trkpt lat="40.573208984" lon="-0.243753036">
        <ele>1126.500000</ele>
        <time>2013-09-17T14:40:44Z</time>
      </trkpt>
      <trkpt lat="40.572937997" lon="-0.243787989">
        <ele>1130.100000</ele>
        <time>2013-09-17T14:40:53Z</time>
      </trkpt>
      <trkpt lat="40.572668016" lon="-0.243865019">
        <ele>1137.200000</ele>
        <time>2013-09-17T14:41:04Z</time>
      </trkpt>
      <trkpt lat="40.572327040" lon="-0.244062999">
        <ele>1143.200000</ele>
        <time>2013-09-17T14:41:17Z</time>
      </trkpt>
      <trkpt lat="40.572130987" lon="-0.244214041">
        <ele>1143.900000</ele>
        <time>2013-09-17T14:41:25Z</time>
      </trkpt>
      <trkpt lat="40.571949016" lon="-0.244417973">
        <ele>1145.100000</ele>
        <time>2013-09-17T14:41:34Z</time>
      </trkpt>
      <trkpt lat="40.571779031" lon="-0.244699018">
        <ele>1147.400000</ele>
        <time>2013-09-17T14:41:44Z</time>
      </trkpt>
      <trkpt lat="40.571518019" lon="-0.245162034">
        <ele>1151.900000</ele>
        <time>2013-09-17T14:42:00Z</time>
      </trkpt>
      <trkpt lat="40.571297994" lon="-0.245636031">
        <ele>1153.700000</ele>
        <time>2013-09-17T14:42:15Z</time>
      </trkpt>
      <trkpt lat="40.571157010" lon="-0.245850021">
        <ele>1156.800000</ele>
        <time>2013-09-17T14:42:23Z</time>
      </trkpt>
      <trkpt lat="40.571033964" lon="-0.245972984">
        <ele>1160.400000</ele>
        <time>2013-09-17T14:42:29Z</time>
      </trkpt>
      <trkpt lat="40.570921982" lon="-0.246068034">
        <ele>1163.800000</ele>
        <time>2013-09-17T14:42:34Z</time>
      </trkpt>
      <trkpt lat="40.570847970" lon="-0.246189991">
        <ele>1166.100000</ele>
        <time>2013-09-17T14:42:38Z</time>
      </trkpt>
      <trkpt lat="40.570835983" lon="-0.246290993">
        <ele>1166.500000</ele>
        <time>2013-09-17T14:42:41Z</time>
      </trkpt>
      <trkpt lat="40.570839001" lon="-0.246399036">
        <ele>1166.600000</ele>
        <time>2013-09-17T14:42:44Z</time>
      </trkpt>
      <trkpt lat="40.570884012" lon="-0.246551000">
        <ele>1165.500000</ele>
        <time>2013-09-17T14:42:48Z</time>
      </trkpt>
      <trkpt lat="40.570951989" lon="-0.246769013">
        <ele>1163.900000</ele>
        <time>2013-09-17T14:42:55Z</time>
      </trkpt>
      <trkpt lat="40.570983002" lon="-0.246921983">
        <ele>1163.300000</ele>
        <time>2013-09-17T14:42:59Z</time>
      </trkpt>
      <trkpt lat="40.570970010" lon="-0.247101020">
        <ele>1163.900000</ele>
        <time>2013-09-17T14:43:04Z</time>
      </trkpt>
      <trkpt lat="40.570929023" lon="-0.247300006">
        <ele>1163.400000</ele>
        <time>2013-09-17T14:43:10Z</time>
      </trkpt>
      <trkpt lat="40.570842018" lon="-0.247481978">
        <ele>1163.800000</ele>
        <time>2013-09-17T14:43:16Z</time>
      </trkpt>
      <trkpt lat="40.570711009" lon="-0.247695968">
        <ele>1163.900000</ele>
        <time>2013-09-17T14:43:23Z</time>
      </trkpt>
      <trkpt lat="40.570562985" lon="-0.247957986">
        <ele>1163.400000</ele>
        <time>2013-09-17T14:43:32Z</time>
      </trkpt>
      <trkpt lat="40.570441028" lon="-0.248158984">
        <ele>1165.900000</ele>
        <time>2013-09-17T14:43:39Z</time>
      </trkpt>
      <trkpt lat="40.570266014" lon="-0.248273984">
        <ele>1167.600000</ele>
        <time>2013-09-17T14:43:47Z</time>
      </trkpt>
      <trkpt lat="40.569974994" lon="-0.248440029">
        <ele>1169.300000</ele>
        <time>2013-09-17T14:43:58Z</time>
      </trkpt>
      <trkpt lat="40.569790006" lon="-0.248454027">
        <ele>1170.000000</ele>
        <time>2013-09-17T14:44:05Z</time>
      </trkpt>
      <trkpt lat="40.569493035" lon="-0.248388983">
        <ele>1172.300000</ele>
        <time>2013-09-17T14:44:16Z</time>
      </trkpt>
      <trkpt lat="40.569159016" lon="-0.248295022">
        <ele>1177.100000</ele>
        <time>2013-09-17T14:44:28Z</time>
      </trkpt>
      <trkpt lat="40.568833966" lon="-0.248183040">
        <ele>1181.700000</ele>
        <time>2013-09-17T14:44:40Z</time>
      </trkpt>
      <trkpt lat="40.568703040" lon="-0.248188991">
        <ele>1183.200000</ele>
        <time>2013-09-17T14:44:45Z</time>
      </trkpt>
      <trkpt lat="40.568594998" lon="-0.248235008">
        <ele>1184.100000</ele>
        <time>2013-09-17T14:44:49Z</time>
      </trkpt>
      <trkpt lat="40.568489973" lon="-0.248417985">
        <ele>1184.200000</ele>
        <time>2013-09-17T14:44:56Z</time>
      </trkpt>
      <trkpt lat="40.568321999" lon="-0.248580007">
        <ele>1185.000000</ele>
        <time>2013-09-17T14:45:03Z</time>
      </trkpt>
      <trkpt lat="40.568122007" lon="-0.248604985">
        <ele>1186.800000</ele>
        <time>2013-09-17T14:45:11Z</time>
      </trkpt>
      <trkpt lat="40.567926960" lon="-0.248577995">
        <ele>1188.900000</ele>
        <time>2013-09-17T14:45:18Z</time>
      </trkpt>
      <trkpt lat="40.567738032" lon="-0.248471964">
        <ele>1191.400000</ele>
        <time>2013-09-17T14:45:25Z</time>
      </trkpt>
      <trkpt lat="40.567566035" lon="-0.248318994">
        <ele>1194.600000</ele>
        <time>2013-09-17T14:45:33Z</time>
      </trkpt>
      <trkpt lat="40.567424968" lon="-0.248307008">
        <ele>1196.400000</ele>
        <time>2013-09-17T14:45:38Z</time>
      </trkpt>
      <trkpt lat="40.567277027" lon="-0.248376997">
        <ele>1197.200000</ele>
        <time>2013-09-17T14:45:44Z</time>
      </trkpt>
      <trkpt lat="40.567161022" lon="-0.248493003">
        <ele>1196.600000</ele>
        <time>2013-09-17T14:45:49Z</time>
      </trkpt>
      <trkpt lat="40.566749973" lon="-0.248831967">
        <ele>1196.800000</ele>
        <time>2013-09-17T14:46:07Z</time>
      </trkpt>
      <trkpt lat="40.566085037" lon="-0.249049980">
        <ele>1201.300000</ele>
        <time>2013-09-17T14:46:31Z</time>
      </trkpt>
      <trkpt lat="40.565662002" lon="-0.249233963">
        <ele>1202.400000</ele>
        <time>2013-09-17T14:46:48Z</time>
      </trkpt>
      <trkpt lat="40.565394033" lon="-0.249345023">
        <ele>1202.700000</ele>
        <time>2013-09-17T14:46:58Z</time>
      </trkpt>
      <trkpt lat="40.565154981" lon="-0.249375030">
        <ele>1204.200000</ele>
        <time>2013-09-17T14:47:07Z</time>
      </trkpt>
      <trkpt lat="40.564950965" lon="-0.249371007">
        <ele>1205.800000</ele>
        <time>2013-09-17T14:47:14Z</time>
      </trkpt>
      <trkpt lat="40.564744016" lon="-0.249348041">
        <ele>1207.400000</ele>
        <time>2013-09-17T14:47:22Z</time>
      </trkpt>
      <trkpt lat="40.564602027" lon="-0.249274028">
        <ele>1208.600000</ele>
        <time>2013-09-17T14:47:27Z</time>
      </trkpt>
      <trkpt lat="40.564459031" lon="-0.249123992">
        <ele>1210.300000</ele>
        <time>2013-09-17T14:47:34Z</time>
      </trkpt>
      <trkpt lat="40.564345960" lon="-0.248997007">
        <ele>1211.500000</ele>
        <time>2013-09-17T14:47:39Z</time>
      </trkpt>
      <trkpt lat="40.564216962" lon="-0.248927018">
        <ele>1212.600000</ele>
        <time>2013-09-17T14:47:44Z</time>
      </trkpt>
      <trkpt lat="40.564086037" lon="-0.248912014">
        <ele>1213.700000</ele>
        <time>2013-09-17T14:47:49Z</time>
      </trkpt>
      <trkpt lat="40.563800968" lon="-0.248924000">
        <ele>1216.000000</ele>
        <time>2013-09-17T14:48:00Z</time>
      </trkpt>
      <trkpt lat="40.563514978" lon="-0.248927018">
        <ele>1217.500000</ele>
        <time>2013-09-17T14:48:10Z</time>
      </trkpt>
      <trkpt lat="40.563363014" lon="-0.248905979">
        <ele>1218.100000</ele>
        <time>2013-09-17T14:48:15Z</time>
      </trkpt>
      <trkpt lat="40.563226976" lon="-0.248828027">
        <ele>1218.300000</ele>
        <time>2013-09-17T14:48:21Z</time>
      </trkpt>
      <trkpt lat="40.562621970" lon="-0.248442041">
        <ele>1222.300000</ele>
        <time>2013-09-17T14:48:45Z</time>
      </trkpt>
      <trkpt lat="40.562128024" lon="-0.248127971">
        <ele>1224.700000</ele>
        <time>2013-09-17T14:49:05Z</time>
      </trkpt>
      <trkpt lat="40.561863994" lon="-0.247975001">
        <ele>1226.500000</ele>
        <time>2013-09-17T14:49:16Z</time>
      </trkpt>
      <trkpt lat="40.561733991" lon="-0.247924961">
        <ele>1227.500000</ele>
        <time>2013-09-17T14:49:21Z</time>
      </trkpt>
      <trkpt lat="40.561602982" lon="-0.247913981">
        <ele>1228.500000</ele>
        <time>2013-09-17T14:49:25Z</time>
      </trkpt>
      <trkpt lat="40.561426962" lon="-0.247924961">
        <ele>1229.700000</ele>
        <time>2013-09-17T14:49:32Z</time>
      </trkpt>
      <trkpt lat="40.561096966" lon="-0.247951029">
        <ele>1229.700000</ele>
        <time>2013-09-17T14:49:44Z</time>
      </trkpt>
      <trkpt lat="40.560495984" lon="-0.247995034">
        <ele>1225.100000</ele>
        <time>2013-09-17T14:50:06Z</time>
      </trkpt>
      <trkpt lat="40.560210999" lon="-0.248039039">
        <ele>1221.800000</ele>
        <time>2013-09-17T14:50:16Z</time>
      </trkpt>
      <trkpt lat="40.560057024" lon="-0.248072986">
        <ele>1219.800000</ele>
        <time>2013-09-17T14:50:22Z</time>
      </trkpt>
      <trkpt lat="40.559970019" lon="-0.248120008">
        <ele>1218.800000</ele>
        <time>2013-09-17T14:50:25Z</time>
      </trkpt>
      <trkpt lat="40.559870023" lon="-0.248243976">
        <ele>1218.100000</ele>
        <time>2013-09-17T14:50:30Z</time>
      </trkpt>
      <trkpt lat="40.559746977" lon="-0.248440029">
        <ele>1217.500000</ele>
        <time>2013-09-17T14:50:37Z</time>
      </trkpt>
      <trkpt lat="40.559632983" lon="-0.248647984">
        <ele>1217.100000</ele>
        <time>2013-09-17T14:50:45Z</time>
      </trkpt>
      <trkpt lat="40.559459981" lon="-0.249048974">
        <ele>1220.300000</ele>
        <time>2013-09-17T14:50:57Z</time>
      </trkpt>
      <trkpt lat="40.559368031" lon="-0.249233041">
        <ele>1222.400000</ele>
        <time>2013-09-17T14:51:03Z</time>
      </trkpt>
      <trkpt lat="40.559267029" lon="-0.249348041">
        <ele>1223.900000</ele>
        <time>2013-09-17T14:51:08Z</time>
      </trkpt>
      <trkpt lat="40.559166027" lon="-0.249439990">
        <ele>1225.200000</ele>
        <time>2013-09-17T14:51:13Z</time>
      </trkpt>
      <trkpt lat="40.559059996" lon="-0.249464968">
        <ele>1225.700000</ele>
        <time>2013-09-17T14:51:17Z</time>
      </trkpt>
      <trkpt lat="40.558923036" lon="-0.249422975">
        <ele>1225.400000</ele>
        <time>2013-09-17T14:51:22Z</time>
      </trkpt>
      <trkpt lat="40.558817005" lon="-0.249319039">
        <ele>1224.100000</ele>
        <time>2013-09-17T14:51:27Z</time>
      </trkpt>
      <trkpt lat="40.558705023" lon="-0.249107983">
        <ele>1221.300000</ele>
        <time>2013-09-17T14:51:34Z</time>
      </trkpt>
      <trkpt lat="40.558607038" lon="-0.248960964">
        <ele>1219.600000</ele>
        <time>2013-09-17T14:51:39Z</time>
      </trkpt>
      <trkpt lat="40.558518022" lon="-0.248901034">
        <ele>1219.000000</ele>
        <time>2013-09-17T14:51:43Z</time>
      </trkpt>
      <trkpt lat="40.558375027" lon="-0.248874966">
        <ele>1219.200000</ele>
        <time>2013-09-17T14:51:48Z</time>
      </trkpt>
      <trkpt lat="40.558201019" lon="-0.248886030">
        <ele>1219.900000</ele>
        <time>2013-09-17T14:51:54Z</time>
      </trkpt>
      <trkpt lat="40.557925003" lon="-0.248917965">
        <ele>1221.400000</ele>
        <time>2013-09-17T14:52:04Z</time>
      </trkpt>
      <trkpt lat="40.557816038" lon="-0.248917965">
        <ele>1221.300000</ele>
        <time>2013-09-17T14:52:08Z</time>
      </trkpt>
      <trkpt lat="40.557727022" lon="-0.248854011">
        <ele>1220.300000</ele>
        <time>2013-09-17T14:52:12Z</time>
      </trkpt>
      <trkpt lat="40.557603976" lon="-0.248690983">
        <ele>1217.600000</ele>
        <time>2013-09-17T14:52:18Z</time>
      </trkpt>
      <trkpt lat="40.557432985" lon="-0.248411028">
        <ele>1212.800000</ele>
        <time>2013-09-17T14:52:28Z</time>
      </trkpt>
      <trkpt lat="40.557271969" lon="-0.248273984">
        <ele>1210.600000</ele>
        <time>2013-09-17T14:52:35Z</time>
      </trkpt>
      <trkpt lat="40.557088992" lon="-0.248245988">
        <ele>1210.100000</ele>
        <time>2013-09-17T14:52:42Z</time>
      </trkpt>
      <trkpt lat="40.556885982" lon="-0.248273984">
        <ele>1211.200000</ele>
        <time>2013-09-17T14:52:49Z</time>
      </trkpt>
      <trkpt lat="40.556575013" lon="-0.248346990">
        <ele>1213.200000</ele>
        <time>2013-09-17T14:53:01Z</time>
      </trkpt>
      <trkpt lat="40.556407962" lon="-0.248361994">
        <ele>1213.900000</ele>
        <time>2013-09-17T14:53:07Z</time>
      </trkpt>
      <trkpt lat="40.556208976" lon="-0.248301979">
        <ele>1214.000000</ele>
        <time>2013-09-17T14:53:14Z</time>
      </trkpt>
      <trkpt lat="40.556077966" lon="-0.248155966">
        <ele>1213.400000</ele>
        <time>2013-09-17T14:53:21Z</time>
      </trkpt>
      <trkpt lat="40.556043014" lon="-0.247981958">
        <ele>1211.700000</ele>
        <time>2013-09-17T14:53:26Z</time>
      </trkpt>
      <trkpt lat="40.556063969" lon="-0.247587003">
        <ele>1209.000000</ele>
        <time>2013-09-17T14:53:37Z</time>
      </trkpt>
      <trkpt lat="40.556053994" lon="-0.247176960">
        <ele>1206.900000</ele>
        <time>2013-09-17T14:53:48Z</time>
      </trkpt>
      <trkpt lat="40.556038991" lon="-0.247030025">
        <ele>1206.000000</ele>
        <time>2013-09-17T14:53:52Z</time>
      </trkpt>
      <trkpt lat="40.555957016" lon="-0.246903040">
        <ele>1205.200000</ele>
        <time>2013-09-17T14:53:57Z</time>
      </trkpt>
      <trkpt lat="40.555858025" lon="-0.246765995">
        <ele>1204.200000</ele>
        <time>2013-09-17T14:54:02Z</time>
      </trkpt>
      <trkpt lat="40.555603970" lon="-0.246655019">
        <ele>1204.300000</ele>
        <time>2013-09-17T14:54:12Z</time>
      </trkpt>
      <trkpt lat="40.555279003" lon="-0.246586036">
        <ele>1203.800000</ele>
        <time>2013-09-17T14:54:24Z</time>
      </trkpt>
      <trkpt lat="40.555049004" lon="-0.246580001">
        <ele>1202.800000</ele>
        <time>2013-09-17T14:54:32Z</time>
      </trkpt>
      <trkpt lat="40.554796960" lon="-0.246629035">
        <ele>1202.400000</ele>
        <time>2013-09-17T14:54:41Z</time>
      </trkpt>
      <trkpt lat="40.554499989" lon="-0.246716039">
        <ele>1202.200000</ele>
        <time>2013-09-17T14:54:52Z</time>
      </trkpt>
      <trkpt lat="40.554282982" lon="-0.246774964">
        <ele>1201.500000</ele>
        <time>2013-09-17T14:55:00Z</time>
      </trkpt>
      <trkpt lat="40.553996991" lon="-0.246788040">
        <ele>1199.800000</ele>
        <time>2013-09-17T14:55:11Z</time>
      </trkpt>
      <trkpt lat="40.553593989" lon="-0.246796003">
        <ele>1197.300000</ele>
        <time>2013-09-17T14:55:25Z</time>
      </trkpt>
      <trkpt lat="40.553387962" lon="-0.246816035">
        <ele>1196.500000</ele>
        <time>2013-09-17T14:55:33Z</time>
      </trkpt>
      <trkpt lat="40.553218983" lon="-0.246893987">
        <ele>1196.700000</ele>
        <time>2013-09-17T14:55:39Z</time>
      </trkpt>
      <trkpt lat="40.552855041" lon="-0.247162962">
        <ele>1198.800000</ele>
        <time>2013-09-17T14:55:55Z</time>
      </trkpt>
      <trkpt lat="40.552678015" lon="-0.247240998">
        <ele>1199.400000</ele>
        <time>2013-09-17T14:56:01Z</time>
      </trkpt>
      <trkpt lat="40.552471988" lon="-0.247261031">
        <ele>1199.200000</ele>
        <time>2013-09-17T14:56:09Z</time>
      </trkpt>
      <trkpt lat="40.552144004" lon="-0.247290032">
        <ele>1198.900000</ele>
        <time>2013-09-17T14:56:21Z</time>
      </trkpt>
      <trkpt lat="40.551282009" lon="-0.247345017">
        <ele>1189.800000</ele>
        <time>2013-09-17T14:56:52Z</time>
      </trkpt>
      <trkpt lat="40.551135996" lon="-0.247366978">
        <ele>1188.000000</ele>
        <time>2013-09-17T14:56:58Z</time>
      </trkpt>
      <trkpt lat="40.551057039" lon="-0.247433027">
        <ele>1186.700000</ele>
        <time>2013-09-17T14:57:01Z</time>
      </trkpt>
      <trkpt lat="40.550990989" lon="-0.247556996">
        <ele>1185.200000</ele>
        <time>2013-09-17T14:57:05Z</time>
      </trkpt>
      <trkpt lat="40.550968023" lon="-0.247714994">
        <ele>1183.900000</ele>
        <time>2013-09-17T14:57:10Z</time>
      </trkpt>
      <trkpt lat="40.550959976" lon="-0.247879028">
        <ele>1182.800000</ele>
        <time>2013-09-17T14:57:14Z</time>
      </trkpt>
      <trkpt lat="40.550966011" lon="-0.248027975">
        <ele>1182.000000</ele>
        <time>2013-09-17T14:57:18Z</time>
      </trkpt>
      <trkpt lat="40.550988978" lon="-0.248214975">
        <ele>1181.300000</ele>
        <time>2013-09-17T14:57:24Z</time>
      </trkpt>
      <trkpt lat="40.551025020" lon="-0.248355037">
        <ele>1181.100000</ele>
        <time>2013-09-17T14:57:28Z</time>
      </trkpt>
      <trkpt lat="40.551078999" lon="-0.248497026">
        <ele>1181.000000</ele>
        <time>2013-09-17T14:57:32Z</time>
      </trkpt>
      <trkpt lat="40.551193999" lon="-0.248687966">
        <ele>1181.600000</ele>
        <time>2013-09-17T14:57:39Z</time>
      </trkpt>
      <trkpt lat="40.551348981" lon="-0.248904973">
        <ele>1184.700000</ele>
        <time>2013-09-17T14:57:47Z</time>
      </trkpt>
      <trkpt lat="40.551412012" lon="-0.249031959">
        <ele>1186.600000</ele>
        <time>2013-09-17T14:57:51Z</time>
      </trkpt>
      <trkpt lat="40.551437996" lon="-0.249140002">
        <ele>1187.800000</ele>
        <time>2013-09-17T14:57:54Z</time>
      </trkpt>
      <trkpt lat="40.551441014" lon="-0.249247039">
        <ele>1188.500000</ele>
        <time>2013-09-17T14:57:57Z</time>
      </trkpt>
      <trkpt lat="40.551398015" lon="-0.249358015">
        <ele>1188.600000</ele>
        <time>2013-09-17T14:58:01Z</time>
      </trkpt>
      <trkpt lat="40.551232975" lon="-0.249438984">
        <ele>1186.800000</ele>
        <time>2013-09-17T14:58:07Z</time>
      </trkpt>
      <trkpt lat="40.550997024" lon="-0.249558007">
        <ele>1185.100000</ele>
        <time>2013-09-17T14:58:16Z</time>
      </trkpt>
      <trkpt lat="40.550556974" lon="-0.249776021">
        <ele>1181.600000</ele>
        <time>2013-09-17T14:58:34Z</time>
      </trkpt>
      <trkpt lat="40.550261009" lon="-0.249881968">
        <ele>1179.500000</ele>
        <time>2013-09-17T14:58:45Z</time>
      </trkpt>
      <trkpt lat="40.549912993" lon="-0.249963021">
        <ele>1177.000000</ele>
        <time>2013-09-17T14:58:58Z</time>
      </trkpt>
      <trkpt lat="40.549171027" lon="-0.250071986">
        <ele>1171.200000</ele>
        <time>2013-09-17T14:59:25Z</time>
      </trkpt>
      <trkpt lat="40.548708010" lon="-0.250156978">
        <ele>1167.400000</ele>
        <time>2013-09-17T14:59:42Z</time>
      </trkpt>
      <trkpt lat="40.548440041" lon="-0.250215987">
        <ele>1165.500000</ele>
        <time>2013-09-17T14:59:52Z</time>
      </trkpt>
      <trkpt lat="40.547692962" lon="-0.250336016">
        <ele>1159.900000</ele>
        <time>2013-09-17T15:00:19Z</time>
      </trkpt>
      <trkpt lat="40.547027020" lon="-0.250367029">
        <ele>1152.100000</ele>
        <time>2013-09-17T15:00:43Z</time>
      </trkpt>
      <trkpt lat="40.546761984" lon="-0.250378009">
        <ele>1146.000000</ele>
        <time>2013-09-17T15:00:53Z</time>
      </trkpt>
      <trkpt lat="40.546575990" lon="-0.250389995">
        <ele>1141.700000</ele>
        <time>2013-09-17T15:01:00Z</time>
      </trkpt>
      <trkpt lat="40.546434000" lon="-0.250407010">
        <ele>1138.400000</ele>
        <time>2013-09-17T15:01:05Z</time>
      </trkpt>
      <trkpt lat="40.546351019" lon="-0.250457972">
        <ele>1136.000000</ele>
        <time>2013-09-17T15:01:08Z</time>
      </trkpt>
      <trkpt lat="40.546282036" lon="-0.250554029">
        <ele>1133.500000</ele>
        <time>2013-09-17T15:01:12Z</time>
      </trkpt>
      <trkpt lat="40.546282036" lon="-0.250691995">
        <ele>1132.300000</ele>
        <time>2013-09-17T15:01:16Z</time>
      </trkpt>
      <trkpt lat="40.546288993" lon="-0.250874972">
        <ele>1130.800000</ele>
        <time>2013-09-17T15:01:21Z</time>
      </trkpt>
      <trkpt lat="40.546325035" lon="-0.250990978">
        <ele>1130.400000</ele>
        <time>2013-09-17T15:01:24Z</time>
      </trkpt>
      <trkpt lat="40.546408016" lon="-0.251086028">
        <ele>1130.800000</ele>
        <time>2013-09-17T15:01:28Z</time>
      </trkpt>
      <trkpt lat="40.546612032" lon="-0.251246039">
        <ele>1131.800000</ele>
        <time>2013-09-17T15:01:37Z</time>
      </trkpt>
      <trkpt lat="40.546911014" lon="-0.251402026">
        <ele>1132.700000</ele>
        <time>2013-09-17T15:01:49Z</time>
      </trkpt>
      <trkpt lat="40.547241010" lon="-0.251552984">
        <ele>1133.100000</ele>
        <time>2013-09-17T15:02:01Z</time>
      </trkpt>
      <trkpt lat="40.547423987" lon="-0.251585003">
        <ele>1134.000000</ele>
        <time>2013-09-17T15:02:08Z</time>
      </trkpt>
      <trkpt lat="40.547658009" lon="-0.251649963">
        <ele>1134.900000</ele>
        <time>2013-09-17T15:02:17Z</time>
      </trkpt>
      <trkpt lat="40.547916004" lon="-0.251783989">
        <ele>1135.300000</ele>
        <time>2013-09-17T15:02:27Z</time>
      </trkpt>
      <trkpt lat="40.548149021" lon="-0.251951041">
        <ele>1136.200000</ele>
        <time>2013-09-17T15:02:36Z</time>
      </trkpt>
      <trkpt lat="40.548149021" lon="-0.251951041">
        <ele>1136.200000</ele>
        <time>2013-09-17T15:02:36Z</time>
      </trkpt>
      <trkpt lat="40.548266033" lon="-0.252070986">
        <ele>1136.200000</ele>
        <time>2013-09-17T15:02:42Z</time>
      </trkpt>
      <trkpt lat="40.548392013" lon="-0.252210964">
        <ele>1139.100000</ele>
        <time>2013-09-17T15:02:48Z</time>
      </trkpt>
      <trkpt lat="40.548626035" lon="-0.252397042">
        <ele>1144.000000</ele>
        <time>2013-09-17T15:02:58Z</time>
      </trkpt>
      <trkpt lat="40.548703987" lon="-0.252539031">
        <ele>1146.300000</ele>
        <time>2013-09-17T15:03:03Z</time>
      </trkpt>
      <trkpt lat="40.548711028" lon="-0.252675992">
        <ele>1147.500000</ele>
        <time>2013-09-17T15:03:06Z</time>
      </trkpt>
      <trkpt lat="40.548678003" lon="-0.252795015">
        <ele>1148.200000</ele>
        <time>2013-09-17T15:03:10Z</time>
      </trkpt>
      <trkpt lat="40.548574990" lon="-0.252885036">
        <ele>1147.800000</ele>
        <time>2013-09-17T15:03:14Z</time>
      </trkpt>
      <trkpt lat="40.548391007" lon="-0.252913032">
        <ele>1146.100000</ele>
        <time>2013-09-17T15:03:21Z</time>
      </trkpt>
      <trkpt lat="40.547984987" lon="-0.252959970">
        <ele>1141.600000</ele>
        <time>2013-09-17T15:03:36Z</time>
      </trkpt>
      <trkpt lat="40.547158029" lon="-0.253087962">
        <ele>1126.700000</ele>
        <time>2013-09-17T15:04:06Z</time>
      </trkpt>
      <trkpt lat="40.546943033" lon="-0.253128028">
        <ele>1123.100000</ele>
        <time>2013-09-17T15:04:14Z</time>
      </trkpt>
      <trkpt lat="40.546867009" lon="-0.253170021">
        <ele>1121.900000</ele>
        <time>2013-09-17T15:04:17Z</time>
      </trkpt>
      <trkpt lat="40.546809006" lon="-0.253246967">
        <ele>1121.100000</ele>
        <time>2013-09-17T15:04:20Z</time>
      </trkpt>
      <trkpt lat="40.546752010" lon="-0.253347969">
        <ele>1120.600000</ele>
        <time>2013-09-17T15:04:24Z</time>
      </trkpt>
      <trkpt lat="40.546723008" lon="-0.253462968">
        <ele>1120.500000</ele>
        <time>2013-09-17T15:04:27Z</time>
      </trkpt>
      <trkpt lat="40.546727031" lon="-0.253557013">
        <ele>1120.800000</ele>
        <time>2013-09-17T15:04:30Z</time>
      </trkpt>
      <trkpt lat="40.546756033" lon="-0.253648963">
        <ele>1121.200000</ele>
        <time>2013-09-17T15:04:32Z</time>
      </trkpt>
      <trkpt lat="40.546877990" lon="-0.253869994">
        <ele>1121.900000</ele>
        <time>2013-09-17T15:04:40Z</time>
      </trkpt>
      <trkpt lat="40.547184013" lon="-0.254393024">
        <ele>1121.900000</ele>
        <time>2013-09-17T15:04:58Z</time>
      </trkpt>
      <trkpt lat="40.547260037" lon="-0.254461002">
        <ele>1122.500000</ele>
        <time>2013-09-17T15:05:02Z</time>
      </trkpt>
      <trkpt lat="40.547477966" lon="-0.254602991">
        <ele>1124.400000</ele>
        <time>2013-09-17T15:05:10Z</time>
      </trkpt>
      <trkpt lat="40.547616016" lon="-0.254694019">
        <ele>1126.200000</ele>
        <time>2013-09-17T15:05:16Z</time>
      </trkpt>
      <trkpt lat="40.547675025" lon="-0.254775994">
        <ele>1127.000000</ele>
        <time>2013-09-17T15:05:19Z</time>
      </trkpt>
      <trkpt lat="40.547716012" lon="-0.254886970">
        <ele>1127.500000</ele>
        <time>2013-09-17T15:05:23Z</time>
      </trkpt>
      <trkpt lat="40.547793964" lon="-0.255138008">
        <ele>1128.200000</ele>
        <time>2013-09-17T15:05:30Z</time>
      </trkpt>
      <trkpt lat="40.547890021" lon="-0.255465992">
        <ele>1128.300000</ele>
        <time>2013-09-17T15:05:40Z</time>
      </trkpt>
      <trkpt lat="40.548036033" lon="-0.255803028">
        <ele>1130.700000</ele>
        <time>2013-09-17T15:05:50Z</time>
      </trkpt>
      <trkpt lat="40.548082972" lon="-0.255966978">
        <ele>1131.500000</ele>
        <time>2013-09-17T15:05:55Z</time>
      </trkpt>
      <trkpt lat="40.548086995" lon="-0.256105028">
        <ele>1132.000000</ele>
        <time>2013-09-17T15:05:59Z</time>
      </trkpt>
      <trkpt lat="40.548013989" lon="-0.256298985">
        <ele>1131.700000</ele>
        <time>2013-09-17T15:06:05Z</time>
      </trkpt>
      <trkpt lat="40.547917010" lon="-0.256409962">
        <ele>1130.100000</ele>
        <time>2013-09-17T15:06:10Z</time>
      </trkpt>
      <trkpt lat="40.547829000" lon="-0.256438041">
        <ele>1129.900000</ele>
        <time>2013-09-17T15:06:13Z</time>
      </trkpt>
      <trkpt lat="40.547729004" lon="-0.256423960">
        <ele>1130.200000</ele>
        <time>2013-09-17T15:06:17Z</time>
      </trkpt>
      <trkpt lat="40.547601013" lon="-0.256343996">
        <ele>1131.300000</ele>
        <time>2013-09-17T15:06:22Z</time>
      </trkpt>
      <trkpt lat="40.547275040" lon="-0.256117014">
        <ele>1132.400000</ele>
        <time>2013-09-17T15:06:35Z</time>
      </trkpt>
      <trkpt lat="40.546959965" lon="-0.255922973">
        <ele>1132.900000</ele>
        <time>2013-09-17T15:06:48Z</time>
      </trkpt>
      <trkpt lat="40.546786962" lon="-0.255845021">
        <ele>1133.600000</ele>
        <time>2013-09-17T15:06:55Z</time>
      </trkpt>
      <trkpt lat="40.546382032" lon="-0.255699009">
        <ele>1135.100000</ele>
        <time>2013-09-17T15:07:10Z</time>
      </trkpt>
      <trkpt lat="40.546148010" lon="-0.255623991">
        <ele>1133.900000</ele>
        <time>2013-09-17T15:07:19Z</time>
      </trkpt>
      <trkpt lat="40.546076009" lon="-0.255652992">
        <ele>1133.100000</ele>
        <time>2013-09-17T15:07:21Z</time>
      </trkpt>
      <trkpt lat="40.545966038" lon="-0.255734967">
        <ele>1132.200000</ele>
        <time>2013-09-17T15:07:26Z</time>
      </trkpt>
      <trkpt lat="40.545722963" lon="-0.255955998">
        <ele>1130.900000</ele>
        <time>2013-09-17T15:07:37Z</time>
      </trkpt>
      <trkpt lat="40.545545015" lon="-0.256053982">
        <ele>1129.600000</ele>
        <time>2013-09-17T15:07:44Z</time>
      </trkpt>
      <trkpt lat="40.545321973" lon="-0.256175017">
        <ele>1128.700000</ele>
        <time>2013-09-17T15:07:53Z</time>
      </trkpt>
      <trkpt lat="40.545124998" lon="-0.256351037">
        <ele>1128.100000</ele>
        <time>2013-09-17T15:08:01Z</time>
      </trkpt>
      <trkpt lat="40.544986026" lon="-0.256498978">
        <ele>1127.100000</ele>
        <time>2013-09-17T15:08:08Z</time>
      </trkpt>
      <trkpt lat="40.544893993" lon="-0.256637027">
        <ele>1126.500000</ele>
        <time>2013-09-17T15:08:13Z</time>
      </trkpt>
      <trkpt lat="40.544811012" lon="-0.256829979">
        <ele>1126.000000</ele>
        <time>2013-09-17T15:08:19Z</time>
      </trkpt>
      <trkpt lat="40.544384038" lon="-0.258004032">
        <ele>1122.100000</ele>
        <time>2013-09-17T15:08:55Z</time>
      </trkpt>
      <trkpt lat="40.544069968" lon="-0.258865021">
        <ele>1118.800000</ele>
        <time>2013-09-17T15:09:21Z</time>
      </trkpt>
      <trkpt lat="40.543891015" lon="-0.259303981">
        <ele>1119.100000</ele>
        <time>2013-09-17T15:09:35Z</time>
      </trkpt>
      <trkpt lat="40.543768974" lon="-0.259548984">
        <ele>1119.800000</ele>
        <time>2013-09-17T15:09:43Z</time>
      </trkpt>
      <trkpt lat="40.543670990" lon="-0.259711007">
        <ele>1119.800000</ele>
        <time>2013-09-17T15:09:49Z</time>
      </trkpt>
      <trkpt lat="40.543548027" lon="-0.259843022">
        <ele>1119.200000</ele>
        <time>2013-09-17T15:09:55Z</time>
      </trkpt>
      <trkpt lat="40.543407965" lon="-0.259946035">
        <ele>1118.300000</ele>
        <time>2013-09-17T15:10:01Z</time>
      </trkpt>
      <trkpt lat="40.543254996" lon="-0.259982999">
        <ele>1116.900000</ele>
        <time>2013-09-17T15:10:06Z</time>
      </trkpt>
      <trkpt lat="40.543081993" lon="-0.260002026">
        <ele>1115.000000</ele>
        <time>2013-09-17T15:10:13Z</time>
      </trkpt>
      <trkpt lat="40.542955007" lon="-0.260047959">
        <ele>1114.100000</ele>
        <time>2013-09-17T15:10:17Z</time>
      </trkpt>
      <trkpt lat="40.542872027" lon="-0.260132030">
        <ele>1114.500000</ele>
        <time>2013-09-17T15:10:21Z</time>
      </trkpt>
      <trkpt lat="40.542578995" lon="-0.260479962">
        <ele>1116.300000</ele>
        <time>2013-09-17T15:10:35Z</time>
      </trkpt>
      <trkpt lat="40.542428959" lon="-0.260641985">
        <ele>1115.700000</ele>
        <time>2013-09-17T15:10:43Z</time>
      </trkpt>
      <trkpt lat="40.542321000" lon="-0.260705017">
        <ele>1114.600000</ele>
        <time>2013-09-17T15:10:47Z</time>
      </trkpt>
      <trkpt lat="40.542174987" lon="-0.260725971">
        <ele>1112.700000</ele>
        <time>2013-09-17T15:10:52Z</time>
      </trkpt>
      <trkpt lat="40.542007014" lon="-0.260674004">
        <ele>1109.800000</ele>
        <time>2013-09-17T15:10:58Z</time>
      </trkpt>
      <trkpt lat="40.541781038" lon="-0.260498989">
        <ele>1105.200000</ele>
        <time>2013-09-17T15:11:08Z</time>
      </trkpt>
      <trkpt lat="40.541640976" lon="-0.260421038">
        <ele>1102.500000</ele>
        <time>2013-09-17T15:11:14Z</time>
      </trkpt>
      <trkpt lat="40.541516002" lon="-0.260408968">
        <ele>1100.000000</ele>
        <time>2013-09-17T15:11:18Z</time>
      </trkpt>
      <trkpt lat="40.541393962" lon="-0.260441992">
        <ele>1097.800000</ele>
        <time>2013-09-17T15:11:23Z</time>
      </trkpt>
      <trkpt lat="40.541277034" lon="-0.260536959">
        <ele>1095.500000</ele>
        <time>2013-09-17T15:11:28Z</time>
      </trkpt>
      <trkpt lat="40.541174021" lon="-0.260655982">
        <ele>1094.400000</ele>
        <time>2013-09-17T15:11:33Z</time>
      </trkpt>
      <trkpt lat="40.541091962" lon="-0.260787997">
        <ele>1093.900000</ele>
        <time>2013-09-17T15:11:37Z</time>
      </trkpt>
      <trkpt lat="40.541030020" lon="-0.260982038">
        <ele>1093.900000</ele>
        <time>2013-09-17T15:11:43Z</time>
      </trkpt>
      <trkpt lat="40.541031025" lon="-0.261116987">
        <ele>1094.200000</ele>
        <time>2013-09-17T15:11:47Z</time>
      </trkpt>
      <trkpt lat="40.541059021" lon="-0.261280015">
        <ele>1094.700000</ele>
        <time>2013-09-17T15:11:51Z</time>
      </trkpt>
      <trkpt lat="40.541123981" lon="-0.261460980">
        <ele>1096.000000</ele>
        <time>2013-09-17T15:11:57Z</time>
      </trkpt>
      <trkpt lat="40.541159017" lon="-0.261585033">
        <ele>1096.700000</ele>
        <time>2013-09-17T15:12:01Z</time>
      </trkpt>
      <trkpt lat="40.541193970" lon="-0.261729034">
        <ele>1097.400000</ele>
        <time>2013-09-17T15:12:05Z</time>
      </trkpt>
      <trkpt lat="40.541187013" lon="-0.261886027">
        <ele>1098.300000</ele>
        <time>2013-09-17T15:12:09Z</time>
      </trkpt>
      <trkpt lat="40.541078970" lon="-0.262133963">
        <ele>1100.600000</ele>
        <time>2013-09-17T15:12:17Z</time>
      </trkpt>
      <trkpt lat="40.540984003" lon="-0.262349965">
        <ele>1103.800000</ele>
        <time>2013-09-17T15:12:24Z</time>
      </trkpt>
      <trkpt lat="40.540904962" lon="-0.262531014">
        <ele>1106.700000</ele>
        <time>2013-09-17T15:12:30Z</time>
      </trkpt>
      <trkpt lat="40.540842013" lon="-0.262665041">
        <ele>1109.100000</ele>
        <time>2013-09-17T15:12:34Z</time>
      </trkpt>
      <trkpt lat="40.540754003" lon="-0.262737963">
        <ele>1111.100000</ele>
        <time>2013-09-17T15:12:38Z</time>
      </trkpt>
      <trkpt lat="40.540666999" lon="-0.262769982">
        <ele>1112.600000</ele>
        <time>2013-09-17T15:12:41Z</time>
      </trkpt>
      <trkpt lat="40.540571027" lon="-0.262749027">
        <ele>1113.400000</ele>
        <time>2013-09-17T15:12:45Z</time>
      </trkpt>
      <trkpt lat="40.540444041" lon="-0.262656994">
        <ele>1113.300000</ele>
        <time>2013-09-17T15:12:50Z</time>
      </trkpt>
      <trkpt lat="40.540255029" lon="-0.262415009">
        <ele>1112.800000</ele>
        <time>2013-09-17T15:13:00Z</time>
      </trkpt>
      <trkpt lat="40.540098036" lon="-0.262135975">
        <ele>1110.700000</ele>
        <time>2013-09-17T15:13:09Z</time>
      </trkpt>
      <trkpt lat="40.539854039" lon="-0.261707995">
        <ele>1108.600000</ele>
        <time>2013-09-17T15:13:24Z</time>
      </trkpt>
      <trkpt lat="40.539686987" lon="-0.261367019">
        <ele>1106.200000</ele>
        <time>2013-09-17T15:13:35Z</time>
      </trkpt>
      <trkpt lat="40.539561007" lon="-0.261063008">
        <ele>1103.600000</ele>
        <time>2013-09-17T15:13:45Z</time>
      </trkpt>
      <trkpt lat="40.539452964" lon="-0.260812975">
        <ele>1100.500000</ele>
        <time>2013-09-17T15:13:53Z</time>
      </trkpt>
      <trkpt lat="40.539340982" lon="-0.260667969">
        <ele>1098.900000</ele>
        <time>2013-09-17T15:13:58Z</time>
      </trkpt>
      <trkpt lat="40.539254984" lon="-0.260629999">
        <ele>1098.600000</ele>
        <time>2013-09-17T15:14:02Z</time>
      </trkpt>
      <trkpt lat="40.539170997" lon="-0.260633016">
        <ele>1098.900000</ele>
        <time>2013-09-17T15:14:05Z</time>
      </trkpt>
      <trkpt lat="40.539049963" lon="-0.260668974">
        <ele>1099.600000</ele>
        <time>2013-09-17T15:14:09Z</time>
      </trkpt>
      <trkpt lat="40.538832033" lon="-0.260807024">
        <ele>1102.000000</ele>
        <time>2013-09-17T15:14:18Z</time>
      </trkpt>
      <trkpt lat="40.538704041" lon="-0.260861004">
        <ele>1102.500000</ele>
        <time>2013-09-17T15:14:23Z</time>
      </trkpt>
      <trkpt lat="40.538552999" lon="-0.260864021">
        <ele>1101.500000</ele>
        <time>2013-09-17T15:14:29Z</time>
      </trkpt>
      <trkpt lat="40.538443029" lon="-0.260708034">
        <ele>1099.200000</ele>
        <time>2013-09-17T15:14:34Z</time>
      </trkpt>
      <trkpt lat="40.538271032" lon="-0.260389019">
        <ele>1095.600000</ele>
        <time>2013-09-17T15:14:45Z</time>
      </trkpt>
      <trkpt lat="40.538142035" lon="-0.260208976">
        <ele>1094.000000</ele>
        <time>2013-09-17T15:14:52Z</time>
      </trkpt>
      <trkpt lat="40.538001973" lon="-0.260106968">
        <ele>1093.400000</ele>
        <time>2013-09-17T15:14:58Z</time>
      </trkpt>
      <trkpt lat="40.537710031" lon="-0.259872023">
        <ele>1089.300000</ele>
        <time>2013-09-17T15:15:10Z</time>
      </trkpt>
      <trkpt lat="40.537537029" lon="-0.259749983">
        <ele>1086.200000</ele>
        <time>2013-09-17T15:15:18Z</time>
      </trkpt>
      <trkpt lat="40.537409037" lon="-0.259703966">
        <ele>1084.200000</ele>
        <time>2013-09-17T15:15:22Z</time>
      </trkpt>
      <trkpt lat="40.537312981" lon="-0.259717964">
        <ele>1082.800000</ele>
        <time>2013-09-17T15:15:26Z</time>
      </trkpt>
      <trkpt lat="40.537251960" lon="-0.259814020">
        <ele>1082.300000</ele>
        <time>2013-09-17T15:15:29Z</time>
      </trkpt>
      <trkpt lat="40.537183983" lon="-0.259984005">
        <ele>1082.000000</ele>
        <time>2013-09-17T15:15:35Z</time>
      </trkpt>
      <trkpt lat="40.537140984" lon="-0.260173017">
        <ele>1082.000000</ele>
        <time>2013-09-17T15:15:40Z</time>
      </trkpt>
      <trkpt lat="40.537151964" lon="-0.260403017">
        <ele>1083.000000</ele>
        <time>2013-09-17T15:15:46Z</time>
      </trkpt>
      <trkpt lat="40.537165962" lon="-0.260659000">
        <ele>1084.500000</ele>
        <time>2013-09-17T15:15:54Z</time>
      </trkpt>
      <trkpt lat="40.537148025" lon="-0.260815993">
        <ele>1084.900000</ele>
        <time>2013-09-17T15:15:58Z</time>
      </trkpt>
      <trkpt lat="40.537105026" lon="-0.260982038">
        <ele>1085.100000</ele>
        <time>2013-09-17T15:16:03Z</time>
      </trkpt>
      <trkpt lat="40.537017016" lon="-0.261113970">
        <ele>1086.000000</ele>
        <time>2013-09-17T15:16:08Z</time>
      </trkpt>
      <trkpt lat="40.536930012" lon="-0.261242967">
        <ele>1087.600000</ele>
        <time>2013-09-17T15:16:12Z</time>
      </trkpt>
      <trkpt lat="40.536910985" lon="-0.261319997">
        <ele>1088.500000</ele>
        <time>2013-09-17T15:16:15Z</time>
      </trkpt>
      <trkpt lat="40.536892964" lon="-0.261459975">
        <ele>1089.900000</ele>
        <time>2013-09-17T15:16:19Z</time>
      </trkpt>
      <trkpt lat="40.536873015" lon="-0.261641024">
        <ele>1091.800000</ele>
        <time>2013-09-17T15:16:24Z</time>
      </trkpt>
      <trkpt lat="40.536877960" lon="-0.261829030">
        <ele>1093.400000</ele>
        <time>2013-09-17T15:16:29Z</time>
      </trkpt>
      <trkpt lat="40.536881983" lon="-0.261989040">
        <ele>1094.800000</ele>
        <time>2013-09-17T15:16:33Z</time>
      </trkpt>
      <trkpt lat="40.536840996" lon="-0.262149973">
        <ele>1097.000000</ele>
        <time>2013-09-17T15:16:38Z</time>
      </trkpt>
      <trkpt lat="40.536731025" lon="-0.262242006">
        <ele>1099.500000</ele>
        <time>2013-09-17T15:16:43Z</time>
      </trkpt>
      <trkpt lat="40.536577972" lon="-0.262262039">
        <ele>1101.700000</ele>
        <time>2013-09-17T15:16:48Z</time>
      </trkpt>
      <trkpt lat="40.536441011" lon="-0.262198001">
        <ele>1102.700000</ele>
        <time>2013-09-17T15:16:54Z</time>
      </trkpt>
      <trkpt lat="40.536290975" lon="-0.262016030">
        <ele>1102.800000</ele>
        <time>2013-09-17T15:17:01Z</time>
      </trkpt>
      <trkpt lat="40.536133982" lon="-0.261750994">
        <ele>1100.000000</ele>
        <time>2013-09-17T15:17:10Z</time>
      </trkpt>
      <trkpt lat="40.535926027" lon="-0.261376994">
        <ele>1096.400000</ele>
        <time>2013-09-17T15:17:23Z</time>
      </trkpt>
      <trkpt lat="40.535784960" lon="-0.260940967">
        <ele>1093.800000</ele>
        <time>2013-09-17T15:17:36Z</time>
      </trkpt>
      <trkpt lat="40.535684964" lon="-0.260496978">
        <ele>1092.100000</ele>
        <time>2013-09-17T15:17:49Z</time>
      </trkpt>
      <trkpt lat="40.535592008" lon="-0.260174023">
        <ele>1091.900000</ele>
        <time>2013-09-17T15:17:59Z</time>
      </trkpt>
      <trkpt lat="40.535396039" lon="-0.259841010">
        <ele>1092.300000</ele>
        <time>2013-09-17T15:18:10Z</time>
      </trkpt>
      <trkpt lat="40.535218008" lon="-0.259507997">
        <ele>1089.400000</ele>
        <time>2013-09-17T15:18:21Z</time>
      </trkpt>
      <trkpt lat="40.535028996" lon="-0.259251008">
        <ele>1086.500000</ele>
        <time>2013-09-17T15:18:31Z</time>
      </trkpt>
      <trkpt lat="40.534826992" lon="-0.259026960">
        <ele>1085.000000</ele>
        <time>2013-09-17T15:18:41Z</time>
      </trkpt>
      <trkpt lat="40.534619959" lon="-0.258888993">
        <ele>1084.700000</ele>
        <time>2013-09-17T15:18:49Z</time>
      </trkpt>
      <trkpt lat="40.534429019" lon="-0.258765025">
        <ele>1082.700000</ele>
        <time>2013-09-17T15:18:57Z</time>
      </trkpt>
      <trkpt lat="40.534278983" lon="-0.258708028">
        <ele>1080.500000</ele>
        <time>2013-09-17T15:19:03Z</time>
      </trkpt>
      <trkpt lat="40.534086032" lon="-0.258754967">
        <ele>1077.800000</ele>
        <time>2013-09-17T15:19:10Z</time>
      </trkpt>
      <trkpt lat="40.533941025" lon="-0.258997036">
        <ele>1075.400000</ele>
        <time>2013-09-17T15:19:19Z</time>
      </trkpt>
      <trkpt lat="40.535218008" lon="-0.259507997">
        <ele>1089.400000</ele>
        <time>2013-09-17T15:18:21Z</time>
      </trkpt>
      <trkpt lat="40.535028996" lon="-0.259251008">
        <ele>1086.500000</ele>
        <time>2013-09-17T15:18:31Z</time>
      </trkpt>
      <trkpt lat="40.534826992" lon="-0.259026960">
        <ele>1085.000000</ele>
        <time>2013-09-17T15:18:41Z</time>
      </trkpt>
      <trkpt lat="40.534619959" lon="-0.258888993">
        <ele>1084.700000</ele>
        <time>2013-09-17T15:18:49Z</time>
      </trkpt>
      <trkpt lat="40.534429019" lon="-0.258765025">
        <ele>1082.700000</ele>
        <time>2013-09-17T15:18:57Z</time>
      </trkpt>
      <trkpt lat="40.534278983" lon="-0.258708028">
        <ele>1080.500000</ele>
        <time>2013-09-17T15:19:03Z</time>
      </trkpt>
      <trkpt lat="40.534086032" lon="-0.258754967">
        <ele>1077.800000</ele>
        <time>2013-09-17T15:19:10Z</time>
      </trkpt>
      <trkpt lat="40.533941025" lon="-0.258997036">
        <ele>1075.400000</ele>
        <time>2013-09-17T15:19:19Z</time>
      </trkpt>
      <trkpt lat="40.533688981" lon="-0.259444965">
        <ele>1071.200000</ele>
        <time>2013-09-17T15:19:34Z</time>
      </trkpt>
      <trkpt lat="40.533633996" lon="-0.259614028">
        <ele>1070.000000</ele>
        <time>2013-09-17T15:19:39Z</time>
      </trkpt>
      <trkpt lat="40.533657968" lon="-0.259812009">
        <ele>1068.700000</ele>
        <time>2013-09-17T15:19:45Z</time>
      </trkpt>
      <trkpt lat="40.533798030" lon="-0.260024993">
        <ele>1069.000000</ele>
        <time>2013-09-17T15:19:52Z</time>
      </trkpt>
      <trkpt lat="40.533928033" lon="-0.260349959">
        <ele>1068.500000</ele>
        <time>2013-09-17T15:20:02Z</time>
      </trkpt>
      <trkpt lat="40.533982012" lon="-0.260611977">
        <ele>1070.100000</ele>
        <time>2013-09-17T15:20:10Z</time>
      </trkpt>
      <trkpt lat="40.533988969" lon="-0.260924036">
        <ele>1072.100000</ele>
        <time>2013-09-17T15:20:19Z</time>
      </trkpt>
      <trkpt lat="40.533943959" lon="-0.261264006">
        <ele>1073.800000</ele>
        <time>2013-09-17T15:20:28Z</time>
      </trkpt>
      <trkpt lat="40.533868019" lon="-0.261502974">
        <ele>1076.400000</ele>
        <time>2013-09-17T15:20:35Z</time>
      </trkpt>
      <trkpt lat="40.533736004" lon="-0.261650998">
        <ele>1077.700000</ele>
        <time>2013-09-17T15:20:42Z</time>
      </trkpt>
      <trkpt lat="40.533522014" lon="-0.261693997">
        <ele>1076.600000</ele>
        <time>2013-09-17T15:20:50Z</time>
      </trkpt>
      <trkpt lat="40.533182966" lon="-0.261701038">
        <ele>1074.100000</ele>
        <time>2013-09-17T15:21:02Z</time>
      </trkpt>
      <trkpt lat="40.533019016" lon="-0.261759963">
        <ele>1073.700000</ele>
        <time>2013-09-17T15:21:08Z</time>
      </trkpt>
      <trkpt lat="40.532916002" lon="-0.261872029">
        <ele>1074.700000</ele>
        <time>2013-09-17T15:21:13Z</time>
      </trkpt>
      <trkpt lat="40.532794967" lon="-0.262131030">
        <ele>1076.300000</ele>
        <time>2013-09-17T15:21:21Z</time>
      </trkpt>
      <trkpt lat="40.532735959" lon="-0.262306966">
        <ele>1074.700000</ele>
        <time>2013-09-17T15:21:27Z</time>
      </trkpt>
      <trkpt lat="40.532663036" lon="-0.262386007">
        <ele>1073.400000</ele>
        <time>2013-09-17T15:21:30Z</time>
      </trkpt>
      <trkpt lat="40.532611990" lon="-0.262486003">
        <ele>1072.200000</ele>
        <time>2013-09-17T15:21:33Z</time>
      </trkpt>
      <trkpt lat="40.532602016" lon="-0.262716003">
        <ele>1070.900000</ele>
        <time>2013-09-17T15:21:40Z</time>
      </trkpt>
      <trkpt lat="40.532604028" lon="-0.262802001">
        <ele>1070.500000</ele>
        <time>2013-09-17T15:21:42Z</time>
      </trkpt>
      <trkpt lat="40.532667981" lon="-0.262823962">
        <ele>1071.200000</ele>
        <time>2013-09-17T15:21:45Z</time>
      </trkpt>
      <trkpt lat="40.532844001" lon="-0.262751039">
        <ele>1073.900000</ele>
        <time>2013-09-17T15:21:51Z</time>
      </trkpt>
      <trkpt lat="40.532894963" lon="-0.262791021">
        <ele>1074.300000</ele>
        <time>2013-09-17T15:21:53Z</time>
      </trkpt>
      <trkpt lat="40.532953972" lon="-0.262924042">
        <ele>1074.600000</ele>
        <time>2013-09-17T15:21:58Z</time>
      </trkpt>
      <trkpt lat="40.533064026" lon="-0.263051027">
        <ele>1076.100000</ele>
        <time>2013-09-17T15:22:03Z</time>
      </trkpt>
      <trkpt lat="40.533221019" lon="-0.263214977">
        <ele>1078.300000</ele>
        <time>2013-09-17T15:22:10Z</time>
      </trkpt>
      <trkpt lat="40.533294026" lon="-0.263379011">
        <ele>1079.100000</ele>
        <time>2013-09-17T15:22:16Z</time>
      </trkpt>
      <trkpt lat="40.533302994" lon="-0.263514966">
        <ele>1078.700000</ele>
        <time>2013-09-17T15:22:19Z</time>
      </trkpt>
      <trkpt lat="40.533341970" lon="-0.263729040">
        <ele>1078.800000</ele>
        <time>2013-09-17T15:22:25Z</time>
      </trkpt>
      <trkpt lat="40.533379018" lon="-0.263905982">
        <ele>1078.400000</ele>
        <time>2013-09-17T15:22:31Z</time>
      </trkpt>
      <trkpt lat="40.533467028" lon="-0.264085019">
        <ele>1078.900000</ele>
        <time>2013-09-17T15:22:36Z</time>
      </trkpt>
      <trkpt lat="40.533544980" lon="-0.264223991">
        <ele>1079.500000</ele>
        <time>2013-09-17T15:22:41Z</time>
      </trkpt>
      <trkpt lat="40.533687975" lon="-0.264477041">
        <ele>1080.600000</ele>
        <time>2013-09-17T15:22:50Z</time>
      </trkpt>
      <trkpt lat="40.534042027" lon="-0.264892029">
        <ele>1084.700000</ele>
        <time>2013-09-17T15:23:07Z</time>
      </trkpt>
      <trkpt lat="40.534386020" lon="-0.265323026">
        <ele>1086.100000</ele>
        <time>2013-09-17T15:23:24Z</time>
      </trkpt>
      <trkpt lat="40.534578972" lon="-0.265564006">
        <ele>1086.700000</ele>
        <time>2013-09-17T15:23:34Z</time>
      </trkpt>
      <trkpt lat="40.534831015" lon="-0.265905987">
        <ele>1090.500000</ele>
        <time>2013-09-17T15:23:47Z</time>
      </trkpt>
      <trkpt lat="40.535133015" lon="-0.266418038">
        <ele>1093.900000</ele>
        <time>2013-09-17T15:24:05Z</time>
      </trkpt>
      <trkpt lat="40.535281962" lon="-0.266656000">
        <ele>1095.100000</ele>
        <time>2013-09-17T15:24:14Z</time>
      </trkpt>
      <trkpt lat="40.535601983" lon="-0.267302999">
        <ele>1100.200000</ele>
        <time>2013-09-17T15:24:35Z</time>
      </trkpt>
      <trkpt lat="40.535864001" lon="-0.267847991">
        <ele>1108.500000</ele>
        <time>2013-09-17T15:24:53Z</time>
      </trkpt>
      <trkpt lat="40.535940025" lon="-0.268378984">
        <ele>1114.400000</ele>
        <time>2013-09-17T15:25:08Z</time>
      </trkpt>
      <trkpt lat="40.536044966" lon="-0.268649971">
        <ele>1116.600000</ele>
        <time>2013-09-17T15:25:16Z</time>
      </trkpt>
      <trkpt lat="40.536173964" lon="-0.268874019">
        <ele>1119.700000</ele>
        <time>2013-09-17T15:25:24Z</time>
      </trkpt>
      <trkpt lat="40.536253005" lon="-0.269078035">
        <ele>1124.300000</ele>
        <time>2013-09-17T15:25:30Z</time>
      </trkpt>
      <trkpt lat="40.536259962" lon="-0.269196974">
        <ele>1127.400000</ele>
        <time>2013-09-17T15:25:34Z</time>
      </trkpt>
      <trkpt lat="40.536204977" lon="-0.269376012">
        <ele>1132.300000</ele>
        <time>2013-09-17T15:25:39Z</time>
      </trkpt>
      <trkpt lat="40.536094001" lon="-0.269536022">
        <ele>1137.800000</ele>
        <time>2013-09-17T15:25:45Z</time>
      </trkpt>
      <trkpt lat="40.535959974" lon="-0.269568041">
        <ele>1140.400000</ele>
        <time>2013-09-17T15:25:50Z</time>
      </trkpt>
      <trkpt lat="40.535741039" lon="-0.269509032">
        <ele>1141.500000</ele>
        <time>2013-09-17T15:25:58Z</time>
      </trkpt>
      <trkpt lat="40.535024973" lon="-0.269200997">
        <ele>1141.100000</ele>
        <time>2013-09-17T15:26:26Z</time>
      </trkpt>
      <trkpt lat="40.534019982" lon="-0.268790033">
        <ele>1141.700000</ele>
        <time>2013-09-17T15:27:04Z</time>
      </trkpt>
      <trkpt lat="40.533124041" lon="-0.268416032">
        <ele>1138.400000</ele>
        <time>2013-09-17T15:27:38Z</time>
      </trkpt>
      <trkpt lat="40.532168001" lon="-0.268033985">
        <ele>1118.300000</ele>
        <time>2013-09-17T15:28:14Z</time>
      </trkpt>
      <trkpt lat="40.531998016" lon="-0.268041026">
        <ele>1114.400000</ele>
        <time>2013-09-17T15:28:21Z</time>
      </trkpt>
      <trkpt lat="40.531861978" lon="-0.268149991">
        <ele>1111.800000</ele>
        <time>2013-09-17T15:28:26Z</time>
      </trkpt>
      <trkpt lat="40.531724012" lon="-0.268337997">
        <ele>1110.300000</ele>
        <time>2013-09-17T15:28:34Z</time>
      </trkpt>
      <trkpt lat="40.531584034" lon="-0.268607978">
        <ele>1109.800000</ele>
        <time>2013-09-17T15:28:43Z</time>
      </trkpt>
      <trkpt lat="40.531502981" lon="-0.268880976">
        <ele>1110.900000</ele>
        <time>2013-09-17T15:28:51Z</time>
      </trkpt>
      <trkpt lat="40.531423017" lon="-0.269363020">
        <ele>1114.600000</ele>
        <time>2013-09-17T15:29:04Z</time>
      </trkpt>
      <trkpt lat="40.531347999" lon="-0.269869035">
        <ele>1116.100000</ele>
        <time>2013-09-17T15:29:19Z</time>
      </trkpt>
      <trkpt lat="40.531269042" lon="-0.270364992">
        <ele>1115.500000</ele>
        <time>2013-09-17T15:29:33Z</time>
      </trkpt>
      <trkpt lat="40.531274993" lon="-0.270634973">
        <ele>1116.500000</ele>
        <time>2013-09-17T15:29:40Z</time>
      </trkpt>
      <trkpt lat="40.531296032" lon="-0.271039987">
        <ele>1118.200000</ele>
        <time>2013-09-17T15:29:51Z</time>
      </trkpt>
      <trkpt lat="40.531302989" lon="-0.271330001">
        <ele>1118.500000</ele>
        <time>2013-09-17T15:29:59Z</time>
      </trkpt>
      <trkpt lat="40.531256972" lon="-0.271710958">
        <ele>1115.000000</ele>
        <time>2013-09-17T15:30:10Z</time>
      </trkpt>
      <trkpt lat="40.531246997" lon="-0.271975994">
        <ele>1113.500000</ele>
        <time>2013-09-17T15:30:17Z</time>
      </trkpt>
      <trkpt lat="40.531281028" lon="-0.272415960">
        <ele>1112.400000</ele>
        <time>2013-09-17T15:30:30Z</time>
      </trkpt>
      <trkpt lat="40.531355962" lon="-0.272744028">
        <ele>1113.000000</ele>
        <time>2013-09-17T15:30:39Z</time>
      </trkpt>
      <trkpt lat="40.531454030" lon="-0.272990037">
        <ele>1115.300000</ele>
        <time>2013-09-17T15:30:47Z</time>
      </trkpt>
      <trkpt lat="40.531610018" lon="-0.273331013">
        <ele>1119.600000</ele>
        <time>2013-09-17T15:30:58Z</time>
      </trkpt>
      <trkpt lat="40.531874970" lon="-0.273878016">
        <ele>1124.800000</ele>
        <time>2013-09-17T15:31:16Z</time>
      </trkpt>
      <trkpt lat="40.532019977" lon="-0.274138022">
        <ele>1127.100000</ele>
        <time>2013-09-17T15:31:25Z</time>
      </trkpt>
      <trkpt lat="40.532162972" lon="-0.274328962">
        <ele>1128.700000</ele>
        <time>2013-09-17T15:31:32Z</time>
      </trkpt>
      <trkpt lat="40.532587012" lon="-0.274790972">
        <ele>1135.900000</ele>
        <time>2013-09-17T15:31:52Z</time>
      </trkpt>
      <trkpt lat="40.532859005" lon="-0.275150975">
        <ele>1138.500000</ele>
        <time>2013-09-17T15:32:06Z</time>
      </trkpt>
      <trkpt lat="40.533076013" lon="-0.275519025">
        <ele>1142.700000</ele>
        <time>2013-09-17T15:32:19Z</time>
      </trkpt>
      <trkpt lat="40.533135021" lon="-0.275696972">
        <ele>1146.700000</ele>
        <time>2013-09-17T15:32:24Z</time>
      </trkpt>
      <trkpt lat="40.533152036" lon="-0.275912974">
        <ele>1150.600000</ele>
        <time>2013-09-17T15:32:30Z</time>
      </trkpt>
      <trkpt lat="40.533089004" lon="-0.276229978">
        <ele>1155.300000</ele>
        <time>2013-09-17T15:32:39Z</time>
      </trkpt>
      <trkpt lat="40.532982973" lon="-0.276403986">
        <ele>1158.700000</ele>
        <time>2013-09-17T15:32:46Z</time>
      </trkpt>
      <trkpt lat="40.532717016" lon="-0.276657036">
        <ele>1168.300000</ele>
        <time>2013-09-17T15:32:58Z</time>
      </trkpt>
      <trkpt lat="40.532585001" lon="-0.276729958">
        <ele>1172.800000</ele>
        <time>2013-09-17T15:33:03Z</time>
      </trkpt>
      <trkpt lat="40.532441000" lon="-0.276787039">
        <ele>1177.100000</ele>
        <time>2013-09-17T15:33:08Z</time>
      </trkpt>
      <trkpt lat="40.532287024" lon="-0.276753008">
        <ele>1178.900000</ele>
        <time>2013-09-17T15:33:14Z</time>
      </trkpt>
      <trkpt lat="40.531951999" lon="-0.276590986">
        <ele>1179.600000</ele>
        <time>2013-09-17T15:33:27Z</time>
      </trkpt>
      <trkpt lat="40.531511027" lon="-0.276416978">
        <ele>1181.300000</ele>
        <time>2013-09-17T15:33:44Z</time>
      </trkpt>
      <trkpt lat="40.531077012" lon="-0.276337015">
        <ele>1182.100000</ele>
        <time>2013-09-17T15:34:00Z</time>
      </trkpt>
      <trkpt lat="40.530851036" lon="-0.276284963">
        <ele>1179.400000</ele>
        <time>2013-09-17T15:34:08Z</time>
      </trkpt>
      <trkpt lat="40.530521963" lon="-0.276164012">
        <ele>1174.300000</ele>
        <time>2013-09-17T15:34:20Z</time>
      </trkpt>
      <trkpt lat="40.530357007" lon="-0.276169963">
        <ele>1173.600000</ele>
        <time>2013-09-17T15:34:26Z</time>
      </trkpt>
      <trkpt lat="40.530186016" lon="-0.276255039">
        <ele>1175.000000</ele>
        <time>2013-09-17T15:34:33Z</time>
      </trkpt>
      <trkpt lat="40.530034974" lon="-0.276384959">
        <ele>1176.300000</ele>
        <time>2013-09-17T15:34:40Z</time>
      </trkpt>
      <trkpt lat="40.529843029" lon="-0.276598027">
        <ele>1179.000000</ele>
        <time>2013-09-17T15:34:49Z</time>
      </trkpt>
      <trkpt lat="40.529744960" lon="-0.276757032">
        <ele>1181.200000</ele>
        <time>2013-09-17T15:34:54Z</time>
      </trkpt>
      <trkpt lat="40.529709002" lon="-0.276892986">
        <ele>1183.300000</ele>
        <time>2013-09-17T15:34:58Z</time>
      </trkpt>
      <trkpt lat="40.529677989" lon="-0.277085016">
        <ele>1186.400000</ele>
        <time>2013-09-17T15:35:04Z</time>
      </trkpt>
      <trkpt lat="40.529682012" lon="-0.277249971">
        <ele>1188.100000</ele>
        <time>2013-09-17T15:35:08Z</time>
      </trkpt>
      <trkpt lat="40.529615963" lon="-0.277449042">
        <ele>1190.000000</ele>
        <time>2013-09-17T15:35:14Z</time>
      </trkpt>
      <trkpt lat="40.529517978" lon="-0.277477959">
        <ele>1191.600000</ele>
        <time>2013-09-17T15:35:18Z</time>
      </trkpt>
      <trkpt lat="40.529412031" lon="-0.277472008">
        <ele>1193.600000</ele>
        <time>2013-09-17T15:35:22Z</time>
      </trkpt>
      <trkpt lat="40.529355034" lon="-0.277396990">
        <ele>1194.100000</ele>
        <time>2013-09-17T15:35:25Z</time>
      </trkpt>
      <trkpt lat="40.529276999" lon="-0.277101025">
        <ele>1193.100000</ele>
        <time>2013-09-17T15:35:34Z</time>
      </trkpt>
      <trkpt lat="40.529189995" lon="-0.276929028">
        <ele>1192.900000</ele>
        <time>2013-09-17T15:35:39Z</time>
      </trkpt>
      <trkpt lat="40.529025961" lon="-0.276787039">
        <ele>1195.200000</ele>
        <time>2013-09-17T15:35:46Z</time>
      </trkpt>
      <trkpt lat="40.528702000" lon="-0.276427958">
        <ele>1199.300000</ele>
        <time>2013-09-17T15:36:02Z</time>
      </trkpt>
      <trkpt lat="40.528454985" lon="-0.276039960">
        <ele>1198.400000</ele>
        <time>2013-09-17T15:36:16Z</time>
      </trkpt>
      <trkpt lat="40.528294975" lon="-0.275697978">
        <ele>1197.700000</ele>
        <time>2013-09-17T15:36:27Z</time>
      </trkpt>
      <trkpt lat="40.528144017" lon="-0.275107976">
        <ele>1195.900000</ele>
        <time>2013-09-17T15:36:44Z</time>
      </trkpt>
      <trkpt lat="40.528038992" lon="-0.274755014">
        <ele>1196.200000</ele>
        <time>2013-09-17T15:36:55Z</time>
      </trkpt>
      <trkpt lat="40.527927009" lon="-0.274544042">
        <ele>1197.900000</ele>
        <time>2013-09-17T15:37:02Z</time>
      </trkpt>
      <trkpt lat="40.527602965" lon="-0.274318988">
        <ele>1195.000000</ele>
        <time>2013-09-17T15:37:15Z</time>
      </trkpt>
      <trkpt lat="40.527197029" lon="-0.274171969">
        <ele>1194.500000</ele>
        <time>2013-09-17T15:37:30Z</time>
      </trkpt>
      <trkpt lat="40.526867034" lon="-0.274184961">
        <ele>1194.100000</ele>
        <time>2013-09-17T15:37:42Z</time>
      </trkpt>
      <trkpt lat="40.526665030" lon="-0.274268026">
        <ele>1193.900000</ele>
        <time>2013-09-17T15:37:50Z</time>
      </trkpt>
      <trkpt lat="40.526393037" lon="-0.274516968">
        <ele>1194.600000</ele>
        <time>2013-09-17T15:38:02Z</time>
      </trkpt>
      <trkpt lat="40.526217017" lon="-0.274776975">
        <ele>1195.500000</ele>
        <time>2013-09-17T15:38:12Z</time>
      </trkpt>
      <trkpt lat="40.526082991" lon="-0.275132032">
        <ele>1198.500000</ele>
        <time>2013-09-17T15:38:23Z</time>
      </trkpt>
      <trkpt lat="40.525947958" lon="-0.275427997">
        <ele>1200.900000</ele>
        <time>2013-09-17T15:38:32Z</time>
      </trkpt>
      <trkpt lat="40.525890961" lon="-0.275646010">
        <ele>1202.500000</ele>
        <time>2013-09-17T15:38:39Z</time>
      </trkpt>
      <trkpt lat="40.525932033" lon="-0.275935018">
        <ele>1203.900000</ele>
        <time>2013-09-17T15:38:47Z</time>
      </trkpt>
      <trkpt lat="40.525943013" lon="-0.276165018">
        <ele>1205.200000</ele>
        <time>2013-09-17T15:38:53Z</time>
      </trkpt>
      <trkpt lat="40.525919963" lon="-0.276403986">
        <ele>1207.100000</ele>
        <time>2013-09-17T15:39:00Z</time>
      </trkpt>
      <trkpt lat="40.525816027" lon="-0.276534995">
        <ele>1208.600000</ele>
        <time>2013-09-17T15:39:05Z</time>
      </trkpt>
      <trkpt lat="40.525657022" lon="-0.276577994">
        <ele>1209.600000</ele>
        <time>2013-09-17T15:39:11Z</time>
      </trkpt>
      <trkpt lat="40.525507992" lon="-0.276525021">
        <ele>1209.700000</ele>
        <time>2013-09-17T15:39:17Z</time>
      </trkpt>
      <trkpt lat="40.525268018" lon="-0.276460983">
        <ele>1209.200000</ele>
        <time>2013-09-17T15:39:26Z</time>
      </trkpt>
      <trkpt lat="40.525046987" lon="-0.276469029">
        <ele>1209.300000</ele>
        <time>2013-09-17T15:39:34Z</time>
      </trkpt>
      <trkpt lat="40.524759991" lon="-0.276571037">
        <ele>1210.200000</ele>
        <time>2013-09-17T15:39:44Z</time>
      </trkpt>
      <trkpt lat="40.524365036" lon="-0.276690982">
        <ele>1210.700000</ele>
        <time>2013-09-17T15:39:59Z</time>
      </trkpt>
      <trkpt lat="40.523806969" lon="-0.276891980">
        <ele>1211.300000</ele>
        <time>2013-09-17T15:40:20Z</time>
      </trkpt>
      <trkpt lat="40.522663007" lon="-0.277250977">
        <ele>1211.500000</ele>
        <time>2013-09-17T15:41:03Z</time>
      </trkpt>
      <trkpt lat="40.522444993" lon="-0.277340999">
        <ele>1211.400000</ele>
        <time>2013-09-17T15:41:11Z</time>
      </trkpt>
      <trkpt lat="40.522341980" lon="-0.277430015">
        <ele>1212.000000</ele>
        <time>2013-09-17T15:41:16Z</time>
      </trkpt>
      <trkpt lat="40.522140982" lon="-0.277699996">
        <ele>1214.400000</ele>
        <time>2013-09-17T15:41:26Z</time>
      </trkpt>
      <trkpt lat="40.522009972" lon="-0.277828993">
        <ele>1216.300000</ele>
        <time>2013-09-17T15:41:32Z</time>
      </trkpt>
      <trkpt lat="40.521852979" lon="-0.277944999">
        <ele>1218.700000</ele>
        <time>2013-09-17T15:41:39Z</time>
      </trkpt>
      <trkpt lat="40.521766981" lon="-0.277985986">
        <ele>1219.700000</ele>
        <time>2013-09-17T15:41:42Z</time>
      </trkpt>
      <trkpt lat="40.521635972" lon="-0.277997972">
        <ele>1220.600000</ele>
        <time>2013-09-17T15:41:47Z</time>
      </trkpt>
      <trkpt lat="40.521460036" lon="-0.277969977">
        <ele>1221.400000</ele>
        <time>2013-09-17T15:41:53Z</time>
      </trkpt>
      <trkpt lat="40.521241017" lon="-0.277808039">
        <ele>1220.400000</ele>
        <time>2013-09-17T15:42:02Z</time>
      </trkpt>
      <trkpt lat="40.521055022" lon="-0.277581979">
        <ele>1219.800000</ele>
        <time>2013-09-17T15:42:12Z</time>
      </trkpt>
      <trkpt lat="40.520914961" lon="-0.277394978">
        <ele>1220.000000</ele>
        <time>2013-09-17T15:42:19Z</time>
      </trkpt>
      <trkpt lat="40.520665012" lon="-0.276934979">
        <ele>1220.400000</ele>
        <time>2013-09-17T15:42:35Z</time>
      </trkpt>
      <trkpt lat="40.520530986" lon="-0.276681008">
        <ele>1219.500000</ele>
        <time>2013-09-17T15:42:43Z</time>
      </trkpt>
      <trkpt lat="40.520422021" lon="-0.276543964">
        <ele>1219.500000</ele>
        <time>2013-09-17T15:42:49Z</time>
      </trkpt>
      <trkpt lat="40.520277014" lon="-0.276411027">
        <ele>1216.300000</ele>
        <time>2013-09-17T15:42:55Z</time>
      </trkpt>
      <trkpt lat="40.520147011" lon="-0.276336009">
        <ele>1214.000000</ele>
        <time>2013-09-17T15:43:00Z</time>
      </trkpt>
      <trkpt lat="40.520029999" lon="-0.276308013">
        <ele>1212.600000</ele>
        <time>2013-09-17T15:43:05Z</time>
      </trkpt>
      <trkpt lat="40.519909970" lon="-0.276319999">
        <ele>1211.800000</ele>
        <time>2013-09-17T15:43:09Z</time>
      </trkpt>
      <trkpt lat="40.519735962" lon="-0.276367022">
        <ele>1211.000000</ele>
        <time>2013-09-17T15:43:15Z</time>
      </trkpt>
      <trkpt lat="40.519556003" lon="-0.276414966">
        <ele>1209.800000</ele>
        <time>2013-09-17T15:43:22Z</time>
      </trkpt>
      <trkpt lat="40.519311000" lon="-0.276504988">
        <ele>1205.700000</ele>
        <time>2013-09-17T15:43:31Z</time>
      </trkpt>
      <trkpt lat="40.519165993" lon="-0.276604984">
        <ele>1203.600000</ele>
        <time>2013-09-17T15:43:37Z</time>
      </trkpt>
      <trkpt lat="40.519069014" lon="-0.276726019">
        <ele>1202.500000</ele>
        <time>2013-09-17T15:43:42Z</time>
      </trkpt>
      <trkpt lat="40.518958960" lon="-0.276902039">
        <ele>1201.300000</ele>
        <time>2013-09-17T15:43:48Z</time>
      </trkpt>
      <trkpt lat="40.518887965" lon="-0.277060959">
        <ele>1200.600000</ele>
        <time>2013-09-17T15:43:54Z</time>
      </trkpt>
      <trkpt lat="40.518806996" lon="-0.277308980">
        <ele>1200.400000</ele>
        <time>2013-09-17T15:44:01Z</time>
      </trkpt>
      <trkpt lat="40.518652014" lon="-0.277708964">
        <ele>1200.000000</ele>
        <time>2013-09-17T15:44:13Z</time>
      </trkpt>
      <trkpt lat="40.518533997" lon="-0.278009037">
        <ele>1199.000000</ele>
        <time>2013-09-17T15:44:23Z</time>
      </trkpt>
      <trkpt lat="40.518268961" lon="-0.278654024">
        <ele>1194.200000</ele>
        <time>2013-09-17T15:44:43Z</time>
      </trkpt>
      <trkpt lat="40.518234009" lon="-0.278829960">
        <ele>1193.200000</ele>
        <time>2013-09-17T15:44:48Z</time>
      </trkpt>
      <trkpt lat="40.518226968" lon="-0.279016038">
        <ele>1192.200000</ele>
        <time>2013-09-17T15:44:53Z</time>
      </trkpt>
      <trkpt lat="40.518282959" lon="-0.279273028">
        <ele>1192.400000</ele>
        <time>2013-09-17T15:45:01Z</time>
      </trkpt>
      <trkpt lat="40.518377004" lon="-0.279479977">
        <ele>1193.400000</ele>
        <time>2013-09-17T15:45:07Z</time>
      </trkpt>
      <trkpt lat="40.518541038" lon="-0.279703019">
        <ele>1196.500000</ele>
        <time>2013-09-17T15:45:16Z</time>
      </trkpt>
      <trkpt lat="40.518650003" lon="-0.279863030">
        <ele>1198.900000</ele>
        <time>2013-09-17T15:45:22Z</time>
      </trkpt>
      <trkpt lat="40.518698031" lon="-0.279998984">
        <ele>1199.900000</ele>
        <time>2013-09-17T15:45:26Z</time>
      </trkpt>
      <trkpt lat="40.518701971" lon="-0.280158995">
        <ele>1200.000000</ele>
        <time>2013-09-17T15:45:30Z</time>
      </trkpt>
      <trkpt lat="40.518647991" lon="-0.280351024">
        <ele>1199.000000</ele>
        <time>2013-09-17T15:45:36Z</time>
      </trkpt>
      <trkpt lat="40.518539026" lon="-0.280582029">
        <ele>1197.400000</ele>
        <time>2013-09-17T15:45:44Z</time>
      </trkpt>
      <trkpt lat="40.518455962" lon="-0.280814040">
        <ele>1196.900000</ele>
        <time>2013-09-17T15:45:51Z</time>
      </trkpt>
      <trkpt lat="40.518412963" lon="-0.280995006">
        <ele>1197.100000</ele>
        <time>2013-09-17T15:45:56Z</time>
      </trkpt>
      <trkpt lat="40.518383039" lon="-0.281273033">
        <ele>1198.100000</ele>
        <time>2013-09-17T15:46:04Z</time>
      </trkpt>
      <trkpt lat="40.518375998" lon="-0.281430027">
        <ele>1198.900000</ele>
        <time>2013-09-17T15:46:08Z</time>
      </trkpt>
      <trkpt lat="40.518363006" lon="-0.281835040">
        <ele>1201.300000</ele>
        <time>2013-09-17T15:46:19Z</time>
      </trkpt>
      <trkpt lat="40.518301986" lon="-0.281982981">
        <ele>1201.600000</ele>
        <time>2013-09-17T15:46:24Z</time>
      </trkpt>
      <trkpt lat="40.518205008" lon="-0.282093035">
        <ele>1201.400000</ele>
        <time>2013-09-17T15:46:29Z</time>
      </trkpt>
      <trkpt lat="40.518114986" lon="-0.282159001">
        <ele>1200.600000</ele>
        <time>2013-09-17T15:46:32Z</time>
      </trkpt>
      <trkpt lat="40.517880041" lon="-0.282219015">
        <ele>1198.800000</ele>
        <time>2013-09-17T15:46:41Z</time>
      </trkpt>
      <trkpt lat="40.517305965" lon="-0.282333009">
        <ele>1198.000000</ele>
        <time>2013-09-17T15:47:02Z</time>
      </trkpt>
      <trkpt lat="40.515765036" lon="-0.282671973">
        <ele>1209.900000</ele>
        <time>2013-09-17T15:47:59Z</time>
      </trkpt>
      <trkpt lat="40.515274024" lon="-0.282859979">
        <ele>1213.400000</ele>
        <time>2013-09-17T15:48:18Z</time>
      </trkpt>
      <trkpt lat="40.513810040" lon="-0.283505972">
        <ele>1215.300000</ele>
        <time>2013-09-17T15:49:14Z</time>
      </trkpt>
      <trkpt lat="40.513095986" lon="-0.283775032">
        <ele>1215.700000</ele>
        <time>2013-09-17T15:49:41Z</time>
      </trkpt>
      <trkpt lat="40.512649985" lon="-0.283964965">
        <ele>1218.000000</ele>
        <time>2013-09-17T15:49:58Z</time>
      </trkpt>
      <trkpt lat="40.512343962" lon="-0.284236036">
        <ele>1220.300000</ele>
        <time>2013-09-17T15:50:11Z</time>
      </trkpt>
      <trkpt lat="40.512199961" lon="-0.284493025">
        <ele>1221.100000</ele>
        <time>2013-09-17T15:50:20Z</time>
      </trkpt>
      <trkpt lat="40.512089990" lon="-0.284636021">
        <ele>1222.100000</ele>
        <time>2013-09-17T15:50:26Z</time>
      </trkpt>
      <trkpt lat="40.511954036" lon="-0.284762001">
        <ele>1223.500000</ele>
        <time>2013-09-17T15:50:32Z</time>
      </trkpt>
      <trkpt lat="40.511822021" lon="-0.284837019">
        <ele>1224.800000</ele>
        <time>2013-09-17T15:50:37Z</time>
      </trkpt>
      <trkpt lat="40.511679025" lon="-0.284914970">
        <ele>1226.300000</ele>
        <time>2013-09-17T15:50:43Z</time>
      </trkpt>
      <trkpt lat="40.511526978" lon="-0.284942966">
        <ele>1227.700000</ele>
        <time>2013-09-17T15:50:48Z</time>
      </trkpt>
      <trkpt lat="40.511376020" lon="-0.285028964">
        <ele>1229.500000</ele>
        <time>2013-09-17T15:50:54Z</time>
      </trkpt>
      <trkpt lat="40.511236042" lon="-0.285118986">
        <ele>1231.400000</ele>
        <time>2013-09-17T15:51:00Z</time>
      </trkpt>
      <trkpt lat="40.511114001" lon="-0.285251001">
        <ele>1234.200000</ele>
        <time>2013-09-17T15:51:06Z</time>
      </trkpt>
      <trkpt lat="40.511043007" lon="-0.285411011">
        <ele>1236.700000</ele>
        <time>2013-09-17T15:51:11Z</time>
      </trkpt>
      <trkpt lat="40.511000007" lon="-0.285594994">
        <ele>1239.400000</ele>
        <time>2013-09-17T15:51:16Z</time>
      </trkpt>
      <trkpt lat="40.510989027" lon="-0.285861036">
        <ele>1242.300000</ele>
        <time>2013-09-17T15:51:24Z</time>
      </trkpt>
      <trkpt lat="40.511046024" lon="-0.286121964">
        <ele>1243.900000</ele>
        <time>2013-09-17T15:51:31Z</time>
      </trkpt>
      <trkpt lat="40.511135962" lon="-0.286435029">
        <ele>1244.500000</ele>
        <time>2013-09-17T15:51:40Z</time>
      </trkpt>
      <trkpt lat="40.511194970" lon="-0.286712972">
        <ele>1244.600000</ele>
        <time>2013-09-17T15:51:48Z</time>
      </trkpt>
      <trkpt lat="40.511197988" lon="-0.286924029">
        <ele>1245.700000</ele>
        <time>2013-09-17T15:51:54Z</time>
      </trkpt>
      <trkpt lat="40.511169992" lon="-0.287155034">
        <ele>1247.800000</ele>
        <time>2013-09-17T15:52:01Z</time>
      </trkpt>
      <trkpt lat="40.511100003" lon="-0.287486035">
        <ele>1251.600000</ele>
        <time>2013-09-17T15:52:10Z</time>
      </trkpt>
      <trkpt lat="40.511049042" lon="-0.287717041">
        <ele>1254.100000</ele>
        <time>2013-09-17T15:52:17Z</time>
      </trkpt>
      <trkpt lat="40.511049042" lon="-0.287804967">
        <ele>1254.500000</ele>
        <time>2013-09-17T15:52:19Z</time>
      </trkpt>
      <trkpt lat="40.511053987" lon="-0.288031027">
        <ele>1254.200000</ele>
        <time>2013-09-17T15:52:25Z</time>
      </trkpt>
      <trkpt lat="40.511055999" lon="-0.288329003">
        <ele>1252.300000</ele>
        <time>2013-09-17T15:52:34Z</time>
      </trkpt>
      <trkpt lat="40.511018028" lon="-0.288492031">
        <ele>1252.200000</ele>
        <time>2013-09-17T15:52:38Z</time>
      </trkpt>
      <trkpt lat="40.510962959" lon="-0.288646007">
        <ele>1252.600000</ele>
        <time>2013-09-17T15:52:43Z</time>
      </trkpt>
      <trkpt lat="40.510835974" lon="-0.288797971">
        <ele>1254.300000</ele>
        <time>2013-09-17T15:52:49Z</time>
      </trkpt>
      <trkpt lat="40.510616032" lon="-0.289036017">
        <ele>1256.200000</ele>
        <time>2013-09-17T15:53:00Z</time>
      </trkpt>
      <trkpt lat="40.510482006" lon="-0.289253024">
        <ele>1255.800000</ele>
        <time>2013-09-17T15:53:07Z</time>
      </trkpt>
      <trkpt lat="40.510277990" lon="-0.289567010">
        <ele>1255.300000</ele>
        <time>2013-09-17T15:53:19Z</time>
      </trkpt>
      <trkpt lat="40.510117980" lon="-0.289730038">
        <ele>1255.600000</ele>
        <time>2013-09-17T15:53:26Z</time>
      </trkpt>
      <trkpt lat="40.509870965" lon="-0.289872028">
        <ele>1257.900000</ele>
        <time>2013-09-17T15:53:36Z</time>
      </trkpt>
      <trkpt lat="40.509453965" lon="-0.290012006">
        <ele>1263.600000</ele>
        <time>2013-09-17T15:53:52Z</time>
      </trkpt>
      <trkpt lat="40.509064961" lon="-0.290159024">
        <ele>1269.200000</ele>
        <time>2013-09-17T15:54:06Z</time>
      </trkpt>
      <trkpt lat="40.508799003" lon="-0.290290033">
        <ele>1272.500000</ele>
        <time>2013-09-17T15:54:17Z</time>
      </trkpt>
      <trkpt lat="40.508626001" lon="-0.290394975">
        <ele>1275.400000</ele>
        <time>2013-09-17T15:54:24Z</time>
      </trkpt>
      <trkpt lat="40.508484012" lon="-0.290513998">
        <ele>1278.300000</ele>
        <time>2013-09-17T15:54:30Z</time>
      </trkpt>
      <trkpt lat="40.508250995" lon="-0.290770987">
        <ele>1283.200000</ele>
        <time>2013-09-17T15:54:41Z</time>
      </trkpt>
      <trkpt lat="40.508049997" lon="-0.291096037">
        <ele>1287.200000</ele>
        <time>2013-09-17T15:54:53Z</time>
      </trkpt>
      <trkpt lat="40.507905995" lon="-0.291383034">
        <ele>1289.300000</ele>
        <time>2013-09-17T15:55:02Z</time>
      </trkpt>
      <trkpt lat="40.507813040" lon="-0.291565005">
        <ele>1288.800000</ele>
        <time>2013-09-17T15:55:08Z</time>
      </trkpt>
      <trkpt lat="40.507746991" lon="-0.291830041">
        <ele>1287.000000</ele>
        <time>2013-09-17T15:55:16Z</time>
      </trkpt>
      <trkpt lat="40.507714972" lon="-0.292017041">
        <ele>1285.600000</ele>
        <time>2013-09-17T15:55:21Z</time>
      </trkpt>
      <trkpt lat="40.507644983" lon="-0.292202029">
        <ele>1285.000000</ele>
        <time>2013-09-17T15:55:27Z</time>
      </trkpt>
      <trkpt lat="40.507582035" lon="-0.292379977">
        <ele>1284.300000</ele>
        <time>2013-09-17T15:55:32Z</time>
      </trkpt>
      <trkpt lat="40.507447002" lon="-0.292566977">
        <ele>1286.100000</ele>
        <time>2013-09-17T15:55:39Z</time>
      </trkpt>
      <trkpt lat="40.507146008" lon="-0.292910971">
        <ele>1292.700000</ele>
        <time>2013-09-17T15:55:54Z</time>
      </trkpt>
      <trkpt lat="40.506835962" lon="-0.293295030">
        <ele>1294.500000</ele>
        <time>2013-09-17T15:56:09Z</time>
      </trkpt>
      <trkpt lat="40.506670000" lon="-0.293571968">
        <ele>1295.600000</ele>
        <time>2013-09-17T15:56:19Z</time>
      </trkpt>
      <trkpt lat="40.506535973" lon="-0.293810014">
        <ele>1297.900000</ele>
        <time>2013-09-17T15:56:27Z</time>
      </trkpt>
      <trkpt lat="40.506441006" lon="-0.294032972">
        <ele>1300.800000</ele>
        <time>2013-09-17T15:56:34Z</time>
      </trkpt>
      <trkpt lat="40.506378980" lon="-0.294214021">
        <ele>1303.000000</ele>
        <time>2013-09-17T15:56:40Z</time>
      </trkpt>
      <trkpt lat="40.506370012" lon="-0.294429017">
        <ele>1303.800000</ele>
        <time>2013-09-17T15:56:46Z</time>
      </trkpt>
      <trkpt lat="40.506360959" lon="-0.294851968">
        <ele>1304.700000</ele>
        <time>2013-09-17T15:56:58Z</time>
      </trkpt>
      <trkpt lat="40.506336987" lon="-0.295169977">
        <ele>1305.700000</ele>
        <time>2013-09-17T15:57:06Z</time>
      </trkpt>
      <trkpt lat="40.506288037" lon="-0.295453034">
        <ele>1307.400000</ele>
        <time>2013-09-17T15:57:14Z</time>
      </trkpt>
      <trkpt lat="40.506194998" lon="-0.295889983">
        <ele>1306.300000</ele>
        <time>2013-09-17T15:57:27Z</time>
      </trkpt>
      <trkpt lat="40.506053008" lon="-0.296336990">
        <ele>1305.400000</ele>
        <time>2013-09-17T15:57:40Z</time>
      </trkpt>
      <trkpt lat="40.505918982" lon="-0.296790032">
        <ele>1306.900000</ele>
        <time>2013-09-17T15:57:54Z</time>
      </trkpt>
      <trkpt lat="40.505840024" lon="-0.297113992">
        <ele>1308.500000</ele>
        <time>2013-09-17T15:58:03Z</time>
      </trkpt>
      <trkpt lat="40.505840024" lon="-0.297358995">
        <ele>1309.400000</ele>
        <time>2013-09-17T15:58:10Z</time>
      </trkpt>
      <trkpt lat="40.505808005" lon="-0.297735007">
        <ele>1311.200000</ele>
        <time>2013-09-17T15:58:21Z</time>
      </trkpt>
      <trkpt lat="40.505738016" lon="-0.298192995">
        <ele>1313.300000</ele>
        <time>2013-09-17T15:58:33Z</time>
      </trkpt>
      <trkpt lat="40.505587980" lon="-0.299289012">
        <ele>1318.700000</ele>
        <time>2013-09-17T15:59:04Z</time>
      </trkpt>
      <trkpt lat="40.505531989" lon="-0.299623031">
        <ele>1321.200000</ele>
        <time>2013-09-17T15:59:14Z</time>
      </trkpt>
      <trkpt lat="40.505514974" lon="-0.299751023">
        <ele>1322.200000</ele>
        <time>2013-09-17T15:59:17Z</time>
      </trkpt>
      <trkpt lat="40.505475998" lon="-0.299840039">
        <ele>1323.500000</ele>
        <time>2013-09-17T15:59:20Z</time>
      </trkpt>
      <trkpt lat="40.505364016" lon="-0.300136004">
        <ele>1326.400000</ele>
        <time>2013-09-17T15:59:29Z</time>
      </trkpt>
      <trkpt lat="40.505139967" lon="-0.300660040">
        <ele>1329.900000</ele>
        <time>2013-09-17T15:59:46Z</time>
      </trkpt>
      <trkpt lat="40.505006025" lon="-0.300858021">
        <ele>1331.400000</ele>
        <time>2013-09-17T15:59:53Z</time>
      </trkpt>
      <trkpt lat="40.504855989" lon="-0.300902026">
        <ele>1332.000000</ele>
        <time>2013-09-17T15:59:59Z</time>
      </trkpt>
      <trkpt lat="40.504620960" lon="-0.300901020">
        <ele>1332.400000</ele>
        <time>2013-09-17T16:00:07Z</time>
      </trkpt>
      <trkpt lat="40.504420968" lon="-0.300979977">
        <ele>1332.300000</ele>
        <time>2013-09-17T16:00:15Z</time>
      </trkpt>
      <trkpt lat="40.504267998" lon="-0.301086009">
        <ele>1332.400000</ele>
        <time>2013-09-17T16:00:21Z</time>
      </trkpt>
      <trkpt lat="40.504053002" lon="-0.301368982">
        <ele>1332.900000</ele>
        <time>2013-09-17T16:00:32Z</time>
      </trkpt>
      <trkpt lat="40.503667016" lon="-0.301780030">
        <ele>1332.400000</ele>
        <time>2013-09-17T16:00:50Z</time>
      </trkpt>
      <trkpt lat="40.503326040" lon="-0.302244974">
        <ele>1331.200000</ele>
        <time>2013-09-17T16:01:08Z</time>
      </trkpt>
      <trkpt lat="40.503125964" lon="-0.302488972">
        <ele>1329.900000</ele>
        <time>2013-09-17T16:01:18Z</time>
      </trkpt>
      <trkpt lat="40.503038038" lon="-0.302662980">
        <ele>1329.200000</ele>
        <time>2013-09-17T16:01:24Z</time>
      </trkpt>
      <trkpt lat="40.502987998" lon="-0.302858027">
        <ele>1328.800000</ele>
        <time>2013-09-17T16:01:30Z</time>
      </trkpt>
      <trkpt lat="40.502888002" lon="-0.303427996">
        <ele>1327.600000</ele>
        <time>2013-09-17T16:01:46Z</time>
      </trkpt>
      <trkpt lat="40.502827987" lon="-0.304123024">
        <ele>1326.800000</ele>
        <time>2013-09-17T16:02:05Z</time>
      </trkpt>
      <trkpt lat="40.502837962" lon="-0.304557038">
        <ele>1327.000000</ele>
        <time>2013-09-17T16:02:17Z</time>
      </trkpt>
      <trkpt lat="40.502894958" lon="-0.305708963">
        <ele>1330.400000</ele>
        <time>2013-09-17T16:02:49Z</time>
      </trkpt>
      <trkpt lat="40.502987998" lon="-0.305920020">
        <ele>1331.100000</ele>
        <time>2013-09-17T16:02:56Z</time>
      </trkpt>
      <trkpt lat="40.503112972" lon="-0.306251021">
        <ele>1331.900000</ele>
        <time>2013-09-17T16:03:06Z</time>
      </trkpt>
      <trkpt lat="40.503141973" lon="-0.306413965">
        <ele>1332.400000</ele>
        <time>2013-09-17T16:03:11Z</time>
      </trkpt>
      <trkpt lat="40.503100986" lon="-0.306618987">
        <ele>1332.400000</ele>
        <time>2013-09-17T16:03:17Z</time>
      </trkpt>
      <trkpt lat="40.503027979" lon="-0.306898020">
        <ele>1332.300000</ele>
        <time>2013-09-17T16:03:25Z</time>
      </trkpt>
      <trkpt lat="40.502714999" lon="-0.308083976">
        <ele>1333.000000</ele>
        <time>2013-09-17T16:04:00Z</time>
      </trkpt>
      <trkpt lat="40.502540991" lon="-0.308722006">
        <ele>1332.500000</ele>
        <time>2013-09-17T16:04:18Z</time>
      </trkpt>
      <trkpt lat="40.502393972" lon="-0.308998022">
        <ele>1332.600000</ele>
        <time>2013-09-17T16:04:28Z</time>
      </trkpt>
      <trkpt lat="40.502195992" lon="-0.309237996">
        <ele>1332.600000</ele>
        <time>2013-09-17T16:04:38Z</time>
      </trkpt>
      <trkpt lat="40.501796007" lon="-0.309738982">
        <ele>1332.300000</ele>
        <time>2013-09-17T16:04:58Z</time>
      </trkpt>
      <trkpt lat="40.501625016" lon="-0.309974011">
        <ele>1331.800000</ele>
        <time>2013-09-17T16:05:07Z</time>
      </trkpt>
      <trkpt lat="40.501543963" lon="-0.310112983">
        <ele>1331.500000</ele>
        <time>2013-09-17T16:05:11Z</time>
      </trkpt>
      <trkpt lat="40.501474980" lon="-0.310316999">
        <ele>1331.200000</ele>
        <time>2013-09-17T16:05:18Z</time>
      </trkpt>
      <trkpt lat="40.501374984" lon="-0.310727963">
        <ele>1331.300000</ele>
        <time>2013-09-17T16:05:30Z</time>
      </trkpt>
      <trkpt lat="40.501159988" lon="-0.311537990">
        <ele>1332.400000</ele>
        <time>2013-09-17T16:05:53Z</time>
      </trkpt>
      <trkpt lat="40.501039037" lon="-0.311788023">
        <ele>1333.200000</ele>
        <time>2013-09-17T16:06:02Z</time>
      </trkpt>
      <trkpt lat="40.500799986" lon="-0.312182978">
        <ele>1336.100000</ele>
        <time>2013-09-17T16:06:15Z</time>
      </trkpt>
      <trkpt lat="40.500626983" lon="-0.312321028">
        <ele>1338.000000</ele>
        <time>2013-09-17T16:06:23Z</time>
      </trkpt>
      <trkpt lat="40.500406958" lon="-0.312378025">
        <ele>1339.100000</ele>
        <time>2013-09-17T16:06:31Z</time>
      </trkpt>
      <trkpt lat="40.499630962" lon="-0.312352041">
        <ele>1335.400000</ele>
        <time>2013-09-17T16:06:59Z</time>
      </trkpt>
      <trkpt lat="40.499260984" lon="-0.312375007">
        <ele>1332.500000</ele>
        <time>2013-09-17T16:07:13Z</time>
      </trkpt>
      <trkpt lat="40.499018999" lon="-0.312460000">
        <ele>1331.200000</ele>
        <time>2013-09-17T16:07:22Z</time>
      </trkpt>
      <trkpt lat="40.498626977" lon="-0.312725035">
        <ele>1328.900000</ele>
        <time>2013-09-17T16:07:38Z</time>
      </trkpt>
      <trkpt lat="40.498385997" lon="-0.312970961">
        <ele>1325.700000</ele>
        <time>2013-09-17T16:07:49Z</time>
      </trkpt>
      <trkpt lat="40.498325983" lon="-0.313122002">
        <ele>1323.800000</ele>
        <time>2013-09-17T16:07:54Z</time>
      </trkpt>
      <trkpt lat="40.498218024" lon="-0.313358037">
        <ele>1320.600000</ele>
        <time>2013-09-17T16:08:01Z</time>
      </trkpt>
      <trkpt lat="40.498187011" lon="-0.313608991">
        <ele>1318.900000</ele>
        <time>2013-09-17T16:08:08Z</time>
      </trkpt>
      <trkpt lat="40.498188017" lon="-0.313810995">
        <ele>1318.100000</ele>
        <time>2013-09-17T16:08:14Z</time>
      </trkpt>
      <trkpt lat="40.498237973" lon="-0.314102015">
        <ele>1317.900000</ele>
        <time>2013-09-17T16:08:22Z</time>
      </trkpt>
      <trkpt lat="40.498331012" lon="-0.314335031">
        <ele>1318.400000</ele>
        <time>2013-09-17T16:08:29Z</time>
      </trkpt>
      <trkpt lat="40.498582972" lon="-0.314662009">
        <ele>1320.400000</ele>
        <time>2013-09-17T16:08:42Z</time>
      </trkpt>
      <trkpt lat="40.498791011" lon="-0.314998962">
        <ele>1323.300000</ele>
        <time>2013-09-17T16:08:54Z</time>
      </trkpt>
      <trkpt lat="40.498911040" lon="-0.315279001">
        <ele>1325.500000</ele>
        <time>2013-09-17T16:09:03Z</time>
      </trkpt>
      <trkpt lat="40.498943981" lon="-0.315571027">
        <ele>1327.200000</ele>
        <time>2013-09-17T16:09:11Z</time>
      </trkpt>
      <trkpt lat="40.498927971" lon="-0.315895993">
        <ele>1329.600000</ele>
        <time>2013-09-17T16:09:20Z</time>
      </trkpt>
      <trkpt lat="40.498831999" lon="-0.316070002">
        <ele>1329.600000</ele>
        <time>2013-09-17T16:09:26Z</time>
      </trkpt>
      <trkpt lat="40.498646004" lon="-0.316235041">
        <ele>1330.200000</ele>
        <time>2013-09-17T16:09:35Z</time>
      </trkpt>
      <trkpt lat="40.498374011" lon="-0.316468980">
        <ele>1334.700000</ele>
        <time>2013-09-17T16:09:46Z</time>
      </trkpt>
      <trkpt lat="40.498093972" lon="-0.316634020">
        <ele>1337.500000</ele>
        <time>2013-09-17T16:09:58Z</time>
      </trkpt>
      <trkpt lat="40.497934967" lon="-0.316652041">
        <ele>1337.800000</ele>
        <time>2013-09-17T16:10:03Z</time>
      </trkpt>
      <trkpt lat="40.497807981" lon="-0.316591021">
        <ele>1336.300000</ele>
        <time>2013-09-17T16:10:08Z</time>
      </trkpt>
      <trkpt lat="40.497702034" lon="-0.316487001">
        <ele>1334.400000</ele>
        <time>2013-09-17T16:10:13Z</time>
      </trkpt>
      <trkpt lat="40.497516962" lon="-0.316206962">
        <ele>1330.600000</ele>
        <time>2013-09-17T16:10:23Z</time>
      </trkpt>
      <trkpt lat="40.497316970" lon="-0.315893982">
        <ele>1327.100000</ele>
        <time>2013-09-17T16:10:35Z</time>
      </trkpt>
      <trkpt lat="40.497169029" lon="-0.315803960">
        <ele>1326.400000</ele>
        <time>2013-09-17T16:10:41Z</time>
      </trkpt>
      <trkpt lat="40.497066015" lon="-0.315807983">
        <ele>1326.200000</ele>
        <time>2013-09-17T16:10:44Z</time>
      </trkpt>
      <trkpt lat="40.496924026" lon="-0.315834973">
        <ele>1325.500000</ele>
        <time>2013-09-17T16:10:50Z</time>
      </trkpt>
      <trkpt lat="40.496741971" lon="-0.315894987">
        <ele>1324.600000</ele>
        <time>2013-09-17T16:10:56Z</time>
      </trkpt>
      <trkpt lat="40.496614985" lon="-0.315970005">
        <ele>1324.100000</ele>
        <time>2013-09-17T16:11:01Z</time>
      </trkpt>
      <trkpt lat="40.496495040" lon="-0.316105038">
        <ele>1324.000000</ele>
        <time>2013-09-17T16:11:07Z</time>
      </trkpt>
      <trkpt lat="40.496411975" lon="-0.316238981">
        <ele>1324.100000</ele>
        <time>2013-09-17T16:11:12Z</time>
      </trkpt>
      <trkpt lat="40.496306028" lon="-0.316555984">
        <ele>1323.800000</ele>
        <time>2013-09-17T16:11:22Z</time>
      </trkpt>
      <trkpt lat="40.496179964" lon="-0.316959992">
        <ele>1323.100000</ele>
        <time>2013-09-17T16:11:34Z</time>
      </trkpt>
      <trkpt lat="40.495914007" lon="-0.317802038">
        <ele>1321.600000</ele>
        <time>2013-09-17T16:11:59Z</time>
      </trkpt>
      <trkpt lat="40.495718960" lon="-0.318545010">
        <ele>1324.900000</ele>
        <time>2013-09-17T16:12:21Z</time>
      </trkpt>
      <trkpt lat="40.495585017" lon="-0.318924040">
        <ele>1327.000000</ele>
        <time>2013-09-17T16:12:32Z</time>
      </trkpt>
      <trkpt lat="40.495482003" lon="-0.319063012">
        <ele>1327.500000</ele>
        <time>2013-09-17T16:12:38Z</time>
      </trkpt>
      <trkpt lat="40.495364992" lon="-0.319170970">
        <ele>1328.000000</ele>
        <time>2013-09-17T16:12:43Z</time>
      </trkpt>
      <trkpt lat="40.495056035" lon="-0.319318995">
        <ele>1329.300000</ele>
        <time>2013-09-17T16:12:55Z</time>
      </trkpt>
      <trkpt lat="40.494769961" lon="-0.319439024">
        <ele>1330.500000</ele>
        <time>2013-09-17T16:13:06Z</time>
      </trkpt>
      <trkpt lat="40.494540967" lon="-0.319439024">
        <ele>1330.100000</ele>
        <time>2013-09-17T16:13:14Z</time>
      </trkpt>
      <trkpt lat="40.494376011" lon="-0.319331987">
        <ele>1327.700000</ele>
        <time>2013-09-17T16:13:21Z</time>
      </trkpt>
      <trkpt lat="40.494161015" lon="-0.319080027">
        <ele>1324.500000</ele>
        <time>2013-09-17T16:13:31Z</time>
      </trkpt>
      <trkpt lat="40.494039981" lon="-0.319024036">
        <ele>1323.600000</ele>
        <time>2013-09-17T16:13:36Z</time>
      </trkpt>
      <trkpt lat="40.493897991" lon="-0.319039039">
        <ele>1323.000000</ele>
        <time>2013-09-17T16:13:41Z</time>
      </trkpt>
      <trkpt lat="40.493717026" lon="-0.319128977">
        <ele>1322.200000</ele>
        <time>2013-09-17T16:13:48Z</time>
      </trkpt>
      <trkpt lat="40.493297009" lon="-0.319324024">
        <ele>1318.600000</ele>
        <time>2013-09-17T16:14:04Z</time>
      </trkpt>
      <trkpt lat="40.493189972" lon="-0.319427960">
        <ele>1317.400000</ele>
        <time>2013-09-17T16:14:09Z</time>
      </trkpt>
      <trkpt lat="40.493120989" lon="-0.319603980">
        <ele>1316.300000</ele>
        <time>2013-09-17T16:14:15Z</time>
      </trkpt>
      <trkpt lat="40.493040020" lon="-0.319825010">
        <ele>1316.400000</ele>
        <time>2013-09-17T16:14:21Z</time>
      </trkpt>
      <trkpt lat="40.492834998" lon="-0.320442002">
        <ele>1317.400000</ele>
        <time>2013-09-17T16:14:40Z</time>
      </trkpt>
      <trkpt lat="40.492751012" lon="-0.320666973">
        <ele>1318.200000</ele>
        <time>2013-09-17T16:14:47Z</time>
      </trkpt>
      <trkpt lat="40.492686974" lon="-0.320799993">
        <ele>1318.600000</ele>
        <time>2013-09-17T16:14:51Z</time>
      </trkpt>
      <trkpt lat="40.492527969" lon="-0.320953969">
        <ele>1318.100000</ele>
        <time>2013-09-17T16:14:59Z</time>
      </trkpt>
      <trkpt lat="40.492329989" lon="-0.321126971">
        <ele>1317.500000</ele>
        <time>2013-09-17T16:15:07Z</time>
      </trkpt>
      <trkpt lat="40.491973003" lon="-0.321358982">
        <ele>1314.700000</ele>
        <time>2013-09-17T16:15:22Z</time>
      </trkpt>
      <trkpt lat="40.491794972" lon="-0.321536008">
        <ele>1312.900000</ele>
        <time>2013-09-17T16:15:30Z</time>
      </trkpt>
      <trkpt lat="40.491752978" lon="-0.321724014">
        <ele>1312.900000</ele>
        <time>2013-09-17T16:15:35Z</time>
      </trkpt>
      <trkpt lat="40.491761025" lon="-0.321941022">
        <ele>1313.500000</ele>
        <time>2013-09-17T16:15:41Z</time>
      </trkpt>
      <trkpt lat="40.491815004" lon="-0.322269006">
        <ele>1315.700000</ele>
        <time>2013-09-17T16:15:51Z</time>
      </trkpt>
      <trkpt lat="40.491812993" lon="-0.322468998">
        <ele>1317.100000</ele>
        <time>2013-09-17T16:15:56Z</time>
      </trkpt>
      <trkpt lat="40.491769994" lon="-0.322609982">
        <ele>1317.500000</ele>
        <time>2013-09-17T16:16:00Z</time>
      </trkpt>
      <trkpt lat="40.491681984" lon="-0.322675025">
        <ele>1316.800000</ele>
        <time>2013-09-17T16:16:04Z</time>
      </trkpt>
      <trkpt lat="40.491504036" lon="-0.322724981">
        <ele>1314.700000</ele>
        <time>2013-09-17T16:16:11Z</time>
      </trkpt>
      <trkpt lat="40.491187032" lon="-0.322784996">
        <ele>1310.400000</ele>
        <time>2013-09-17T16:16:22Z</time>
      </trkpt>
      <trkpt lat="40.490989974" lon="-0.322902007">
        <ele>1307.300000</ele>
        <time>2013-09-17T16:16:30Z</time>
      </trkpt>
      <trkpt lat="40.490831975" lon="-0.323081966">
        <ele>1303.700000</ele>
        <time>2013-09-17T16:16:38Z</time>
      </trkpt>
      <trkpt lat="40.490737008" lon="-0.323281959">
        <ele>1301.000000</ele>
        <time>2013-09-17T16:16:44Z</time>
      </trkpt>
      <trkpt lat="40.490732985" lon="-0.323412968">
        <ele>1300.300000</ele>
        <time>2013-09-17T16:16:48Z</time>
      </trkpt>
      <trkpt lat="40.490784030" lon="-0.323580019">
        <ele>1300.400000</ele>
        <time>2013-09-17T16:16:53Z</time>
      </trkpt>
      <trkpt lat="40.490867011" lon="-0.323745981">
        <ele>1301.100000</ele>
        <time>2013-09-17T16:16:58Z</time>
      </trkpt>
      <trkpt lat="40.491059963" lon="-0.323920995">
        <ele>1304.800000</ele>
        <time>2013-09-17T16:17:07Z</time>
      </trkpt>
      <trkpt lat="40.491131963" lon="-0.324017974">
        <ele>1306.000000</ele>
        <time>2013-09-17T16:17:11Z</time>
      </trkpt>
      <trkpt lat="40.491159037" lon="-0.324160969">
        <ele>1306.400000</ele>
        <time>2013-09-17T16:17:15Z</time>
      </trkpt>
      <trkpt lat="40.491162976" lon="-0.324326009">
        <ele>1306.500000</ele>
        <time>2013-09-17T16:17:19Z</time>
      </trkpt>
      <trkpt lat="40.491113020" lon="-0.324492976">
        <ele>1306.100000</ele>
        <time>2013-09-17T16:17:24Z</time>
      </trkpt>
      <trkpt lat="40.491006989" lon="-0.324605964">
        <ele>1305.800000</ele>
        <time>2013-09-17T16:17:29Z</time>
      </trkpt>
      <trkpt lat="40.490785036" lon="-0.324771004">
        <ele>1306.400000</ele>
        <time>2013-09-17T16:17:38Z</time>
      </trkpt>
      <trkpt lat="40.490637012" lon="-0.324846022">
        <ele>1306.700000</ele>
        <time>2013-09-17T16:17:44Z</time>
      </trkpt>
      <trkpt lat="40.490340963" lon="-0.325056994">
        <ele>1309.000000</ele>
        <time>2013-09-17T16:17:56Z</time>
      </trkpt>
      <trkpt lat="40.490187993" lon="-0.325135030">
        <ele>1310.300000</ele>
        <time>2013-09-17T16:18:02Z</time>
      </trkpt>
      <trkpt lat="40.490066959" lon="-0.325168977">
        <ele>1311.000000</ele>
        <time>2013-09-17T16:18:07Z</time>
      </trkpt>
      <trkpt lat="40.489947014" lon="-0.325132012">
        <ele>1310.700000</ele>
        <time>2013-09-17T16:18:11Z</time>
      </trkpt>
      <trkpt lat="40.489762025" lon="-0.324949035">
        <ele>1308.500000</ele>
        <time>2013-09-17T16:18:20Z</time>
      </trkpt>
      <trkpt lat="40.489302026" lon="-0.324537987">
        <ele>1300.100000</ele>
        <time>2013-09-17T16:18:40Z</time>
      </trkpt>
      <trkpt lat="40.489045037" lon="-0.324417036">
        <ele>1295.400000</ele>
        <time>2013-09-17T16:18:50Z</time>
      </trkpt>
      <trkpt lat="40.488652010" lon="-0.324292984">
        <ele>1290.300000</ele>
        <time>2013-09-17T16:19:05Z</time>
      </trkpt>
      <trkpt lat="40.488469033" lon="-0.324275969">
        <ele>1289.800000</ele>
        <time>2013-09-17T16:19:11Z</time>
      </trkpt>
      <trkpt lat="40.488154041" lon="-0.324313017">
        <ele>1289.500000</ele>
        <time>2013-09-17T16:19:23Z</time>
      </trkpt>
      <trkpt lat="40.487967962" lon="-0.324342018">
        <ele>1289.300000</ele>
        <time>2013-09-17T16:19:30Z</time>
      </trkpt>
      <trkpt lat="40.487815998" lon="-0.324317962">
        <ele>1289.600000</ele>
        <time>2013-09-17T16:19:35Z</time>
      </trkpt>
      <trkpt lat="40.487708040" lon="-0.324230036">
        <ele>1289.900000</ele>
        <time>2013-09-17T16:19:40Z</time>
      </trkpt>
      <trkpt lat="40.487665040" lon="-0.324062984">
        <ele>1289.700000</ele>
        <time>2013-09-17T16:19:45Z</time>
      </trkpt>
      <trkpt lat="40.487550041" lon="-0.323396958">
        <ele>1287.700000</ele>
        <time>2013-09-17T16:20:04Z</time>
      </trkpt>
      <trkpt lat="40.487348959" lon="-0.322333965">
        <ele>1283.900000</ele>
        <time>2013-09-17T16:20:34Z</time>
      </trkpt>
      <trkpt lat="40.487295985" lon="-0.322175967">
        <ele>1283.500000</ele>
        <time>2013-09-17T16:20:39Z</time>
      </trkpt>
      <trkpt lat="40.487085013" lon="-0.321784029">
        <ele>1280.700000</ele>
        <time>2013-09-17T16:20:52Z</time>
      </trkpt>
      <trkpt lat="40.486877980" lon="-0.321426960">
        <ele>1275.000000</ele>
        <time>2013-09-17T16:21:05Z</time>
      </trkpt>
      <trkpt lat="40.486515965" lon="-0.320934020">
        <ele>1268.200000</ele>
        <time>2013-09-17T16:21:23Z</time>
      </trkpt>
      <trkpt lat="40.486218994" lon="-0.320742996">
        <ele>1266.400000</ele>
        <time>2013-09-17T16:21:36Z</time>
      </trkpt>
      <trkpt lat="40.485175028" lon="-0.320448037">
        <ele>1257.300000</ele>
        <time>2013-09-17T16:22:14Z</time>
      </trkpt>
      <trkpt lat="40.484945029" lon="-0.320420042">
        <ele>1254.400000</ele>
        <time>2013-09-17T16:22:23Z</time>
      </trkpt>
      <trkpt lat="40.484679993" lon="-0.320467986">
        <ele>1251.500000</ele>
        <time>2013-09-17T16:22:33Z</time>
      </trkpt>
      <trkpt lat="40.484280009" lon="-0.320638977">
        <ele>1250.100000</ele>
        <time>2013-09-17T16:22:48Z</time>
      </trkpt>
      <trkpt lat="40.484141037" lon="-0.320788007">
        <ele>1250.000000</ele>
        <time>2013-09-17T16:22:54Z</time>
      </trkpt>
      <trkpt lat="40.483988989" lon="-0.321050026">
        <ele>1249.700000</ele>
        <time>2013-09-17T16:23:03Z</time>
      </trkpt>
      <trkpt lat="40.483597973" lon="-0.321818981">
        <ele>1248.700000</ele>
        <time>2013-09-17T16:23:29Z</time>
      </trkpt>
      <trkpt lat="40.483451039" lon="-0.322030960">
        <ele>1248.000000</ele>
        <time>2013-09-17T16:23:37Z</time>
      </trkpt>
      <trkpt lat="40.483306032" lon="-0.322130034">
        <ele>1246.900000</ele>
        <time>2013-09-17T16:23:43Z</time>
      </trkpt>
      <trkpt lat="40.483174017" lon="-0.322198011">
        <ele>1245.900000</ele>
        <time>2013-09-17T16:23:48Z</time>
      </trkpt>
      <trkpt lat="40.483019035" lon="-0.321860975">
        <ele>1243.400000</ele>
        <time>2013-09-17T16:23:59Z</time>
      </trkpt>
      <trkpt lat="40.482695997" lon="-0.321057988">
        <ele>1240.100000</ele>
        <time>2013-09-17T16:24:24Z</time>
      </trkpt>
      <trkpt lat="40.482517965" lon="-0.320565971">
        <ele>1238.400000</ele>
        <time>2013-09-17T16:24:39Z</time>
      </trkpt>
      <trkpt lat="40.482425010" lon="-0.320251985">
        <ele>1237.000000</ele>
        <time>2013-09-17T16:24:49Z</time>
      </trkpt>
      <trkpt lat="40.482554007" lon="-0.320098009">
        <ele>1238.000000</ele>
        <time>2013-09-17T16:24:55Z</time>
      </trkpt>
      <trkpt lat="40.482324008" lon="-0.319795003">
        <ele>1235.000000</ele>
        <time>2013-09-17T16:25:07Z</time>
      </trkpt>
      <trkpt lat="40.482013039" lon="-0.319527034">
        <ele>1232.000000</ele>
        <time>2013-09-17T16:25:20Z</time>
      </trkpt>
      <trkpt lat="40.481850011" lon="-0.319278007">
        <ele>1231.600000</ele>
        <time>2013-09-17T16:25:29Z</time>
      </trkpt>
      <trkpt lat="40.481384983" lon="-0.319669023">
        <ele>1233.000000</ele>
      </trkpt>
      <trkpt lat="40.481014000" lon="-0.319159990">
        <ele>1230.000000</ele>
      </trkpt>
      <trkpt lat="40.480713006" lon="-0.318545010">
        <ele>1227.000000</ele>
      </trkpt>
      <trkpt lat="40.480494993" lon="-0.318171009">
        <ele>1226.000000</ele>
      </trkpt>
      <trkpt lat="40.480407989" lon="-0.317961965">
        <ele>1226.000000</ele>
      </trkpt>
      <trkpt lat="40.480339006" lon="-0.317687960">
        <ele>1225.000000</ele>
      </trkpt>
      <trkpt lat="40.480261976" lon="-0.317496015">
        <ele>1224.000000</ele>
      </trkpt>
      <trkpt lat="40.480073970" lon="-0.317341033">
        <ele>1222.000000</ele>
      </trkpt>
      <trkpt lat="40.479654958" lon="-0.317081027">
        <ele>1220.000000</ele>
      </trkpt>
      <trkpt lat="40.479294034" lon="-0.316824960">
        <ele>1219.000000</ele>
      </trkpt>
      <trkpt lat="40.479021035" lon="-0.316597978">
        <ele>1219.000000</ele>
      </trkpt>
      <trkpt lat="40.478843004" lon="-0.316208974">
        <ele>1219.000000</ele>
      </trkpt>
      <trkpt lat="40.478601018" lon="-0.315565998">
        <ele>1217.000000</ele>
      </trkpt>
      <trkpt lat="40.478300024" lon="-0.314667961">
        <ele>1216.000000</ele>
      </trkpt>
      <trkpt lat="40.477957036" lon="-0.313924989">
        <ele>1217.000000</ele>
      </trkpt>
      <trkpt lat="40.477191014" lon="-0.312915975">
        <ele>1216.000000</ele>
      </trkpt>
      <trkpt lat="40.476821959" lon="-0.312514985">
        <ele>1216.000000</ele>
      </trkpt>
      <trkpt lat="40.476520965" lon="-0.312222959">
        <ele>1215.000000</ele>
      </trkpt>
      <trkpt lat="40.475991983" lon="-0.311863041">
        <ele>1214.000000</ele>
      </trkpt>
      <trkpt lat="40.475690989" lon="-0.311698001">
        <ele>1213.000000</ele>
      </trkpt>
      <trkpt lat="40.475056982" lon="-0.311397007">
        <ele>1210.000000</ele>
      </trkpt>
      <trkpt lat="40.474071018" lon="-0.311014038">
        <ele>1206.000000</ele>
      </trkpt>
      <trkpt lat="40.472483989" lon="-0.310511962">
        <ele>1196.000000</ele>
      </trkpt>
      <trkpt lat="40.471941009" lon="-0.310448008">
        <ele>1192.000000</ele>
      </trkpt>
      <trkpt lat="40.471485034" lon="-0.310463011">
        <ele>1190.000000</ele>
      </trkpt>
      <trkpt lat="40.471024029" lon="-0.310411965">
        <ele>1188.000000</ele>
      </trkpt>
      <trkpt lat="40.470572999" lon="-0.310189007">
        <ele>1187.000000</ele>
      </trkpt>
      <trkpt lat="40.470017027" lon="-0.309868986">
        <ele>1181.000000</ele>
      </trkpt>
      <trkpt lat="40.469081020" lon="-0.309563968">
        <ele>1172.000000</ele>
      </trkpt>
      <trkpt lat="40.468662009" lon="-0.309541002">
        <ele>1168.000000</ele>
      </trkpt>
      <trkpt lat="40.468282979" lon="-0.309587019">
        <ele>1163.000000</ele>
      </trkpt>
      <trkpt lat="40.467977040" lon="-0.309681986">
        <ele>1160.000000</ele>
      </trkpt>
      <trkpt lat="40.467575965" lon="-0.309859011">
        <ele>1156.000000</ele>
      </trkpt>
      <trkpt lat="40.467192996" lon="-0.310166040">
        <ele>1152.000000</ele>
      </trkpt>
      <trkpt lat="40.466758981" lon="-0.310636014">
        <ele>1148.000000</ele>
      </trkpt>
      <trkpt lat="40.466436027" lon="-0.311164996">
        <ele>1145.000000</ele>
      </trkpt>
      <trkpt lat="40.466116006" lon="-0.311616026">
        <ele>1142.000000</ele>
      </trkpt>
      <trkpt lat="40.465906039" lon="-0.311825993">
        <ele>1140.000000</ele>
      </trkpt>
      <trkpt lat="40.465642009" lon="-0.311986003">
        <ele>1139.000000</ele>
      </trkpt>
      <trkpt lat="40.465477975" lon="-0.312031014">
        <ele>1138.000000</ele>
      </trkpt>
      <trkpt lat="40.464894008" lon="-0.312080970">
        <ele>1131.000000</ele>
      </trkpt>
      <trkpt lat="40.464324038" lon="-0.312067978">
        <ele>1126.000000</ele>
      </trkpt>
      <trkpt lat="40.463624988" lon="-0.311839990">
        <ele>1124.000000</ele>
      </trkpt>
      <trkpt lat="40.463101035" lon="-0.311633963">
        <ele>1127.000000</ele>
      </trkpt>
      <trkpt lat="40.462909006" lon="-0.311546037">
        <ele>1128.000000</ele>
      </trkpt>
      <trkpt lat="40.462785959" lon="-0.311423996">
        <ele>1129.000000</ele>
      </trkpt>
      <trkpt lat="40.462728040" lon="-0.311302040">
        <ele>1130.000000</ele>
      </trkpt>
      <trkpt lat="40.462730974" lon="-0.311144041">
        <ele>1131.000000</ele>
      </trkpt>
      <trkpt lat="40.462919986" lon="-0.310739027">
        <ele>1133.000000</ele>
      </trkpt>
      <trkpt lat="40.463375039" lon="-0.309964037">
        <ele>1137.000000</ele>
      </trkpt>
      <trkpt lat="40.463573020" lon="-0.309416028">
        <ele>1140.000000</ele>
      </trkpt>
      <trkpt lat="40.463910978" lon="-0.307938969">
        <ele>1146.000000</ele>
      </trkpt>
      <trkpt lat="40.463926988" lon="-0.307514006">
        <ele>1149.000000</ele>
      </trkpt>
      <trkpt lat="40.463875020" lon="-0.307118967">
        <ele>1153.000000</ele>
      </trkpt>
      <trkpt lat="40.463865967" lon="-0.306529971">
        <ele>1156.000000</ele>
      </trkpt>
      <trkpt lat="40.463937968" lon="-0.304641025">
        <ele>1163.000000</ele>
      </trkpt>
      <trkpt lat="40.464047017" lon="-0.303234961">
        <ele>1166.000000</ele>
      </trkpt>
      <trkpt lat="40.464008963" lon="-0.302889040">
        <ele>1167.000000</ele>
      </trkpt>
      <trkpt lat="40.463869991" lon="-0.302561978">
        <ele>1170.000000</ele>
      </trkpt>
      <trkpt lat="40.463462966" lon="-0.301636029">
        <ele>1177.000000</ele>
      </trkpt>
      <trkpt lat="40.462684035" lon="-0.299902987">
        <ele>1185.000000</ele>
      </trkpt>
      <trkpt lat="40.462448001" lon="-0.299523035">
        <ele>1187.000000</ele>
      </trkpt>
      <trkpt lat="40.461710980" lon="-0.298801018">
        <ele>1191.000000</ele>
      </trkpt>
      <trkpt lat="40.461118966" lon="-0.298365997">
        <ele>1193.000000</ele>
      </trkpt>
      <trkpt lat="40.460871030" lon="-0.298129041">
        <ele>1195.000000</ele>
      </trkpt>
      <trkpt lat="40.460628038" lon="-0.297782030">
        <ele>1196.000000</ele>
      </trkpt>
      <trkpt lat="40.460038958" lon="-0.296773016">
        <ele>1195.000000</ele>
      </trkpt>
      <trkpt lat="40.459824968" lon="-0.296533965">
        <ele>1195.000000</ele>
      </trkpt>
      <trkpt lat="40.459560016" lon="-0.296383006">
        <ele>1195.000000</ele>
      </trkpt>
      <trkpt lat="40.459195990" lon="-0.296291979">
        <ele>1194.000000</ele>
      </trkpt>
      <trkpt lat="40.459002033" lon="-0.296264989">
        <ele>1194.000000</ele>
      </trkpt>
      <trkpt lat="40.458874041" lon="-0.296193995">
        <ele>1194.000000</ele>
      </trkpt>
      <trkpt lat="40.458680000" lon="-0.295999032">
        <ele>1194.000000</ele>
      </trkpt>
      <trkpt lat="40.457837032" lon="-0.295010973">
        <ele>1192.000000</ele>
      </trkpt>
      <trkpt lat="40.455643991" lon="-0.292458013">
        <ele>1177.000000</ele>
      </trkpt>
      <trkpt lat="40.455284994" lon="-0.291917967">
        <ele>1177.000000</ele>
      </trkpt>
      <trkpt lat="40.455037979" lon="-0.291386973">
        <ele>1178.000000</ele>
      </trkpt>
      <trkpt lat="40.454456024" lon="-0.290049976">
        <ele>1182.000000</ele>
      </trkpt>
      <trkpt lat="40.454040030" lon="-0.289079016">
        <ele>1183.000000</ele>
      </trkpt>
      <trkpt lat="40.453390013" lon="-0.287755011">
        <ele>1180.000000</ele>
      </trkpt>
      <trkpt lat="40.451996019" lon="-0.285134995">
        <ele>1168.000000</ele>
      </trkpt>
      <trkpt lat="40.451194961" lon="-0.283670006">
        <ele>1157.000000</ele>
      </trkpt>
      <trkpt lat="40.448938971" lon="-0.279733026">
        <ele>1146.000000</ele>
      </trkpt>
      <trkpt lat="40.448601013" lon="-0.279304041">
        <ele>1147.000000</ele>
      </trkpt>
      <trkpt lat="40.447675986" lon="-0.278284969">
        <ele>1149.000000</ele>
      </trkpt>
      <trkpt lat="40.446960004" lon="-0.277363965">
        <ele>1149.000000</ele>
      </trkpt>
      <trkpt lat="40.446445020" lon="-0.276808999">
        <ele>1147.000000</ele>
      </trkpt>
      <trkpt lat="40.444737962" lon="-0.274877977">
        <ele>1134.000000</ele>
      </trkpt>
      <trkpt lat="40.444412995" lon="-0.274454020">
        <ele>1132.000000</ele>
      </trkpt>
      <trkpt lat="40.444305036" lon="-0.274146991">
        <ele>1131.000000</ele>
      </trkpt>
      <trkpt lat="40.444291960" lon="-0.272966987">
        <ele>1128.000000</ele>
      </trkpt>
      <trkpt lat="40.444281986" lon="-0.272760959">
        <ele>1128.000000</ele>
      </trkpt>
      <trkpt lat="40.444187019" lon="-0.272585023">
        <ele>1128.000000</ele>
      </trkpt>
      <trkpt lat="40.443892982" lon="-0.272271959">
        <ele>1126.000000</ele>
      </trkpt>
      <trkpt lat="40.441569015" lon="-0.269943969">
        <ele>1121.000000</ele>
      </trkpt>
      <trkpt lat="40.440934002" lon="-0.269320020">
        <ele>1120.000000</ele>
      </trkpt>
      <trkpt lat="40.439759027" lon="-0.268443022">
        <ele>1119.000000</ele>
      </trkpt>
      <trkpt lat="40.438750014" lon="-0.267779008">
        <ele>1120.000000</ele>
      </trkpt>
      <trkpt lat="40.435608979" lon="-0.265655033">
        <ele>1118.000000</ele>
      </trkpt>
      <trkpt lat="40.433799997" lon="-0.264181998">
        <ele>1114.000000</ele>
      </trkpt>
      <trkpt lat="40.432091011" lon="-0.262692031">
        <ele>1119.000000</ele>
      </trkpt>
      <trkpt lat="40.430126041" lon="-0.260777017">
        <ele>1117.000000</ele>
      </trkpt>
      <trkpt lat="40.428905971" lon="-0.259439014">
        <ele>1123.000000</ele>
      </trkpt>
      <trkpt lat="40.428233994" lon="-0.258805007">
        <ele>1123.000000</ele>
      </trkpt>
      <trkpt lat="40.427260017" lon="-0.257991040">
        <ele>1115.000000</ele>
      </trkpt>
      <trkpt lat="40.427094977" lon="-0.257818960">
        <ele>1114.000000</ele>
      </trkpt>
      <trkpt lat="40.427107969" lon="-0.257634977">
        <ele>1118.000000</ele>
      </trkpt>
      <trkpt lat="40.427329000" lon="-0.257326020">
        <ele>1126.000000</ele>
      </trkpt>
      <trkpt lat="40.429330012" lon="-0.254872972">
        <ele>1128.000000</ele>
      </trkpt>
      <trkpt lat="40.429330012" lon="-0.254872972">
        <ele>1128.000000</ele>
      </trkpt>
      <trkpt lat="40.431213006" lon="-0.252645984">
        <ele>1132.000000</ele>
      </trkpt>
      <trkpt lat="40.432576993" lon="-0.250913026">
        <ele>1133.000000</ele>
      </trkpt>
      <trkpt lat="40.432748990" lon="-0.250701969">
        <ele>1132.000000</ele>
      </trkpt>
      <trkpt lat="40.433798991" lon="-0.249439990">
        <ele>1133.000000</ele>
      </trkpt>
      <trkpt lat="40.434701974" lon="-0.248338021">
        <ele>1135.000000</ele>
      </trkpt>
      <trkpt lat="40.436451025" lon="-0.246184040">
        <ele>1139.000000</ele>
      </trkpt>
      <trkpt lat="40.438550021" lon="-0.243585985">
        <ele>1140.000000</ele>
      </trkpt>
      <trkpt lat="40.440531000" lon="-0.241142996">
        <ele>1148.000000</ele>
      </trkpt>
      <trkpt lat="40.441174982" lon="-0.240407987">
        <ele>1149.000000</ele>
      </trkpt>
      <trkpt lat="40.441619977" lon="-0.239838017">
        <ele>1146.000000</ele>
      </trkpt>
      <trkpt lat="40.441801026" lon="-0.239664009">
        <ele>1145.000000</ele>
      </trkpt>
      <trkpt lat="40.441937987" lon="-0.239486983">
        <ele>1144.000000</ele>
      </trkpt>
      <trkpt lat="40.442095986" lon="-0.239238041">
        <ele>1143.000000</ele>
      </trkpt>
      <trkpt lat="40.442132028" lon="-0.239084987">
        <ele>1142.000000</ele>
      </trkpt>
      <trkpt lat="40.442105038" lon="-0.238876026">
        <ele>1141.000000</ele>
      </trkpt>
      <trkpt lat="40.441993978" lon="-0.238636974">
        <ele>1140.000000</ele>
      </trkpt>
      <trkpt lat="40.441821981" lon="-0.238327011">
        <ele>1138.000000</ele>
      </trkpt>
      <trkpt lat="40.441721985" lon="-0.238168007">
        <ele>1137.000000</ele>
      </trkpt>
      <trkpt lat="40.441250000" lon="-0.237774979">
        <ele>1136.000000</ele>
      </trkpt>
      <trkpt lat="40.441102982" lon="-0.237547997">
        <ele>1133.000000</ele>
      </trkpt>
      <trkpt lat="40.440971972" lon="-0.236745011">
        <ele>1122.000000</ele>
      </trkpt>
      <trkpt lat="40.440958980" lon="-0.236502020">
        <ele>1120.000000</ele>
      </trkpt>
      <trkpt lat="40.441029975" lon="-0.235829037">
        <ele>1118.000000</ele>
      </trkpt>
      <trkpt lat="40.441088984" lon="-0.235556038">
        <ele>1118.000000</ele>
      </trkpt>
      <trkpt lat="40.441054031" lon="-0.235324027">
        <ele>1119.000000</ele>
      </trkpt>
      <trkpt lat="40.440914975" lon="-0.235153036">
        <ele>1119.000000</ele>
      </trkpt>
      <trkpt lat="40.440776004" lon="-0.235087993">
        <ele>1119.000000</ele>
      </trkpt>
      <trkpt lat="40.440599984" lon="-0.235170973">
        <ele>1119.000000</ele>
      </trkpt>
      <trkpt lat="40.440426981" lon="-0.235377001">
        <ele>1119.000000</ele>
      </trkpt>
      <trkpt lat="40.440121964" lon="-0.235695010">
        <ele>1120.000000</ele>
      </trkpt>
      <trkpt lat="40.440052981" lon="-0.235905983">
        <ele>1119.000000</ele>
      </trkpt>
      <trkpt lat="40.439688032" lon="-0.236878032">
        <ele>1117.000000</ele>
      </trkpt>
      <trkpt lat="40.439517964" lon="-0.237037037">
        <ele>1115.000000</ele>
      </trkpt>
      <trkpt lat="40.439325012" lon="-0.237063020">
        <ele>1113.000000</ele>
      </trkpt>
      <trkpt lat="40.439058971" lon="-0.236989008">
        <ele>1110.000000</ele>
      </trkpt>
      <trkpt lat="40.438896026" lon="-0.236880966">
        <ele>1107.000000</ele>
      </trkpt>
      <trkpt lat="40.438808016" lon="-0.236661024">
        <ele>1104.000000</ele>
      </trkpt>
      <trkpt lat="40.438829977" lon="-0.236271014">
        <ele>1102.000000</ele>
      </trkpt>
      <trkpt lat="40.438800976" lon="-0.235791989">
        <ele>1104.000000</ele>
      </trkpt>
      <trkpt lat="40.438732998" lon="-0.235234005">
        <ele>1105.000000</ele>
      </trkpt>
      <trkpt lat="40.438616993" lon="-0.234941980">
        <ele>1105.000000</ele>
      </trkpt>
      <trkpt lat="40.438442985" lon="-0.234636962">
        <ele>1106.000000</ele>
      </trkpt>
      <trkpt lat="40.438237963" lon="-0.234417021">
        <ele>1110.000000</ele>
      </trkpt>
      <trkpt lat="40.438076025" lon="-0.234343009">
        <ele>1111.000000</ele>
      </trkpt>
      <trkpt lat="40.437866980" lon="-0.234260028">
        <ele>1113.000000</ele>
      </trkpt>
      <trkpt lat="40.437630024" lon="-0.234218035">
        <ele>1115.000000</ele>
      </trkpt>
      <trkpt lat="40.437218975" lon="-0.234363042">
        <ele>1117.000000</ele>
      </trkpt>
      <trkpt lat="40.437047984" lon="-0.234347032">
        <ele>1118.000000</ele>
      </trkpt>
      <trkpt lat="40.436646994" lon="-0.234162966">
        <ele>1117.000000</ele>
      </trkpt>
      <trkpt lat="40.436516991" lon="-0.234169001">
        <ele>1116.000000</ele>
      </trkpt>
      <trkpt lat="40.436313981" lon="-0.234201020">
        <ele>1114.000000</ele>
      </trkpt>
      <trkpt lat="40.435812995" lon="-0.234088032">
        <ele>1122.000000</ele>
      </trkpt>
      <trkpt lat="40.435562963" lon="-0.234099012">
        <ele>1126.000000</ele>
      </trkpt>
      <trkpt lat="40.435343022" lon="-0.234198002">
        <ele>1126.000000</ele>
      </trkpt>
      <trkpt lat="40.435066000" lon="-0.234433031">
        <ele>1123.000000</ele>
      </trkpt>
      <trkpt lat="40.434851004" lon="-0.234569991">
        <ele>1122.000000</ele>
      </trkpt>
      <trkpt lat="40.434628967" lon="-0.234597987">
        <ele>1124.000000</ele>
      </trkpt>
      <trkpt lat="40.434394022" lon="-0.234583989">
        <ele>1126.000000</ele>
      </trkpt>
      <trkpt lat="40.433731014" lon="-0.234667975">
        <ele>1123.000000</ele>
      </trkpt>
      <trkpt lat="40.433461033" lon="-0.234621959">
        <ele>1127.000000</ele>
      </trkpt>
      <trkpt lat="40.432731975" lon="-0.234414004">
        <ele>1135.000000</ele>
      </trkpt>
      <trkpt lat="40.432517985" lon="-0.234265979">
        <ele>1135.000000</ele>
      </trkpt>
      <trkpt lat="40.432420000" lon="-0.234108986">
        <ele>1136.000000</ele>
      </trkpt>
      <trkpt lat="40.432367027" lon="-0.233848980">
        <ele>1137.000000</ele>
      </trkpt>
      <trkpt lat="40.432407008" lon="-0.233553015">
        <ele>1136.000000</ele>
      </trkpt>
      <trkpt lat="40.432398040" lon="-0.233172979">
        <ele>1134.000000</ele>
      </trkpt>
      <trkpt lat="40.432306007" lon="-0.232977010">
        <ele>1132.000000</ele>
      </trkpt>
      <trkpt lat="40.432148008" lon="-0.232936023">
        <ele>1130.000000</ele>
      </trkpt>
      <trkpt lat="40.431893030" lon="-0.232894029">
        <ele>1129.000000</ele>
      </trkpt>
      <trkpt lat="40.431301016" lon="-0.232898975">
        <ele>1125.000000</ele>
      </trkpt>
      <trkpt lat="40.430764994" lon="-0.232702000">
        <ele>1122.000000</ele>
      </trkpt>
      <trkpt lat="40.430600960" lon="-0.232666042">
        <ele>1121.000000</ele>
      </trkpt>
      <trkpt lat="40.429949015" lon="-0.232744999">
        <ele>1116.000000</ele>
      </trkpt>
      <trkpt lat="40.429648021" lon="-0.232770983">
        <ele>1114.000000</ele>
      </trkpt>
      <trkpt lat="40.429324983" lon="-0.232622037">
        <ele>1113.000000</ele>
      </trkpt>
      <trkpt lat="40.429039998" lon="-0.232277960">
        <ele>1109.000000</ele>
      </trkpt>
      <trkpt lat="40.428873030" lon="-0.232113004">
        <ele>1106.000000</ele>
      </trkpt>
      <trkpt lat="40.428674966" lon="-0.232041003">
        <ele>1104.000000</ele>
      </trkpt>
      <trkpt lat="40.428467011" lon="-0.232010996">
        <ele>1103.000000</ele>
      </trkpt>
      <trkpt lat="40.428307001" lon="-0.232013008">
        <ele>1102.000000</ele>
      </trkpt>
      <trkpt lat="40.428039031" lon="-0.232052989">
        <ele>1100.000000</ele>
      </trkpt>
      <trkpt lat="40.427676011" lon="-0.232062042">
        <ele>1101.000000</ele>
      </trkpt>
      <trkpt lat="40.427552965" lon="-0.231949976">
        <ele>1101.000000</ele>
      </trkpt>
      <trkpt lat="40.427306034" lon="-0.231613023">
        <ele>1098.000000</ele>
      </trkpt>
      <trkpt lat="40.426917030" lon="-0.231181020">
        <ele>1092.000000</ele>
      </trkpt>
      <trkpt lat="40.426329961" lon="-0.230350038">
        <ele>1083.000000</ele>
      </trkpt>
      <trkpt lat="40.425998960" lon="-0.229717037">
        <ele>1073.000000</ele>
      </trkpt>
      <trkpt lat="40.425926037" lon="-0.229547974">
        <ele>1069.000000</ele>
      </trkpt>
      <trkpt lat="40.425913967" lon="-0.229382012">
        <ele>1067.000000</ele>
      </trkpt>
      <trkpt lat="40.426006000" lon="-0.229078000">
        <ele>1068.000000</ele>
      </trkpt>
      <trkpt lat="40.426121000" lon="-0.228751022">
        <ele>1071.000000</ele>
      </trkpt>
      <trkpt lat="40.426345970" lon="-0.228556981">
        <ele>1075.000000</ele>
      </trkpt>
      <trkpt lat="40.426666997" lon="-0.228334023">
        <ele>1079.000000</ele>
      </trkpt>
      <trkpt lat="40.426962040" lon="-0.228354977">
        <ele>1086.000000</ele>
      </trkpt>
      <trkpt lat="40.427560005" lon="-0.228439970">
        <ele>1088.000000</ele>
      </trkpt>
      <trkpt lat="40.427812971" lon="-0.228528986">
        <ele>1089.000000</ele>
      </trkpt>
      <trkpt lat="40.428029979" lon="-0.228663012">
        <ele>1090.000000</ele>
      </trkpt>
      <trkpt lat="40.428242041" lon="-0.228682961">
        <ele>1089.000000</ele>
      </trkpt>
      <trkpt lat="40.428359974" lon="-0.228611967">
        <ele>1086.000000</ele>
      </trkpt>
      <trkpt lat="40.428451002" lon="-0.228461009">
        <ele>1082.000000</ele>
      </trkpt>
      <trkpt lat="40.428474974" lon="-0.228268979">
        <ele>1078.000000</ele>
      </trkpt>
      <trkpt lat="40.428434992" lon="-0.228094971">
        <ele>1075.000000</ele>
      </trkpt>
      <trkpt lat="40.428299038" lon="-0.227887016">
        <ele>1072.000000</ele>
      </trkpt>
      <trkpt lat="40.427905004" lon="-0.227355016">
        <ele>1066.000000</ele>
      </trkpt>
      <trkpt lat="40.427719010" lon="-0.227058968">
        <ele>1062.000000</ele>
      </trkpt>
      <trkpt lat="40.427525975" lon="-0.226876996">
        <ele>1063.000000</ele>
      </trkpt>
      <trkpt lat="40.427311985" lon="-0.226718998">
        <ele>1063.000000</ele>
      </trkpt>
      <trkpt lat="40.427018031" lon="-0.226579020">
        <ele>1060.000000</ele>
      </trkpt>
      <trkpt lat="40.426772023" lon="-0.226479024">
        <ele>1057.000000</ele>
      </trkpt>
      <trkpt lat="40.426242035" lon="-0.226364024">
        <ele>1049.000000</ele>
      </trkpt>
      <trkpt lat="40.426062997" lon="-0.226312978">
        <ele>1044.000000</ele>
      </trkpt>
      <trkpt lat="40.425816989" lon="-0.226081973">
        <ele>1044.000000</ele>
      </trkpt>
      <trkpt lat="40.425596042" lon="-0.225952975">
        <ele>1044.000000</ele>
      </trkpt>
      <trkpt lat="40.424850974" lon="-0.225773016">
        <ele>1041.000000</ele>
      </trkpt>
      <trkpt lat="40.424542017" lon="-0.225773016">
        <ele>1037.000000</ele>
      </trkpt>
      <trkpt lat="40.424233982" lon="-0.225808974">
        <ele>1031.000000</ele>
      </trkpt>
      <trkpt lat="40.423990991" lon="-0.225855997">
        <ele>1025.000000</ele>
      </trkpt>
      <trkpt lat="40.423814971" lon="-0.225783996">
        <ele>1027.000000</ele>
      </trkpt>
      <trkpt lat="40.423543984" lon="-0.225693975">
        <ele>1030.000000</ele>
      </trkpt>
      <trkpt lat="40.423197979" lon="-0.225648042">
        <ele>1032.000000</ele>
      </trkpt>
      <trkpt lat="40.422662040" lon="-0.225740997">
        <ele>1026.000000</ele>
      </trkpt>
      <trkpt lat="40.422494989" lon="-0.225723982">
        <ele>1027.000000</ele>
      </trkpt>
      <trkpt lat="40.422339002" lon="-0.225610994">
        <ele>1031.000000</ele>
      </trkpt>
      <trkpt lat="40.422206987" lon="-0.225403039">
        <ele>1038.000000</ele>
      </trkpt>
      <trkpt lat="40.422179997" lon="-0.225179996">
        <ele>1041.000000</ele>
      </trkpt>
      <trkpt lat="40.422229031" lon="-0.224845978">
        <ele>1046.000000</ele>
      </trkpt>
      <trkpt lat="40.422461964" lon="-0.224522017">
        <ele>1050.000000</ele>
      </trkpt>
      <trkpt lat="40.423030006" lon="-0.224036034">
        <ele>1046.000000</ele>
      </trkpt>
      <trkpt lat="40.423110975" lon="-0.223824978">
        <ele>1044.000000</ele>
      </trkpt>
      <trkpt lat="40.423126984" lon="-0.223570000">
        <ele>1042.000000</ele>
      </trkpt>
      <trkpt lat="40.423050961" lon="-0.223401021">
        <ele>1040.000000</ele>
      </trkpt>
      <trkpt lat="40.422387030" lon="-0.223309994">
        <ele>1032.000000</ele>
      </trkpt>
      <trkpt lat="40.422062986" lon="-0.223192982">
        <ele>1027.000000</ele>
      </trkpt>
      <trkpt lat="40.421687979" lon="-0.222894000">
        <ele>1023.000000</ele>
      </trkpt>
      <trkpt lat="40.421460997" lon="-0.222285977">
        <ele>1018.000000</ele>
      </trkpt>
      <trkpt lat="40.421265028" lon="-0.221693963">
        <ele>1014.000000</ele>
      </trkpt>
      <trkpt lat="40.421094960" lon="-0.220824005">
        <ele>1015.000000</ele>
      </trkpt>
      <trkpt lat="40.421069982" lon="-0.220414968">
        <ele>1016.000000</ele>
      </trkpt>
      <trkpt lat="40.421109041" lon="-0.220124032">
        <ele>1016.000000</ele>
      </trkpt>
      <trkpt lat="40.421264023" lon="-0.219927980">
        <ele>1017.000000</ele>
      </trkpt>
      <trkpt lat="40.421525035" lon="-0.219685994">
        <ele>1022.000000</ele>
      </trkpt>
      <trkpt lat="40.421828963" lon="-0.219518021">
        <ele>1026.000000</ele>
      </trkpt>
      <trkpt lat="40.422238000" lon="-0.219170004">
        <ele>1025.000000</ele>
      </trkpt>
      <trkpt lat="40.422530025" lon="-0.219087023">
        <ele>1029.000000</ele>
      </trkpt>
      <trkpt lat="40.423095971" lon="-0.219051987">
        <ele>1036.000000</ele>
      </trkpt>
      <trkpt lat="40.423597042" lon="-0.218976969">
        <ele>1037.000000</ele>
      </trkpt>
      <trkpt lat="40.424083024" lon="-0.218644040">
        <ele>1033.000000</ele>
      </trkpt>
      <trkpt lat="40.424324004" lon="-0.218456034">
        <ele>1031.000000</ele>
      </trkpt>
      <trkpt lat="40.424666991" lon="-0.218404988">
        <ele>1034.000000</ele>
      </trkpt>
      <trkpt lat="40.424901014" lon="-0.218354026">
        <ele>1037.000000</ele>
      </trkpt>
      <trkpt lat="40.425310973" lon="-0.218077004">
        <ele>1035.000000</ele>
      </trkpt>
      <trkpt lat="40.425848002" lon="-0.217781961">
        <ele>1034.000000</ele>
      </trkpt>
      <trkpt lat="40.426626010" lon="-0.217519021">
        <ele>1037.000000</ele>
      </trkpt>
      <trkpt lat="40.426718965" lon="-0.217402009">
        <ele>1036.000000</ele>
      </trkpt>
      <trkpt lat="40.426723994" lon="-0.217260020">
        <ele>1033.000000</ele>
      </trkpt>
      <trkpt lat="40.426648976" lon="-0.217143008">
        <ele>1030.000000</ele>
      </trkpt>
      <trkpt lat="40.426434986" lon="-0.217122976">
        <ele>1027.000000</ele>
      </trkpt>
      <trkpt lat="40.425969036" lon="-0.217143008">
        <ele>1022.000000</ele>
      </trkpt>
      <trkpt lat="40.425638035" lon="-0.217125993">
        <ele>1018.000000</ele>
      </trkpt>
      <trkpt lat="40.424971003" lon="-0.216934970">
        <ele>1010.000000</ele>
      </trkpt>
      <trkpt lat="40.424528020" lon="-0.216780994">
        <ele>1007.000000</ele>
      </trkpt>
      <trkpt lat="40.424138010" lon="-0.216587959">
        <ele>1003.000000</ele>
      </trkpt>
      <trkpt lat="40.423911028" lon="-0.216378998">
        <ele>1002.000000</ele>
      </trkpt>
      <trkpt lat="40.423688991" lon="-0.216191998">
        <ele>1001.000000</ele>
      </trkpt>
      <trkpt lat="40.423395038" lon="-0.216044979">
        <ele>1000.000000</ele>
      </trkpt>
      <trkpt lat="40.423058001" lon="-0.215952024">
        <ele>997.000000</ele>
      </trkpt>
      <trkpt lat="40.422435980" lon="-0.215551034">
        <ele>989.000000</ele>
      </trkpt>
      <trkpt lat="40.422293991" lon="-0.215283986">
        <ele>988.000000</ele>
      </trkpt>
      <trkpt lat="40.422245041" lon="-0.214934964">
        <ele>990.000000</ele>
      </trkpt>
      <trkpt lat="40.422245041" lon="-0.214384021">
        <ele>995.000000</ele>
      </trkpt>
      <trkpt lat="40.422264989" lon="-0.213884041">
        <ele>998.000000</ele>
      </trkpt>
      <trkpt lat="40.422432041" lon="-0.213106032">
        <ele>1006.000000</ele>
      </trkpt>
      <trkpt lat="40.422368003" lon="-0.212903023">
        <ele>1006.000000</ele>
      </trkpt>
      <trkpt lat="40.422244035" lon="-0.212830016">
        <ele>1007.000000</ele>
      </trkpt>
      <trkpt lat="40.422039013" lon="-0.212786011">
        <ele>1008.000000</ele>
      </trkpt>
      <trkpt lat="40.421813037" lon="-0.212824987">
        <ele>1008.000000</ele>
      </trkpt>
      <trkpt lat="40.421530986" lon="-0.212966977">
        <ele>1008.000000</ele>
      </trkpt>
      <trkpt lat="40.421136031" lon="-0.213191025">
        <ele>1008.000000</ele>
      </trkpt>
      <trkpt lat="40.420937967" lon="-0.213234024">
        <ele>1009.000000</ele>
      </trkpt>
      <trkpt lat="40.420720959" lon="-0.213219021">
        <ele>1011.000000</ele>
      </trkpt>
      <trkpt lat="40.420459025" lon="-0.213064039">
        <ele>1013.000000</ele>
      </trkpt>
      <trkpt lat="40.420322986" lon="-0.212867986">
        <ele>1013.000000</ele>
      </trkpt>
      <trkpt lat="40.420207987" lon="-0.212439001">
        <ele>1009.000000</ele>
      </trkpt>
      <trkpt lat="40.420208992" lon="-0.212084027">
        <ele>1005.000000</ele>
      </trkpt>
      <trkpt lat="40.420297002" lon="-0.211842963">
        <ele>1002.000000</ele>
      </trkpt>
      <trkpt lat="40.420561032" lon="-0.211482039">
        <ele>1002.000000</ele>
      </trkpt>
      <trkpt lat="40.420936961" lon="-0.211097980">
        <ele>1004.000000</ele>
      </trkpt>
      <trkpt lat="40.421511037" lon="-0.210463973">
        <ele>1003.000000</ele>
      </trkpt>
      <trkpt lat="40.421608016" lon="-0.210163984">
        <ele>999.000000</ele>
      </trkpt>
      <trkpt lat="40.421701977" lon="-0.209744973">
        <ele>991.000000</ele>
      </trkpt>
      <trkpt lat="40.421809014" lon="-0.209259996">
        <ele>990.000000</ele>
      </trkpt>
      <trkpt lat="40.421844972" lon="-0.209068973">
        <ele>991.000000</ele>
      </trkpt>
      <trkpt lat="40.421841033" lon="-0.208925977">
        <ele>991.000000</ele>
      </trkpt>
      <trkpt lat="40.421745982" lon="-0.208789017">
        <ele>990.000000</ele>
      </trkpt>
      <trkpt lat="40.421606004" lon="-0.208759010">
        <ele>989.000000</ele>
      </trkpt>
      <trkpt lat="40.421416992" lon="-0.208802009">
        <ele>987.000000</ele>
      </trkpt>
      <trkpt lat="40.420778962" lon="-0.209058998">
        <ele>974.000000</ele>
      </trkpt>
      <trkpt lat="40.420558015" lon="-0.209086994">
        <ele>971.000000</ele>
      </trkpt>
      <trkpt lat="40.420265989" lon="-0.209022034">
        <ele>967.000000</ele>
      </trkpt>
      <trkpt lat="40.419963989" lon="-0.208879961">
        <ele>963.000000</ele>
      </trkpt>
      <trkpt lat="40.419652015" lon="-0.208560023">
        <ele>961.000000</ele>
      </trkpt>
      <trkpt lat="40.419487981" lon="-0.208336981">
        <ele>961.000000</ele>
      </trkpt>
      <trkpt lat="40.419364013" lon="-0.208056020">
        <ele>963.000000</ele>
      </trkpt>
      <trkpt lat="40.419221018" lon="-0.207789978">
        <ele>965.000000</ele>
      </trkpt>
      <trkpt lat="40.418399004" lon="-0.206785994">
        <ele>970.000000</ele>
      </trkpt>
      <trkpt lat="40.418303031" lon="-0.206552977">
        <ele>972.000000</ele>
      </trkpt>
      <trkpt lat="40.418271013" lon="-0.206347033">
        <ele>974.000000</ele>
      </trkpt>
      <trkpt lat="40.418290040" lon="-0.206019972">
        <ele>970.000000</ele>
      </trkpt>
      <trkpt lat="40.418423982" lon="-0.205783015">
        <ele>968.000000</ele>
      </trkpt>
      <trkpt lat="40.418702010" lon="-0.205611018">
        <ele>969.000000</ele>
      </trkpt>
      <trkpt lat="40.418928992" lon="-0.205626022">
        <ele>971.000000</ele>
      </trkpt>
      <trkpt lat="40.419112975" lon="-0.205730963">
        <ele>974.000000</ele>
      </trkpt>
      <trkpt lat="40.419335011" lon="-0.205921987">
        <ele>979.000000</ele>
      </trkpt>
      <trkpt lat="40.419518994" lon="-0.206058025">
        <ele>984.000000</ele>
      </trkpt>
      <trkpt lat="40.420227014" lon="-0.206259023">
        <ele>984.000000</ele>
      </trkpt>
      <trkpt lat="40.420562960" lon="-0.206281990">
        <ele>982.000000</ele>
      </trkpt>
      <trkpt lat="40.420795977" lon="-0.206189035">
        <ele>980.000000</ele>
      </trkpt>
      <trkpt lat="40.420850040" lon="-0.205985019">
        <ele>975.000000</ele>
      </trkpt>
      <trkpt lat="40.420821961" lon="-0.205785027">
        <ele>970.000000</ele>
      </trkpt>
      <trkpt lat="40.420676032" lon="-0.205517979">
        <ele>961.000000</ele>
      </trkpt>
      <trkpt lat="40.420374032" lon="-0.205043983">
        <ele>952.000000</ele>
      </trkpt>
      <trkpt lat="40.420188038" lon="-0.204665037">
        <ele>948.000000</ele>
      </trkpt>
      <trkpt lat="40.420045964" lon="-0.204209983">
        <ele>946.000000</ele>
      </trkpt>
      <trkpt lat="40.419834992" lon="-0.203819973">
        <ele>940.000000</ele>
      </trkpt>
      <trkpt lat="40.419668024" lon="-0.203463994">
        <ele>937.000000</ele>
      </trkpt>
      <trkpt lat="40.419415981" lon="-0.203172974">
        <ele>934.000000</ele>
      </trkpt>
      <trkpt lat="40.419035023" lon="-0.202833004">
        <ele>931.000000</ele>
      </trkpt>
      <trkpt lat="40.418260032" lon="-0.202510972">
        <ele>930.000000</ele>
      </trkpt>
      <trkpt lat="40.418006983" lon="-0.202317014">
        <ele>931.000000</ele>
      </trkpt>
      <trkpt lat="40.417927019" lon="-0.202091038">
        <ele>934.000000</ele>
      </trkpt>
      <trkpt lat="40.417915033" lon="-0.201807981">
        <ele>932.000000</ele>
      </trkpt>
      <trkpt lat="40.418290040" lon="-0.201112032">
        <ele>937.000000</ele>
      </trkpt>
      <trkpt lat="40.418282999" lon="-0.200894019">
        <ele>936.000000</ele>
      </trkpt>
      <trkpt lat="40.418217033" lon="-0.200740965">
        <ele>934.000000</ele>
      </trkpt>
      <trkpt lat="40.417355038" lon="-0.200723028">
        <ele>919.000000</ele>
      </trkpt>
      <trkpt lat="40.417078016" lon="-0.200618003">
        <ele>914.000000</ele>
      </trkpt>
      <trkpt lat="40.416837959" lon="-0.200457992">
        <ele>910.000000</ele>
      </trkpt>
      <trkpt lat="40.416690018" lon="-0.200175019">
        <ele>909.000000</ele>
      </trkpt>
      <trkpt lat="40.416541994" lon="-0.199607983">
        <ele>907.000000</ele>
      </trkpt>
      <trkpt lat="40.416320963" lon="-0.198282972">
        <ele>896.000000</ele>
      </trkpt>
      <trkpt lat="40.416406961" lon="-0.197831020">
        <ele>898.000000</ele>
      </trkpt>
      <trkpt lat="40.416906020" lon="-0.197222997">
        <ele>903.000000</ele>
      </trkpt>
      <trkpt lat="40.417040968" lon="-0.196171990">
        <ele>894.000000</ele>
      </trkpt>
      <trkpt lat="40.417083967" lon="-0.195768988">
        <ele>892.000000</ele>
      </trkpt>
      <trkpt lat="40.417028982" lon="-0.195364980">
        <ele>889.000000</ele>
      </trkpt>
      <trkpt lat="40.416980032" lon="-0.195082007">
        <ele>890.000000</ele>
      </trkpt>
      <trkpt lat="40.416764030" lon="-0.194840021">
        <ele>889.000000</ele>
      </trkpt>
      <trkpt lat="40.416032039" lon="-0.193878030">
        <ele>887.000000</ele>
      </trkpt>
      <trkpt lat="40.415218994" lon="-0.192997009">
        <ele>885.000000</ele>
      </trkpt>
      <trkpt lat="40.415010033" lon="-0.192842027">
        <ele>886.000000</ele>
      </trkpt>
      <trkpt lat="40.414252980" lon="-0.192665001">
        <ele>884.000000</ele>
      </trkpt>
      <trkpt lat="40.413550995" lon="-0.192551007">
        <ele>881.000000</ele>
      </trkpt>
      <trkpt lat="40.413108012" lon="-0.192455035">
        <ele>880.000000</ele>
      </trkpt>
      <trkpt lat="40.412825039" lon="-0.192423016">
        <ele>881.000000</ele>
      </trkpt>
      <trkpt lat="40.412640972" lon="-0.192470038">
        <ele>882.000000</ele>
      </trkpt>
      <trkpt lat="40.412320029" lon="-0.192867005">
        <ele>881.000000</ele>
      </trkpt>
      <trkpt lat="40.411778977" lon="-0.193464970">
        <ele>872.000000</ele>
      </trkpt>
      <trkpt lat="40.411476977" lon="-0.193643002">
        <ele>867.000000</ele>
      </trkpt>
      <trkpt lat="40.411218982" lon="-0.193707040">
        <ele>864.000000</ele>
      </trkpt>
      <trkpt lat="40.410959981" lon="-0.193707040">
        <ele>860.000000</ele>
      </trkpt>
      <trkpt lat="40.410731994" lon="-0.193546023">
        <ele>860.000000</ele>
      </trkpt>
      <trkpt lat="40.410516998" lon="-0.193343014">
        <ele>859.000000</ele>
      </trkpt>
      <trkpt lat="40.410203012" lon="-0.192446988">
        <ele>863.000000</ele>
      </trkpt>
      <trkpt lat="40.409988016" lon="-0.192187987">
        <ele>860.000000</ele>
      </trkpt>
      <trkpt lat="40.409691967" lon="-0.191736035">
        <ele>857.000000</ele>
      </trkpt>
      <trkpt lat="40.409631031" lon="-0.191347031">
        <ele>859.000000</ele>
      </trkpt>
      <trkpt lat="40.409674030" lon="-0.190821989">
        <ele>862.000000</ele>
      </trkpt>
      <trkpt lat="40.409871005" lon="-0.190401971">
        <ele>868.000000</ele>
      </trkpt>
      <trkpt lat="40.410043001" lon="-0.189997964">
        <ele>873.000000</ele>
      </trkpt>
      <trkpt lat="40.410105027" lon="-0.189731000">
        <ele>874.000000</ele>
      </trkpt>
      <trkpt lat="40.410062028" lon="-0.189448027">
        <ele>875.000000</ele>
      </trkpt>
      <trkpt lat="40.409914004" lon="-0.189309977">
        <ele>875.000000</ele>
      </trkpt>
      <trkpt lat="40.409661038" lon="-0.189350965">
        <ele>871.000000</ele>
      </trkpt>
      <trkpt lat="40.409268010" lon="-0.189455990">
        <ele>867.000000</ele>
      </trkpt>
      <trkpt lat="40.408898033" lon="-0.189439980">
        <ele>866.000000</ele>
      </trkpt>
      <trkpt lat="40.408652024" lon="-0.189341996">
        <ele>866.000000</ele>
      </trkpt>
      <trkpt lat="40.408461001" lon="-0.189236971">
        <ele>865.000000</ele>
      </trkpt>
      <trkpt lat="40.408332003" lon="-0.188962966">
        <ele>866.000000</ele>
      </trkpt>
      <trkpt lat="40.408351030" lon="-0.188647974">
        <ele>868.000000</ele>
      </trkpt>
      <trkpt lat="40.408540964" lon="-0.187312989">
        <ele>875.000000</ele>
      </trkpt>
      <trkpt lat="40.408479022" lon="-0.187021969">
        <ele>875.000000</ele>
      </trkpt>
      <trkpt lat="40.408312976" lon="-0.186804039">
        <ele>875.000000</ele>
      </trkpt>
      <trkpt lat="40.407950040" lon="-0.186617961">
        <ele>872.000000</ele>
      </trkpt>
      <trkpt lat="40.407083016" lon="-0.186189981">
        <ele>872.000000</ele>
      </trkpt>
      <trkpt lat="40.406910013" lon="-0.186093003">
        <ele>872.000000</ele>
      </trkpt>
      <trkpt lat="40.406802977" lon="-0.185926035">
        <ele>872.000000</ele>
      </trkpt>
      <trkpt lat="40.406541964" lon="-0.184802022">
        <ele>867.000000</ele>
      </trkpt>
      <trkpt lat="40.406408021" lon="-0.184277985">
        <ele>864.000000</ele>
      </trkpt>
      <trkpt lat="40.406358987" lon="-0.183950001">
        <ele>861.000000</ele>
      </trkpt>
      <trkpt lat="40.406419002" lon="-0.183683960">
        <ele>859.000000</ele>
      </trkpt>
      <trkpt lat="40.406615976" lon="-0.183258997">
        <ele>857.000000</ele>
      </trkpt>
      <trkpt lat="40.406871960" lon="-0.182787012">
        <ele>853.000000</ele>
      </trkpt>
      <trkpt lat="40.407451987" lon="-0.182522982">
        <ele>853.000000</ele>
      </trkpt>
      <trkpt lat="40.407505967" lon="-0.182379987">
        <ele>852.000000</ele>
      </trkpt>
      <trkpt lat="40.407431033" lon="-0.182141019">
        <ele>850.000000</ele>
      </trkpt>
      <trkpt lat="40.407289965" lon="-0.182038005">
        <ele>849.000000</ele>
      </trkpt>
      <trkpt lat="40.406119013" lon="-0.181851005">
        <ele>844.000000</ele>
      </trkpt>
      <trkpt lat="40.405731015" lon="-0.181759978">
        <ele>844.000000</ele>
      </trkpt>
      <trkpt lat="40.405494981" lon="-0.181522015">
        <ele>841.000000</ele>
      </trkpt>
      <trkpt lat="40.404895004" lon="-0.180675024">
        <ele>836.000000</ele>
      </trkpt>
      <trkpt lat="40.404515974" lon="-0.179964993">
        <ele>827.000000</ele>
      </trkpt>
      <trkpt lat="40.404259991" lon="-0.179222021">
        <ele>818.000000</ele>
      </trkpt>
      <trkpt lat="40.403995039" lon="-0.178576028">
        <ele>811.000000</ele>
      </trkpt>
      <trkpt lat="40.403906023" lon="-0.178239997">
        <ele>807.000000</ele>
      </trkpt>
      <trkpt lat="40.403895965" lon="-0.177878989">
        <ele>804.000000</ele>
      </trkpt>
      <trkpt lat="40.403915998" lon="-0.177284041">
        <ele>802.000000</ele>
      </trkpt>
      <trkpt lat="40.404102998" lon="-0.176761011">
        <ele>801.000000</ele>
      </trkpt>
      <trkpt lat="40.404461995" lon="-0.176101020">
        <ele>800.000000</ele>
      </trkpt>
      <trkpt lat="40.404683026" lon="-0.175630962">
        <ele>797.000000</ele>
      </trkpt>
      <trkpt lat="40.404864997" lon="-0.175483022">
        <ele>796.000000</ele>
      </trkpt>
      <trkpt lat="40.405351985" lon="-0.175430970">
        <ele>799.000000</ele>
      </trkpt>
      <trkpt lat="40.405538986" lon="-0.175255034">
        <ele>796.000000</ele>
      </trkpt>
      <trkpt lat="40.405695979" lon="-0.175029980">
        <ele>792.000000</ele>
      </trkpt>
      <trkpt lat="40.405731015" lon="-0.174816996">
        <ele>789.000000</ele>
      </trkpt>
      <trkpt lat="40.405710982" lon="-0.174538968">
        <ele>786.000000</ele>
      </trkpt>
      <trkpt lat="40.405534040" lon="-0.174235040">
        <ele>784.000000</ele>
      </trkpt>
      <trkpt lat="40.404087994" lon="-0.171464989">
        <ele>789.000000</ele>
      </trkpt>
      <trkpt lat="40.402150014" lon="-0.167771000">
        <ele>793.000000</ele>
      </trkpt>
      <trkpt lat="40.401343005" lon="-0.166194029">
        <ele>801.000000</ele>
      </trkpt>
      <trkpt lat="40.400919970" lon="-0.165516017">
        <ele>801.000000</ele>
      </trkpt>
      <trkpt lat="40.399317015" lon="-0.163203031">
        <ele>818.000000</ele>
      </trkpt>
      <trkpt lat="40.398584018" lon="-0.162183959">
        <ele>822.000000</ele>
      </trkpt>
      <trkpt lat="40.398299033" lon="-0.161848012">
        <ele>822.000000</ele>
      </trkpt>
      <trkpt lat="40.398053024" lon="-0.161679033">
        <ele>822.000000</ele>
      </trkpt>
      <trkpt lat="40.397752030" lon="-0.161564033">
        <ele>821.000000</ele>
      </trkpt>
      <trkpt lat="40.397471990" lon="-0.161556993">
        <ele>819.000000</ele>
      </trkpt>
      <trkpt lat="40.395249026" lon="-0.161930993">
        <ele>799.000000</ele>
      </trkpt>
      <trkpt lat="40.394333974" lon="-0.162099972">
        <ele>798.000000</ele>
      </trkpt>
      <trkpt lat="40.394058963" lon="-0.162183959">
        <ele>799.000000</ele>
      </trkpt>
      <trkpt lat="40.392951965" lon="-0.162835987">
        <ele>795.000000</ele>
      </trkpt>
      <trkpt lat="40.392617024" lon="-0.162958028">
        <ele>797.000000</ele>
      </trkpt>
      <trkpt lat="40.392478975" lon="-0.162958028">
        <ele>798.000000</ele>
      </trkpt>
      <trkpt lat="40.391869023" lon="-0.162893990">
        <ele>804.000000</ele>
      </trkpt>
      <trkpt lat="40.391683029" lon="-0.163008990">
        <ele>803.000000</ele>
      </trkpt>
      <trkpt lat="40.391520001" lon="-0.163209988">
        <ele>800.000000</ele>
      </trkpt>
      <trkpt lat="40.391368037" lon="-0.163378967">
        <ele>798.000000</ele>
      </trkpt>
      <trkpt lat="40.391200986" lon="-0.163422972">
        <ele>798.000000</ele>
      </trkpt>
      <trkpt lat="40.390929999" lon="-0.163410986">
        <ele>797.000000</ele>
      </trkpt>
      <trkpt lat="40.390580976" lon="-0.163319958">
        <ele>798.000000</ele>
      </trkpt>
      <trkpt lat="40.390181998" lon="-0.163088031">
        <ele>800.000000</ele>
      </trkpt>
      <trkpt lat="40.389807997" lon="-0.162829030">
        <ele>800.000000</ele>
      </trkpt>
      <trkpt lat="40.389630971" lon="-0.162597019">
        <ele>799.000000</ele>
      </trkpt>
      <trkpt lat="40.389502980" lon="-0.162299965">
        <ele>800.000000</ele>
      </trkpt>
      <trkpt lat="40.389498034" lon="-0.161893023">
        <ele>802.000000</ele>
      </trkpt>
      <trkpt lat="40.389567018" lon="-0.161440987">
        <ele>805.000000</ele>
      </trkpt>
      <trkpt lat="40.389547991" lon="-0.161194978">
        <ele>807.000000</ele>
      </trkpt>
      <trkpt lat="40.389479008" lon="-0.160989035">
        <ele>809.000000</ele>
      </trkpt>
      <trkpt lat="40.389329977" lon="-0.160860037">
        <ele>810.000000</ele>
      </trkpt>
      <trkpt lat="40.388146034" lon="-0.160458963">
        <ele>813.000000</ele>
      </trkpt>
      <trkpt lat="40.387787037" lon="-0.160360979">
        <ele>816.000000</ele>
      </trkpt>
      <trkpt lat="40.387471961" lon="-0.160330972">
        <ele>821.000000</ele>
      </trkpt>
      <trkpt lat="40.387204997" lon="-0.160330972">
        <ele>824.000000</ele>
      </trkpt>
      <trkpt lat="40.387048004" lon="-0.160356034">
        <ele>826.000000</ele>
      </trkpt>
      <trkpt lat="40.386949014" lon="-0.160463993">
        <ele>827.000000</ele>
      </trkpt>
      <trkpt lat="40.386854969" lon="-0.160610005">
        <ele>827.000000</ele>
      </trkpt>
      <trkpt lat="40.386795960" lon="-0.160805974">
        <ele>827.000000</ele>
      </trkpt>
      <trkpt lat="40.386775006" lon="-0.161017030">
        <ele>826.000000</ele>
      </trkpt>
      <trkpt lat="40.386752961" lon="-0.161507959">
        <ele>822.000000</ele>
      </trkpt>
      <trkpt lat="40.386709962" lon="-0.161682973">
        <ele>821.000000</ele>
      </trkpt>
      <trkpt lat="40.386614995" lon="-0.161898974">
        <ele>819.000000</ele>
      </trkpt>
      <trkpt lat="40.386492033" lon="-0.161985978">
        <ele>818.000000</ele>
      </trkpt>
      <trkpt lat="40.386324981" lon="-0.162057979">
        <ele>817.000000</ele>
      </trkpt>
      <trkpt lat="40.385577986" lon="-0.162038030">
        <ele>820.000000</ele>
      </trkpt>
      <trkpt lat="40.385224018" lon="-0.161982039">
        <ele>821.000000</ele>
      </trkpt>
      <trkpt lat="40.385051016" lon="-0.161929987">
        <ele>821.000000</ele>
      </trkpt>
      <trkpt lat="40.384911038" lon="-0.161839966">
        <ele>821.000000</ele>
      </trkpt>
      <trkpt lat="40.384650026" lon="-0.161459008">
        <ele>823.000000</ele>
      </trkpt>
      <trkpt lat="40.384184998" lon="-0.160693992">
        <ele>828.000000</ele>
      </trkpt>
      <trkpt lat="40.384145016" lon="-0.160443960">
        <ele>829.000000</ele>
      </trkpt>
      <trkpt lat="40.384206958" lon="-0.160164004">
        <ele>829.000000</ele>
      </trkpt>
      <trkpt lat="40.384389013" lon="-0.159916990">
        <ele>830.000000</ele>
      </trkpt>
      <trkpt lat="40.384772988" lon="-0.159454979">
        <ele>832.000000</ele>
      </trkpt>
      <trkpt lat="40.384868039" lon="-0.159293963">
        <ele>831.000000</ele>
      </trkpt>
      <trkpt lat="40.384880025" lon="-0.159102017">
        <ele>830.000000</ele>
      </trkpt>
      <trkpt lat="40.384857981" lon="-0.158869000">
        <ele>827.000000</ele>
      </trkpt>
      <trkpt lat="40.384735018" lon="-0.158743020">
        <ele>825.000000</ele>
      </trkpt>
      <trkpt lat="40.384574002" lon="-0.158634977">
        <ele>825.000000</ele>
      </trkpt>
      <trkpt lat="40.384358000" lon="-0.158569012">
        <ele>825.000000</ele>
      </trkpt>
      <trkpt lat="40.383789036" lon="-0.158476979">
        <ele>825.000000</ele>
      </trkpt>
      <trkpt lat="40.383427022" lon="-0.158374971">
        <ele>822.000000</ele>
      </trkpt>
      <trkpt lat="40.383200962" lon="-0.158269024">
        <ele>820.000000</ele>
      </trkpt>
      <trkpt lat="40.382908015" lon="-0.158044975">
        <ele>819.000000</ele>
      </trkpt>
      <trkpt lat="40.382671980" lon="-0.157797961">
        <ele>819.000000</ele>
      </trkpt>
      <trkpt lat="40.382479029" lon="-0.157711040">
        <ele>818.000000</ele>
      </trkpt>
      <trkpt lat="40.382248024" lon="-0.157676004">
        <ele>815.000000</ele>
      </trkpt>
      <trkpt lat="40.381992040" lon="-0.157585982">
        <ele>813.000000</ele>
      </trkpt>
      <trkpt lat="40.381831024" lon="-0.157453967">
        <ele>812.000000</ele>
      </trkpt>
      <trkpt lat="40.381741002" lon="-0.157304015">
        <ele>813.000000</ele>
      </trkpt>
      <trkpt lat="40.381672019" lon="-0.157060018">
        <ele>814.000000</ele>
      </trkpt>
      <trkpt lat="40.381613011" lon="-0.156608988">
        <ele>815.000000</ele>
      </trkpt>
      <trkpt lat="40.381543022" lon="-0.156390974">
        <ele>814.000000</ele>
      </trkpt>
      <trkpt lat="40.381329032" lon="-0.156031977">
        <ele>812.000000</ele>
      </trkpt>
      <trkpt lat="40.381077994" lon="-0.155728972">
        <ele>810.000000</ele>
      </trkpt>
      <trkpt lat="40.380923012" lon="-0.155510958">
        <ele>809.000000</ele>
      </trkpt>
      <trkpt lat="40.380771970" lon="-0.155154979">
        <ele>809.000000</ele>
      </trkpt>
      <trkpt lat="40.380397970" lon="-0.154173961">
        <ele>808.000000</ele>
      </trkpt>
      <trkpt lat="40.380226979" lon="-0.153663000">
        <ele>807.000000</ele>
      </trkpt>
      <trkpt lat="40.379951969" lon="-0.151912021">
        <ele>810.000000</ele>
      </trkpt>
      <trkpt lat="40.379893966" lon="-0.151447998">
        <ele>812.000000</ele>
      </trkpt>
      <trkpt lat="40.379901007" lon="-0.151168965">
        <ele>813.000000</ele>
      </trkpt>
      <trkpt lat="40.379964039" lon="-0.151009960">
        <ele>814.000000</ele>
      </trkpt>
      <trkpt lat="40.380090019" lon="-0.150876017">
        <ele>815.000000</ele>
      </trkpt>
      <trkpt lat="40.380880013" lon="-0.150354998">
        <ele>825.000000</ele>
      </trkpt>
      <trkpt lat="40.381729016" lon="-0.149974963">
        <ele>831.000000</ele>
      </trkpt>
      <trkpt lat="40.381842004" lon="-0.149848983">
        <ele>830.000000</ele>
      </trkpt>
      <trkpt lat="40.382021042" lon="-0.149512030">
        <ele>827.000000</ele>
      </trkpt>
      <trkpt lat="40.382170994" lon="-0.149146998">
        <ele>826.000000</ele>
      </trkpt>
      <trkpt lat="40.382168982" lon="-0.148958992">
        <ele>824.000000</ele>
      </trkpt>
      <trkpt lat="40.382095976" lon="-0.148804011">
        <ele>821.000000</ele>
      </trkpt>
      <trkpt lat="40.381940994" lon="-0.148556996">
        <ele>822.000000</ele>
      </trkpt>
      <trkpt lat="40.381373037" lon="-0.147700030">
        <ele>827.000000</ele>
      </trkpt>
      <trkpt lat="40.381174972" lon="-0.147285964">
        <ele>829.000000</ele>
      </trkpt>
      <trkpt lat="40.381101966" lon="-0.147024030">
        <ele>830.000000</ele>
      </trkpt>
      <trkpt lat="40.381081011" lon="-0.146805011">
        <ele>830.000000</ele>
      </trkpt>
      <trkpt lat="40.381116970" lon="-0.145535991">
        <ele>833.000000</ele>
      </trkpt>
      <trkpt lat="40.381152006" lon="-0.145198032">
        <ele>834.000000</ele>
      </trkpt>
      <trkpt lat="40.381297013" lon="-0.143273966">
        <ele>839.000000</ele>
      </trkpt>
      <trkpt lat="40.381327020" lon="-0.142544992">
        <ele>841.000000</ele>
      </trkpt>
      <trkpt lat="40.381257031" lon="-0.142170992">
        <ele>842.000000</ele>
      </trkpt>
      <trkpt lat="40.381056033" lon="-0.141636981">
        <ele>842.000000</ele>
      </trkpt>
      <trkpt lat="40.380682033" lon="-0.141016971">
        <ele>841.000000</ele>
      </trkpt>
      <trkpt lat="40.380294034" lon="-0.140672978">
        <ele>839.000000</ele>
      </trkpt>
      <trkpt lat="40.379826995" lon="-0.140146008">
        <ele>835.000000</ele>
      </trkpt>
      <trkpt lat="40.379569000" lon="-0.139948027">
        <ele>833.000000</ele>
      </trkpt>
      <trkpt lat="40.378204007" lon="-0.139899999">
        <ele>835.000000</ele>
      </trkpt>
      <trkpt lat="40.377291972" lon="-0.139845014">
        <ele>842.000000</ele>
      </trkpt>
      <trkpt lat="40.376998018" lon="-0.139802014">
        <ele>844.000000</ele>
      </trkpt>
      <trkpt lat="40.376829961" lon="-0.139661031">
        <ele>847.000000</ele>
      </trkpt>
      <trkpt lat="40.376367029" lon="-0.139088966">
        <ele>854.000000</ele>
      </trkpt>
      <trkpt lat="40.379569000" lon="-0.139948027">
        <ele>833.000000</ele>
      </trkpt>
      <trkpt lat="40.378204007" lon="-0.139899999">
        <ele>835.000000</ele>
      </trkpt>
      <trkpt lat="40.377291972" lon="-0.139845014">
        <ele>842.000000</ele>
      </trkpt>
      <trkpt lat="40.376998018" lon="-0.139802014">
        <ele>844.000000</ele>
      </trkpt>
      <trkpt lat="40.376829961" lon="-0.139661031">
        <ele>847.000000</ele>
      </trkpt>
      <trkpt lat="40.376367029" lon="-0.139088966">
        <ele>854.000000</ele>
      </trkpt>
      <trkpt lat="40.376127977" lon="-0.138733992">
        <ele>858.000000</ele>
      </trkpt>
      <trkpt lat="40.375904012" lon="-0.138549004">
        <ele>858.000000</ele>
      </trkpt>
      <trkpt lat="40.375692034" lon="-0.138525032">
        <ele>860.000000</ele>
      </trkpt>
      <trkpt lat="40.375192976" lon="-0.138525032">
        <ele>865.000000</ele>
      </trkpt>
      <trkpt lat="40.374701964" lon="-0.138555039">
        <ele>870.000000</ele>
      </trkpt>
      <trkpt lat="40.374426031" lon="-0.138507010">
        <ele>874.000000</ele>
      </trkpt>
      <trkpt lat="40.373911969" lon="-0.138249015">
        <ele>881.000000</ele>
      </trkpt>
      <trkpt lat="40.373014016" lon="-0.137793962">
        <ele>886.000000</ele>
      </trkpt>
      <trkpt lat="40.372700030" lon="-0.137769990">
        <ele>887.000000</ele>
      </trkpt>
      <trkpt lat="40.372289987" lon="-0.137812989">
        <ele>890.000000</ele>
      </trkpt>
      <trkpt lat="40.372058982" lon="-0.137893036">
        <ele>891.000000</ele>
      </trkpt>
      <trkpt lat="40.371858990" lon="-0.138069978">
        <ele>895.000000</ele>
      </trkpt>
      <trkpt lat="40.371593032" lon="-0.138335014">
        <ele>899.000000</ele>
      </trkpt>
      <trkpt lat="40.371449031" lon="-0.138399974">
        <ele>899.000000</ele>
      </trkpt>
      <trkpt lat="40.370854000" lon="-0.138469040">
        <ele>901.000000</ele>
      </trkpt>
      <trkpt lat="40.370633975" lon="-0.138604995">
        <ele>903.000000</ele>
      </trkpt>
      <trkpt lat="40.370513024" lon="-0.138690993">
        <ele>904.000000</ele>
      </trkpt>
      <trkpt lat="40.370404981" lon="-0.138702979">
        <ele>905.000000</ele>
      </trkpt>
      <trkpt lat="40.370287970" lon="-0.138593009">
        <ele>906.000000</ele>
      </trkpt>
      <trkpt lat="40.370265003" lon="-0.138304001">
        <ele>905.000000</ele>
      </trkpt>
      <trkpt lat="40.370209012" lon="-0.137377968">
        <ele>906.000000</ele>
      </trkpt>
      <trkpt lat="40.370156961" lon="-0.137298005">
        <ele>907.000000</ele>
      </trkpt>
      <trkpt lat="40.370082026" lon="-0.137265986">
        <ele>908.000000</ele>
      </trkpt>
      <trkpt lat="40.370022012" lon="-0.137291970">
        <ele>909.000000</ele>
      </trkpt>
      <trkpt lat="40.369857978" lon="-0.137769990">
        <ele>913.000000</ele>
      </trkpt>
      <trkpt lat="40.369581962" lon="-0.138316993">
        <ele>920.000000</ele>
      </trkpt>
      <trkpt lat="40.369348023" lon="-0.138697028">
        <ele>926.000000</ele>
      </trkpt>
      <trkpt lat="40.369282980" lon="-0.138923004">
        <ele>927.000000</ele>
      </trkpt>
      <trkpt lat="40.369282980" lon="-0.139145041">
        <ele>928.000000</ele>
      </trkpt>
      <trkpt lat="40.369292032" lon="-0.139936041">
        <ele>931.000000</ele>
      </trkpt>
      <trkpt lat="40.369274011" lon="-0.140157994">
        <ele>932.000000</ele>
      </trkpt>
      <trkpt lat="40.369207961" lon="-0.140280034">
        <ele>934.000000</ele>
      </trkpt>
      <trkpt lat="40.369105032" lon="-0.140341977">
        <ele>936.000000</ele>
      </trkpt>
      <trkpt lat="40.368983997" lon="-0.140255978">
        <ele>937.000000</ele>
      </trkpt>
      <trkpt lat="40.368932029" lon="-0.140040983">
        <ele>937.000000</ele>
      </trkpt>
      <trkpt lat="40.368707981" lon="-0.139654996">
        <ele>940.000000</ele>
      </trkpt>
      <trkpt lat="40.368447974" lon="-0.139106987">
        <ele>947.000000</ele>
      </trkpt>
      <trkpt lat="40.368417967" lon="-0.138997016">
        <ele>948.000000</ele>
      </trkpt>
      <trkpt lat="40.368378991" lon="-0.138627039">
        <ele>950.000000</ele>
      </trkpt>
      <trkpt lat="40.368272960" lon="-0.137450974">
        <ele>955.000000</ele>
      </trkpt>
      <trkpt lat="40.368228033" lon="-0.137177976">
        <ele>956.000000</ele>
      </trkpt>
      <trkpt lat="40.368139017" lon="-0.137155009">
        <ele>958.000000</ele>
      </trkpt>
      <trkpt lat="40.368085960" lon="-0.137189962">
        <ele>960.000000</ele>
      </trkpt>
      <trkpt lat="40.368061988" lon="-0.137275960">
        <ele>960.000000</ele>
      </trkpt>
      <trkpt lat="40.368053019" lon="-0.138018010">
        <ele>962.000000</ele>
      </trkpt>
      <trkpt lat="40.368001973" lon="-0.138227977">
        <ele>963.000000</ele>
      </trkpt>
      <trkpt lat="40.367824025" lon="-0.138617987">
        <ele>966.000000</ele>
      </trkpt>
      <trkpt lat="40.367742972" lon="-0.138838012">
        <ele>968.000000</ele>
      </trkpt>
      <trkpt lat="40.367693016" lon="-0.139056025">
        <ele>970.000000</ele>
      </trkpt>
      <trkpt lat="40.367614981" lon="-0.139231961">
        <ele>973.000000</ele>
      </trkpt>
      <trkpt lat="40.367513979" lon="-0.139412005">
        <ele>976.000000</ele>
      </trkpt>
      <trkpt lat="40.367491012" lon="-0.139961019">
        <ele>978.000000</ele>
      </trkpt>
      <trkpt lat="40.367270987" lon="-0.140794013">
        <ele>983.000000</ele>
      </trkpt>
      <trkpt lat="40.367246009" lon="-0.141015965">
        <ele>981.000000</ele>
      </trkpt>
      <trkpt lat="40.367326979" lon="-0.141238002">
        <ele>978.000000</ele>
      </trkpt>
      <trkpt lat="40.367457988" lon="-0.141498009">
        <ele>975.000000</ele>
      </trkpt>
      <trkpt lat="40.367553961" lon="-0.141984997">
        <ele>971.000000</ele>
      </trkpt>
      <trkpt lat="40.367576005" lon="-0.142196976">
        <ele>970.000000</ele>
      </trkpt>
      <trkpt lat="40.367510039" lon="-0.142318010">
        <ele>968.000000</ele>
      </trkpt>
      <trkpt lat="40.367419012" lon="-0.142366039">
        <ele>967.000000</ele>
      </trkpt>
      <trkpt lat="40.367345000" lon="-0.142366039">
        <ele>966.000000</ele>
      </trkpt>
      <trkpt lat="40.367241986" lon="-0.142352041">
        <ele>965.000000</ele>
      </trkpt>
      <trkpt lat="40.367062027" lon="-0.142192030">
        <ele>966.000000</ele>
      </trkpt>
      <trkpt lat="40.366921965" lon="-0.142115001">
        <ele>969.000000</ele>
      </trkpt>
      <trkpt lat="40.366764972" lon="-0.142043000">
        <ele>971.000000</ele>
      </trkpt>
      <trkpt lat="40.366550982" lon="-0.142043000">
        <ele>973.000000</ele>
      </trkpt>
      <trkpt lat="40.366319977" lon="-0.142115001">
        <ele>974.000000</ele>
      </trkpt>
      <trkpt lat="40.366091989" lon="-0.142260008">
        <ele>977.000000</ele>
      </trkpt>
      <trkpt lat="40.365736010" lon="-0.142969033">
        <ele>974.000000</ele>
      </trkpt>
      <trkpt lat="40.365515985" lon="-0.143551994">
        <ele>972.000000</ele>
      </trkpt>
      <trkpt lat="40.365355974" lon="-0.143923983">
        <ele>972.000000</ele>
      </trkpt>
      <trkpt lat="40.365258995" lon="-0.144435028">
        <ele>971.000000</ele>
      </trkpt>
      <trkpt lat="40.365141984" lon="-0.145302974">
        <ele>968.000000</ele>
      </trkpt>
      <trkpt lat="40.365071995" lon="-0.145705976">
        <ele>966.000000</ele>
      </trkpt>
      <trkpt lat="40.364903016" lon="-0.146075031">
        <ele>967.000000</ele>
      </trkpt>
      <trkpt lat="40.364720961" lon="-0.146273011">
        <ele>969.000000</ele>
      </trkpt>
      <trkpt lat="40.364560029" lon="-0.146492030">
        <ele>973.000000</ele>
      </trkpt>
      <trkpt lat="40.364495991" lon="-0.146651035">
        <ele>975.000000</ele>
      </trkpt>
      <trkpt lat="40.364451986" lon="-0.146839041">
        <ele>976.000000</ele>
      </trkpt>
      <trkpt lat="40.364429019" lon="-0.147129977">
        <ele>976.000000</ele>
      </trkpt>
      <trkpt lat="40.364431031" lon="-0.147613026">
        <ele>974.000000</ele>
      </trkpt>
      <trkpt lat="40.364446035" lon="-0.147981998">
        <ele>971.000000</ele>
      </trkpt>
      <trkpt lat="40.364317037" lon="-0.148968967">
        <ele>969.000000</ele>
      </trkpt>
      <trkpt lat="40.364271021" lon="-0.149244983">
        <ele>970.000000</ele>
      </trkpt>
      <trkpt lat="40.364271021" lon="-0.149524016">
        <ele>969.000000</ele>
      </trkpt>
      <trkpt lat="40.364300022" lon="-0.149883013">
        <ele>966.000000</ele>
      </trkpt>
      <trkpt lat="40.364309996" lon="-0.150552979">
        <ele>960.000000</ele>
      </trkpt>
      <trkpt lat="40.364289042" lon="-0.151066035">
        <ele>955.000000</ele>
      </trkpt>
      <trkpt lat="40.364244031" lon="-0.151371974">
        <ele>952.000000</ele>
      </trkpt>
      <trkpt lat="40.364169013" lon="-0.151544977">
        <ele>951.000000</ele>
      </trkpt>
      <trkpt lat="40.364062982" lon="-0.151677998">
        <ele>949.000000</ele>
      </trkpt>
      <trkpt lat="40.363627961" lon="-0.151931969">
        <ele>947.000000</ele>
      </trkpt>
      <trkpt lat="40.362946009" lon="-0.152281998">
        <ele>947.000000</ele>
      </trkpt>
      <trkpt lat="40.362501014" lon="-0.152573017">
        <ele>946.000000</ele>
      </trkpt>
      <trkpt lat="40.361852003" lon="-0.153043997">
        <ele>936.000000</ele>
      </trkpt>
      <trkpt lat="40.361593002" lon="-0.153181963">
        <ele>932.000000</ele>
      </trkpt>
      <trkpt lat="40.361312041" lon="-0.153263016">
        <ele>929.000000</ele>
      </trkpt>
      <trkpt lat="40.361038037" lon="-0.153263016">
        <ele>925.000000</ele>
      </trkpt>
      <trkpt lat="40.360866962" lon="-0.153206019">
        <ele>923.000000</ele>
      </trkpt>
      <trkpt lat="40.360756991" lon="-0.153067969">
        <ele>924.000000</ele>
      </trkpt>
      <trkpt lat="40.360654984" lon="-0.152747026">
        <ele>930.000000</ele>
      </trkpt>
      <trkpt lat="40.360541996" lon="-0.152316028">
        <ele>937.000000</ele>
      </trkpt>
      <trkpt lat="40.360476030" lon="-0.152117964">
        <ele>940.000000</ele>
      </trkpt>
      <trkpt lat="40.360414004" lon="-0.152031966">
        <ele>940.000000</ele>
      </trkpt>
      <trkpt lat="40.360290036" lon="-0.152024003">
        <ele>941.000000</ele>
      </trkpt>
      <trkpt lat="40.359987030" lon="-0.152075971">
        <ele>940.000000</ele>
      </trkpt>
      <trkpt lat="40.359154958" lon="-0.152287027">
        <ele>934.000000</ele>
      </trkpt>
      <trkpt lat="40.358913979" lon="-0.152301025">
        <ele>932.000000</ele>
      </trkpt>
      <trkpt lat="40.358604016" lon="-0.152233969">
        <ele>934.000000</ele>
      </trkpt>
      <trkpt lat="40.358290030" lon="-0.152117964">
        <ele>939.000000</ele>
      </trkpt>
      <trkpt lat="40.358028011" lon="-0.152086029">
        <ele>942.000000</ele>
      </trkpt>
      <trkpt lat="40.357760964" lon="-0.152117964">
        <ele>947.000000</ele>
      </trkpt>
      <trkpt lat="40.357539011" lon="-0.152201029">
        <ele>953.000000</ele>
      </trkpt>
      <trkpt lat="40.357429041" lon="-0.152291972">
        <ele>956.000000</ele>
      </trkpt>
      <trkpt lat="40.357363997" lon="-0.152431028">
        <ele>955.000000</ele>
      </trkpt>
      <trkpt lat="40.357327033" lon="-0.152703021">
        <ele>952.000000</ele>
      </trkpt>
      <trkpt lat="40.357213961" lon="-0.153746987">
        <ele>941.000000</ele>
      </trkpt>
      <trkpt lat="40.357144978" lon="-0.153890988">
        <ele>941.000000</ele>
      </trkpt>
      <trkpt lat="40.356940040" lon="-0.154000958">
        <ele>944.000000</ele>
      </trkpt>
      <trkpt lat="40.356652038" lon="-0.154126016">
        <ele>948.000000</ele>
      </trkpt>
      <trkpt lat="40.356480042" lon="-0.154255014">
        <ele>950.000000</ele>
      </trkpt>
      <trkpt lat="40.356334029" lon="-0.154436985">
        <ele>952.000000</ele>
      </trkpt>
      <trkpt lat="40.356243001" lon="-0.154619040">
        <ele>954.000000</ele>
      </trkpt>
      <trkpt lat="40.356231015" lon="-0.154806040">
        <ele>954.000000</ele>
      </trkpt>
      <trkpt lat="40.356355989" lon="-0.155720003">
        <ele>951.000000</ele>
      </trkpt>
      <trkpt lat="40.356465960" lon="-0.156897996">
        <ele>945.000000</ele>
      </trkpt>
      <trkpt lat="40.356425978" lon="-0.157119026">
        <ele>945.000000</ele>
      </trkpt>
      <trkpt lat="40.356195979" lon="-0.157625042">
        <ele>943.000000</ele>
      </trkpt>
      <trkpt lat="40.356075028" lon="-0.157802990">
        <ele>941.000000</ele>
      </trkpt>
      <trkpt lat="40.355915017" lon="-0.158018991">
        <ele>938.000000</ele>
      </trkpt>
      <trkpt lat="40.355779985" lon="-0.158128040">
        <ele>936.000000</ele>
      </trkpt>
      <trkpt lat="40.355589967" lon="-0.158171039">
        <ele>936.000000</ele>
      </trkpt>
      <trkpt lat="40.355324009" lon="-0.158171039">
        <ele>935.000000</ele>
      </trkpt>
      <trkpt lat="40.354565028" lon="-0.158085041">
        <ele>935.000000</ele>
      </trkpt>
      <trkpt lat="40.354203014" lon="-0.158024020">
        <ele>933.000000</ele>
      </trkpt>
      <trkpt lat="40.353974020" lon="-0.157946991">
        <ele>932.000000</ele>
      </trkpt>
      <trkpt lat="40.353747038" lon="-0.157755967">
        <ele>932.000000</ele>
      </trkpt>
      <trkpt lat="40.353412014" lon="-0.157313989">
        <ele>931.000000</ele>
      </trkpt>
      <trkpt lat="40.353215039" lon="-0.157079967">
        <ele>930.000000</ele>
      </trkpt>
      <trkpt lat="40.352996020" lon="-0.156645030">
        <ele>930.000000</ele>
      </trkpt>
      <trkpt lat="40.352827962" lon="-0.156088974">
        <ele>930.000000</ele>
      </trkpt>
      <trkpt lat="40.352755040" lon="-0.155792003">
        <ele>929.000000</ele>
      </trkpt>
      <trkpt lat="40.352743976" lon="-0.155606009">
        <ele>928.000000</ele>
      </trkpt>
      <trkpt lat="40.352801979" lon="-0.155404005">
        <ele>929.000000</ele>
      </trkpt>
      <trkpt lat="40.353235994" lon="-0.154550979">
        <ele>930.000000</ele>
      </trkpt>
      <trkpt lat="40.353407990" lon="-0.154313017">
        <ele>932.000000</ele>
      </trkpt>
      <trkpt lat="40.353575964" lon="-0.154134985">
        <ele>935.000000</ele>
      </trkpt>
      <trkpt lat="40.353627009" lon="-0.154000958">
        <ele>935.000000</ele>
      </trkpt>
      <trkpt lat="40.353608988" lon="-0.153842038">
        <ele>933.000000</ele>
      </trkpt>
      <trkpt lat="40.353509998" lon="-0.153785963">
        <ele>931.000000</ele>
      </trkpt>
      <trkpt lat="40.353159970" lon="-0.153790992">
        <ele>925.000000</ele>
      </trkpt>
      <trkpt lat="40.352243995" lon="-0.153804990">
        <ele>909.000000</ele>
      </trkpt>
      <trkpt lat="40.351930009" lon="-0.153718991">
        <ele>904.000000</ele>
      </trkpt>
      <trkpt lat="40.351794977" lon="-0.153598040">
        <ele>902.000000</ele>
      </trkpt>
      <trkpt lat="40.351754995" lon="-0.153397964">
        <ele>903.000000</ele>
      </trkpt>
      <trkpt lat="40.351729011" lon="-0.152951963">
        <ele>908.000000</ele>
      </trkpt>
      <trkpt lat="40.351762036" lon="-0.152683994">
        <ele>910.000000</ele>
      </trkpt>
      <trkpt lat="40.351841999" lon="-0.152445026">
        <ele>913.000000</ele>
      </trkpt>
      <trkpt lat="40.352076022" lon="-0.151277008">
        <ele>918.000000</ele>
      </trkpt>
      <trkpt lat="40.352097983" lon="-0.150782978">
        <ele>919.000000</ele>
      </trkpt>
      <trkpt lat="40.352152968" lon="-0.150552979">
        <ele>921.000000</ele>
      </trkpt>
      <trkpt lat="40.352268973" lon="-0.150337983">
        <ele>924.000000</ele>
      </trkpt>
      <trkpt lat="40.352375004" lon="-0.150118042">
        <ele>928.000000</ele>
      </trkpt>
      <trkpt lat="40.352382967" lon="-0.150002958">
        <ele>928.000000</ele>
      </trkpt>
      <trkpt lat="40.352306021" lon="-0.149912015">
        <ele>928.000000</ele>
      </trkpt>
      <trkpt lat="40.352193033" lon="-0.149873039">
        <ele>928.000000</ele>
      </trkpt>
      <trkpt lat="40.351788020" lon="-0.150084011">
        <ele>929.000000</ele>
      </trkpt>
      <trkpt lat="40.351619963" lon="-0.150290038">
        <ele>930.000000</ele>
      </trkpt>
      <trkpt lat="40.351418965" lon="-0.150720030">
        <ele>928.000000</ele>
      </trkpt>
      <trkpt lat="40.351244034" lon="-0.151156979">
        <ele>922.000000</ele>
      </trkpt>
      <trkpt lat="40.351048987" lon="-0.151539026">
        <ele>919.000000</ele>
      </trkpt>
      <trkpt lat="40.350912027" lon="-0.151770031">
        <ele>918.000000</ele>
      </trkpt>
      <trkpt lat="40.350755034" lon="-0.151966000">
        <ele>919.000000</ele>
      </trkpt>
      <trkpt lat="40.350655960" lon="-0.152151994">
        <ele>919.000000</ele>
      </trkpt>
      <trkpt lat="40.350517994" lon="-0.152511997">
        <ele>917.000000</ele>
      </trkpt>
      <trkpt lat="40.350181963" lon="-0.153095964">
        <ele>915.000000</ele>
      </trkpt>
      <trkpt lat="40.349163981" lon="-0.154604958">
        <ele>914.000000</ele>
      </trkpt>
      <trkpt lat="40.348977987" lon="-0.154729011">
        <ele>916.000000</ele>
      </trkpt>
      <trkpt lat="40.348316990" lon="-0.154950041">
        <ele>919.000000</ele>
      </trkpt>
      <trkpt lat="40.346784024" lon="-0.155356983">
        <ele>921.000000</ele>
      </trkpt>
      <trkpt lat="40.346554024" lon="-0.155384978">
        <ele>921.000000</ele>
      </trkpt>
      <trkpt lat="40.346379010" lon="-0.155369975">
        <ele>921.000000</ele>
      </trkpt>
      <trkpt lat="40.346197039" lon="-0.155304009">
        <ele>922.000000</ele>
      </trkpt>
      <trkpt lat="40.345637966" lon="-0.154892039">
        <ele>928.000000</ele>
      </trkpt>
      <trkpt lat="40.345506035" lon="-0.154819032">
        <ele>930.000000</ele>
      </trkpt>
      <trkpt lat="40.345386006" lon="-0.154791037">
        <ele>930.000000</ele>
      </trkpt>
      <trkpt lat="40.345225995" lon="-0.154835042">
        <ele>931.000000</ele>
      </trkpt>
      <trkpt lat="40.344974035" lon="-0.154945012">
        <ele>932.000000</ele>
      </trkpt>
      <trkpt lat="40.344141964" lon="-0.155390007">
        <ele>940.000000</ele>
      </trkpt>
      <trkpt lat="40.343999974" lon="-0.155490004">
        <ele>941.000000</ele>
      </trkpt>
      <trkpt lat="40.343904002" lon="-0.155625036">
        <ele>942.000000</ele>
      </trkpt>
      <trkpt lat="40.343670985" lon="-0.156246973">
        <ele>946.000000</ele>
      </trkpt>
      <trkpt lat="40.343465963" lon="-0.156816021">
        <ele>945.000000</ele>
      </trkpt>
      <trkpt lat="40.343343001" lon="-0.157018024">
        <ele>945.000000</ele>
      </trkpt>
      <trkpt lat="40.343177961" lon="-0.157127995">
        <ele>947.000000</ele>
      </trkpt>
      <trkpt lat="40.342897000" lon="-0.157277025">
        <ele>952.000000</ele>
      </trkpt>
      <trkpt lat="40.342663983" lon="-0.157381967">
        <ele>955.000000</ele>
      </trkpt>
      <trkpt lat="40.342138018" lon="-0.157443993">
        <ele>960.000000</ele>
      </trkpt>
      <trkpt lat="40.341948001" lon="-0.157496966">
        <ele>963.000000</ele>
      </trkpt>
      <trkpt lat="40.341754965" lon="-0.157625042">
        <ele>966.000000</ele>
      </trkpt>
      <trkpt lat="40.341638038" lon="-0.157735012">
        <ele>968.000000</ele>
      </trkpt>
      <trkpt lat="40.341524966" lon="-0.157917989">
        <ele>970.000000</ele>
      </trkpt>
      <trkpt lat="40.341451960" lon="-0.158147989">
        <ele>971.000000</ele>
      </trkpt>
      <trkpt lat="40.341233024" lon="-0.158755006">
        <ele>974.000000</ele>
      </trkpt>
      <trkpt lat="40.341175022" lon="-0.158885010">
        <ele>975.000000</ele>
      </trkpt>
      <trkpt lat="40.340980981" lon="-0.159044014">
        <ele>977.000000</ele>
      </trkpt>
      <trkpt lat="40.340688033" lon="-0.159232020">
        <ele>979.000000</ele>
      </trkpt>
      <trkpt lat="40.340662971" lon="-0.159355989">
        <ele>980.000000</ele>
      </trkpt>
      <trkpt lat="40.340678981" lon="-0.159522034">
        <ele>981.000000</ele>
      </trkpt>
      <trkpt lat="40.340762967" lon="-0.159618007">
        <ele>981.000000</ele>
      </trkpt>
      <trkpt lat="40.340910992" lon="-0.159638040">
        <ele>982.000000</ele>
      </trkpt>
      <trkpt lat="40.341614988" lon="-0.159572996">
        <ele>983.000000</ele>
      </trkpt>
      <trkpt lat="40.341828978" lon="-0.159599986">
        <ele>985.000000</ele>
      </trkpt>
      <trkpt lat="40.342055960" lon="-0.159743987">
        <ele>988.000000</ele>
      </trkpt>
      <trkpt lat="40.342160985" lon="-0.159912966">
        <ele>989.000000</ele>
      </trkpt>
      <trkpt lat="40.342224017" lon="-0.160172973">
        <ele>991.000000</ele>
      </trkpt>
      <trkpt lat="40.342272967" lon="-0.160728022">
        <ele>996.000000</ele>
      </trkpt>
      <trkpt lat="40.342299035" lon="-0.161203025">
        <ele>999.000000</ele>
      </trkpt>
      <trkpt lat="40.342290988" lon="-0.161509970">
        <ele>1000.000000</ele>
      </trkpt>
      <trkpt lat="40.342253018" lon="-0.161835020">
        <ele>1001.000000</ele>
      </trkpt>
      <trkpt lat="40.342169032" lon="-0.162087986">
        <ele>1003.000000</ele>
      </trkpt>
      <trkpt lat="40.342004998" lon="-0.162429968">
        <ele>1007.000000</ele>
      </trkpt>
      <trkpt lat="40.341750020" lon="-0.162882004">
        <ele>1012.000000</ele>
      </trkpt>
      <trkpt lat="40.341603002" lon="-0.163113009">
        <ele>1017.000000</ele>
      </trkpt>
      <trkpt lat="40.341531001" lon="-0.163300009">
        <ele>1020.000000</ele>
      </trkpt>
      <trkpt lat="40.341543993" lon="-0.163432024">
        <ele>1021.000000</ele>
      </trkpt>
      <trkpt lat="40.341636026" lon="-0.163564039">
        <ele>1020.000000</ele>
      </trkpt>
      <trkpt lat="40.341824032" lon="-0.163701000">
        <ele>1018.000000</ele>
      </trkpt>
      <trkpt lat="40.341916988" lon="-0.163850030">
        <ele>1018.000000</ele>
      </trkpt>
      <trkpt lat="40.341929980" lon="-0.164042981">
        <ele>1018.000000</ele>
      </trkpt>
      <trkpt lat="40.341892010" lon="-0.164273987">
        <ele>1019.000000</ele>
      </trkpt>
      <trkpt lat="40.341720013" lon="-0.164906988">
        <ele>1023.000000</ele>
      </trkpt>
      <trkpt lat="40.341217015" lon="-0.166287990">
        <ele>1034.000000</ele>
      </trkpt>
      <trkpt lat="40.341064967" lon="-0.166641036">
        <ele>1035.000000</ele>
      </trkpt>
      <trkpt lat="40.341044012" lon="-0.166815966">
        <ele>1034.000000</ele>
      </trkpt>
      <trkpt lat="40.341069996" lon="-0.167031968">
        <ele>1034.000000</ele>
      </trkpt>
      <trkpt lat="40.341081982" lon="-0.167241013">
        <ele>1032.000000</ele>
      </trkpt>
      <trkpt lat="40.341049042" lon="-0.167366993">
        <ele>1032.000000</ele>
      </trkpt>
      <trkpt lat="40.340986010" lon="-0.167394988">
        <ele>1032.000000</ele>
      </trkpt>
      <trkpt lat="40.340919038" lon="-0.167389959">
        <ele>1032.000000</ele>
      </trkpt>
      <trkpt lat="40.340833962" lon="-0.167261967">
        <ele>1033.000000</ele>
      </trkpt>
      <trkpt lat="40.340536991" lon="-0.166713037">
        <ele>1039.000000</ele>
      </trkpt>
      <trkpt lat="40.340415034" lon="-0.166287990">
        <ele>1043.000000</ele>
      </trkpt>
      <trkpt lat="40.340281008" lon="-0.165672004">
        <ele>1047.000000</ele>
      </trkpt>
      <trkpt lat="40.340221999" lon="-0.165474024">
        <ele>1048.000000</ele>
      </trkpt>
      <trkpt lat="40.340050003" lon="-0.165347038">
        <ele>1050.000000</ele>
      </trkpt>
      <trkpt lat="40.338854995" lon="-0.164647987">
        <ele>1062.000000</ele>
      </trkpt>
      <trkpt lat="40.338619966" lon="-0.164555032">
        <ele>1062.000000</ele>
      </trkpt>
      <trkpt lat="40.337272994" lon="-0.164307011">
        <ele>1059.000000</ele>
      </trkpt>
      <trkpt lat="40.337004019" lon="-0.164300976">
        <ele>1057.000000</ele>
      </trkpt>
      <trkpt lat="40.336862030" lon="-0.164334001">
        <ele>1055.000000</ele>
      </trkpt>
      <trkpt lat="40.336862030" lon="-0.164334001">
        <ele>1055.000000</ele>
      </trkpt>
      <trkpt lat="40.336732026" lon="-0.164300976">
        <ele>1054.000000</ele>
      </trkpt>
      <trkpt lat="40.338854995" lon="-0.164647987">
        <ele>1062.000000</ele>
      </trkpt>
      <trkpt lat="40.338619966" lon="-0.164555032">
        <ele>1062.000000</ele>
      </trkpt>
      <trkpt lat="40.337272994" lon="-0.164307011">
        <ele>1059.000000</ele>
      </trkpt>
      <trkpt lat="40.337004019" lon="-0.164300976">
        <ele>1057.000000</ele>
      </trkpt>
      <trkpt lat="40.336862030" lon="-0.164334001">
        <ele>1055.000000</ele>
      </trkpt>
      <trkpt lat="40.336862030" lon="-0.164334001">
        <ele>1055.000000</ele>
      </trkpt>
      <trkpt lat="40.336732026" lon="-0.164300976">
        <ele>1054.000000</ele>
      </trkpt>
      <trkpt lat="40.336592970" lon="-0.164219001">
        <ele>1052.000000</ele>
      </trkpt>
      <trkpt lat="40.336592970" lon="-0.164219001">
        <ele>1052.000000</ele>
      </trkpt>
      <trkpt lat="40.336346040" lon="-0.163949020">
        <ele>1049.000000</ele>
      </trkpt>
      <trkpt lat="40.336189969" lon="-0.163861010">
        <ele>1049.000000</ele>
      </trkpt>
      <trkpt lat="40.336005986" lon="-0.163845001">
        <ele>1050.000000</ele>
      </trkpt>
      <trkpt lat="40.335825020" lon="-0.163915996">
        <ele>1050.000000</ele>
      </trkpt>
      <trkpt lat="40.335245999" lon="-0.164263006">
        <ele>1046.000000</ele>
      </trkpt>
      <trkpt lat="40.334809972" lon="-0.164483031">
        <ele>1043.000000</ele>
      </trkpt>
      <trkpt lat="40.333450008" lon="-0.165104968">
        <ele>1033.000000</ele>
      </trkpt>
      <trkpt lat="40.332707958" lon="-0.165390959">
        <ele>1023.000000</ele>
      </trkpt>
      <trkpt lat="40.332564963" lon="-0.165375033">
        <ele>1022.000000</ele>
      </trkpt>
      <trkpt lat="40.332485000" lon="-0.165275959">
        <ele>1022.000000</ele>
      </trkpt>
      <trkpt lat="40.332418028" lon="-0.165044032">
        <ele>1021.000000</ele>
      </trkpt>
      <trkpt lat="40.332414005" lon="-0.164735997">
        <ele>1020.000000</ele>
      </trkpt>
      <trkpt lat="40.332434960" lon="-0.164412037">
        <ele>1021.000000</ele>
      </trkpt>
      <trkpt lat="40.332405958" lon="-0.164213972">
        <ele>1022.000000</ele>
      </trkpt>
      <trkpt lat="40.332301017" lon="-0.164065026">
        <ele>1020.000000</ele>
      </trkpt>
      <trkpt lat="40.332076969" lon="-0.163949020">
        <ele>1014.000000</ele>
      </trkpt>
      <trkpt lat="40.331684025" lon="-0.163766965">
        <ele>1009.000000</ele>
      </trkpt>
      <trkpt lat="40.331145991" lon="-0.163561022">
        <ele>1007.000000</ele>
      </trkpt>
      <trkpt lat="40.330176959" lon="-0.163401011">
        <ele>993.000000</ele>
      </trkpt>
      <trkpt lat="40.329964980" lon="-0.163321970">
        <ele>990.000000</ele>
      </trkpt>
      <trkpt lat="40.329630962" lon="-0.163041009">
        <ele>986.000000</ele>
      </trkpt>
      <trkpt lat="40.329423007" lon="-0.162719982">
        <ele>986.000000</ele>
      </trkpt>
      <trkpt lat="40.328946998" lon="-0.161599992">
        <ele>988.000000</ele>
      </trkpt>
      <trkpt lat="40.328671988" lon="-0.161087019">
        <ele>986.000000</ele>
      </trkpt>
      <trkpt lat="40.328112999" lon="-0.160293002">
        <ele>989.000000</ele>
      </trkpt>
      <trkpt lat="40.327974027" lon="-0.160201974">
        <ele>989.000000</ele>
      </trkpt>
      <trkpt lat="40.327837989" lon="-0.160201974">
        <ele>988.000000</ele>
      </trkpt>
      <trkpt lat="40.327713015" lon="-0.160285039">
        <ele>987.000000</ele>
      </trkpt>
      <trkpt lat="40.327559961" lon="-0.160454018">
        <ele>983.000000</ele>
      </trkpt>
      <trkpt lat="40.327434987" lon="-0.160542028">
        <ele>981.000000</ele>
      </trkpt>
      <trkpt lat="40.327270031" lon="-0.160549991">
        <ele>980.000000</ele>
      </trkpt>
      <trkpt lat="40.326949004" lon="-0.160494000">
        <ele>981.000000</ele>
      </trkpt>
      <trkpt lat="40.326713976" lon="-0.160414958">
        <ele>982.000000</ele>
      </trkpt>
      <trkpt lat="40.326422034" lon="-0.160381012">
        <ele>981.000000</ele>
      </trkpt>
      <trkpt lat="40.325659029" lon="-0.160468016">
        <ele>975.000000</ele>
      </trkpt>
      <trkpt lat="40.324892001" lon="-0.160571029">
        <ele>972.000000</ele>
      </trkpt>
      <trkpt lat="40.324650016" lon="-0.160575975">
        <ele>971.000000</ele>
      </trkpt>
      <trkpt lat="40.324444994" lon="-0.160558037">
        <ele>973.000000</ele>
      </trkpt>
      <trkpt lat="40.324203009" lon="-0.160481008">
        <ele>976.000000</ele>
      </trkpt>
      <trkpt lat="40.324061019" lon="-0.160458963">
        <ele>978.000000</ele>
      </trkpt>
      <trkpt lat="40.323972004" lon="-0.160454018">
        <ele>978.000000</ele>
      </trkpt>
      <trkpt lat="40.323889023" lon="-0.160489976">
        <ele>978.000000</ele>
      </trkpt>
      <trkpt lat="40.323825991" lon="-0.160588967">
        <ele>977.000000</ele>
      </trkpt>
      <trkpt lat="40.323766982" lon="-0.160745038">
        <ele>975.000000</ele>
      </trkpt>
      <trkpt lat="40.323633961" lon="-0.161330011">
        <ele>965.000000</ele>
      </trkpt>
      <trkpt lat="40.323538994" lon="-0.161474012">
        <ele>961.000000</ele>
      </trkpt>
      <trkpt lat="40.323409997" lon="-0.161530003">
        <ele>960.000000</ele>
      </trkpt>
      <trkpt lat="40.323250992" lon="-0.161551964">
        <ele>958.000000</ele>
      </trkpt>
      <trkpt lat="40.323128030" lon="-0.161505025">
        <ele>958.000000</ele>
      </trkpt>
      <trkpt lat="40.323013030" lon="-0.161375022">
        <ele>958.000000</ele>
      </trkpt>
      <trkpt lat="40.322364019" lon="-0.160611011">
        <ele>956.000000</ele>
      </trkpt>
      <trkpt lat="40.322195962" lon="-0.160345975">
        <ele>955.000000</ele>
      </trkpt>
      <trkpt lat="40.321993958" lon="-0.159618007">
        <ele>954.000000</ele>
      </trkpt>
      <trkpt lat="40.321953977" lon="-0.159338973">
        <ele>955.000000</ele>
      </trkpt>
      <trkpt lat="40.321950959" lon="-0.158810997">
        <ele>957.000000</ele>
      </trkpt>
      <trkpt lat="40.321983984" lon="-0.156801017">
        <ele>965.000000</ele>
      </trkpt>
      <trkpt lat="40.321910977" lon="-0.156546040">
        <ele>968.000000</ele>
      </trkpt>
      <trkpt lat="40.321741998" lon="-0.156043041">
        <ele>974.000000</ele>
      </trkpt>
      <trkpt lat="40.321563967" lon="-0.155252963">
        <ele>975.000000</ele>
      </trkpt>
      <trkpt lat="40.321527002" lon="-0.154883992">
        <ele>972.000000</ele>
      </trkpt>
      <trkpt lat="40.321316030" lon="-0.153678004">
        <ele>963.000000</ele>
      </trkpt>
      <trkpt lat="40.321222991" lon="-0.153242983">
        <ele>959.000000</ele>
      </trkpt>
      <trkpt lat="40.321127018" lon="-0.152995968">
        <ele>956.000000</ele>
      </trkpt>
      <trkpt lat="40.320899030" lon="-0.152515015">
        <ele>949.000000</ele>
      </trkpt>
      <trkpt lat="40.320342975" lon="-0.151378009">
        <ele>931.000000</ele>
      </trkpt>
      <trkpt lat="40.320221018" lon="-0.151092019">
        <ele>925.000000</ele>
      </trkpt>
      <trkpt lat="40.320122028" lon="-0.150970984">
        <ele>924.000000</ele>
      </trkpt>
      <trkpt lat="40.319955982" lon="-0.150862020">
        <ele>922.000000</ele>
      </trkpt>
      <trkpt lat="40.319748027" lon="-0.150799993">
        <ele>922.000000</ele>
      </trkpt>
      <trkpt lat="40.319619030" lon="-0.150688011">
        <ele>922.000000</ele>
      </trkpt>
      <trkpt lat="40.319543006" lon="-0.150523977">
        <ele>922.000000</ele>
      </trkpt>
      <trkpt lat="40.319551975" lon="-0.150358016">
        <ele>921.000000</ele>
      </trkpt>
      <trkpt lat="40.319598997" lon="-0.150136985">
        <ele>921.000000</ele>
      </trkpt>
      <trkpt lat="40.319764037" lon="-0.149656031">
        <ele>919.000000</ele>
      </trkpt>
      <trkpt lat="40.320079029" lon="-0.148423975">
        <ele>906.000000</ele>
      </trkpt>
      <trkpt lat="40.320181036" lon="-0.147825005">
        <ele>898.000000</ele>
      </trkpt>
      <trkpt lat="40.320210960" lon="-0.147503978">
        <ele>895.000000</ele>
      </trkpt>
      <trkpt lat="40.320130996" lon="-0.147169037">
        <ele>893.000000</ele>
      </trkpt>
      <trkpt lat="40.319998981" lon="-0.146909030">
        <ele>892.000000</ele>
      </trkpt>
      <trkpt lat="40.319907032" lon="-0.146623040">
        <ele>888.000000</ele>
      </trkpt>
      <trkpt lat="40.319912983" lon="-0.146502005">
        <ele>886.000000</ele>
      </trkpt>
      <trkpt lat="40.320028989" lon="-0.146402009">
        <ele>884.000000</ele>
      </trkpt>
      <trkpt lat="40.320259994" lon="-0.146315005">
        <ele>882.000000</ele>
      </trkpt>
      <trkpt lat="40.320780007" lon="-0.146259014">
        <ele>878.000000</ele>
      </trkpt>
      <trkpt lat="40.321283005" lon="-0.146167986">
        <ele>872.000000</ele>
      </trkpt>
      <trkpt lat="40.321586011" lon="-0.145946033">
        <ele>869.000000</ele>
      </trkpt>
      <trkpt lat="40.322486982" lon="-0.145085966">
        <ele>859.000000</ele>
      </trkpt>
      <trkpt lat="40.322710024" lon="-0.144759994">
        <ele>856.000000</ele>
      </trkpt>
      <trkpt lat="40.322960978" lon="-0.143996989">
        <ele>854.000000</ele>
      </trkpt>
      <trkpt lat="40.323091988" lon="-0.143879978">
        <ele>852.000000</ele>
      </trkpt>
      <trkpt lat="40.323258033" lon="-0.143852988">
        <ele>850.000000</ele>
      </trkpt>
      <trkpt lat="40.323573025" lon="-0.143918032">
        <ele>846.000000</ele>
      </trkpt>
      <trkpt lat="40.323727001" lon="-0.143833039">
        <ele>844.000000</ele>
      </trkpt>
      <trkpt lat="40.323805036" lon="-0.143528022">
        <ele>844.000000</ele>
      </trkpt>
      <trkpt lat="40.323988013" lon="-0.142951012">
        <ele>843.000000</ele>
      </trkpt>
      <trkpt lat="40.324033024" lon="-0.142773986">
        <ele>842.000000</ele>
      </trkpt>
      <trkpt lat="40.324033024" lon="-0.142543986">
        <ele>841.000000</ele>
      </trkpt>
      <trkpt lat="40.323938979" lon="-0.142141990">
        <ele>841.000000</ele>
      </trkpt>
      <trkpt lat="40.323931016" lon="-0.141795985">
        <ele>840.000000</ele>
      </trkpt>
      <trkpt lat="40.323996982" lon="-0.141529022">
        <ele>838.000000</ele>
      </trkpt>
      <trkpt lat="40.324164033" lon="-0.141377980">
        <ele>834.000000</ele>
      </trkpt>
      <trkpt lat="40.324375005" lon="-0.141233979">
        <ele>830.000000</ele>
      </trkpt>
      <trkpt lat="40.324428985" lon="-0.141047984">
        <ele>829.000000</ele>
      </trkpt>
      <trkpt lat="40.324465027" lon="-0.140722012">
        <ele>829.000000</ele>
      </trkpt>
      <trkpt lat="40.324535016" lon="-0.140438033">
        <ele>829.000000</ele>
      </trkpt>
      <trkpt lat="40.324668959" lon="-0.140154976">
        <ele>827.000000</ele>
      </trkpt>
      <trkpt lat="40.324852020" lon="-0.139812995">
        <ele>824.000000</ele>
      </trkpt>
      <trkpt lat="40.324945981" lon="-0.139491968">
        <ele>822.000000</ele>
      </trkpt>
      <trkpt lat="40.325040026" lon="-0.139304968">
        <ele>820.000000</ele>
      </trkpt>
      <trkpt lat="40.325161982" lon="-0.139198015">
        <ele>818.000000</ele>
      </trkpt>
      <trkpt lat="40.325268013" lon="-0.139047978">
        <ele>816.000000</ele>
      </trkpt>
      <trkpt lat="40.325291986" lon="-0.138909006">
        <ele>816.000000</ele>
      </trkpt>
      <trkpt lat="40.325234989" lon="-0.138748996">
        <ele>818.000000</ele>
      </trkpt>
      <trkpt lat="40.324649010" lon="-0.137721961">
        <ele>818.000000</ele>
      </trkpt>
      <trkpt lat="40.324335024" lon="-0.137129026">
        <ele>815.000000</ele>
      </trkpt>
      <trkpt lat="40.324252965" lon="-0.136834988">
        <ele>814.000000</ele>
      </trkpt>
      <trkpt lat="40.324216001" lon="-0.136599960">
        <ele>813.000000</ele>
      </trkpt>
      <trkpt lat="40.324252965" lon="-0.136455959">
        <ele>811.000000</ele>
      </trkpt>
      <trkpt lat="40.324440971" lon="-0.136081958">
        <ele>803.000000</ele>
      </trkpt>
      <trkpt lat="40.324999038" lon="-0.134925004">
        <ele>797.000000</ele>
      </trkpt>
      <trkpt lat="40.325206993" lon="-0.134781003">
        <ele>799.000000</ele>
      </trkpt>
      <trkpt lat="40.325406985" lon="-0.134785026">
        <ele>801.000000</ele>
      </trkpt>
      <trkpt lat="40.325778974" lon="-0.134945037">
        <ele>808.000000</ele>
      </trkpt>
      <trkpt lat="40.326067982" lon="-0.134958029">
        <ele>813.000000</ele>
      </trkpt>
      <trkpt lat="40.326713976" lon="-0.135202026">
        <ele>824.000000</ele>
      </trkpt>
      <trkpt lat="40.327096023" lon="-0.135252988">
        <ele>829.000000</ele>
      </trkpt>
      <trkpt lat="40.327491984" lon="-0.135220969">
        <ele>832.000000</ele>
      </trkpt>
      <trkpt lat="40.327840000" lon="-0.135016032">
        <ele>832.000000</ele>
      </trkpt>
      <trkpt lat="40.328079974" lon="-0.134971021">
        <ele>834.000000</ele>
      </trkpt>
      <trkpt lat="40.328535028" lon="-0.135008991">
        <ele>836.000000</ele>
      </trkpt>
      <trkpt lat="40.328730997" lon="-0.135020977">
        <ele>838.000000</ele>
      </trkpt>
      <trkpt lat="40.328824036" lon="-0.134964986">
        <ele>838.000000</ele>
      </trkpt>
      <trkpt lat="40.328843985" lon="-0.134830037">
        <ele>836.000000</ele>
      </trkpt>
      <trkpt lat="40.328795034" lon="-0.134720989">
        <ele>835.000000</ele>
      </trkpt>
      <trkpt lat="40.327735981" lon="-0.134276999">
        <ele>828.000000</ele>
      </trkpt>
      <trkpt lat="40.327610001" lon="-0.134154959">
        <ele>827.000000</ele>
      </trkpt>
      <trkpt lat="40.327575970" lon="-0.133910039">
        <ele>828.000000</ele>
      </trkpt>
      <trkpt lat="40.327659035" lon="-0.133732008">
        <ele>830.000000</ele>
      </trkpt>
      <trkpt lat="40.328701995" lon="-0.132388975">
        <ele>836.000000</ele>
      </trkpt>
      <trkpt lat="40.328966025" lon="-0.132003995">
        <ele>838.000000</ele>
      </trkpt>
      <trkpt lat="40.329005001" lon="-0.131772989">
        <ele>838.000000</ele>
      </trkpt>
      <trkpt lat="40.329190996" lon="-0.130076995">
        <ele>846.000000</ele>
      </trkpt>
      <trkpt lat="40.329181021" lon="-0.128201041">
        <ele>852.000000</ele>
      </trkpt>
      <trkpt lat="40.329250004" lon="-0.127282972">
        <ele>851.000000</ele>
      </trkpt>
      <trkpt lat="40.329377996" lon="-0.126351994">
        <ele>845.000000</ele>
      </trkpt>
      <trkpt lat="40.329616964" lon="-0.124643007">
        <ele>834.000000</ele>
      </trkpt>
      <trkpt lat="40.329690976" lon="-0.124379983">
        <ele>832.000000</ele>
      </trkpt>
      <trkpt lat="40.329784015" lon="-0.124200024">
        <ele>830.000000</ele>
      </trkpt>
      <trkpt lat="40.329935979" lon="-0.124051999">
        <ele>827.000000</ele>
      </trkpt>
      <trkpt lat="40.330209984" lon="-0.123878997">
        <ele>823.000000</ele>
      </trkpt>
      <trkpt lat="40.330336969" lon="-0.123667018">
        <ele>822.000000</ele>
      </trkpt>
      <trkpt lat="40.330548026" lon="-0.123216994">
        <ele>823.000000</ele>
      </trkpt>
      <trkpt lat="40.330973994" lon="-0.122203035">
        <ele>822.000000</ele>
      </trkpt>
      <trkpt lat="40.331311030" lon="-0.121078016">
        <ele>818.000000</ele>
      </trkpt>
      <trkpt lat="40.331424018" lon="-0.120551968">
        <ele>818.000000</ele>
      </trkpt>
      <trkpt lat="40.331472969" lon="-0.119885020">
        <ele>817.000000</ele>
      </trkpt>
      <trkpt lat="40.331374984" lon="-0.118407039">
        <ele>813.000000</ele>
      </trkpt>
      <trkpt lat="40.331256967" lon="-0.117167020">
        <ele>812.000000</ele>
      </trkpt>
      <trkpt lat="40.331100980" lon="-0.116493031">
        <ele>815.000000</ele>
      </trkpt>
      <trkpt lat="40.330964020" lon="-0.115986010">
        <ele>817.000000</ele>
      </trkpt>
      <trkpt lat="40.330736032" lon="-0.115580996">
        <ele>821.000000</ele>
      </trkpt>
      <trkpt lat="40.330547020" lon="-0.115283020">
        <ele>824.000000</ele>
      </trkpt>
      <trkpt lat="40.330497986" lon="-0.114946989">
        <ele>824.000000</ele>
      </trkpt>
      <trkpt lat="40.330497986" lon="-0.114602996">
        <ele>822.000000</ele>
      </trkpt>
      <trkpt lat="40.330559006" lon="-0.114079965">
        <ele>822.000000</ele>
      </trkpt>
      <trkpt lat="40.330579961" lon="-0.113790035">
        <ele>822.000000</ele>
      </trkpt>
      <trkpt lat="40.330483988" lon="-0.113513013">
        <ele>824.000000</ele>
      </trkpt>
      <trkpt lat="40.330260023" lon="-0.113053015">
        <ele>830.000000</ele>
      </trkpt>
      <trkpt lat="40.330120968" lon="-0.112726958">
        <ele>832.000000</ele>
      </trkpt>
      <trkpt lat="40.330085009" lon="-0.112482039">
        <ele>832.000000</ele>
      </trkpt>
      <trkpt lat="40.330165979" lon="-0.111970995">
        <ele>825.000000</ele>
      </trkpt>
      <trkpt lat="40.330475019" lon="-0.111106988">
        <ele>813.000000</ele>
      </trkpt>
      <trkpt lat="40.330643998" lon="-0.110555040">
        <ele>811.000000</ele>
      </trkpt>
      <trkpt lat="40.330652967" lon="-0.110516986">
        <ele>811.000000</ele>
      </trkpt>
      <trkpt lat="40.330689009" lon="-0.110183973">
        <ele>811.000000</ele>
      </trkpt>
      <trkpt lat="40.330697978" lon="-0.109673012">
        <ele>813.000000</ele>
      </trkpt>
      <trkpt lat="40.330731003" lon="-0.109172026">
        <ele>810.000000</ele>
      </trkpt>
      <trkpt lat="40.330805015" lon="-0.108827027">
        <ele>806.000000</ele>
      </trkpt>
      <trkpt lat="40.331026968" lon="-0.108423019">
        <ele>797.000000</ele>
      </trkpt>
      <trkpt lat="40.332026007" lon="-0.106594004">
        <ele>775.000000</ele>
      </trkpt>
      <trkpt lat="40.332272016" lon="-0.105838040">
        <ele>770.000000</ele>
      </trkpt>
      <trkpt lat="40.332404030" lon="-0.105704013">
        <ele>769.000000</ele>
      </trkpt>
      <trkpt lat="40.333211040" lon="-0.105027007">
        <ele>766.000000</ele>
      </trkpt>
      <trkpt lat="40.333382031" lon="-0.104846042">
        <ele>764.000000</ele>
      </trkpt>
      <trkpt lat="40.333481021" lon="-0.104630040">
        <ele>763.000000</ele>
      </trkpt>
      <trkpt lat="40.333545981" lon="-0.104389982">
        <ele>762.000000</ele>
      </trkpt>
      <trkpt lat="40.333594009" lon="-0.104110027">
        <ele>762.000000</ele>
      </trkpt>
      <trkpt lat="40.333568025" lon="-0.103897965">
        <ele>762.000000</ele>
      </trkpt>
      <trkpt lat="40.333481021" lon="-0.103653967">
        <ele>762.000000</ele>
      </trkpt>
      <trkpt lat="40.333406003" lon="-0.103402007">
        <ele>761.000000</ele>
      </trkpt>
      <trkpt lat="40.333384965" lon="-0.103259012">
        <ele>760.000000</ele>
      </trkpt>
      <trkpt lat="40.333382031" lon="-0.103075029">
        <ele>759.000000</ele>
      </trkpt>
      <trkpt lat="40.333417989" lon="-0.102822986">
        <ele>757.000000</ele>
      </trkpt>
      <trkpt lat="40.333519997" lon="-0.102457032">
        <ele>755.000000</ele>
      </trkpt>
      <trkpt lat="40.333572971" lon="-0.102086971">
        <ele>753.000000</ele>
      </trkpt>
      <trkpt lat="40.333585963" lon="-0.101850014">
        <ele>751.000000</ele>
      </trkpt>
      <trkpt lat="40.333474986" lon="-0.101006962">
        <ele>743.000000</ele>
      </trkpt>
      <trkpt lat="40.333471969" lon="-0.100516034">
        <ele>738.000000</ele>
      </trkpt>
      <trkpt lat="40.333489990" lon="-0.100056035">
        <ele>734.000000</ele>
      </trkpt>
      <trkpt lat="40.333454031" lon="-0.099861994">
        <ele>732.000000</ele>
      </trkpt>
      <trkpt lat="40.333300978" lon="-0.099535016">
        <ele>728.000000</ele>
      </trkpt>
      <trkpt lat="40.333139040" lon="-0.099245002">
        <ele>724.000000</ele>
      </trkpt>
      <trkpt lat="40.333037032" lon="-0.099119022">
        <ele>722.000000</ele>
      </trkpt>
      <trkpt lat="40.332920020" lon="-0.099054985">
        <ele>721.000000</ele>
      </trkpt>
      <trkpt lat="40.332799992" lon="-0.099048028">
        <ele>718.000000</ele>
      </trkpt>
      <trkpt lat="40.332647022" lon="-0.099122962">
        <ele>715.000000</ele>
      </trkpt>
      <trkpt lat="40.332511989" lon="-0.099245002">
        <ele>713.000000</ele>
      </trkpt>
      <trkpt lat="40.332404030" lon="-0.099428985">
        <ele>713.000000</ele>
      </trkpt>
      <trkpt lat="40.332272016" lon="-0.099500986">
        <ele>710.000000</ele>
      </trkpt>
      <trkpt lat="40.332218036" lon="-0.099453963">
        <ele>708.000000</ele>
      </trkpt>
      <trkpt lat="40.332203032" lon="-0.099286996">
        <ele>706.000000</ele>
      </trkpt>
      <trkpt lat="40.332317026" lon="-0.099054985">
        <ele>706.000000</ele>
      </trkpt>
      <trkpt lat="40.332769984" lon="-0.098362975">
        <ele>708.000000</ele>
      </trkpt>
      <trkpt lat="40.332841985" lon="-0.098106991">
        <ele>706.000000</ele>
      </trkpt>
      <trkpt lat="40.332955979" lon="-0.097570969">
        <ele>701.000000</ele>
      </trkpt>
      <trkpt lat="40.333018005" lon="-0.097370977">
        <ele>700.000000</ele>
      </trkpt>
      <trkpt lat="40.333153959" lon="-0.097169979">
        <ele>699.000000</ele>
      </trkpt>
      <trkpt lat="40.333379013" lon="-0.096894968">
        <ele>699.000000</ele>
      </trkpt>
      <trkpt lat="40.333724013" lon="-0.096594980">
        <ele>700.000000</ele>
      </trkpt>
      <trkpt lat="40.334117962" lon="-0.096332040">
        <ele>696.000000</ele>
      </trkpt>
      <trkpt lat="40.334532028" lon="-0.096004978">
        <ele>694.000000</ele>
      </trkpt>
      <trkpt lat="40.334723974" lon="-0.095772967">
        <ele>693.000000</ele>
      </trkpt>
      <trkpt lat="40.334840985" lon="-0.095524024">
        <ele>692.000000</ele>
      </trkpt>
      <trkpt lat="40.334889013" lon="-0.095284972">
        <ele>692.000000</ele>
      </trkpt>
      <trkpt lat="40.334889013" lon="-0.095017003">
        <ele>691.000000</ele>
      </trkpt>
      <trkpt lat="40.334831011" lon="-0.093936995">
        <ele>689.000000</ele>
      </trkpt>
      <trkpt lat="40.334769990" lon="-0.092693958">
        <ele>679.000000</ele>
      </trkpt>
      <trkpt lat="40.334713999" lon="-0.092444010">
        <ele>675.000000</ele>
      </trkpt>
      <trkpt lat="40.334604029" lon="-0.092348037">
        <ele>674.000000</ele>
      </trkpt>
      <trkpt lat="40.334477965" lon="-0.092293974">
        <ele>671.000000</ele>
      </trkpt>
      <trkpt lat="40.334361037" lon="-0.092303026">
        <ele>669.000000</ele>
      </trkpt>
      <trkpt lat="40.334267998" lon="-0.092381984">
        <ele>668.000000</ele>
      </trkpt>
      <trkpt lat="40.333263008" lon="-0.093510021">
        <ele>662.000000</ele>
      </trkpt>
      <trkpt lat="40.333126970" lon="-0.093778996">
        <ele>661.000000</ele>
      </trkpt>
      <trkpt lat="40.332525987" lon="-0.095006023">
        <ele>663.000000</ele>
      </trkpt>
      <trkpt lat="40.332401013" lon="-0.095215989">
        <ele>663.000000</ele>
      </trkpt>
      <trkpt lat="40.332262041" lon="-0.095346998">
        <ele>663.000000</ele>
      </trkpt>
      <trkpt lat="40.332161961" lon="-0.095405001">
        <ele>662.000000</ele>
      </trkpt>
      <trkpt lat="40.331988959" lon="-0.095440960">
        <ele>658.000000</ele>
      </trkpt>
      <trkpt lat="40.331817968" lon="-0.095460992">
        <ele>654.000000</ele>
      </trkpt>
      <trkpt lat="40.331715038" lon="-0.095499968">
        <ele>652.000000</ele>
      </trkpt>
      <trkpt lat="40.331588974" lon="-0.095602982">
        <ele>650.000000</ele>
      </trkpt>
      <trkpt lat="40.331188990" lon="-0.096232966">
        <ele>648.000000</ele>
      </trkpt>
      <trkpt lat="40.331051024" lon="-0.096498001">
        <ele>649.000000</ele>
      </trkpt>
      <trkpt lat="40.330680041" lon="-0.097222030">
        <ele>651.000000</ele>
      </trkpt>
      <trkpt lat="40.330537967" lon="-0.097416993">
        <ele>651.000000</ele>
      </trkpt>
      <trkpt lat="40.330424979" lon="-0.097493017">
        <ele>650.000000</ele>
      </trkpt>
      <trkpt lat="40.330309980" lon="-0.097508021">
        <ele>651.000000</ele>
      </trkpt>
      <trkpt lat="40.330058020" lon="-0.097407019">
        <ele>654.000000</ele>
      </trkpt>
      <trkpt lat="40.329923993" lon="-0.097295037">
        <ele>656.000000</ele>
      </trkpt>
      <trkpt lat="40.329860961" lon="-0.097106025">
        <ele>657.000000</ele>
      </trkpt>
      <trkpt lat="40.329817040" lon="-0.096836966">
        <ele>656.000000</ele>
      </trkpt>
      <trkpt lat="40.329805976" lon="-0.096629011">
        <ele>655.000000</ele>
      </trkpt>
      <trkpt lat="40.329724001" lon="-0.096444022">
        <ele>655.000000</ele>
      </trkpt>
      <trkpt lat="40.329587040" lon="-0.096327011">
        <ele>657.000000</ele>
      </trkpt>
      <trkpt lat="40.329375984" lon="-0.096212011">
        <ele>658.000000</ele>
      </trkpt>
      <trkpt lat="40.329250004" lon="-0.096026016">
        <ele>658.000000</ele>
      </trkpt>
      <trkpt lat="40.329205999" lon="-0.095817978">
        <ele>657.000000</ele>
      </trkpt>
      <trkpt lat="40.329231983" lon="-0.095587978">
        <ele>654.000000</ele>
      </trkpt>
      <trkpt lat="40.329395011" lon="-0.095282961">
        <ele>652.000000</ele>
      </trkpt>
      <trkpt lat="40.329546975" lon="-0.095029995">
        <ele>651.000000</ele>
      </trkpt>
      <trkpt lat="40.329888035" lon="-0.093827024">
        <ele>650.000000</ele>
      </trkpt>
      <trkpt lat="40.330189029" lon="-0.092510981">
        <ele>642.000000</ele>
      </trkpt>
      <trkpt lat="40.330172013" lon="-0.091989040">
        <ele>642.000000</ele>
      </trkpt>
      <trkpt lat="40.330096995" lon="-0.091361990">
        <ele>639.000000</ele>
      </trkpt>
      <trkpt lat="40.329826009" lon="-0.090627987">
        <ele>633.000000</ele>
      </trkpt>
      <trkpt lat="40.329629034" lon="-0.090190032">
        <ele>628.000000</ele>
      </trkpt>
      <trkpt lat="40.329093011" lon="-0.088851023">
        <ele>621.000000</ele>
      </trkpt>
      <trkpt lat="40.328462021" lon="-0.087173972">
        <ele>619.000000</ele>
      </trkpt>
      <trkpt lat="40.327761965" lon="-0.085433973">
        <ele>617.000000</ele>
      </trkpt>
      <trkpt lat="40.327700023" lon="-0.085532041">
        <ele>616.000000</ele>
      </trkpt>
      <trkpt lat="40.327583011" lon="-0.085859019">
        <ele>615.000000</ele>
      </trkpt>
      <trkpt lat="40.327432975" lon="-0.086044008">
        <ele>615.000000</ele>
      </trkpt>
      <trkpt lat="40.327265002" lon="-0.086110979">
        <ele>614.000000</ele>
      </trkpt>
      <trkpt lat="40.327080013" lon="-0.086092036">
        <ele>612.000000</ele>
      </trkpt>
      <trkpt lat="40.325147985" lon="-0.085472027">
        <ele>603.000000</ele>
      </trkpt>
      <trkpt lat="40.323704034" lon="-0.084995013">
        <ele>606.000000</ele>
      </trkpt>
      <trkpt lat="40.323118977" lon="-0.084771970">
        <ele>605.000000</ele>
      </trkpt>
      <trkpt lat="40.322943041" lon="-0.084617995">
        <ele>604.000000</ele>
      </trkpt>
      <trkpt lat="40.322623020" lon="-0.084152967">
        <ele>603.000000</ele>
      </trkpt>
      <trkpt lat="40.321503030" lon="-0.082395030">
        <ele>610.000000</ele>
      </trkpt>
      <trkpt lat="40.321256015" lon="-0.081946012">
        <ele>615.000000</ele>
      </trkpt>
      <trkpt lat="40.321087036" lon="-0.081376964">
        <ele>616.000000</ele>
      </trkpt>
      <trkpt lat="40.320861982" lon="-0.079854978">
        <ele>608.000000</ele>
      </trkpt>
      <trkpt lat="40.320794005" lon="-0.079538980">
        <ele>606.000000</ele>
      </trkpt>
      <trkpt lat="40.320642041" lon="-0.079316022">
        <ele>607.000000</ele>
      </trkpt>
      <trkpt lat="40.320507009" lon="-0.079214014">
        <ele>608.000000</ele>
      </trkpt>
      <trkpt lat="40.320298970" lon="-0.079118041">
        <ele>607.000000</ele>
      </trkpt>
      <trkpt lat="40.320079029" lon="-0.079109995">
        <ele>604.000000</ele>
      </trkpt>
      <trkpt lat="40.319881970" lon="-0.079199011">
        <ele>603.000000</ele>
      </trkpt>
      <trkpt lat="40.319701005" lon="-0.079346029">
        <ele>603.000000</ele>
      </trkpt>
      <trkpt lat="40.319392970" lon="-0.079701003">
        <ele>603.000000</ele>
      </trkpt>
      <trkpt lat="40.319088958" lon="-0.080107022">
        <ele>605.000000</ele>
      </trkpt>
      <trkpt lat="40.318688974" lon="-0.080698030">
        <ele>606.000000</ele>
      </trkpt>
      <trkpt lat="40.318485964" lon="-0.080970023">
        <ele>607.000000</ele>
      </trkpt>
      <trkpt lat="40.318271974" lon="-0.081112012">
        <ele>606.000000</ele>
      </trkpt>
      <trkpt lat="40.317944996" lon="-0.081244027">
        <ele>604.000000</ele>
      </trkpt>
      <trkpt lat="40.317478962" lon="-0.081390962">
        <ele>604.000000</ele>
      </trkpt>
      <trkpt lat="40.315395975" lon="-0.082085989">
        <ele>614.000000</ele>
      </trkpt>
      <trkpt lat="40.314827012" lon="-0.082307020">
        <ele>616.000000</ele>
      </trkpt>
      <trkpt lat="40.313060023" lon="-0.083649969">
        <ele>627.000000</ele>
      </trkpt>
      <trkpt lat="40.312016979" lon="-0.084654959">
        <ele>634.000000</ele>
      </trkpt>
      <trkpt lat="40.311376015" lon="-0.085466998">
        <ele>640.000000</ele>
      </trkpt>
      <trkpt lat="40.310127027" lon="-0.086987978">
        <ele>647.000000</ele>
      </trkpt>
      <trkpt lat="40.309350025" lon="-0.087777972">
        <ele>651.000000</ele>
      </trkpt>
      <trkpt lat="40.308776032" lon="-0.088258004">
        <ele>656.000000</ele>
      </trkpt>
      <trkpt lat="40.307536013" lon="-0.089992974">
        <ele>662.000000</ele>
      </trkpt>
      <trkpt lat="40.306619033" lon="-0.091232993">
        <ele>664.000000</ele>
      </trkpt>
      <trkpt lat="40.305150021" lon="-0.092841983">
        <ele>654.000000</ele>
      </trkpt>
      <trkpt lat="40.304681975" lon="-0.093298964">
        <ele>651.000000</ele>
      </trkpt>
      <trkpt lat="40.302671995" lon="-0.095581021">
        <ele>637.000000</ele>
      </trkpt>
      <trkpt lat="40.302080987" lon="-0.096490039">
        <ele>628.000000</ele>
      </trkpt>
      <trkpt lat="40.301625011" lon="-0.096992031">
        <ele>620.000000</ele>
      </trkpt>
      <trkpt lat="40.301299039" lon="-0.097206021">
        <ele>618.000000</ele>
      </trkpt>
      <trkpt lat="40.299592987" lon="-0.097869029">
        <ele>611.000000</ele>
      </trkpt>
      <trkpt lat="40.299231978" lon="-0.098070027">
        <ele>615.000000</ele>
      </trkpt>
      <trkpt lat="40.299097029" lon="-0.098254010">
        <ele>616.000000</ele>
      </trkpt>
      <trkpt lat="40.298629990" lon="-0.099768033">
        <ele>606.000000</ele>
      </trkpt>
      <trkpt lat="40.298392028" lon="-0.100349989">
        <ele>600.000000</ele>
      </trkpt>
      <trkpt lat="40.298060020" lon="-0.100969998">
        <ele>594.000000</ele>
      </trkpt>
      <trkpt lat="40.297656013" lon="-0.101472996">
        <ele>589.000000</ele>
      </trkpt>
      <trkpt lat="40.296349023" lon="-0.102505982">
        <ele>577.000000</ele>
      </trkpt>
      <trkpt lat="40.295905033" lon="-0.102690971">
        <ele>575.000000</ele>
      </trkpt>
      <trkpt lat="40.295353001" lon="-0.102837989">
        <ele>573.000000</ele>
      </trkpt>
      <trkpt lat="40.294981012" lon="-0.103000011">
        <ele>573.000000</ele>
      </trkpt>
      <trkpt lat="40.294480026" lon="-0.103347022">
        <ele>572.000000</ele>
      </trkpt>
      <trkpt lat="40.294068977" lon="-0.103709958">
        <ele>567.000000</ele>
      </trkpt>
      <trkpt lat="40.293736970" lon="-0.103974994">
        <ele>564.000000</ele>
      </trkpt>
      <trkpt lat="40.293331034" lon="-0.104115978">
        <ele>563.000000</ele>
      </trkpt>
      <trkpt lat="40.291928994" lon="-0.104484027">
        <ele>557.000000</ele>
      </trkpt>
      <trkpt lat="40.291320970" lon="-0.104676979">
        <ele>555.000000</ele>
      </trkpt>
      <trkpt lat="40.289139999" lon="-0.106070973">
        <ele>547.000000</ele>
      </trkpt>
      <trkpt lat="40.288224025" lon="-0.106641026">
        <ele>544.000000</ele>
      </trkpt>
      <trkpt lat="40.287891012" lon="-0.106920982">
        <ele>542.000000</ele>
      </trkpt>
      <trkpt lat="40.286967997" lon="-0.108235013">
        <ele>536.000000</ele>
      </trkpt>
      <trkpt lat="40.286816033" lon="-0.108544976">
        <ele>534.000000</ele>
      </trkpt>
      <trkpt lat="40.286371037" lon="-0.109549966">
        <ele>529.000000</ele>
      </trkpt>
      <trkpt lat="40.286122011" lon="-0.109889014">
        <ele>526.000000</ele>
      </trkpt>
      <trkpt lat="40.285840966" lon="-0.110206017">
        <ele>522.000000</ele>
      </trkpt>
      <trkpt lat="40.285335034" lon="-0.110664004">
        <ele>519.000000</ele>
      </trkpt>
      <trkpt lat="40.285153985" lon="-0.110745979">
        <ele>518.000000</ele>
      </trkpt>
      <trkpt lat="40.284856008" lon="-0.110841030">
        <ele>517.000000</ele>
      </trkpt>
      <trkpt lat="40.284444960" lon="-0.110900961">
        <ele>515.000000</ele>
      </trkpt>
      <trkpt lat="40.284011029" lon="-0.110988971">
        <ele>514.000000</ele>
      </trkpt>
      <trkpt lat="40.283566033" lon="-0.111202961">
        <ele>514.000000</ele>
      </trkpt>
      <trkpt lat="40.283014001" lon="-0.111623984">
        <ele>511.000000</ele>
      </trkpt>
      <trkpt lat="40.281836009" lon="-0.112472987">
        <ele>504.000000</ele>
      </trkpt>
      <trkpt lat="40.281385984" lon="-0.112731988">
        <ele>501.000000</ele>
      </trkpt>
      <trkpt lat="40.280863037" lon="-0.112997023">
        <ele>501.000000</ele>
      </trkpt>
      <trkpt lat="40.279308027" lon="-0.113749970">
        <ele>494.000000</ele>
      </trkpt>
      <trkpt lat="40.278778961" lon="-0.113971001">
        <ele>489.000000</ele>
      </trkpt>
      <trkpt lat="40.278418036" lon="-0.114067979">
        <ele>487.000000</ele>
      </trkpt>
      <trkpt lat="40.277111968" lon="-0.114237964">
        <ele>479.000000</ele>
      </trkpt>
      <trkpt lat="40.276419036" lon="-0.114384983">
        <ele>478.000000</ele>
      </trkpt>
      <trkpt lat="40.276136985" lon="-0.114510041">
        <ele>478.000000</ele>
      </trkpt>
      <trkpt lat="40.275422009" lon="-0.115286037">
        <ele>475.000000</ele>
      </trkpt>
      <trkpt lat="40.273348996" lon="-0.117603969">
        <ele>463.000000</ele>
      </trkpt>
      <trkpt lat="40.272960998" lon="-0.118045025">
        <ele>457.000000</ele>
      </trkpt>
      <trkpt lat="40.272602001" lon="-0.118214004">
        <ele>458.000000</ele>
      </trkpt>
      <trkpt lat="40.270491019" lon="-0.118956976">
        <ele>448.000000</ele>
      </trkpt>
      <trkpt lat="40.270014005" lon="-0.119053032">
        <ele>448.000000</ele>
      </trkpt>
      <trkpt lat="40.269647967" lon="-0.119316978">
        <ele>445.000000</ele>
      </trkpt>
      <trkpt lat="40.269131977" lon="-0.119744958">
        <ele>443.000000</ele>
      </trkpt>
      <trkpt lat="40.268429993" lon="-0.120266983">
        <ele>441.000000</ele>
      </trkpt>
      <trkpt lat="40.267516030" lon="-0.120766964">
        <ele>437.000000</ele>
      </trkpt>
      <trkpt lat="40.266874982" lon="-0.121039962">
        <ele>433.000000</ele>
      </trkpt>
      <trkpt lat="40.266167969" lon="-0.121259987">
        <ele>430.000000</ele>
      </trkpt>
      <trkpt lat="40.265657008" lon="-0.121496022">
        <ele>428.000000</ele>
      </trkpt>
      <trkpt lat="40.265388032" lon="-0.121649997">
        <ele>428.000000</ele>
      </trkpt>
      <trkpt lat="40.264276005" lon="-0.122665968">
        <ele>426.000000</ele>
      </trkpt>
      <trkpt lat="40.262766005" lon="-0.123975975">
        <ele>427.000000</ele>
      </trkpt>
      <trkpt lat="40.262467023" lon="-0.124417031">
        <ele>424.000000</ele>
      </trkpt>
      <trkpt lat="40.262101991" lon="-0.125070987">
        <ele>420.000000</ele>
      </trkpt>
      <trkpt lat="40.260912012" lon="-0.127396965">
        <ele>414.000000</ele>
      </trkpt>
      <trkpt lat="40.260704979" lon="-0.127630988">
        <ele>413.000000</ele>
      </trkpt>
      <trkpt lat="40.260082036" lon="-0.128213027">
        <ele>410.000000</ele>
      </trkpt>
      <trkpt lat="40.259564035" lon="-0.128602032">
        <ele>408.000000</ele>
      </trkpt>
      <trkpt lat="40.257118028" lon="-0.130589968">
        <ele>400.000000</ele>
      </trkpt>
      <trkpt lat="40.255538961" lon="-0.131855970">
        <ele>394.000000</ele>
      </trkpt>
      <trkpt lat="40.252588028" lon="-0.134304995">
        <ele>383.000000</ele>
      </trkpt>
      <trkpt lat="40.250165993" lon="-0.136248004">
        <ele>383.000000</ele>
      </trkpt>
      <trkpt lat="40.248923963" lon="-0.137256011">
        <ele>379.000000</ele>
      </trkpt>
      <trkpt lat="40.247010039" lon="-0.138838012">
        <ele>370.000000</ele>
      </trkpt>
      <trkpt lat="40.246464964" lon="-0.139448969">
        <ele>364.000000</ele>
      </trkpt>
      <trkpt lat="40.244775005" lon="-0.141477976">
        <ele>370.000000</ele>
      </trkpt>
      <trkpt lat="40.243927008" lon="-0.142397974">
        <ele>374.000000</ele>
      </trkpt>
      <trkpt lat="40.242999969" lon="-0.143554006">
        <ele>374.000000</ele>
      </trkpt>
      <trkpt lat="40.242191032" lon="-0.144466041">
        <ele>375.000000</ele>
      </trkpt>
      <trkpt lat="40.239938982" lon="-0.147078009">
        <ele>384.000000</ele>
      </trkpt>
      <trkpt lat="40.238669962" lon="-0.148564959">
        <ele>378.000000</ele>
      </trkpt>
      <trkpt lat="40.235922961" lon="-0.151757961">
        <ele>386.000000</ele>
      </trkpt>
      <trkpt lat="40.232720990" lon="-0.155531997">
        <ele>401.000000</ele>
      </trkpt>
      <trkpt lat="40.231007980" lon="-0.157460002">
        <ele>400.000000</ele>
      </trkpt>
      <trkpt lat="40.228789961" lon="-0.160035007">
        <ele>399.000000</ele>
      </trkpt>
      <trkpt lat="40.226592980" lon="-0.162581010">
        <ele>399.000000</ele>
      </trkpt>
      <trkpt lat="40.223845979" lon="-0.165730007">
        <ele>398.000000</ele>
      </trkpt>
      <trkpt lat="40.221262006" lon="-0.168655962">
        <ele>400.000000</ele>
      </trkpt>
      <trkpt lat="40.219890978" lon="-0.170252966">
        <ele>402.000000</ele>
      </trkpt>
      <trkpt lat="40.219443971" lon="-0.170722017">
        <ele>402.000000</ele>
      </trkpt>
      <trkpt lat="40.219257977" lon="-0.170759987">
        <ele>401.000000</ele>
      </trkpt>
      <trkpt lat="40.218155002" lon="-0.170262018">
        <ele>402.000000</ele>
      </trkpt>
      <trkpt lat="40.217802962" lon="-0.170153975">
        <ele>403.000000</ele>
      </trkpt>
      <trkpt lat="40.217542034" lon="-0.170118017">
        <ele>404.000000</ele>
      </trkpt>
      <trkpt lat="40.217328966" lon="-0.170109970">
        <ele>404.000000</ele>
      </trkpt>
      <trkpt lat="40.217011962" lon="-0.170245003">
        <ele>405.000000</ele>
      </trkpt>
      <trkpt lat="40.216666041" lon="-0.170578016">
        <ele>406.000000</ele>
      </trkpt>
      <trkpt lat="40.216433024" lon="-0.170713970">
        <ele>406.000000</ele>
      </trkpt>
      <trkpt lat="40.212382972" lon="-0.172434021">
        <ele>397.000000</ele>
      </trkpt>
      <trkpt lat="40.210565021" lon="-0.173126031">
        <ele>401.000000</ele>
      </trkpt>
      <trkpt lat="40.208142987" lon="-0.174085004">
        <ele>404.000000</ele>
      </trkpt>
      <trkpt lat="40.207516020" lon="-0.174365966">
        <ele>403.000000</ele>
      </trkpt>
      <trkpt lat="40.207053004" lon="-0.174494963">
        <ele>403.000000</ele>
      </trkpt>
      <trkpt lat="40.206437018" lon="-0.174560007">
        <ele>405.000000</ele>
      </trkpt>
      <trkpt lat="40.206067963" lon="-0.174546009">
        <ele>406.000000</ele>
      </trkpt>
      <trkpt lat="40.205676025" lon="-0.174365966">
        <ele>408.000000</ele>
      </trkpt>
      <trkpt lat="40.204653013" lon="-0.173797002">
        <ele>414.000000</ele>
      </trkpt>
      <trkpt lat="40.202324018" lon="-0.172641976">
        <ele>436.000000</ele>
      </trkpt>
      <trkpt lat="40.201712977" lon="-0.172391022">
        <ele>442.000000</ele>
      </trkpt>
      <trkpt lat="40.200621989" lon="-0.172232017">
        <ele>450.000000</ele>
      </trkpt>
      <trkpt lat="40.200275984" lon="-0.172247021">
        <ele>450.000000</ele>
      </trkpt>
      <trkpt lat="40.199955963" lon="-0.172339976">
        <ele>451.000000</ele>
      </trkpt>
      <trkpt lat="40.199604006" lon="-0.172511972">
        <ele>452.000000</ele>
      </trkpt>
      <trkpt lat="40.199246015" lon="-0.172815984">
        <ele>458.000000</ele>
      </trkpt>
      <trkpt lat="40.198996989" lon="-0.172881028">
        <ele>460.000000</ele>
      </trkpt>
      <trkpt lat="40.198827004" lon="-0.172881028">
        <ele>461.000000</ele>
      </trkpt>
      <trkpt lat="40.198453004" lon="-0.172684975">
        <ele>460.000000</ele>
      </trkpt>
      <trkpt lat="40.198177993" lon="-0.172578022">
        <ele>460.000000</ele>
      </trkpt>
      <trkpt lat="40.197510961" lon="-0.172570981">
        <ele>461.000000</ele>
      </trkpt>
      <trkpt lat="40.197252966" lon="-0.172657985">
        <ele>462.000000</ele>
      </trkpt>
      <trkpt lat="40.196944010" lon="-0.172931990">
        <ele>464.000000</ele>
      </trkpt>
      <trkpt lat="40.196586018" lon="-0.173429037">
        <ele>468.000000</ele>
      </trkpt>
      <trkpt lat="40.196344033" lon="-0.173840001">
        <ele>469.000000</ele>
      </trkpt>
      <trkpt lat="40.195953017" lon="-0.174250966">
        <ele>471.000000</ele>
      </trkpt>
      <trkpt lat="40.195732992" lon="-0.174503010">
        <ele>472.000000</ele>
      </trkpt>
      <trkpt lat="40.195551021" lon="-0.174532011">
        <ele>472.000000</ele>
      </trkpt>
      <trkpt lat="40.195375001" lon="-0.174394967">
        <ele>474.000000</ele>
      </trkpt>
      <trkpt lat="40.194620965" lon="-0.173218986">
        <ele>494.000000</ele>
      </trkpt>
      <trkpt lat="40.194301028" lon="-0.172858983">
        <ele>498.000000</ele>
      </trkpt>
      <trkpt lat="40.193964997" lon="-0.172613980">
        <ele>501.000000</ele>
      </trkpt>
      <trkpt lat="40.193458982" lon="-0.172204021">
        <ele>499.000000</ele>
      </trkpt>
      <trkpt lat="40.193155976" lon="-0.171907973">
        <ele>497.000000</ele>
      </trkpt>
      <trkpt lat="40.193046005" lon="-0.171633968">
        <ele>495.000000</ele>
      </trkpt>
      <trkpt lat="40.192967970" lon="-0.171373039">
        <ele>492.000000</ele>
      </trkpt>
      <trkpt lat="40.192813994" lon="-0.171252005">
        <ele>490.000000</ele>
      </trkpt>
      <trkpt lat="40.192637974" lon="-0.171266003">
        <ele>489.000000</ele>
      </trkpt>
      <trkpt lat="40.192330023" lon="-0.171381002">
        <ele>488.000000</ele>
      </trkpt>
      <trkpt lat="40.191183966" lon="-0.171864973">
        <ele>483.000000</ele>
      </trkpt>
      <trkpt lat="40.190952960" lon="-0.171877965">
        <ele>482.000000</ele>
      </trkpt>
      <trkpt lat="40.190511988" lon="-0.171800014">
        <ele>479.000000</ele>
      </trkpt>
      <trkpt lat="40.189592997" lon="-0.171554005">
        <ele>480.000000</ele>
      </trkpt>
      <trkpt lat="40.189413037" lon="-0.171449985">
        <ele>482.000000</ele>
      </trkpt>
      <trkpt lat="40.189309018" lon="-0.171269020">
        <ele>484.000000</ele>
      </trkpt>
      <trkpt lat="40.188967036" lon="-0.170103014">
        <ele>480.000000</ele>
      </trkpt>
      <trkpt lat="40.188854970" lon="-0.169897992">
        <ele>479.000000</ele>
      </trkpt>
      <trkpt lat="40.187912006" lon="-0.168787977">
        <ele>480.000000</ele>
      </trkpt>
      <trkpt lat="40.187452007" lon="-0.168308029">
        <ele>474.000000</ele>
      </trkpt>
      <trkpt lat="40.187254027" lon="-0.168233011">
        <ele>473.000000</ele>
      </trkpt>
      <trkpt lat="40.186153986" lon="-0.168222031">
        <ele>482.000000</ele>
      </trkpt>
      <trkpt lat="40.186017025" lon="-0.168132009">
        <ele>483.000000</ele>
      </trkpt>
      <trkpt lat="40.185658028" lon="-0.167487022">
        <ele>479.000000</ele>
      </trkpt>
      <trkpt lat="40.185641013" lon="-0.167305972">
        <ele>477.000000</ele>
      </trkpt>
      <trkpt lat="40.185735980" lon="-0.166785037">
        <ele>469.000000</ele>
      </trkpt>
      <trkpt lat="40.185788032" lon="-0.166264018">
        <ele>466.000000</ele>
      </trkpt>
      <trkpt lat="40.185764981" lon="-0.166024966">
        <ele>464.000000</ele>
      </trkpt>
      <trkpt lat="40.185645036" lon="-0.165735958">
        <ele>463.000000</ele>
      </trkpt>
      <trkpt lat="40.185524002" lon="-0.165555999">
        <ele>464.000000</ele>
      </trkpt>
      <trkpt lat="40.185146984" lon="-0.165294986">
        <ele>462.000000</ele>
      </trkpt>
      <trkpt lat="40.184653960" lon="-0.164818978">
        <ele>452.000000</ele>
      </trkpt>
      <trkpt lat="40.184485987" lon="-0.164700961">
        <ele>451.000000</ele>
      </trkpt>
      <trkpt lat="40.184174012" lon="-0.164632984">
        <ele>455.000000</ele>
      </trkpt>
      <trkpt lat="40.183992041" lon="-0.164552014">
        <ele>457.000000</ele>
      </trkpt>
      <trkpt lat="40.183922974" lon="-0.164461993">
        <ele>458.000000</ele>
      </trkpt>
      <trkpt lat="40.183876036" lon="-0.164173990">
        <ele>457.000000</ele>
      </trkpt>
      <trkpt lat="40.183919035" lon="-0.162871024">
        <ele>451.000000</ele>
      </trkpt>
      <trkpt lat="40.183815015" lon="-0.162559971">
        <ele>450.000000</ele>
      </trkpt>
      <trkpt lat="40.183653999" lon="-0.162351010">
        <ele>448.000000</ele>
      </trkpt>
      <trkpt lat="40.183476973" lon="-0.162192006">
        <ele>446.000000</ele>
      </trkpt>
      <trkpt lat="40.182924019" lon="-0.161925964">
        <ele>440.000000</ele>
      </trkpt>
      <trkpt lat="40.182672981" lon="-0.161839966">
        <ele>437.000000</ele>
      </trkpt>
      <trkpt lat="40.182422027" lon="-0.161919007">
        <ele>436.000000</ele>
      </trkpt>
      <trkpt lat="40.182106029" lon="-0.162038030">
        <ele>435.000000</ele>
      </trkpt>
      <trkpt lat="40.181841999" lon="-0.162112964">
        <ele>437.000000</ele>
      </trkpt>
      <trkpt lat="40.181668997" lon="-0.162072983">
        <ele>438.000000</ele>
      </trkpt>
      <trkpt lat="40.181474034" lon="-0.161913978">
        <ele>437.000000</ele>
      </trkpt>
      <trkpt lat="40.181301031" lon="-0.161812976">
        <ele>437.000000</ele>
      </trkpt>
      <trkpt lat="40.180959972" lon="-0.161540983">
        <ele>432.000000</ele>
      </trkpt>
      <trkpt lat="40.180778001" lon="-0.161472000">
        <ele>430.000000</ele>
      </trkpt>
      <trkpt lat="40.180604998" lon="-0.161535032">
        <ele>429.000000</ele>
      </trkpt>
      <trkpt lat="40.180430990" lon="-0.161677022">
        <ele>430.000000</ele>
      </trkpt>
      <trkpt lat="40.180210965" lon="-0.161909033">
        <ele>430.000000</ele>
      </trkpt>
      <trkpt lat="40.180059001" lon="-0.161959995">
        <ele>429.000000</ele>
      </trkpt>
      <trkpt lat="40.179848028" lon="-0.161919007">
        <ele>427.000000</ele>
      </trkpt>
      <trkpt lat="40.179501018" lon="-0.161755979">
        <ele>423.000000</ele>
      </trkpt>
      <trkpt lat="40.179336984" lon="-0.161727984">
        <ele>419.000000</ele>
      </trkpt>
      <trkpt lat="40.178511031" lon="-0.161829991">
        <ele>401.000000</ele>
      </trkpt>
      <trkpt lat="40.178280026" lon="-0.161823034">
        <ele>397.000000</ele>
      </trkpt>
      <trkpt lat="40.178086990" lon="-0.161755979">
        <ele>395.000000</ele>
      </trkpt>
      <trkpt lat="40.177888004" lon="-0.161551964">
        <ele>395.000000</ele>
      </trkpt>
      <trkpt lat="40.177770993" lon="-0.161274020">
        <ele>396.000000</ele>
      </trkpt>
      <trkpt lat="40.177116031" lon="-0.158268018">
        <ele>398.000000</ele>
      </trkpt>
      <trkpt lat="40.177017963" lon="-0.157915978">
        <ele>397.000000</ele>
      </trkpt>
      <trkpt lat="40.176378004" lon="-0.156738991">
        <ele>395.000000</ele>
      </trkpt>
      <trkpt lat="40.176006015" lon="-0.156110013">
        <ele>388.000000</ele>
      </trkpt>
      <trkpt lat="40.175585998" lon="-0.155560998">
        <ele>378.000000</ele>
      </trkpt>
      <trkpt lat="40.175355999" lon="-0.155445999">
        <ele>374.000000</ele>
      </trkpt>
      <trkpt lat="40.175135974" lon="-0.155454967">
        <ele>371.000000</ele>
      </trkpt>
      <trkpt lat="40.174755016" lon="-0.155664012">
        <ele>368.000000</ele>
      </trkpt>
      <trkpt lat="40.174193010" lon="-0.156023009">
        <ele>364.000000</ele>
      </trkpt>
      <trkpt lat="40.173624968" lon="-0.156540005">
        <ele>359.000000</ele>
      </trkpt>
      <trkpt lat="40.172534985" lon="-0.157658989">
        <ele>348.000000</ele>
      </trkpt>
      <trkpt lat="40.172428032" lon="-0.157940034">
        <ele>347.000000</ele>
      </trkpt>
      <trkpt lat="40.172421997" lon="-0.158516960">
        <ele>347.000000</ele>
      </trkpt>
      <trkpt lat="40.172442030" lon="-0.158734974">
        <ele>347.000000</ele>
      </trkpt>
      <trkpt lat="40.172434989" lon="-0.158990035">
        <ele>350.000000</ele>
      </trkpt>
      <trkpt lat="40.172360977" lon="-0.159164965">
        <ele>353.000000</ele>
      </trkpt>
      <trkpt lat="40.172227034" lon="-0.159260016">
        <ele>355.000000</ele>
      </trkpt>
      <trkpt lat="40.172033999" lon="-0.159217017">
        <ele>355.000000</ele>
      </trkpt>
      <trkpt lat="40.171785979" lon="-0.159077039">
        <ele>353.000000</ele>
      </trkpt>
      <trkpt lat="40.171531001" lon="-0.158962961">
        <ele>351.000000</ele>
      </trkpt>
      <trkpt lat="40.170923984" lon="-0.158815021">
        <ele>350.000000</ele>
      </trkpt>
      <trkpt lat="40.169311976" lon="-0.158569012">
        <ele>341.000000</ele>
      </trkpt>
      <trkpt lat="40.168663971" lon="-0.158516960">
        <ele>336.000000</ele>
      </trkpt>
      <trkpt lat="40.167708015" lon="-0.158586027">
        <ele>337.000000</ele>
      </trkpt>
      <trkpt lat="40.167453960" lon="-0.158577980">
        <ele>340.000000</ele>
      </trkpt>
      <trkpt lat="40.167065039" lon="-0.158420987">
        <ele>343.000000</ele>
      </trkpt>
      <trkpt lat="40.165983019" lon="-0.158087974">
        <ele>341.000000</ele>
      </trkpt>
      <trkpt lat="40.165761989" lon="-0.158123011">
        <ele>342.000000</ele>
      </trkpt>
      <trkpt lat="40.165460994" lon="-0.158298025">
        <ele>342.000000</ele>
      </trkpt>
      <trkpt lat="40.165299978" lon="-0.158489970">
        <ele>343.000000</ele>
      </trkpt>
      <trkpt lat="40.165286986" lon="-0.158674037">
        <ele>344.000000</ele>
      </trkpt>
      <trkpt lat="40.165448003" lon="-0.160651999">
        <ele>332.000000</ele>
      </trkpt>
      <trkpt lat="40.165508017" lon="-0.161142005">
        <ele>328.000000</ele>
      </trkpt>
      <trkpt lat="40.165541042" lon="-0.161841977">
        <ele>329.000000</ele>
      </trkpt>
      <trkpt lat="40.165494019" lon="-0.162149007">
        <ele>329.000000</ele>
      </trkpt>
      <trkpt lat="40.165147008" lon="-0.162594002">
        <ele>329.000000</ele>
      </trkpt>
      <trkpt lat="40.164811984" lon="-0.162908994">
        <ele>333.000000</ele>
      </trkpt>
      <trkpt lat="40.164505038" lon="-0.163286012">
        <ele>345.000000</ele>
      </trkpt>
      <trkpt lat="40.164323989" lon="-0.163319958">
        <ele>351.000000</ele>
      </trkpt>
      <trkpt lat="40.164117040" lon="-0.163119966">
        <ele>353.000000</ele>
      </trkpt>
      <trkpt lat="40.163762989" lon="-0.162069965">
        <ele>341.000000</ele>
      </trkpt>
      <trkpt lat="40.163655030" lon="-0.161885982">
        <ele>339.000000</ele>
      </trkpt>
      <trkpt lat="40.163455037" lon="-0.161746005">
        <ele>338.000000</ele>
      </trkpt>
      <trkpt lat="40.162972994" lon="-0.161595969">
        <ele>340.000000</ele>
      </trkpt>
      <trkpt lat="40.162391961" lon="-0.161167989">
        <ele>333.000000</ele>
      </trkpt>
      <trkpt lat="40.162204038" lon="-0.161090037">
        <ele>332.000000</ele>
      </trkpt>
      <trkpt lat="40.162062971" lon="-0.161211994">
        <ele>333.000000</ele>
      </trkpt>
      <trkpt lat="40.161735993" lon="-0.161904003">
        <ele>345.000000</ele>
      </trkpt>
      <trkpt lat="40.161623005" lon="-0.162149007">
        <ele>349.000000</ele>
      </trkpt>
      <trkpt lat="40.161414966" lon="-0.162155963">
        <ele>351.000000</ele>
      </trkpt>
      <trkpt lat="40.161195025" lon="-0.162060997">
        <ele>352.000000</ele>
      </trkpt>
      <trkpt lat="40.161040965" lon="-0.161833009">
        <ele>349.000000</ele>
      </trkpt>
      <trkpt lat="40.160858994" lon="-0.161771988">
        <ele>349.000000</ele>
      </trkpt>
      <trkpt lat="40.160350967" lon="-0.162043981">
        <ele>357.000000</ele>
      </trkpt>
      <trkpt lat="40.159716960" lon="-0.162411025">
        <ele>354.000000</ele>
      </trkpt>
      <trkpt lat="40.159610007" lon="-0.162673965">
        <ele>354.000000</ele>
      </trkpt>
      <trkpt lat="40.159435999" lon="-0.162978983">
        <ele>357.000000</ele>
      </trkpt>
      <trkpt lat="40.159296021" lon="-0.163032040">
        <ele>360.000000</ele>
      </trkpt>
      <trkpt lat="40.159040960" lon="-0.163005972">
        <ele>365.000000</ele>
      </trkpt>
      <trkpt lat="40.158847002" lon="-0.162796006">
        <ele>369.000000</ele>
      </trkpt>
      <trkpt lat="40.158833005" lon="-0.162437009">
        <ele>370.000000</ele>
      </trkpt>
      <trkpt lat="40.158927971" lon="-0.161798978">
        <ele>370.000000</ele>
      </trkpt>
      <trkpt lat="40.159035008" lon="-0.161449034">
        <ele>369.000000</ele>
      </trkpt>
      <trkpt lat="40.159314964" lon="-0.161220962">
        <ele>365.000000</ele>
      </trkpt>
      <trkpt lat="40.159501964" lon="-0.160922986">
        <ele>364.000000</ele>
      </trkpt>
      <trkpt lat="40.159529960" lon="-0.160677982">
        <ele>367.000000</ele>
      </trkpt>
      <trkpt lat="40.159401968" lon="-0.160354022">
        <ele>370.000000</ele>
      </trkpt>
      <trkpt lat="40.159135005" lon="-0.160040036">
        <ele>366.000000</ele>
      </trkpt>
      <trkpt lat="40.158886984" lon="-0.159986978">
        <ele>365.000000</ele>
      </trkpt>
      <trkpt lat="40.158686992" lon="-0.160214966">
        <ele>369.000000</ele>
      </trkpt>
      <trkpt lat="40.158446012" lon="-0.160731040">
        <ele>375.000000</ele>
      </trkpt>
      <trkpt lat="40.158306034" lon="-0.161264967">
        <ele>381.000000</ele>
      </trkpt>
      <trkpt lat="40.158287007" lon="-0.161464959">
        <ele>382.000000</ele>
      </trkpt>
      <trkpt lat="40.158262029" lon="-0.161588006">
        <ele>383.000000</ele>
      </trkpt>
      <trkpt lat="40.158262029" lon="-0.161597980">
        <ele>383.000000</ele>
      </trkpt>
      <trkpt lat="40.158210983" lon="-0.162073988">
        <ele>388.000000</ele>
      </trkpt>
      <trkpt lat="40.157946032" lon="-0.163196996">
        <ele>395.000000</ele>
      </trkpt>
      <trkpt lat="40.157801025" lon="-0.163633022">
        <ele>396.000000</ele>
      </trkpt>
      <trkpt lat="40.157745034" lon="-0.163967041">
        <ele>397.000000</ele>
      </trkpt>
      <trkpt lat="40.157787027" lon="-0.164542962">
        <ele>399.000000</ele>
      </trkpt>
      <trkpt lat="40.158262029" lon="-0.161597980">
        <ele>383.000000</ele>
      </trkpt>
      <trkpt lat="40.158210983" lon="-0.162073988">
        <ele>388.000000</ele>
      </trkpt>
      <trkpt lat="40.157946032" lon="-0.163196996">
        <ele>395.000000</ele>
      </trkpt>
      <trkpt lat="40.157801025" lon="-0.163633022">
        <ele>396.000000</ele>
      </trkpt>
      <trkpt lat="40.157745034" lon="-0.163967041">
        <ele>397.000000</ele>
      </trkpt>
      <trkpt lat="40.157787027" lon="-0.164542962">
        <ele>399.000000</ele>
      </trkpt>
      <trkpt lat="40.157988025" lon="-0.165581983">
        <ele>388.000000</ele>
      </trkpt>
      <trkpt lat="40.158154992" lon="-0.165878031">
        <ele>384.000000</ele>
      </trkpt>
      <trkpt lat="40.158436960" lon="-0.166107025">
        <ele>382.000000</ele>
      </trkpt>
      <trkpt lat="40.158551959" lon="-0.166325038">
        <ele>382.000000</ele>
      </trkpt>
      <trkpt lat="40.158633012" lon="-0.166788977">
        <ele>382.000000</ele>
      </trkpt>
      <trkpt lat="40.158680035" lon="-0.167280994">
        <ele>383.000000</ele>
      </trkpt>
      <trkpt lat="40.158671988" lon="-0.167704029">
        <ele>384.000000</ele>
      </trkpt>
      <trkpt lat="40.158548020" lon="-0.168112982">
        <ele>381.000000</ele>
      </trkpt>
      <trkpt lat="40.158436960" lon="-0.168525958">
        <ele>378.000000</ele>
      </trkpt>
      <trkpt lat="40.158367977" lon="-0.168895014">
        <ele>376.000000</ele>
      </trkpt>
      <trkpt lat="40.158360014" lon="-0.169290975">
        <ele>376.000000</ele>
      </trkpt>
      <trkpt lat="40.158440983" lon="-0.170074012">
        <ele>383.000000</ele>
      </trkpt>
      <trkpt lat="40.158423968" lon="-0.170296971">
        <ele>384.000000</ele>
      </trkpt>
      <trkpt lat="40.158167984" lon="-0.170806004">
        <ele>387.000000</ele>
      </trkpt>
      <trkpt lat="40.157976039" lon="-0.171090988">
        <ele>386.000000</ele>
      </trkpt>
      <trkpt lat="40.157804964" lon="-0.171257034">
        <ele>385.000000</ele>
      </trkpt>
      <trkpt lat="40.157587035" lon="-0.171335991">
        <ele>382.000000</ele>
      </trkpt>
      <trkpt lat="40.157395005" lon="-0.171491979">
        <ele>381.000000</ele>
      </trkpt>
      <trkpt lat="40.157241030" lon="-0.171709992">
        <ele>381.000000</ele>
      </trkpt>
      <trkpt lat="40.157091999" lon="-0.172091033">
        <ele>382.000000</ele>
      </trkpt>
      <trkpt lat="40.156810032" lon="-0.172849009">
        <ele>387.000000</ele>
      </trkpt>
      <trkpt lat="40.156455981" lon="-0.173397018">
        <ele>384.000000</ele>
      </trkpt>
      <trkpt lat="40.156310974" lon="-0.173581000">
        <ele>382.000000</ele>
      </trkpt>
      <trkpt lat="40.156169990" lon="-0.173917031">
        <ele>381.000000</ele>
      </trkpt>
      <trkpt lat="40.156092960" lon="-0.174202016">
        <ele>380.000000</ele>
      </trkpt>
      <trkpt lat="40.156118022" lon="-0.174481971">
        <ele>380.000000</ele>
      </trkpt>
      <trkpt lat="40.156228999" lon="-0.174967032">
        <ele>382.000000</ele>
      </trkpt>
      <trkpt lat="40.156685980" lon="-0.176263042">
        <ele>393.000000</ele>
      </trkpt>
      <trkpt lat="40.156806009" lon="-0.176660009">
        <ele>394.000000</ele>
      </trkpt>
      <trkpt lat="40.156829981" lon="-0.176951028">
        <ele>395.000000</ele>
      </trkpt>
      <trkpt lat="40.156797040" lon="-0.177124031">
        <ele>396.000000</ele>
      </trkpt>
      <trkpt lat="40.156711964" lon="-0.177229978">
        <ele>399.000000</ele>
      </trkpt>
      <trkpt lat="40.156582966" lon="-0.177297033">
        <ele>402.000000</ele>
      </trkpt>
      <trkpt lat="40.156438965" lon="-0.177301979">
        <ele>406.000000</ele>
      </trkpt>
      <trkpt lat="40.156250959" lon="-0.177280018">
        <ele>410.000000</ele>
      </trkpt>
      <trkpt lat="40.156125985" lon="-0.177168036">
        <ele>413.000000</ele>
      </trkpt>
      <trkpt lat="40.155964969" lon="-0.176889002">
        <ele>414.000000</ele>
      </trkpt>
      <trkpt lat="40.155716026" lon="-0.176536040">
        <ele>414.000000</ele>
      </trkpt>
      <trkpt lat="40.155477980" lon="-0.176095990">
        <ele>409.000000</ele>
      </trkpt>
      <trkpt lat="40.155371027" lon="-0.175961964">
        <ele>406.000000</ele>
      </trkpt>
      <trkpt lat="40.155243035" lon="-0.175927011">
        <ele>403.000000</ele>
      </trkpt>
      <trkpt lat="40.155081013" lon="-0.175932962">
        <ele>401.000000</ele>
      </trkpt>
      <trkpt lat="40.154896025" lon="-0.176078975">
        <ele>402.000000</ele>
      </trkpt>
      <trkpt lat="40.154432002" lon="-0.176493041">
        <ele>406.000000</ele>
      </trkpt>
      <trkpt lat="40.154239973" lon="-0.176697979">
        <ele>409.000000</ele>
      </trkpt>
      <trkpt lat="40.154111981" lon="-0.176951028">
        <ele>414.000000</ele>
      </trkpt>
      <trkpt lat="40.153965969" lon="-0.177200977">
        <ele>418.000000</ele>
      </trkpt>
      <trkpt lat="40.153800007" lon="-0.177292004">
        <ele>417.000000</ele>
      </trkpt>
      <trkpt lat="40.153590962" lon="-0.177381020">
        <ele>420.000000</ele>
      </trkpt>
      <trkpt lat="40.153458025" lon="-0.177514963">
        <ele>425.000000</ele>
      </trkpt>
      <trkpt lat="40.153313018" lon="-0.177783016">
        <ele>434.000000</ele>
      </trkpt>
      <trkpt lat="40.153222997" lon="-0.177901033">
        <ele>438.000000</ele>
      </trkpt>
      <trkpt lat="40.153069021" lon="-0.178001029">
        <ele>442.000000</ele>
      </trkpt>
      <trkpt lat="40.152925020" lon="-0.177978985">
        <ele>442.000000</ele>
      </trkpt>
      <trkpt lat="40.152797028" lon="-0.177803971">
        <ele>437.000000</ele>
      </trkpt>
      <trkpt lat="40.152698038" lon="-0.177687965">
        <ele>435.000000</ele>
      </trkpt>
      <trkpt lat="40.152569963" lon="-0.177615965">
        <ele>435.000000</ele>
      </trkpt>
      <trkpt lat="40.152386986" lon="-0.177559974">
        <ele>436.000000</ele>
      </trkpt>
      <trkpt lat="40.152165033" lon="-0.177520998">
        <ele>437.000000</ele>
      </trkpt>
      <trkpt lat="40.151993958" lon="-0.177475987">
        <ele>438.000000</ele>
      </trkpt>
      <trkpt lat="40.151819028" lon="-0.177341960">
        <ele>436.000000</ele>
      </trkpt>
      <trkpt lat="40.151236989" lon="-0.176560013">
        <ele>429.000000</ele>
      </trkpt>
      <trkpt lat="40.151153002" lon="-0.176441995">
        <ele>429.000000</ele>
      </trkpt>
      <trkpt lat="40.151049988" lon="-0.176408971">
        <ele>429.000000</ele>
      </trkpt>
      <trkpt lat="40.150934989" lon="-0.176436966">
        <ele>430.000000</ele>
      </trkpt>
      <trkpt lat="40.150871035" lon="-0.176576022">
        <ele>433.000000</ele>
      </trkpt>
      <trkpt lat="40.150756035" lon="-0.176737960">
        <ele>436.000000</ele>
      </trkpt>
      <trkpt lat="40.150592001" lon="-0.176815996">
        <ele>439.000000</ele>
      </trkpt>
      <trkpt lat="40.150400978" lon="-0.176737960">
        <ele>439.000000</ele>
      </trkpt>
      <trkpt lat="40.150187993" lon="-0.176626984">
        <ele>437.000000</ele>
      </trkpt>
      <trkpt lat="40.150012979" lon="-0.176576022">
        <ele>436.000000</ele>
      </trkpt>
      <trkpt lat="40.149859004" lon="-0.176593037">
        <ele>436.000000</ele>
      </trkpt>
      <trkpt lat="40.149683990" lon="-0.176737960">
        <ele>439.000000</ele>
      </trkpt>
      <trkpt lat="40.149422977" lon="-0.176923033">
        <ele>441.000000</ele>
      </trkpt>
      <trkpt lat="40.148911010" lon="-0.177236013">
        <ele>443.000000</ele>
      </trkpt>
      <trkpt lat="40.148675982" lon="-0.177493002">
        <ele>444.000000</ele>
      </trkpt>
      <trkpt lat="40.148450006" lon="-0.177648989">
        <ele>440.000000</ele>
      </trkpt>
      <trkpt lat="40.148151023" lon="-0.177828027">
        <ele>432.000000</ele>
      </trkpt>
      <trkpt lat="40.147983972" lon="-0.178011004">
        <ele>428.000000</ele>
      </trkpt>
      <trkpt lat="40.147914989" lon="-0.178146036">
        <ele>426.000000</ele>
      </trkpt>
      <trkpt lat="40.147941979" lon="-0.178335970">
        <ele>426.000000</ele>
      </trkpt>
      <trkpt lat="40.148036024" lon="-0.178532023">
        <ele>430.000000</ele>
      </trkpt>
      <trkpt lat="40.148078017" lon="-0.178789012">
        <ele>432.000000</ele>
      </trkpt>
      <trkpt lat="40.148111964" lon="-0.179051030">
        <ele>437.000000</ele>
      </trkpt>
      <trkpt lat="40.148036024" lon="-0.179374991">
        <ele>439.000000</ele>
      </trkpt>
      <trkpt lat="40.147933010" lon="-0.179627035">
        <ele>438.000000</ele>
      </trkpt>
      <trkpt lat="40.147779034" lon="-0.179893998">
        <ele>441.000000</ele>
      </trkpt>
      <trkpt lat="40.147677027" lon="-0.180112012">
        <ele>443.000000</ele>
      </trkpt>
      <trkpt lat="40.147604020" lon="-0.180515014">
        <ele>444.000000</ele>
      </trkpt>
      <trkpt lat="40.147608966" lon="-0.180809973">
        <ele>443.000000</ele>
      </trkpt>
      <trkpt lat="40.147598991" lon="-0.181027986">
        <ele>443.000000</ele>
      </trkpt>
      <trkpt lat="40.147690019" lon="-0.181251029">
        <ele>444.000000</ele>
      </trkpt>
      <trkpt lat="40.147714997" lon="-0.181464013">
        <ele>447.000000</ele>
      </trkpt>
      <trkpt lat="40.147677027" lon="-0.181631986">
        <ele>449.000000</ele>
      </trkpt>
      <trkpt lat="40.147552975" lon="-0.181877995">
        <ele>449.000000</ele>
      </trkpt>
      <trkpt lat="40.147411991" lon="-0.181983020">
        <ele>447.000000</ele>
      </trkpt>
      <trkpt lat="40.147198001" lon="-0.182050997">
        <ele>442.000000</ele>
      </trkpt>
      <trkpt lat="40.147032039" lon="-0.182068013">
        <ele>439.000000</ele>
      </trkpt>
      <trkpt lat="40.146925002" lon="-0.182179995">
        <ele>439.000000</ele>
      </trkpt>
      <trkpt lat="40.146894995" lon="-0.182313016">
        <ele>440.000000</ele>
      </trkpt>
      <trkpt lat="40.146907987" lon="-0.182469003">
        <ele>440.000000</ele>
      </trkpt>
      <trkpt lat="40.147206970" lon="-0.183050958">
        <ele>445.000000</ele>
      </trkpt>
      <trkpt lat="40.147283999" lon="-0.183252040">
        <ele>448.000000</ele>
      </trkpt>
      <trkpt lat="40.147387013" lon="-0.183481034">
        <ele>451.000000</ele>
      </trkpt>
      <trkpt lat="40.147484997" lon="-0.183726037">
        <ele>452.000000</ele>
      </trkpt>
      <trkpt lat="40.147446021" lon="-0.183912031">
        <ele>455.000000</ele>
      </trkpt>
      <trkpt lat="40.147288023" lon="-0.184077993">
        <ele>459.000000</ele>
      </trkpt>
      <trkpt lat="40.147083001" lon="-0.184145970">
        <ele>463.000000</ele>
      </trkpt>
      <trkpt lat="40.146942018" lon="-0.184060978">
        <ele>462.000000</ele>
      </trkpt>
      <trkpt lat="40.146784019" lon="-0.183878001">
        <ele>459.000000</ele>
      </trkpt>
      <trkpt lat="40.146574974" lon="-0.183709022">
        <ele>458.000000</ele>
      </trkpt>
      <trkpt lat="40.146409012" lon="-0.183602991">
        <ele>457.000000</ele>
      </trkpt>
      <trkpt lat="40.145982038" lon="-0.183760989">
        <ele>464.000000</ele>
      </trkpt>
      <trkpt lat="40.145813981" lon="-0.183694018">
        <ele>465.000000</ele>
      </trkpt>
      <trkpt lat="40.145643996" lon="-0.183476005">
        <ele>464.000000</ele>
      </trkpt>
      <trkpt lat="40.145412991" lon="-0.183268972">
        <ele>464.000000</ele>
      </trkpt>
      <trkpt lat="40.144776972" lon="-0.182978036">
        <ele>462.000000</ele>
      </trkpt>
      <trkpt lat="40.144606987" lon="-0.182994967">
        <ele>463.000000</ele>
      </trkpt>
      <trkpt lat="40.144533981" lon="-0.183084989">
        <ele>463.000000</ele>
      </trkpt>
      <trkpt lat="40.144281015" lon="-0.183492014">
        <ele>463.000000</ele>
      </trkpt>
      <trkpt lat="40.143828979" lon="-0.184016973">
        <ele>463.000000</ele>
      </trkpt>
      <trkpt lat="40.143231014" lon="-0.184764974">
        <ele>464.000000</ele>
      </trkpt>
      <trkpt lat="40.143056000" lon="-0.184872011">
        <ele>464.000000</ele>
      </trkpt>
      <trkpt lat="40.142826000" lon="-0.184872011">
        <ele>462.000000</ele>
      </trkpt>
      <trkpt lat="40.142551996" lon="-0.184810990">
        <ele>458.000000</ele>
      </trkpt>
      <trkpt lat="40.142375976" lon="-0.184866982">
        <ele>457.000000</ele>
      </trkpt>
      <trkpt lat="40.142214959" lon="-0.184989022">
        <ele>457.000000</ele>
      </trkpt>
      <trkpt lat="40.142103983" lon="-0.185279036">
        <ele>457.000000</ele>
      </trkpt>
      <trkpt lat="40.141955037" lon="-0.185586987">
        <ele>460.000000</ele>
      </trkpt>
      <trkpt lat="40.141873984" lon="-0.185698969">
        <ele>461.000000</ele>
      </trkpt>
      <trkpt lat="40.141754039" lon="-0.185787985">
        <ele>462.000000</ele>
      </trkpt>
      <trkpt lat="40.141552035" lon="-0.185859986">
        <ele>463.000000</ele>
      </trkpt>
      <trkpt lat="40.141397975" lon="-0.185827967">
        <ele>462.000000</ele>
      </trkpt>
      <trkpt lat="40.141318012" lon="-0.185698969">
        <ele>462.000000</ele>
      </trkpt>
      <trkpt lat="40.141279958" lon="-0.185458995">
        <ele>461.000000</ele>
      </trkpt>
      <trkpt lat="40.141339973" lon="-0.185094969">
        <ele>464.000000</ele>
      </trkpt>
      <trkpt lat="40.141762001" lon="-0.183638027">
        <ele>466.000000</ele>
      </trkpt>
      <trkpt lat="40.142000969" lon="-0.183195965">
        <ele>463.000000</ele>
      </trkpt>
      <trkpt lat="40.142132984" lon="-0.182894971">
        <ele>462.000000</ele>
      </trkpt>
      <trkpt lat="40.142181013" lon="-0.182519965">
        <ele>467.000000</ele>
      </trkpt>
      <trkpt lat="40.142291989" lon="-0.181905990">
        <ele>471.000000</ele>
      </trkpt>
      <trkpt lat="40.142399026" lon="-0.181598039">
        <ele>471.000000</ele>
      </trkpt>
      <trkpt lat="40.142569011" lon="-0.181357982">
        <ele>467.000000</ele>
      </trkpt>
      <trkpt lat="40.142650986" lon="-0.181051036">
        <ele>468.000000</ele>
      </trkpt>
      <trkpt lat="40.142728016" lon="-0.180636970">
        <ele>473.000000</ele>
      </trkpt>
      <trkpt lat="40.142847039" lon="-0.180391967">
        <ele>474.000000</ele>
      </trkpt>
      <trkpt lat="40.143129006" lon="-0.180150988">
        <ele>468.000000</ele>
      </trkpt>
      <trkpt lat="40.143244006" lon="-0.179856028">
        <ele>468.000000</ele>
      </trkpt>
      <trkpt lat="40.143239982" lon="-0.179521004">
        <ele>473.000000</ele>
      </trkpt>
      <trkpt lat="40.143287005" lon="-0.179145997">
        <ele>475.000000</ele>
      </trkpt>
      <trkpt lat="40.143409967" lon="-0.178833017">
        <ele>475.000000</ele>
      </trkpt>
      <trkpt lat="40.143475011" lon="-0.178520037">
        <ele>474.000000</ele>
      </trkpt>
      <trkpt lat="40.143402005" lon="-0.178239997">
        <ele>476.000000</ele>
      </trkpt>
      <trkpt lat="40.143261021" lon="-0.177888963">
        <ele>478.000000</ele>
      </trkpt>
      <trkpt lat="40.143124983" lon="-0.177475987">
        <ele>476.000000</ele>
      </trkpt>
      <trkpt lat="40.143063962" lon="-0.177240958">
        <ele>475.000000</ele>
      </trkpt>
      <trkpt lat="40.142928008" lon="-0.177045995">
        <ele>475.000000</ele>
      </trkpt>
      <trkpt lat="40.142774032" lon="-0.177007020">
        <ele>475.000000</ele>
      </trkpt>
      <trkpt lat="40.142304981" lon="-0.177051025">
        <ele>476.000000</ele>
      </trkpt>
      <trkpt lat="40.142065007" lon="-0.177045995">
        <ele>476.000000</ele>
      </trkpt>
      <trkpt lat="40.141446004" lon="-0.176682975">
        <ele>472.000000</ele>
      </trkpt>
      <trkpt lat="40.140549978" lon="-0.176146030">
        <ele>465.000000</ele>
      </trkpt>
      <trkpt lat="40.140199028" lon="-0.176034970">
        <ele>462.000000</ele>
      </trkpt>
      <trkpt lat="40.139976991" lon="-0.176095990">
        <ele>461.000000</ele>
      </trkpt>
      <trkpt lat="40.139788985" lon="-0.176223982">
        <ele>461.000000</ele>
      </trkpt>
      <trkpt lat="40.139558986" lon="-0.176459011">
        <ele>462.000000</ele>
      </trkpt>
      <trkpt lat="40.139362011" lon="-0.176604018">
        <ele>465.000000</ele>
      </trkpt>
      <trkpt lat="40.139179034" lon="-0.176621033">
        <ele>467.000000</ele>
      </trkpt>
      <trkpt lat="40.139054982" lon="-0.176525982">
        <ele>468.000000</ele>
      </trkpt>
      <trkpt lat="40.138998991" lon="-0.176335964">
        <ele>467.000000</ele>
      </trkpt>
      <trkpt lat="40.138998991" lon="-0.175945032">
        <ele>463.000000</ele>
      </trkpt>
      <trkpt lat="40.138969989" lon="-0.175554017">
        <ele>461.000000</ele>
      </trkpt>
      <trkpt lat="40.138909975" lon="-0.175318988">
        <ele>459.000000</ele>
      </trkpt>
      <trkpt lat="40.138734961" lon="-0.174939036">
        <ele>455.000000</ele>
      </trkpt>
      <trkpt lat="40.138571011" lon="-0.174687998">
        <ele>450.000000</ele>
      </trkpt>
      <trkpt lat="40.138389040" lon="-0.174564030">
        <ele>447.000000</ele>
      </trkpt>
      <trkpt lat="40.138130961" lon="-0.174481971">
        <ele>445.000000</ele>
      </trkpt>
      <trkpt lat="40.137931975" lon="-0.174514996">
        <ele>443.000000</ele>
      </trkpt>
      <trkpt lat="40.137657970" lon="-0.174694033">
        <ele>441.000000</ele>
      </trkpt>
      <trkpt lat="40.137311965" lon="-0.175040038">
        <ele>439.000000</ele>
      </trkpt>
      <trkpt lat="40.137124965" lon="-0.175274983">
        <ele>438.000000</ele>
      </trkpt>
      <trkpt lat="40.137022035" lon="-0.175491991">
        <ele>439.000000</ele>
      </trkpt>
      <trkpt lat="40.136873005" lon="-0.175777981">
        <ele>440.000000</ele>
      </trkpt>
      <trkpt lat="40.136433039" lon="-0.176267987">
        <ele>439.000000</ele>
      </trkpt>
      <trkpt lat="40.135724014" lon="-0.177173987">
        <ele>439.000000</ele>
      </trkpt>
      <trkpt lat="40.135497032" lon="-0.177509012">
        <ele>438.000000</ele>
      </trkpt>
      <trkpt lat="40.135257980" lon="-0.177894998">
        <ele>439.000000</ele>
      </trkpt>
      <trkpt lat="40.135044996" lon="-0.178113012">
        <ele>441.000000</ele>
      </trkpt>
      <trkpt lat="40.134897977" lon="-0.178146036">
        <ele>441.000000</ele>
      </trkpt>
      <trkpt lat="40.134711983" lon="-0.178085016">
        <ele>440.000000</ele>
      </trkpt>
      <trkpt lat="40.134647023" lon="-0.177792991">
        <ele>440.000000</ele>
      </trkpt>
      <trkpt lat="40.134680970" lon="-0.177325029">
        <ele>443.000000</ele>
      </trkpt>
      <trkpt lat="40.134874005" lon="-0.176532017">
        <ele>448.000000</ele>
      </trkpt>
      <trkpt lat="40.134911975" lon="-0.175984008">
        <ele>452.000000</ele>
      </trkpt>
      <trkpt lat="40.134881968" lon="-0.175447986">
        <ele>456.000000</ele>
      </trkpt>
      <trkpt lat="40.134757999" lon="-0.174615998">
        <ele>454.000000</ele>
      </trkpt>
      <trkpt lat="40.134643000" lon="-0.174375018">
        <ele>454.000000</ele>
      </trkpt>
      <trkpt lat="40.134458011" lon="-0.174219031">
        <ele>452.000000</ele>
      </trkpt>
      <trkpt lat="40.134134972" lon="-0.174162034">
        <ele>449.000000</ele>
      </trkpt>
      <trkpt lat="40.133729037" lon="-0.174151976">
        <ele>446.000000</ele>
      </trkpt>
      <trkpt lat="40.133511024" lon="-0.174185000">
        <ele>443.000000</ele>
      </trkpt>
      <trkpt lat="40.133374985" lon="-0.174303018">
        <ele>444.000000</ele>
      </trkpt>
      <trkpt lat="40.133241965" lon="-0.174481971">
        <ele>446.000000</ele>
      </trkpt>
      <trkpt lat="40.133087989" lon="-0.174654974">
        <ele>448.000000</ele>
      </trkpt>
      <trkpt lat="40.132794036" lon="-0.174822025">
        <ele>448.000000</ele>
      </trkpt>
      <trkpt lat="40.132448031" lon="-0.174950017">
        <ele>448.000000</ele>
      </trkpt>
      <trkpt lat="40.131987026" lon="-0.175096029">
        <ele>448.000000</ele>
      </trkpt>
      <trkpt lat="40.131726013" lon="-0.175129976">
        <ele>451.000000</ele>
      </trkpt>
      <trkpt lat="40.131272972" lon="-0.175091000">
        <ele>454.000000</ele>
      </trkpt>
      <trkpt lat="40.130966026" lon="-0.174979018">
        <ele>459.000000</ele>
      </trkpt>
      <trkpt lat="40.130838035" lon="-0.174822025">
        <ele>459.000000</ele>
      </trkpt>
      <trkpt lat="40.130768968" lon="-0.173990037">
        <ele>448.000000</ele>
      </trkpt>
      <trkpt lat="40.130726974" lon="-0.173610002">
        <ele>443.000000</ele>
      </trkpt>
      <trkpt lat="40.130640976" lon="-0.173335997">
        <ele>439.000000</ele>
      </trkpt>
      <trkpt lat="40.130449031" lon="-0.172900977">
        <ele>434.000000</ele>
      </trkpt>
      <trkpt lat="40.130281979" lon="-0.172659997">
        <ele>431.000000</ele>
      </trkpt>
      <trkpt lat="40.130116018" lon="-0.172581039">
        <ele>431.000000</ele>
      </trkpt>
      <trkpt lat="40.129971011" lon="-0.172570981">
        <ele>431.000000</ele>
      </trkpt>
      <trkpt lat="40.129612014" lon="-0.172649017">
        <ele>435.000000</ele>
      </trkpt>
      <trkpt lat="40.129411016" lon="-0.172632001">
        <ele>437.000000</ele>
      </trkpt>
      <trkpt lat="40.129188979" lon="-0.172448019">
        <ele>434.000000</ele>
      </trkpt>
      <trkpt lat="40.128963003" lon="-0.172224976">
        <ele>430.000000</ele>
      </trkpt>
      <trkpt lat="40.128799975" lon="-0.172135038">
        <ele>430.000000</ele>
      </trkpt>
      <trkpt lat="40.128476014" lon="-0.172101008">
        <ele>427.000000</ele>
      </trkpt>
      <trkpt lat="40.128111988" lon="-0.172168985">
        <ele>427.000000</ele>
      </trkpt>
      <trkpt lat="40.127758021" lon="-0.172312986">
        <ele>428.000000</ele>
      </trkpt>
      <trkpt lat="40.127472030" lon="-0.172525970">
        <ele>432.000000</ele>
      </trkpt>
      <trkpt lat="40.127317971" lon="-0.172710037">
        <ele>436.000000</ele>
      </trkpt>
      <trkpt lat="40.127241025" lon="-0.172849009">
        <ele>439.000000</ele>
      </trkpt>
      <trkpt lat="40.127129965" lon="-0.172956968">
        <ele>441.000000</ele>
      </trkpt>
      <trkpt lat="40.127018988" lon="-0.172961997">
        <ele>439.000000</ele>
      </trkpt>
      <trkpt lat="40.126817990" lon="-0.172822019">
        <ele>432.000000</ele>
      </trkpt>
      <trkpt lat="40.126598971" lon="-0.172693022">
        <ele>425.000000</ele>
      </trkpt>
      <trkpt lat="40.126408031" lon="-0.172739038">
        <ele>423.000000</ele>
      </trkpt>
      <trkpt lat="40.126276016" lon="-0.172849009">
        <ele>422.000000</ele>
      </trkpt>
      <trkpt lat="40.126228994" lon="-0.173062999">
        <ele>426.000000</ele>
      </trkpt>
      <trkpt lat="40.126173003" lon="-0.173252011">
        <ele>430.000000</ele>
      </trkpt>
      <trkpt lat="40.126010980" lon="-0.173731958">
        <ele>443.000000</ele>
      </trkpt>
      <trkpt lat="40.125887012" lon="-0.174022978">
        <ele>450.000000</ele>
      </trkpt>
      <trkpt lat="40.125762960" lon="-0.174095985">
        <ele>454.000000</ele>
      </trkpt>
      <trkpt lat="40.125655001" lon="-0.174095985">
        <ele>456.000000</ele>
      </trkpt>
      <trkpt lat="40.125558022" lon="-0.174022978">
        <ele>456.000000</ele>
      </trkpt>
      <trkpt lat="40.125408992" lon="-0.173962042">
        <ele>457.000000</ele>
      </trkpt>
      <trkpt lat="40.125203971" lon="-0.173939997">
        <ele>457.000000</ele>
      </trkpt>
      <trkpt lat="40.125084026" lon="-0.173910996">
        <ele>457.000000</ele>
      </trkpt>
      <trkpt lat="40.124891996" lon="-0.173821980">
        <ele>456.000000</ele>
      </trkpt>
      <trkpt lat="40.124703990" lon="-0.173748974">
        <ele>456.000000</ele>
      </trkpt>
      <trkpt lat="40.124404002" lon="-0.173783004">
        <ele>456.000000</ele>
      </trkpt>
      <trkpt lat="40.124166040" lon="-0.173845030">
        <ele>456.000000</ele>
      </trkpt>
      <trkpt lat="40.123602021" lon="-0.174078969">
        <ele>457.000000</ele>
      </trkpt>
      <trkpt lat="40.123336986" lon="-0.174158011">
        <ele>457.000000</ele>
      </trkpt>
      <trkpt lat="40.123148980" lon="-0.174190030">
        <ele>457.000000</ele>
      </trkpt>
      <trkpt lat="40.122917974" lon="-0.174158011">
        <ele>454.000000</ele>
      </trkpt>
      <trkpt lat="40.122699961" lon="-0.174078969">
        <ele>453.000000</ele>
      </trkpt>
      <trkpt lat="40.122485971" lon="-0.174102020">
        <ele>453.000000</ele>
      </trkpt>
      <trkpt lat="40.122285979" lon="-0.174185000">
        <ele>455.000000</ele>
      </trkpt>
      <trkpt lat="40.122071989" lon="-0.174212996">
        <ele>455.000000</ele>
      </trkpt>
      <trkpt lat="40.121896975" lon="-0.174151976">
        <ele>458.000000</ele>
      </trkpt>
      <trkpt lat="40.121725984" lon="-0.173966987">
        <ele>459.000000</ele>
      </trkpt>
      <trkpt lat="40.121003967" lon="-0.173000973">
        <ele>460.000000</ele>
      </trkpt>
      <trkpt lat="40.120898020" lon="-0.172659997">
        <ele>458.000000</ele>
      </trkpt>
      <trkpt lat="40.120760975" lon="-0.172312986">
        <ele>456.000000</ele>
      </trkpt>
      <trkpt lat="40.120607000" lon="-0.172224976">
        <ele>457.000000</ele>
      </trkpt>
      <trkpt lat="40.120487977" lon="-0.172219025">
        <ele>457.000000</ele>
      </trkpt>
      <trkpt lat="40.120371971" lon="-0.172303012">
        <ele>457.000000</ele>
      </trkpt>
      <trkpt lat="40.120256972" lon="-0.172504010">
        <ele>457.000000</ele>
      </trkpt>
      <trkpt lat="40.120110959" lon="-0.172788994">
        <ele>458.000000</ele>
      </trkpt>
      <trkpt lat="40.119970981" lon="-0.173023017">
        <ele>460.000000</ele>
      </trkpt>
      <trkpt lat="40.119749028" lon="-0.173218986">
        <ele>462.000000</ele>
      </trkpt>
      <trkpt lat="40.119507965" lon="-0.173391989">
        <ele>463.000000</ele>
      </trkpt>
      <trkpt lat="40.119202025" lon="-0.173588041">
        <ele>461.000000</ele>
      </trkpt>
      <trkpt lat="40.118807992" lon="-0.173917031">
        <ele>458.000000</ele>
      </trkpt>
      <trkpt lat="40.118586961" lon="-0.174219031">
        <ele>457.000000</ele>
      </trkpt>
      <trkpt lat="40.118432986" lon="-0.174514996">
        <ele>456.000000</ele>
      </trkpt>
      <trkpt lat="40.118369032" lon="-0.174834011">
        <ele>457.000000</ele>
      </trkpt>
      <trkpt lat="40.118236011" lon="-0.175548987">
        <ele>462.000000</ele>
      </trkpt>
      <trkpt lat="40.118116988" lon="-0.175731964">
        <ele>464.000000</ele>
      </trkpt>
      <trkpt lat="40.117855975" lon="-0.175866997">
        <ele>463.000000</ele>
      </trkpt>
      <trkpt lat="40.117108980" lon="-0.176130021">
        <ele>456.000000</ele>
      </trkpt>
      <trkpt lat="40.116886022" lon="-0.176275028">
        <ele>451.000000</ele>
      </trkpt>
      <trkpt lat="40.116774961" lon="-0.176560013">
        <ele>449.000000</ele>
      </trkpt>
      <trkpt lat="40.116650993" lon="-0.177083965">
        <ele>449.000000</ele>
      </trkpt>
      <trkpt lat="40.116609000" lon="-0.177426031">
        <ele>450.000000</ele>
      </trkpt>
      <trkpt lat="40.116510009" lon="-0.178967966">
        <ele>454.000000</ele>
      </trkpt>
      <trkpt lat="40.116591984" lon="-0.179353030">
        <ele>452.000000</ele>
      </trkpt>
      <trkpt lat="40.116754007" lon="-0.179794002">
        <ele>450.000000</ele>
      </trkpt>
      <trkpt lat="40.116942013" lon="-0.180235980">
        <ele>446.000000</ele>
      </trkpt>
      <trkpt lat="40.117082996" lon="-0.180476038">
        <ele>444.000000</ele>
      </trkpt>
      <trkpt lat="40.117549030" lon="-0.180833023">
        <ele>447.000000</ele>
      </trkpt>
      <trkpt lat="40.119044026" lon="-0.181928035">
        <ele>456.000000</ele>
      </trkpt>
      <trkpt lat="40.120055974" lon="-0.182636976">
        <ele>457.000000</ele>
      </trkpt>
      <trkpt lat="40.121362964" lon="-0.183102004">
        <ele>455.000000</ele>
      </trkpt>
      <trkpt lat="40.121701006" lon="-0.183296967">
        <ele>455.000000</ele>
      </trkpt>
      <trkpt lat="40.121854981" lon="-0.183520010">
        <ele>454.000000</ele>
      </trkpt>
      <trkpt lat="40.121936034" lon="-0.183815975">
        <ele>454.000000</ele>
      </trkpt>
      <trkpt lat="40.121962018" lon="-0.184152005">
        <ele>454.000000</ele>
      </trkpt>
      <trkpt lat="40.121893035" lon="-0.185034033">
        <ele>455.000000</ele>
      </trkpt>
      <trkpt lat="40.121798990" lon="-0.185625963">
        <ele>456.000000</ele>
      </trkpt>
      <trkpt lat="40.121735036" lon="-0.186447976">
        <ele>457.000000</ele>
      </trkpt>
      <trkpt lat="40.121359024" lon="-0.190647980">
        <ele>471.000000</ele>
      </trkpt>
      <trkpt lat="40.121290041" lon="-0.191363040">
        <ele>470.000000</ele>
      </trkpt>
      <trkpt lat="40.121217035" lon="-0.191716002">
        <ele>466.000000</ele>
      </trkpt>
      <trkpt lat="40.121033974" lon="-0.192051027">
        <ele>464.000000</ele>
      </trkpt>
      <trkpt lat="40.120513039" lon="-0.192681011">
        <ele>456.000000</ele>
      </trkpt>
      <trkpt lat="40.120200980" lon="-0.192984017">
        <ele>451.000000</ele>
      </trkpt>
      <trkpt lat="40.119842989" lon="-0.193269001">
        <ele>448.000000</ele>
      </trkpt>
      <trkpt lat="40.118859960" lon="-0.193991018">
        <ele>437.000000</ele>
      </trkpt>
      <trkpt lat="40.118399961" lon="-0.194432996">
        <ele>426.000000</ele>
      </trkpt>
      <trkpt lat="40.118246991" lon="-0.194665007">
        <ele>421.000000</ele>
      </trkpt>
      <trkpt lat="40.118246991" lon="-0.194819989">
        <ele>420.000000</ele>
      </trkpt>
      <trkpt lat="40.118318992" lon="-0.194996009">
        <ele>420.000000</ele>
      </trkpt>
      <trkpt lat="40.118458970" lon="-0.195097011">
        <ele>422.000000</ele>
      </trkpt>
      <trkpt lat="40.118619986" lon="-0.195101034">
        <ele>424.000000</ele>
      </trkpt>
      <trkpt lat="40.118779996" lon="-0.194925014">
        <ele>428.000000</ele>
      </trkpt>
      <trkpt lat="40.118899019" lon="-0.194693003">
        <ele>429.000000</ele>
      </trkpt>
      <trkpt lat="40.119109992" lon="-0.194466021">
        <ele>431.000000</ele>
      </trkpt>
      <trkpt lat="40.119710974" lon="-0.194162009">
        <ele>433.000000</ele>
      </trkpt>
      <trkpt lat="40.120197041" lon="-0.194227975">
        <ele>426.000000</ele>
      </trkpt>
      <trkpt lat="40.120360991" lon="-0.194371976">
        <ele>422.000000</ele>
      </trkpt>
      <trkpt lat="40.120428968" lon="-0.194566017">
        <ele>419.000000</ele>
      </trkpt>
      <trkpt lat="40.120399967" lon="-0.194814038">
        <ele>415.000000</ele>
      </trkpt>
      <trkpt lat="40.120272981" lon="-0.194986034">
        <ele>414.000000</ele>
      </trkpt>
      <trkpt lat="40.120082963" lon="-0.195057029">
        <ele>415.000000</ele>
      </trkpt>
      <trkpt lat="40.119798984" lon="-0.195025010">
        <ele>418.000000</ele>
      </trkpt>
      <trkpt lat="40.119612990" lon="-0.195046971">
        <ele>420.000000</ele>
      </trkpt>
      <trkpt lat="40.119464966" lon="-0.195174040">
        <ele>419.000000</ele>
      </trkpt>
      <trkpt lat="40.119392965" lon="-0.195289040">
        <ele>418.000000</ele>
      </trkpt>
      <trkpt lat="40.119305039" lon="-0.195638984">
        <ele>414.000000</ele>
      </trkpt>
      <trkpt lat="40.119190039" lon="-0.196267962">
        <ele>406.000000</ele>
      </trkpt>
      <trkpt lat="40.119085014" lon="-0.196655961">
        <ele>401.000000</ele>
      </trkpt>
      <trkpt lat="40.118995998" lon="-0.196837010">
        <ele>399.000000</ele>
      </trkpt>
      <trkpt lat="40.118805980" lon="-0.197048988">
        <ele>397.000000</ele>
      </trkpt>
      <trkpt lat="40.118475985" lon="-0.197219979">
        <ele>395.000000</ele>
      </trkpt>
      <trkpt lat="40.118154036" lon="-0.197314024">
        <ele>393.000000</ele>
      </trkpt>
      <trkpt lat="40.116940001" lon="-0.197590040">
        <ele>386.000000</ele>
      </trkpt>
      <trkpt lat="40.116692986" lon="-0.197705040">
        <ele>384.000000</ele>
      </trkpt>
      <trkpt lat="40.116541022" lon="-0.197978960">
        <ele>382.000000</ele>
      </trkpt>
      <trkpt lat="40.115351966" lon="-0.201561972">
        <ele>362.000000</ele>
      </trkpt>
      <trkpt lat="40.115078967" lon="-0.202280972">
        <ele>359.000000</ele>
      </trkpt>
      <trkpt lat="40.114859026" lon="-0.202664025">
        <ele>355.000000</ele>
      </trkpt>
      <trkpt lat="40.114498017" lon="-0.203143973">
        <ele>352.000000</ele>
      </trkpt>
      <trkpt lat="40.113864010" lon="-0.203849981">
        <ele>348.000000</ele>
      </trkpt>
      <trkpt lat="40.113492021" lon="-0.204096995">
        <ele>347.000000</ele>
      </trkpt>
      <trkpt lat="40.111822011" lon="-0.205356041">
        <ele>339.000000</ele>
      </trkpt>
      <trkpt lat="40.110903019" lon="-0.206004968">
        <ele>333.000000</ele>
      </trkpt>
      <trkpt lat="40.109636011" lon="-0.206808960">
        <ele>329.000000</ele>
      </trkpt>
      <trkpt lat="40.109184980" lon="-0.206905017">
        <ele>328.000000</ele>
      </trkpt>
      <trkpt lat="40.107638016" lon="-0.207254039">
        <ele>325.000000</ele>
      </trkpt>
      <trkpt lat="40.107084978" lon="-0.207344983">
        <ele>323.000000</ele>
      </trkpt>
      <trkpt lat="40.106113013" lon="-0.207574982">
        <ele>320.000000</ele>
      </trkpt>
      <trkpt lat="40.105202319" lon="-0.207898524"/>
      <trkpt lat="40.104366895" lon="-0.208039507"/>
      <trkpt lat="40.104474686" lon="-0.209026057"/>
      <trkpt lat="40.104259104" lon="-0.209061261"/>
      <trkpt lat="40.104124323" lon="-0.209519332"/>
      <trkpt lat="40.104151228" lon="-0.210505882"/>
      <trkpt lat="40.103962636" lon="-0.210999073"/>
      <trkpt lat="40.103935646" lon="-0.211633332"/>
      <trkpt lat="40.103423595" lon="-0.212443694"/>
      <trkpt lat="40.103450585" lon="-0.212972173"/>
      <trkpt lat="40.103288898" lon="-0.213113157"/>
      <trkpt lat="40.102372589" lon="-0.213535940"/>
      <trkpt lat="40.101510258" lon="-0.214064419"/>
      <trkpt lat="40.101052104" lon="-0.214205319"/>
      <trkpt lat="40.100674750" lon="-0.213993927"/>
      <trkpt lat="40.099623743" lon="-0.214099623"/>
      <trkpt lat="40.098950006" lon="-0.214487202"/>
      <trkpt lat="40.098626632" lon="-0.215191869"/>
      <trkpt lat="40.098114582" lon="-0.213817824"/>
      <trkpt lat="40.098114582" lon="-0.213782536"/>
      <trkpt lat="40.097306147" lon="-0.212478898"/>
      <trkpt lat="40.096928542" lon="-0.212513516"/>
      <trkpt lat="40.096470388" lon="-0.213711290"/>
      <trkpt lat="40.096551189" lon="-0.214732960"/>
      <trkpt lat="40.096443398" lon="-0.214909147"/>
      <trkpt lat="40.095985243" lon="-0.214662468"/>
      <trkpt lat="40.095661869" lon="-0.213535186"/>
      <trkpt lat="40.094556967" lon="-0.211844137"/>
      <trkpt lat="40.094098812" lon="-0.211527050"/>
      <trkpt lat="40.093883229" lon="-0.209589405"/>
      <trkpt lat="40.093425075" lon="-0.208497327"/>
      <trkpt lat="40.093020815" lon="-0.208532531"/>
      <trkpt lat="40.092697442" lon="-0.208743922"/>
      <trkpt lat="40.091700330" lon="-0.208673431"/>
      <trkpt lat="40.091080489" lon="-0.208990518"/>
      <trkpt lat="40.090622334" lon="-0.208109748"/>
      <trkpt lat="40.088493330" lon="-0.206700582"/>
      <trkpt lat="40.088196862" lon="-0.206841482"/>
      <trkpt lat="40.088088652" lon="-0.207281699"/>
      <trkpt lat="40.087724794" lon="-0.207493091"/>
      <trkpt lat="40.087509211" lon="-0.207880586"/>
      <trkpt lat="40.087617002" lon="-0.208831597"/>
      <trkpt lat="40.087253228" lon="-0.209113397"/>
      <trkpt lat="40.087091457" lon="-0.209553698"/>
      <trkpt lat="40.087078046" lon="-0.209553698"/>
      <trkpt lat="40.087253228" lon="-0.210222993"/>
      <trkpt lat="40.087091457" lon="-0.211455803"/>
      <trkpt lat="40.086862464" lon="-0.211402997"/>
      <trkpt lat="40.086619891" lon="-0.211068308"/>
      <trkpt lat="40.085568884" lon="-0.211596703"/>
      <trkpt lat="40.084450487" lon="-0.211350108"/>
      <trkpt lat="40.083547672" lon="-0.212054607"/>
      <trkpt lat="40.083170319" lon="-0.212107496"/>
      <trkpt lat="40.082429275" lon="-0.211878503"/>
      <trkpt lat="40.081674652" lon="-0.211103596"/>
      <trkpt lat="40.081472313" lon="-0.211244076"/>
      <trkpt lat="40.081431828" lon="-0.211455384"/>
      <trkpt lat="40.081647495" lon="-0.212089391"/>
      <trkpt lat="40.081512714" lon="-0.212423997"/>
      <trkpt lat="40.081135444" lon="-0.212195003"/>
      <trkpt lat="40.081135444" lon="-0.212177401"/>
      <trkpt lat="40.080542509" lon="-0.211490588"/>
      <trkpt lat="40.079963151" lon="-0.211402578"/>
      <trkpt lat="40.078682899" lon="-0.211913036"/>
      <trkpt lat="40.077833980" lon="-0.212705461"/>
      <trkpt lat="40.076702088" lon="-0.213445080"/>
      <trkpt lat="40.076567391" lon="-0.213920502"/>
      <trkpt lat="40.075624092" lon="-0.213920502"/>
      <trkpt lat="40.075462405" lon="-0.214061402"/>
      <trkpt lat="40.075058145" lon="-0.214607315"/>
      <trkpt lat="40.074869553" lon="-0.214307914"/>
      <trkpt lat="40.074600074" lon="-0.213550692"/>
      <trkpt lat="40.074034128" lon="-0.213180883"/>
      <trkpt lat="40.073535657" lon="-0.212616948"/>
      <trkpt lat="40.073171882" lon="-0.212317547"/>
      <trkpt lat="40.072619431" lon="-0.212176731"/>
      <trkpt lat="40.072134286" lon="-0.211067386"/>
      <trkpt lat="40.071932198" lon="-0.210697576"/>
      <trkpt lat="40.071932198" lon="-0.210679974"/>
      <trkpt lat="40.071716616" lon="-0.210239757"/>
      <trkpt lat="40.071393158" lon="-0.208566980"/>
      <trkpt lat="40.071541434" lon="-0.208320469"/>
      <trkpt lat="40.071406653" lon="-0.208161967"/>
      <trkpt lat="40.071298862" lon="-0.207528044"/>
      <trkpt lat="40.071150670" lon="-0.206770906"/>
      <trkpt lat="40.071234908" lon="-0.207452942"/>
      <trkpt lat="40.069411257" lon="-0.207617227"/>
      <trkpt lat="40.067965044" lon="-0.207699453"/>
      <trkpt lat="40.068530906" lon="-0.210739151"/>
      <trkpt lat="40.069159800" lon="-0.213943133"/>
      <trkpt lat="40.068782447" lon="-0.213720594"/>
      <trkpt lat="40.067920117" lon="-0.214248737"/>
      <trkpt lat="40.066518746" lon="-0.214988189"/>
      <trkpt lat="40.065710228" lon="-0.214812169"/>
      <trkpt lat="40.065171272" lon="-0.214600861"/>
      <trkpt lat="40.064605325" lon="-0.214600861"/>
      <trkpt lat="40.063850703" lon="-0.214389637"/>
      <trkpt lat="40.063311746" lon="-0.214248737"/>
      <trkpt lat="40.062341541" lon="-0.214213533"/>
      <trkpt lat="40.061802585" lon="-0.214283941"/>
      <trkpt lat="40.060724588" lon="-0.214460045"/>
      <trkpt lat="40.059754383" lon="-0.214530453"/>
      <trkpt lat="40.058649480" lon="-0.214952985"/>
      <trkpt lat="40.057652369" lon="-0.215446008"/>
      <trkpt lat="40.057032527" lon="-0.215798132"/>
      <trkpt lat="40.056843851" lon="-0.215446008"/>
      <trkpt lat="40.056843851" lon="-0.215410804"/>
      <trkpt lat="40.056682164" lon="-0.215516416"/>
      <trkpt lat="40.056655258" lon="-0.215798132"/>
      <trkpt lat="40.056520477" lon="-0.216150256"/>
      <trkpt lat="40.055604167" lon="-0.216607992"/>
      <trkpt lat="40.055307280" lon="-0.216677142"/>
      <trkpt lat="40.055307280" lon="-0.216888450"/>
      <trkpt lat="40.054552658" lon="-0.217170082"/>
      <trkpt lat="40.053744223" lon="-0.217909366"/>
      <trkpt lat="40.053474745" lon="-0.218648734"/>
      <trkpt lat="40.053178277" lon="-0.219669733"/>
      <trkpt lat="40.052558435" lon="-0.221077977"/>
      <trkpt lat="40.052450644" lon="-0.221394813"/>
      <trkpt lat="40.052315863" lon="-0.221676528"/>
      <trkpt lat="40.052073374" lon="-0.221993364"/>
      <trkpt lat="40.051723011" lon="-0.222943956"/>
      <trkpt lat="40.051130075" lon="-0.223295996"/>
      <trkpt lat="40.050645014" lon="-0.224352200"/>
      <trkpt lat="40.050537223" lon="-0.225584423"/>
      <trkpt lat="40.050132964" lon="-0.226218179"/>
      <trkpt lat="40.049620913" lon="-0.226605423"/>
      <trkpt lat="40.049324529" lon="-0.226851851"/>
      <trkpt lat="40.048515676" lon="-0.226673987"/>
      <trkpt lat="40.047958111" lon="-0.226097312"/>
      <trkpt lat="40.047059739" lon="-0.225921376"/>
      <trkpt lat="40.046655480" lon="-0.225921376"/>
      <trkpt lat="40.045577567" lon="-0.225100033"/>
      <trkpt lat="40.044589425" lon="-0.224630730"/>
      <trkpt lat="40.044140238" lon="-0.224454710"/>
      <trkpt lat="40.043062242" lon="-0.223222738"/>
      <trkpt lat="40.041759694" lon="-0.221873419"/>
      <trkpt lat="40.040636770" lon="-0.220582774"/>
      <trkpt lat="40.039828336" lon="-0.219878778"/>
      <trkpt lat="40.038705412" lon="-0.218236092"/>
      <trkpt lat="40.037896978" lon="-0.216652080"/>
      <trkpt lat="40.037223240" lon="-0.215713475"/>
      <trkpt lat="40.036908751" lon="-0.214774786"/>
      <trkpt lat="40.036594346" lon="-0.214246809"/>
      <trkpt lat="40.035157101" lon="-0.213894770"/>
      <trkpt lat="40.034797769" lon="-0.212017475"/>
      <trkpt lat="40.034393510" lon="-0.210550809"/>
      <trkpt lat="40.033495221" lon="-0.208732188"/>
      <trkpt lat="40.032462152" lon="-0.207265522"/>
      <trkpt lat="40.031833341" lon="-0.205446901"/>
      <trkpt lat="40.031159604" lon="-0.203862889"/>
      <trkpt lat="40.031159604" lon="-0.198934916"/>
      <trkpt lat="40.030800272" lon="-0.198524287"/>
      <trkpt lat="40.028060395" lon="-0.197937638"/>
    </trkseg>
  </trk>
</gpx>
